# Wetter Temperatur Luftdruck Luftfeuchtigkeit Sichtweite Windgeschwindigkeit Windrichtung Zeit
1 Clouds 22 1008 60 10000 2.1 250 09:40 29.01.2020
2 Clouds 22 1008 60 10000 2.1 250 09:21 29.01.2020
3 Rain 22 1008 64 8000 3.1 240 08:57 29.01.2020
4 Rain 22 1008 64 8000 3.1 240 08:38 29.01.2020
5 Rain 23 1008 64 8000 3.1 240 08:20 29.01.2020
6 Clear 23 1007 65 10000 2.6 330 07:44 29.01.2020
7 Clear 24 1007 65 10000 2.6 330 07:24 29.01.2020
8 Clear 24 1006 65 10000 3.6 330 06:39 29.01.2020
9 Clear 25 1006 65 10000 4.1 340 06:21 29.01.2020
10 Clear 25 1006 65 10000 4.1 340 05:55 29.01.2020
11 Clear 25 1006 65 10000 4.1 340 05:36 29.01.2020
12 Clear 25 1005 61 10000 5.1 360 04:49 29.01.2020
13 Clear 25 1005 61 10000 5.1 360 04:49 29.01.2020
14 Clear 25 1005 61 10000 5.1 360 04:25 29.01.2020
15 Clear 25 1006 41 0 4.53 20 02:41 29.01.2020
16 Clear 26 1006 54 10000 3.1 340 01:44 29.01.2020
17 Clear 27 1006 47 10000 3.1 340 00:41 29.01.2020
18 Clear 27 1006 47 10000 3.1 340 00:23 29.01.2020
19 Clear 28 1006 37 10000 4.1 340 23:41 28.01.2020
20 Clear 28 1006 37 10000 4.1 340 23:21 28.01.2020
21 Clear 29 1006 42 10000 4.1 340 22:57 28.01.2020
22 Clear 29 1006 42 10000 4.1 340 22:39 28.01.2020
23 Clear 30 1006 42 10000 4.1 340 22:20 28.01.2020
24 Clear 29 1007 45 10000 4.1 350 21:41 28.01.2020
25 Clear 30 1008 48 10000 4.1 360 21:20 28.01.2020
26 Clear 30 1008 48 10000 4.1 360 20:46 28.01.2020
27 Clear 30 1008 48 10000 4.1 360 20:27 28.01.2020
28 Clear 30 1009 48 10000 3.6 350 19:58 28.01.2020
29 Clear 30 1009 48 10000 3.6 350 19:38 28.01.2020
30 Clear 29 1009 48 10000 3.6 350 19:19 28.01.2020
31 Clear 29 1010 48 10000 4.1 360 18:54 28.01.2020
32 Clear 29 1010 57 10000 3.6 30 18:36 28.01.2020
33 Clear 29 1010 48 10000 4.1 360 18:18 28.01.2020
34 Clear 28 1011 47 10000 4.6 310 17:54 28.01.2020
35 Clear 27 1011 47 10000 4.6 310 17:36 28.01.2020
36 Clear 27 1011 47 10000 4.6 310 17:18 28.01.2020
37 Clear 27 1012 54 10000 3.6 330 16:41 28.01.2020
38 Clear 26 1012 54 10000 3.6 330 16:22 28.01.2020
39 Clear 25 1013 60 10000 4.6 360 15:55 28.01.2020
40 Clear 25 1013 60 10000 4.6 360 15:37 28.01.2020
41 Clear 25 1013 60 10000 4.6 360 15:18 28.01.2020
42 Clear 24 1013 60 10000 4.6 20 14:43 28.01.2020
43 Clear 22 1014 68 10000 4.1 360 14:19 28.01.2020
44 Clear 21 1014 68 10000 4.1 360 13:42 28.01.2020
45 Clear 21 1014 68 10000 4.1 360 13:24 28.01.2020
46 Clear 20 1014 68 10000 4.6 10 12:44 28.01.2020
47 Clear 19 1014 68 10000 4.6 10 12:24 28.01.2020
48 Clear 18 1014 72 10000 4.1 40 11:58 28.01.2020
49 Clear 18 1014 72 10000 4.1 40 11:39 28.01.2020
50 Clear 17 1014 72 10000 4.1 40 11:20 28.01.2020
51 Clear 16 1014 72 10000 4.1 50 10:42 28.01.2020
52 Clear 17 1014 72 10000 4.1 50 10:24 28.01.2020
53 Clear 16 1014 68 10000 5.1 50 09:58 28.01.2020
54 Clear 16 1014 68 10000 5.1 50 09:38 28.01.2020
55 Clear 17 1014 68 10000 5.1 50 09:19 28.01.2020
56 Clear 17 1014 63 10000 6.2 50 08:43 28.01.2020
57 Clear 17 1014 63 10000 6.2 50 08:22 28.01.2020
58 Clear 18 1014 68 10000 5.7 50 07:40 28.01.2020
59 Clear 18 1015 63 10000 6.2 50 06:58 28.01.2020
60 Clear 18 1015 63 10000 6.2 50 06:40 28.01.2020
61 Clear 18 1015 63 10000 6.2 50 06:22 28.01.2020
62 Clouds 18 1015 60 10000 5.7 60 05:34 28.01.2020
63 Clouds 19 1016 64 10000 6.2 60 04:40 28.01.2020
64 Clouds 19 1016 56 10000 5.7 80 03:41 28.01.2020
65 Clouds 20 1016 60 10000 5.7 90 02:40 28.01.2020
66 Clouds 20 1016 60 10000 5.7 90 02:21 28.01.2020
67 Clear 20 1016 52 10000 6.2 100 01:48 28.01.2020
68 Clouds 21 1016 56 10000 6.7 100 00:51 28.01.2020
69 Clouds 21 1016 56 10000 6.7 100 00:30 28.01.2020
70 Clouds 22 1016 53 10000 6.7 100 23:53 27.01.2020
71 Clouds 22 1016 53 10000 6.7 100 23:31 27.01.2020
72 Clouds 22 1016 53 10000 6.7 100 23:31 27.01.2020
73 Clouds 24 1016 53 10000 7.2 100 22:59 27.01.2020
74 Clouds 24 1016 53 10000 7.2 100 22:41 27.01.2020
75 Clouds 24 1016 53 10000 7.2 100 22:20 27.01.2020
76 Clouds 24 1016 49 10000 6.7 100 21:57 27.01.2020
77 Clouds 24 1016 49 10000 6.7 100 21:38 27.01.2020
78 Clouds 25 1016 49 10000 6.7 100 21:18 27.01.2020
79 Clouds 25 1016 50 10000 6.2 100 20:54 27.01.2020
80 Clouds 25 1016 50 10000 6.2 100 20:36 27.01.2020
81 Clear 25 1016 50 10000 6.2 100 20:18 27.01.2020
82 Clear 25 1017 47 10000 6.2 100 19:41 27.01.2020
83 Clear 25 1017 47 10000 6.2 100 19:23 27.01.2020
84 Clear 25 1017 43 10000 6.2 100 18:56 27.01.2020
85 Clear 25 1017 43 10000 6.2 100 18:38 27.01.2020
86 Clear 25 1017 43 10000 6.2 100 18:19 27.01.2020
87 Clear 25 1017 23 0 5.71 67 17:39 27.01.2020
88 Clear 24 1017 46 10000 6.2 100 17:21 27.01.2020
89 Clear 24 1017 46 10000 6.2 100 16:59 27.01.2020
90 Clear 23 1017 46 10000 6.2 100 16:41 27.01.2020
91 Clear 23 1017 46 10000 6.2 100 16:23 27.01.2020
92 Clear 22 1017 46 10000 3.6 190 15:55 27.01.2020
93 Clear 23 1017 46 10000 3.6 190 15:55 27.01.2020
94 Clear 23 1017 46 10000 3.6 190 15:37 27.01.2020
95 Clear 23 1017 46 10000 3.6 190 15:37 27.01.2020
96 Clear 21 1017 46 10000 3.6 190 15:18 27.01.2020
97 Clear 20 1017 49 10000 5.1 170 14:42 27.01.2020
98 Clear 20 1017 49 10000 5.1 170 14:22 27.01.2020
99 Clear 20 1017 49 10000 5.1 170 14:22 27.01.2020
100 Clear 19 1017 55 10000 6.2 150 13:57 27.01.2020
101 Clear 18 1017 55 10000 6.2 150 13:37 27.01.2020
102 Clear 18 1017 55 10000 6.2 150 13:18 27.01.2020
103 Clear 17 1016 59 10000 4.1 170 12:44 27.01.2020
104 Clear 16 1016 59 10000 4.1 170 12:23 27.01.2020
105 Clear 16 1015 59 10000 5.7 160 11:58 27.01.2020
106 Clear 15 1015 59 10000 5.7 160 11:40 27.01.2020
107 Clear 15 1015 59 10000 5.7 160 11:19 27.01.2020
108 Clear 14 1015 59 10000 5.1 170 10:42 27.01.2020
109 Clear 14 1015 59 10000 5.1 170 10:24 27.01.2020
110 Clear 15 1014 59 10000 6.7 160 09:40 27.01.2020
111 Clear 15 1014 59 10000 6.7 160 09:19 27.01.2020
112 Clear 16 1013 55 10000 5.7 160 08:59 27.01.2020
113 Clear 16 1013 55 10000 5.7 160 08:40 27.01.2020
114 Clouds 16 1013 55 10000 5.7 160 08:19 27.01.2020
115 Clouds 16 1013 63 10000 7.2 160 07:52 27.01.2020
116 Clouds 17 1013 63 10000 7.2 160 07:33 27.01.2020
117 Clouds 17 1013 72 10000 5.1 190 06:49 27.01.2020
118 Clouds 19 1013 72 10000 5.7 190 05:53 27.01.2020
119 Clouds 20 1012 60 10000 4.6 170 05:18 27.01.2020
120 Clouds 23 1011 50 10000 8.7 180 03:36 27.01.2020
121 Clouds 28 1007 33 10000 1 0 01:57 27.01.2020
122 Clouds 29 1007 33 10000 1 0 01:28 27.01.2020
123 Clouds 29 1007 33 10000 1 0 01:28 27.01.2020
124 Clear 29 1007 27 10000 2.1 230 00:42 27.01.2020
125 Clear 29 1007 27 10000 2.1 230 00:22 27.01.2020
126 Clear 29 1007 27 10000 2.1 230 00:22 27.01.2020
127 Clear 31 1006 22 10000 3.1 240 23:46 26.01.2020
128 Clear 31 1006 22 10000 3.1 240 23:46 26.01.2020
129 Clear 32 1006 22 10000 3.1 240 23:27 26.01.2020
130 Clear 32 1006 21 10000 2.6 220 22:59 26.01.2020
131 Clear 32 1006 21 10000 2.6 220 22:39 26.01.2020
132 Clear 33 1006 21 10000 2.6 220 22:20 26.01.2020
133 Clear 33 1007 26 10000 3.1 210 21:58 26.01.2020
134 Clear 33 1007 26 10000 3.1 210 21:39 26.01.2020
135 Clear 32 1007 26 10000 3.1 210 21:21 26.01.2020
136 Clear 32 1007 27 10000 3.6 210 20:58 26.01.2020
137 Clear 32 1007 27 10000 3.6 210 20:38 26.01.2020
138 Clouds 32 1007 27 10000 3.6 210 20:19 26.01.2020
139 Clouds 32 1007 29 10000 3.6 220 19:58 26.01.2020
140 Clouds 32 1007 29 10000 3.6 220 19:38 26.01.2020
141 Clouds 32 1007 29 10000 3.6 220 19:38 26.01.2020
142 Clouds 32 1007 29 10000 3.6 220 19:19 26.01.2020
143 Clouds 31 1007 27 10000 3.1 190 18:56 26.01.2020
144 Clouds 31 1007 27 10000 3.1 190 18:38 26.01.2020
145 Clouds 31 1007 27 10000 3.1 190 18:19 26.01.2020
146 Clouds 31 1007 31 10000 3.6 190 17:55 26.01.2020
147 Clouds 30 1007 31 10000 3.6 190 17:36 26.01.2020
148 Clear 30 1007 31 10000 3.6 190 17:18 26.01.2020
149 Clear 30 1007 35 10000 4.1 230 16:55 26.01.2020
150 Clear 30 1007 35 10000 4.1 230 16:37 26.01.2020
151 Clear 29 1007 35 10000 4.1 230 16:18 26.01.2020
152 Clear 30 1008 37 0 4.57 206 15:42 26.01.2020
153 Clear 29 1008 38 0 4.57 206 15:19 26.01.2020
154 Clear 29 1008 39 0 4.57 206 14:55 26.01.2020
155 Clear 28 1008 40 0 4.57 206 14:37 26.01.2020
156 Clear 27 1023 52 0 1.34 239 14:18 26.01.2020
157 Clear 27 1008 41 0 2.98 203 13:38 26.01.2020
158 Clear 26 1008 41 0 1.84 142 13:18 26.01.2020
159 Clear 25 1023 66 0 1.34 191 12:43 26.01.2020
160 Clear 25 1023 66 0 1.34 191 12:43 26.01.2020
161 Clear 25 1007 41 0 1.84 142 12:25 26.01.2020
162 Clear 25 1007 41 0 1.84 142 11:59 26.01.2020
163 Clear 24 1007 42 0 1.84 142 11:40 26.01.2020
164 Clear 22 1005 73 10000 1 0 11:19 26.01.2020
165 Clear 21 1005 73 10000 1 0 10:59 26.01.2020
166 Clear 21 1005 73 10000 1 0 10:39 26.01.2020
167 Clear 20 1006 88 10000 1.5 210 10:21 26.01.2020
168 Clear 21 1005 82 10000 1.5 170 09:58 26.01.2020
169 Clear 22 1005 73 10000 1 270 09:40 26.01.2020
170 Clear 22 1005 73 10000 1 270 09:40 26.01.2020
171 Clear 22 1005 73 10000 1 270 09:21 26.01.2020
172 Clear 22 1005 78 10000 2.6 240 08:44 26.01.2020
173 Clouds 23 1005 78 10000 2.6 240 08:23 26.01.2020
174 Clouds 23 1005 69 10000 4.1 360 07:58 26.01.2020
175 Clouds 23 1005 69 10000 4.1 360 07:39 26.01.2020
176 Clouds 24 1005 69 10000 4.1 360 07:21 26.01.2020
177 Clouds 25 1006 65 10000 3.6 20 06:31 26.01.2020
178 Clouds 25 1006 65 10000 4.6 50 05:32 26.01.2020
179 Clouds 25 1006 65 10000 4.6 50 05:32 26.01.2020
180 Clear 26 1006 69 10000 5.1 70 04:45 26.01.2020
181 Clear 26 1006 69 10000 5.7 90 02:54 26.01.2020
182 Clouds 26 1005 83 10000 7.2 100 01:49 26.01.2020
183 Clear 27 1005 83 10000 7.2 100 01:25 26.01.2020
184 Clouds 27 1005 88 10000 6.7 100 00:53 26.01.2020
185 Clouds 28 1005 88 10000 6.7 100 00:31 26.01.2020
186 Clear 31 1005 44 0 4.01 73 23:41 25.01.2020
187 Clear 32 1005 43 0 5.51 94 23:23 25.01.2020
188 Clear 33 1005 42 0 5.51 94 22:59 25.01.2020
189 Clear 34 1005 43 0 5.51 94 22:40 25.01.2020
190 Clear 34 1005 37 0 5.51 94 22:19 25.01.2020
191 Clear 35 1020 63 0 3.58 127 21:57 25.01.2020
192 Clear 36 1020 31 0 1.34 217 21:38 25.01.2020
193 Clear 36 1020 30 0 2.24 261 21:19 25.01.2020
194 Clear 31 1003 45 0 5.51 94 20:44 25.01.2020
195 Clear 35 1021 28 0 2.24 262 20:25 25.01.2020
196 Clear 36 1021 31 0 1.34 263 19:55 25.01.2020
197 Clear 35 1022 33 0 0.89 250 19:37 25.01.2020
198 Clear 35 1021 30 0 0.45 242 19:18 25.01.2020
199 Clear 35 1021 31 0 2.24 313 18:41 25.01.2020
200 Clear 35 1021 31 0 0.45 258 18:21 25.01.2020
201 Clear 35 1022 33 0 1.79 188 17:57 25.01.2020
202 Clear 34 1022 31 0 1.79 186 17:37 25.01.2020
203 Clear 34 1022 31 0 1.79 186 17:37 25.01.2020
204 Clear 34 1022 34 0 1.79 215 17:18 25.01.2020
205 Clear 33 1007 40 0 2.37 161 16:42 25.01.2020
206 Clear 33 1007 41 0 2.37 161 16:23 25.01.2020
207 Clear 32 1007 41 0 2.37 161 15:56 25.01.2020
208 Clear 32 1007 42 0 2.37 161 15:38 25.01.2020
209 Clear 31 1007 43 0 2.37 161 15:19 25.01.2020
210 Clear 30 1007 44 0 2.37 161 14:41 25.01.2020
211 Clear 29 1007 44 0 2.33 274 14:19 25.01.2020
212 Clear 28 1022 68 0 1.34 295 13:44 25.01.2020
213 Clear 27 1022 69 0 2.24 306 13:25 25.01.2020
214 Clear 27 1007 43 0 2.08 265 12:50 25.01.2020
215 Clouds 26 1006 69 10000 2.1 300 12:30 25.01.2020
216 Clouds 25 1006 69 10000 2.1 300 11:54 25.01.2020
217 Clouds 24 1006 69 10000 2.1 300 11:36 25.01.2020
218 Clouds 24 1006 69 10000 2.1 300 11:18 25.01.2020
219 Clouds 24 1006 69 10000 2.1 270 10:40 25.01.2020
220 Clouds 24 1006 69 10000 2.1 270 10:21 25.01.2020
221 Thunderstorm 24 1006 73 8000 1.5 260 09:57 25.01.2020
222 Thunderstorm 24 1006 73 3000 2.1 200 09:37 25.01.2020
223 Rain 24 1005 69 9000 2.6 300 09:18 25.01.2020
224 Clouds 25 1006 57 10000 3.6 290 08:42 25.01.2020
225 Clouds 25 1006 57 10000 3.6 300 07:51 25.01.2020
226 Clouds 25 1007 57 10000 3.1 300 06:57 25.01.2020
227 Clouds 25 1007 57 10000 3.1 300 06:29 25.01.2020
228 Clouds 25 1007 54 10000 3.6 310 05:48 25.01.2020
229 Clouds 26 1007 54 10000 3.6 310 05:28 25.01.2020
230 Clouds 26 1008 61 10000 4.1 310 03:54 25.01.2020
231 Clouds 26 1008 61 10000 4.1 310 03:22 25.01.2020
232 Clouds 27 1007 69 10000 3.1 310 02:22 25.01.2020
233 Clouds 28 1007 62 10000 4.1 333 01:52 25.01.2020
234 Clouds 29 1007 58 10000 5.1 330 00:44 25.01.2020
235 Clouds 29 1007 58 10000 5.1 330 00:26 25.01.2020
236 Clouds 30 1007 55 10000 5.7 340 23:58 24.01.2020
237 Clouds 31 1007 55 10000 5.7 340 23:40 24.01.2020
238 Clouds 31 1007 55 10000 5.7 340 23:40 24.01.2020
239 Clear 31 1007 55 10000 5.7 340 23:22 24.01.2020
240 Clear 31 1007 52 10000 5.7 330 22:44 24.01.2020
241 Clear 31 1007 52 10000 5.7 330 22:25 24.01.2020
242 Clear 32 1008 48 10000 5.1 350 21:43 24.01.2020
243 Clear 32 1008 48 10000 5.1 350 21:21 24.01.2020
244 Clear 32 1008 48 10000 5.1 350 21:21 24.01.2020
245 Clear 32 1008 49 10000 4.6 300 20:57 24.01.2020
246 Clear 32 1008 55 10000 5.1 360 20:39 24.01.2020
247 Clouds 32 1008 55 10000 5.1 360 20:20 24.01.2020
248 Clouds 32 1009 51 10000 5.7 350 19:57 24.01.2020
249 Clouds 32 1009 51 10000 5.7 350 19:38 24.01.2020
250 Clouds 32 1009 51 10000 5.7 350 19:20 24.01.2020
251 Clouds 32 1010 51 10000 5.1 350 18:43 24.01.2020
252 Clouds 32 1010 51 10000 5.1 350 18:23 24.01.2020
253 Clouds 31 1011 48 10000 4.6 333 17:46 24.01.2020
254 Clouds 30 1012 61 10000 4.1 360 17:23 24.01.2020
255 Clouds 30 1012 61 10000 4.1 360 16:58 24.01.2020
256 Clouds 30 1012 61 10000 4.1 360 16:39 24.01.2020
257 Clouds 30 1012 61 10000 4.1 360 16:19 24.01.2020
258 Clouds 29 1012 65 10000 5.1 350 15:42 24.01.2020
259 Clouds 29 1012 65 10000 5.1 350 15:22 24.01.2020
260 Clouds 28 1012 69 10000 4.1 340 14:55 24.01.2020
261 Clouds 27 1012 69 10000 4.1 340 14:37 24.01.2020
262 Clouds 27 1012 69 10000 4.1 340 14:19 24.01.2020
263 Clouds 26 1012 78 10000 5.7 340 13:41 24.01.2020
264 Clouds 25 1012 78 10000 5.7 340 13:22 24.01.2020
265 Clouds 25 1012 78 10000 5.7 340 13:22 24.01.2020
266 Clouds 24 1012 73 10000 7.7 350 12:43 24.01.2020
267 Clouds 24 1012 73 10000 7.7 350 12:21 24.01.2020
268 Clouds 23 1012 78 10000 7.2 350 11:45 24.01.2020
269 Clouds 22 1012 78 10000 7.2 350 11:19 24.01.2020
270 Clouds 22 1012 78 10000 7.7 360 10:58 24.01.2020
271 Clouds 22 1012 78 10000 7.7 360 10:40 24.01.2020
272 Clouds 22 1012 69 10000 5.1 10 10:19 24.01.2020
273 Clouds 22 1012 69 10000 5.1 10 09:41 24.01.2020
274 Clouds 23 1012 69 10000 5.1 10 09:23 24.01.2020
275 Clouds 23 1013 65 10000 3.6 320 08:41 24.01.2020
276 Clear 23 1013 65 10000 3.6 320 08:21 24.01.2020
277 Clear 23 1013 61 10000 4.6 330 07:59 24.01.2020
278 Clear 23 1013 61 10000 4.6 330 07:39 24.01.2020
279 Clear 23 1013 57 10000 5.7 350 06:54 24.01.2020
280 Clear 24 1013 57 10000 5.7 350 06:33 24.01.2020
281 Clear 24 1013 74 10000 5.1 350 05:59 24.01.2020
282 Clear 24 1013 74 10000 5.1 350 05:18 24.01.2020
283 Clear 25 1012 83 10000 5.1 100 02:54 24.01.2020
284 Clear 26 1012 83 10000 5.1 100 02:27 24.01.2020
285 Clear 26 1012 78 10000 4.6 100 01:53 24.01.2020
286 Clear 26 1012 78 10000 4.6 100 01:33 24.01.2020
287 Clear 28 1011 65 10000 4.1 100 00:31 24.01.2020
288 Clear 28 1012 69 10000 4.6 100 23:56 23.01.2020
289 Clear 29 1012 69 10000 4.6 100 23:37 23.01.2020
290 Clear 29 1012 69 10000 4.6 100 23:18 23.01.2020
291 Clear 30 1012 61 10000 3.6 80 22:39 23.01.2020
292 Clear 30 1012 61 10000 3.6 80 22:19 23.01.2020
293 Clear 31 1012 61 10000 3.6 60 21:58 23.01.2020
294 Clear 31 1012 61 10000 3.6 60 21:39 23.01.2020
295 Clear 31 1012 61 10000 3.6 60 21:20 23.01.2020
296 Clear 31 1013 61 10000 3.1 30 20:59 23.01.2020
297 Clear 31 1013 61 10000 3.1 30 20:38 23.01.2020
298 Clear 31 1013 61 10000 3.1 30 20:19 23.01.2020
299 Clear 31 1014 61 10000 3.6 50 20:19 23.01.2020
300 Clouds 31 1013 51 10000 5.1 60 19:56 23.01.2020
301 Clouds 31 1013 51 10000 5.1 60 19:38 23.01.2020
302 Clouds 31 1013 51 10000 5.1 60 19:19 23.01.2020
303 Clouds 31 1014 55 10000 5.1 60 18:42 23.01.2020
304 Clouds 31 1014 55 10000 5.1 60 18:20 23.01.2020
305 Clouds 31 1015 58 10000 3.6 340 17:58 23.01.2020
306 Clouds 30 1015 58 10000 3.6 340 17:40 23.01.2020
307 Clouds 30 1015 58 10000 3.6 340 17:19 23.01.2020
308 Clouds 29 1015 65 10000 2.6 0 16:55 23.01.2020
309 Clouds 29 1015 65 10000 2.6 0 16:36 23.01.2020
310 Clouds 29 1015 65 10000 2.6 0 16:18 23.01.2020
311 Clear 29 1016 74 10000 3.6 360 15:54 23.01.2020
312 Clear 28 1016 78 10000 2.6 360 15:36 23.01.2020
313 Clear 28 1016 74 10000 3.6 360 15:18 23.01.2020
314 Clouds 28 1016 78 10000 4.1 360 14:54 23.01.2020
315 Clouds 27 1016 78 10000 4.1 360 14:36 23.01.2020
316 Clouds 27 1016 78 10000 4.1 360 14:18 23.01.2020
317 Clouds 26 1016 78 10000 4.1 360 13:38 23.01.2020
318 Clouds 25 1016 78 10000 4.1 360 13:19 23.01.2020
319 Clouds 24 1016 78 10000 3.6 10 12:47 23.01.2020
320 Clouds 24 1016 78 10000 3.6 10 12:25 23.01.2020
321 Clouds 24 1016 78 10000 3.6 10 12:25 23.01.2020
322 Clouds 24 1016 78 10000 3.6 10 12:25 23.01.2020
323 Clear 23 1016 78 10000 4.6 10 11:58 23.01.2020
324 Clear 23 1016 78 10000 4.6 10 11:38 23.01.2020
325 Clear 23 1016 78 10000 4.6 10 11:19 23.01.2020
326 Clear 22 1015 73 10000 3.6 20 10:44 23.01.2020
327 Clear 22 1015 73 10000 3.6 20 10:22 23.01.2020
328 Clear 22 1015 73 10000 4.6 10 09:59 23.01.2020
329 Clear 22 1015 73 10000 4.6 10 09:37 23.01.2020
330 Clear 23 1015 73 10000 4.6 10 09:19 23.01.2020
331 Clear 23 1015 73 10000 4.1 20 08:41 23.01.2020
332 Clear 23 1015 73 10000 4.1 20 08:22 23.01.2020
333 Clear 23 1015 73 10000 4.6 40 07:45 23.01.2020
334 Clear 23 1015 73 10000 4.6 40 07:26 23.01.2020
335 Clear 23 1015 78 10000 2.1 50 06:53 23.01.2020
336 Clear 23 1015 83 10000 4.1 50 06:23 23.01.2020
337 Clear 23 1015 83 10000 4.1 90 05:57 23.01.2020
338 Clear 24 1015 73 10000 7.2 110 04:24 23.01.2020
339 Clear 25 1015 73 10000 7.7 120 02:34 23.01.2020
340 Clear 25 1014 78 10000 8.7 120 01:33 23.01.2020
341 Clear 26 1013 83 10000 8.2 110 00:27 23.01.2020
342 Clear 27 1013 78 10000 7.2 120 23:48 22.01.2020
343 Clear 28 1013 78 10000 7.2 120 23:30 22.01.2020
344 Clouds 29 1013 78 10000 7.7 100 22:59 22.01.2020
345 Clouds 29 1013 78 10000 7.7 100 22:40 22.01.2020
346 Clouds 29 1013 78 10000 7.7 100 22:22 22.01.2020
347 Clouds 30 1013 69 10000 6.7 100 21:40 22.01.2020
348 Clouds 30 1013 69 10000 6.7 100 21:22 22.01.2020
349 Clouds 30 1013 65 10000 6.7 100 20:57 22.01.2020
350 Clouds 30 1013 65 10000 6.7 100 20:37 22.01.2020
351 Clouds 30 1013 65 10000 6.7 100 20:19 22.01.2020
352 Clouds 30 1014 65 10000 6.2 110 19:56 22.01.2020
353 Clouds 30 1014 65 10000 6.2 110 19:37 22.01.2020
354 Clouds 30 1014 65 10000 6.2 110 19:18 22.01.2020
355 Clouds 29 1014 74 10000 5.7 100 18:56 22.01.2020
356 Clouds 29 1014 74 10000 5.7 100 18:37 22.01.2020
357 Clouds 29 1014 74 10000 5.7 100 18:19 22.01.2020
358 Clouds 29 1015 74 10000 6.2 100 17:40 22.01.2020
359 Clouds 28 1015 74 10000 6.2 100 17:21 22.01.2020
360 Clouds 29 1015 74 10000 6.2 100 16:58 22.01.2020
361 Clouds 28 1015 74 10000 6.2 100 16:39 22.01.2020
362 Clouds 28 1015 74 10000 6.2 100 16:21 22.01.2020
363 Clouds 27 1014 74 10000 6.7 100 15:56 22.01.2020
364 Clouds 28 1014 74 10000 6.7 100 15:38 22.01.2020
365 Clouds 27 1014 74 10000 6.7 100 15:18 22.01.2020
366 Clouds 26 1014 78 10000 5.7 100 14:39 22.01.2020
367 Clouds 26 1014 78 10000 5.7 100 14:20 22.01.2020
368 Clouds 26 1014 74 10000 6.2 100 13:58 22.01.2020
369 Clouds 26 1014 74 10000 6.2 100 13:37 22.01.2020
370 Clouds 26 1014 74 10000 6.2 100 13:19 22.01.2020
371 Clouds 25 1013 78 10000 7.2 100 12:57 22.01.2020
372 Clouds 25 1013 78 10000 7.2 100 12:39 22.01.2020
373 Clouds 25 1013 73 10000 6.2 100 12:19 22.01.2020
374 Clouds 24 1013 73 10000 6.2 100 11:57 22.01.2020
375 Clouds 23 1013 73 10000 6.2 100 11:39 22.01.2020
376 Clouds 23 1013 73 10000 6.2 100 11:19 22.01.2020
377 Clouds 22 1012 83 10000 5.1 70 10:45 22.01.2020
378 Clouds 22 1012 83 10000 5.1 70 10:21 22.01.2020
379 Clouds 22 1012 83 10000 5.1 70 10:21 22.01.2020
380 Clouds 22 1012 88 10000 3.6 60 09:58 22.01.2020
381 Clouds 22 1012 88 10000 3.6 60 09:40 22.01.2020
382 Clouds 22 1012 88 10000 3.6 60 09:21 22.01.2020
383 Clouds 23 1011 83 10000 3.1 150 08:55 22.01.2020
384 Clouds 23 1011 83 10000 3.1 150 08:37 22.01.2020
385 Clouds 22 1011 83 10000 3.1 150 08:19 22.01.2020
386 Clouds 22 1011 83 10000 3.1 150 08:19 22.01.2020
387 Clouds 22 1011 88 10000 3.6 140 07:44 22.01.2020
388 Clouds 22 1011 88 10000 3.6 140 07:26 22.01.2020
389 Clouds 22 1011 88 10000 3.6 150 06:34 22.01.2020
390 Clouds 23 1011 83 10000 3.1 140 05:54 22.01.2020
391 Clouds 23 1011 83 10000 4.1 140 04:25 22.01.2020
392 Clouds 23 1011 83 10000 4.1 140 03:26 22.01.2020
393 Clouds 24 1011 83 10000 3.6 150 02:42 22.01.2020
394 Clouds 24 1010 83 10000 7.2 130 00:47 22.01.2020
395 Clouds 25 1010 83 10000 7.2 130 00:27 22.01.2020
396 Clouds 25 1009 78 10000 7.2 120 23:57 21.01.2020
397 Clouds 26 1009 78 10000 7.2 120 23:37 21.01.2020
398 Clouds 26 1009 78 10000 7.2 120 23:18 21.01.2020
399 Rain 27 1009 88 9000 6.2 110 22:40 21.01.2020
400 Rain 27 1009 88 9000 6.2 110 22:21 21.01.2020
401 Rain 27 1010 88 9000 4.6 120 21:57 21.01.2020
402 Rain 27 1010 88 9000 4.6 120 21:38 21.01.2020
403 Rain 27 1010 88 9000 4.6 120 21:20 21.01.2020
404 Clouds 28 1010 74 10000 3.6 100 20:56 21.01.2020
405 Clouds 28 1010 74 10000 3.6 100 20:37 21.01.2020
406 Clouds 28 1010 74 10000 3.6 100 20:19 21.01.2020
407 Clouds 27 1011 69 10000 1.5 170 19:56 21.01.2020
408 Clouds 27 1011 69 10000 1.5 170 19:37 21.01.2020
409 Clouds 27 1011 69 10000 1.5 170 19:19 21.01.2020
410 Rain 27 1011 74 8000 2.1 180 18:55 21.01.2020
411 Rain 27 1011 69 9000 1 170 18:37 21.01.2020
412 Rain 26 1011 69 9000 1 170 18:18 21.01.2020
413 Clouds 26 1010 74 10000 3.6 160 17:44 21.01.2020
414 Clouds 26 1010 74 10000 3.6 160 17:20 21.01.2020
415 Rain 25 1010 83 9000 5.1 140 16:59 21.01.2020
416 Rain 25 1010 83 9000 5.1 140 16:37 21.01.2020
417 Rain 25 1010 83 9000 5.1 140 16:18 21.01.2020
418 Clouds 24 1010 74 10000 3.6 110 15:42 21.01.2020
419 Clouds 24 1010 74 10000 3.6 110 15:21 21.01.2020
420 Rain 23 1010 78 9000 1.5 0 14:59 21.01.2020
421 Rain 23 1010 78 9000 1.5 0 14:37 21.01.2020
422 Rain 23 1010 94 5000 2.1 140 14:19 21.01.2020
423 Rain 23 1010 94 9000 2.1 170 13:40 21.01.2020
424 Rain 22 1010 94 9000 2.1 170 13:19 21.01.2020
425 Thunderstorm 22 1011 94 4500 2.1 270 12:43 21.01.2020
426 Thunderstorm 22 1011 94 4500 2.1 270 12:25 21.01.2020
427 Thunderstorm 23 1012 88 800 5.1 20 11:57 21.01.2020
428 Clouds 24 1009 83 10000 2.6 260 11:38 21.01.2020
429 Clouds 24 1009 83 10000 2.6 260 11:20 21.01.2020
430 Thunderstorm 24 1009 83 3000 7.7 340 10:44 21.01.2020
431 Clouds 24 1008 78 10000 1.5 250 10:24 21.01.2020
432 Clouds 24 1008 74 10000 2.6 250 09:59 21.01.2020
433 Clouds 24 1008 74 10000 2.6 250 09:41 21.01.2020
434 Clouds 24 1008 74 10000 2.6 250 09:22 21.01.2020
435 Clouds 24 1008 74 10000 2.6 250 09:22 21.01.2020
436 Rain 24 1008 83 10000 1.5 270 08:48 21.01.2020
437 Clouds 24 1008 83 10000 1.5 270 08:28 21.01.2020
438 Clouds 25 1007 83 10000 2.6 30 07:57 21.01.2020
439 Clouds 25 1007 83 10000 2.6 30 07:38 21.01.2020
440 Clouds 25 1007 83 10000 2.6 30 07:19 21.01.2020
441 Clouds 25 1008 88 10000 4.6 110 06:45 21.01.2020
442 Clouds 26 1007 94 10000 3.1 90 06:23 21.01.2020
443 Clouds 26 1007 94 10000 3.1 90 06:23 21.01.2020
444 Clouds 26 1009 69 10000 1 70 05:41 21.01.2020
445 Clear 26 1008 74 10000 1 230 04:39 21.01.2020
446 Clear 27 1009 78 10000 1.5 10 02:54 21.01.2020
447 Clouds 27 1008 78 10000 3.6 340 01:47 21.01.2020
448 Clear 28 1008 69 10000 2.6 340 00:52 21.01.2020
449 Clear 28 1008 69 10000 2.6 340 00:29 21.01.2020
450 Clouds 29 1007 74 10000 4.1 330 23:57 20.01.2020
451 Clouds 29 1007 74 10000 4.1 330 23:36 20.01.2020
452 Clouds 29 1007 74 10000 4.1 330 23:36 20.01.2020
453 Clouds 30 1007 74 10000 4.1 330 23:18 20.01.2020
454 Clouds 31 1007 62 10000 2.1 20 22:55 20.01.2020
455 Clouds 31 1007 62 10000 2.1 20 22:36 20.01.2020
456 Clouds 31 1007 62 10000 2.1 20 22:18 20.01.2020
457 Thunderstorm 31 1004 83 5000 6.2 110 21:54 20.01.2020
458 Thunderstorm 31 1004 83 5000 6.2 110 21:36 20.01.2020
459 Thunderstorm 31 1004 83 5000 6.2 110 21:18 20.01.2020
460 Clouds 32 1008 58 10000 5.7 110 20:42 20.01.2020
461 Clouds 33 1008 58 10000 5.7 110 20:20 20.01.2020
462 Clouds 33 1009 55 10000 5.1 100 19:59 20.01.2020
463 Clouds 33 1009 55 10000 5.1 100 19:40 20.01.2020
464 Clouds 34 1009 55 10000 5.1 100 19:19 20.01.2020
465 Clouds 33 1009 70 10000 3.6 80 18:55 20.01.2020
466 Clouds 33 1009 70 10000 3.6 80 18:37 20.01.2020
467 Clouds 34 1009 66 10000 3.6 120 18:19 20.01.2020
468 Clouds 33 1009 66 10000 3.6 120 17:38 20.01.2020
469 Clouds 33 1010 62 10000 2.6 90 17:19 20.01.2020
470 Clouds 33 1010 62 10000 2.6 90 16:46 20.01.2020
471 Clouds 33 1010 62 10000 2.6 90 16:26 20.01.2020
472 Clear 33 1011 62 10000 3.6 50 15:59 20.01.2020
473 Clear 33 1011 62 10000 3.6 50 15:40 20.01.2020
474 Clear 33 1011 62 10000 3.6 50 15:21 20.01.2020
475 Clear 32 1010 66 10000 4.1 90 14:56 20.01.2020
476 Clear 32 1010 58 10000 2.1 40 14:37 20.01.2020
477 Clear 32 1010 66 10000 4.1 90 14:19 20.01.2020
478 Clear 31 1010 74 10000 2.6 110 13:42 20.01.2020
479 Clear 30 1010 74 10000 2.6 110 13:23 20.01.2020
480 Clear 29 1010 74 10000 3.1 90 12:56 20.01.2020
481 Clear 28 1010 74 10000 3.1 90 12:38 20.01.2020
482 Clear 28 1010 74 10000 3.1 90 12:19 20.01.2020
483 Clear 27 1009 83 10000 2.6 120 11:43 20.01.2020
484 Clear 26 1009 83 10000 2.6 120 11:24 20.01.2020
485 Clear 25 1009 88 10000 3.1 130 10:57 20.01.2020
486 Clear 25 1009 88 10000 3.1 130 10:39 20.01.2020
487 Clear 25 1009 88 10000 3.1 130 10:19 20.01.2020
488 Clear 25 1009 88 10000 3.1 120 09:41 20.01.2020
489 Clear 25 1009 88 10000 3.1 120 09:41 20.01.2020
490 Clear 25 1009 88 10000 2.6 110 09:21 20.01.2020
491 Clear 25 1009 88 10000 2.6 110 08:49 20.01.2020
492 Clouds 25 1009 88 10000 2.6 110 08:30 20.01.2020
493 Clouds 26 1010 83 10000 1.5 130 07:54 20.01.2020
494 Clouds 26 1010 83 10000 1.5 130 07:30 20.01.2020
495 Clouds 26 1010 83 10000 2.6 120 06:59 20.01.2020
496 Clouds 26 1010 83 10000 2.6 120 06:30 20.01.2020
497 Clouds 26 1010 83 10000 2.6 120 05:44 20.01.2020
498 Clouds 26 1010 83 10000 2.6 120 05:25 20.01.2020
499 Clouds 27 1010 83 10000 3.6 110 04:49 20.01.2020
500 Clouds 27 1010 74 10000 4.1 120 02:59 20.01.2020
501 Clouds 27 1010 74 10000 4.1 120 02:59 20.01.2020
502 Clouds 28 1009 74 10000 4.1 110 01:57 20.01.2020
503 Clouds 28 1009 74 10000 4.1 110 01:37 20.01.2020
504 Clouds 29 1009 69 10000 4.1 110 00:45 20.01.2020
505 Clouds 30 1009 69 10000 4.1 110 00:25 20.01.2020
506 Clouds 31 1009 74 10000 3.6 110 23:40 19.01.2020
507 Clouds 31 1009 74 10000 3.6 110 23:20 19.01.2020
508 Clouds 32 1009 70 10000 5.1 110 22:57 19.01.2020
509 Clouds 32 1009 70 10000 5.1 110 22:39 19.01.2020
510 Clouds 32 1009 70 10000 5.1 110 22:39 19.01.2020
511 Clouds 32 1009 70 10000 5.1 110 22:20 19.01.2020
512 Clouds 32 1009 70 10000 5.1 110 22:20 19.01.2020
513 Clouds 32 1009 66 10000 4.1 90 21:57 19.01.2020
514 Clouds 33 1009 66 10000 4.1 90 21:38 19.01.2020
515 Clouds 33 1009 66 10000 4.1 90 21:20 19.01.2020
516 Clouds 33 1010 55 10000 2.6 70 20:57 19.01.2020
517 Clouds 33 1010 55 10000 2.6 70 20:39 19.01.2020
518 Clouds 33 1010 55 10000 2.6 70 20:20 19.01.2020
519 Clouds 33 1010 55 10000 5.1 70 19:57 19.01.2020
520 Clouds 33 1010 55 10000 5.1 70 19:39 19.01.2020
521 Clouds 33 1010 55 10000 5.1 70 19:20 19.01.2020
522 Clouds 32 1011 58 10000 4.6 70 18:56 19.01.2020
523 Clouds 32 1011 58 10000 4.6 70 18:38 19.01.2020
524 Clouds 32 1011 58 10000 4.6 70 18:38 19.01.2020
525 Clouds 32 1011 62 10000 3.1 60 18:20 19.01.2020
526 Clouds 32 1011 55 10000 3.1 20 17:58 19.01.2020
527 Clouds 32 1011 55 10000 3.1 20 17:58 19.01.2020
528 Clouds 32 1011 55 10000 3.1 20 17:39 19.01.2020
529 Clouds 32 1011 55 10000 3.1 20 17:20 19.01.2020
530 Clouds 31 1012 58 10000 3.1 360 16:58 19.01.2020
531 Clouds 31 1012 58 10000 3.1 360 16:38 19.01.2020
532 Clouds 31 1012 58 10000 3.1 360 16:20 19.01.2020
533 Clouds 30 1013 58 10000 2.6 20 15:58 19.01.2020
534 Clouds 30 1013 58 10000 2.6 20 15:37 19.01.2020
535 Clouds 30 1013 58 10000 2.6 20 15:19 19.01.2020
536 Clouds 29 1014 65 10000 2.6 30 14:57 19.01.2020
537 Clouds 29 1014 65 10000 2.6 30 14:38 19.01.2020
538 Clouds 28 1013 57 10000 3.1 360 14:18 19.01.2020
539 Clouds 27 1014 61 10000 2.6 50 13:55 19.01.2020
540 Clouds 27 1014 61 10000 2.6 50 13:37 19.01.2020
541 Clouds 27 1014 61 10000 2.6 50 13:18 19.01.2020
542 Clouds 26 1014 61 10000 2.6 50 12:42 19.01.2020
543 Clouds 25 1014 61 10000 2.6 50 12:23 19.01.2020
544 Clouds 24 1014 61 10000 3.6 40 11:58 19.01.2020
545 Clouds 24 1014 61 10000 3.6 40 11:39 19.01.2020
546 Clouds 23 1014 61 10000 3.6 40 11:20 19.01.2020
547 Clouds 22 1013 61 10000 2.1 20 10:55 19.01.2020
548 Clouds 22 1013 61 10000 2.1 20 10:37 19.01.2020
549 Clouds 22 1013 61 10000 2.1 20 10:18 19.01.2020
550 Clouds 22 1013 65 10000 2.6 40 09:41 19.01.2020
551 Clouds 22 1013 65 10000 2.6 40 09:23 19.01.2020
552 Clouds 22 1013 65 10000 2.6 30 08:57 19.01.2020
553 Clouds 22 1013 65 10000 2.6 30 08:38 19.01.2020
554 Clouds 23 1013 65 10000 2.6 30 08:20 19.01.2020
555 Clouds 23 1013 65 10000 2.1 20 07:30 19.01.2020
556 Clouds 23 1014 73 10000 2.1 80 06:56 19.01.2020
557 Clouds 24 1014 73 10000 2.1 80 06:25 19.01.2020
558 Clouds 25 1015 69 10000 4.6 110 04:39 19.01.2020
559 Clouds 25 1014 69 10000 3.6 100 02:36 19.01.2020
560 Clouds 25 1014 69 10000 5.1 110 01:58 19.01.2020
561 Clouds 26 1014 69 10000 5.1 110 01:24 19.01.2020
562 Clouds 27 1014 54 10000 4.1 100 00:45 19.01.2020
563 Clouds 27 1013 45 10000 1 20 00:26 19.01.2020
564 Clouds 28 1013 45 10000 1 20 23:55 18.01.2020
565 Clouds 28 1013 45 10000 1 20 23:36 18.01.2020
566 Clouds 29 1013 45 10000 1 20 23:18 18.01.2020
567 Clouds 29 1014 45 10000 1.5 50 22:43 18.01.2020
568 Clouds 29 1014 45 10000 1.5 50 22:24 18.01.2020
569 Clouds 30 1014 45 10000 2.6 30 21:58 18.01.2020
570 Clouds 29 1014 45 10000 2.6 30 21:39 18.01.2020
571 Clouds 30 1014 45 10000 2.6 30 21:21 18.01.2020
572 Clouds 30 1015 48 10000 3.6 40 20:59 18.01.2020
573 Clouds 30 1015 48 10000 3.6 40 20:41 18.01.2020
574 Clouds 29 1015 48 10000 3.6 40 20:19 18.01.2020
575 Clouds 29 1015 45 10000 3.6 40 19:43 18.01.2020
576 Clouds 29 1015 45 10000 3.6 40 19:25 18.01.2020
577 Clouds 29 1016 47 10000 3.1 30 18:55 18.01.2020
578 Clouds 29 1016 47 10000 3.1 30 18:36 18.01.2020
579 Clouds 29 1017 50 10000 3.6 360 18:18 18.01.2020
580 Clouds 28 1017 50 10000 3.6 360 17:41 18.01.2020
581 Clouds 29 1016 39 10000 4.6 340 17:21 18.01.2020
582 Clouds 28 1017 50 10000 4.1 350 16:57 18.01.2020
583 Clouds 28 1017 50 10000 4.1 350 16:38 18.01.2020
584 Clouds 27 1017 50 10000 4.1 350 16:19 18.01.2020
585 Clouds 27 1017 50 10000 5.1 350 16:19 18.01.2020
586 Clouds 27 1017 44 10000 6.2 360 15:47 18.01.2020
587 Clouds 27 1017 44 10000 6.2 360 15:47 18.01.2020
588 Clouds 27 1017 50 10000 5.1 350 15:26 18.01.2020
589 Clouds 26 1017 57 10000 6.2 350 14:59 18.01.2020
590 Clouds 26 1017 57 10000 6.2 350 14:40 18.01.2020
591 Clouds 25 1017 57 10000 6.2 350 14:19 18.01.2020
592 Clouds 25 1018 60 10000 5.1 360 13:56 18.01.2020
593 Clouds 24 1018 60 10000 5.1 360 13:36 18.01.2020
594 Clouds 24 1018 60 10000 5.1 360 13:18 18.01.2020
595 Clouds 24 1018 60 10000 5.1 360 13:18 18.01.2020
596 Clouds 23 1018 60 10000 4.6 360 12:41 18.01.2020
597 Clouds 22 1018 60 10000 4.6 360 12:21 18.01.2020
598 Clouds 22 1017 60 10000 4.1 360 11:56 18.01.2020
599 Clouds 22 1017 60 10000 4.1 360 11:37 18.01.2020
600 Clouds 21 1017 60 10000 4.1 360 11:19 18.01.2020
601 Clouds 20 1017 64 10000 3.6 360 10:41 18.01.2020
602 Clouds 20 1017 64 10000 3.6 360 10:20 18.01.2020
603 Clouds 20 1017 64 10000 3.1 10 09:50 18.01.2020
604 Clouds 20 1017 64 10000 3.1 10 09:32 18.01.2020
605 Clouds 20 1017 60 10000 2.1 10 08:58 18.01.2020
606 Clouds 20 1017 60 10000 2.1 10 08:39 18.01.2020
607 Clear 20 1017 60 10000 2.1 10 08:19 18.01.2020
608 Clear 21 1018 60 10000 4.6 50 07:52 18.01.2020
609 Clear 21 1018 60 10000 4.6 50 07:32 18.01.2020
610 Clear 21 1018 60 10000 5.1 50 06:48 18.01.2020
611 Clear 21 1018 56 10000 5.7 60 05:59 18.01.2020
612 Clear 21 1018 56 10000 5.7 60 05:24 18.01.2020
613 Clear 22 1019 49 10000 5.7 70 02:56 18.01.2020
614 Clear 23 1018 56 10000 4.1 80 01:56 18.01.2020
615 Clear 23 1018 56 10000 4.1 80 01:35 18.01.2020
616 Clear 24 1018 60 10000 4.1 90 00:37 18.01.2020
617 Clear 24 1018 60 10000 4.1 90 00:18 18.01.2020
618 Clear 24 1018 60 10000 4.1 90 00:18 18.01.2020
619 Clear 24 1018 53 10000 4.6 80 00:18 18.01.2020
620 Clear 25 1018 53 10000 4.6 80 23:41 17.01.2020
621 Clear 25 1018 53 10000 4.6 80 23:20 17.01.2020
622 Clouds 26 1018 53 10000 3.1 60 22:45 17.01.2020
623 Clouds 27 1018 53 10000 3.1 60 22:22 17.01.2020
624 Clouds 27 1019 50 10000 3.6 50 21:59 17.01.2020
625 Clouds 26 1019 50 10000 3.6 50 21:41 17.01.2020
626 Clouds 26 1019 50 10000 3.6 50 21:22 17.01.2020
627 Clouds 27 1020 50 10000 3.1 40 20:57 17.01.2020
628 Clouds 27 1019 51 10000 4.6 70 20:38 17.01.2020
629 Clouds 27 1020 50 10000 3.1 40 20:20 17.01.2020
630 Clouds 26 1020 53 10000 3.1 50 19:55 17.01.2020
631 Clouds 26 1020 53 10000 3.1 50 19:37 17.01.2020
632 Clouds 26 1020 53 10000 3.1 50 19:18 17.01.2020
633 Clouds 26 1021 56 10000 3.1 40 18:45 17.01.2020
634 Clouds 26 1021 56 10000 3.1 40 18:27 17.01.2020
635 Clouds 26 1022 53 10000 3.1 20 17:56 17.01.2020
636 Clouds 25 1022 53 10000 3.1 20 17:38 17.01.2020
637 Clouds 25 1022 53 10000 3.1 20 17:20 17.01.2020
638 Clouds 25 1022 57 10000 3.6 30 16:42 17.01.2020
639 Clouds 25 1022 57 10000 3.6 30 16:42 17.01.2020
640 Clouds 24 1022 53 10000 3.1 20 16:20 17.01.2020
641 Clouds 25 1023 60 10000 4.1 30 15:48 17.01.2020
642 Clouds 24 1023 60 10000 4.1 30 15:28 17.01.2020
643 Clouds 24 1023 60 10000 3.6 30 14:56 17.01.2020
644 Clouds 23 1023 60 10000 3.6 30 14:38 17.01.2020
645 Clouds 23 1023 60 10000 3.6 30 14:20 17.01.2020
646 Clouds 22 1023 64 10000 4.6 40 13:39 17.01.2020
647 Clouds 21 1023 64 10000 4.6 40 13:21 17.01.2020
648 Clouds 21 1023 64 10000 4.6 40 13:21 17.01.2020
649 Clouds 20 1022 64 10000 4.6 60 12:45 17.01.2020
650 Clouds 19 1022 64 10000 4.6 60 12:23 17.01.2020
651 Clouds 18 1022 72 10000 5.1 60 11:41 17.01.2020
652 Clouds 17 1022 72 10000 5.1 60 11:19 17.01.2020
653 Clouds 16 1021 68 10000 3.1 130 10:54 17.01.2020
654 Clouds 16 1021 68 10000 3.1 130 10:54 17.01.2020
655 Clouds 16 1021 68 10000 3.1 130 10:54 17.01.2020
656 Clouds 16 1021 68 10000 3.1 130 10:36 17.01.2020
657 Clouds 15 1021 68 10000 3.1 130 10:18 17.01.2020
658 Clear 15 1021 68 10000 3.1 140 09:41 17.01.2020
659 Clear 16 1021 68 10000 3.1 140 09:20 17.01.2020
660 Clear 16 1021 37 10000 6.7 140 08:55 17.01.2020
661 Clear 16 1021 37 10000 6.7 140 08:36 17.01.2020
662 Clear 16 1021 37 10000 6.7 140 08:18 17.01.2020
663 Clear 16 1021 37 10000 6.7 140 07:42 17.01.2020
664 Clear 16 1021 45 10000 3.1 130 07:24 17.01.2020
665 Clear 17 1021 42 10000 3.6 120 06:43 17.01.2020
666 Clear 17 1021 42 10000 3.6 120 06:20 17.01.2020
667 Clear 18 1037 44 0 3.14 205 04:25 17.01.2020
668 Clear 19 1036 45 0 3.14 205 02:55 17.01.2020
669 Clear 20 1036 46 0 3.14 205 02:28 17.01.2020
670 Clear 21 1036 44 0 0.45 186 01:32 17.01.2020
671 Clear 21 1036 42 0 0.73 130 00:55 17.01.2020
672 Clear 23 1019 29 10000 3.6 230 00:28 17.01.2020
673 Clear 24 1019 29 10000 3.6 230 23:50 16.01.2020
674 Clear 25 1019 29 10000 3.6 230 23:26 16.01.2020
675 Clear 25 1019 26 10000 2.6 0 22:58 16.01.2020
676 Clear 25 1019 26 10000 2.6 0 22:40 16.01.2020
677 Clear 25 1019 26 10000 2.6 0 22:21 16.01.2020
678 Clear 25 1019 24 10000 4.1 250 21:55 16.01.2020
679 Clear 25 1019 24 10000 4.1 250 21:37 16.01.2020
680 Clear 25 1019 25 10000 3.6 280 21:18 16.01.2020
681 Clear 25 1019 24 10000 4.1 250 21:18 16.01.2020
682 Clear 25 1019 25 10000 3.6 280 20:56 16.01.2020
683 Clear 25 1019 27 10000 6.7 250 20:36 16.01.2020
684 Clear 25 1019 27 10000 4.6 250 20:18 16.01.2020
685 Clear 25 1019 27 10000 4.6 250 19:41 16.01.2020
686 Clear 24 1019 35 10000 4.1 20 19:22 16.01.2020
687 Clear 24 1020 35 10000 4.1 20 18:57 16.01.2020
688 Clear 24 1020 35 10000 4.1 20 18:39 16.01.2020
689 Clear 24 1020 35 10000 4.1 20 18:20 16.01.2020
690 Clear 24 1020 33 10000 3.6 40 17:59 16.01.2020
691 Clear 24 1020 33 10000 3.6 40 17:40 16.01.2020
692 Clear 24 1020 33 10000 3.6 40 17:20 16.01.2020
693 Clear 23 1020 30 10000 3.6 50 16:42 16.01.2020
694 Clear 23 1020 30 10000 3.6 50 16:24 16.01.2020
695 Clear 23 1020 32 10000 4.1 90 15:59 16.01.2020
696 Clear 22 1020 32 10000 4.1 90 15:39 16.01.2020
697 Clear 22 1020 32 10000 4.1 90 15:20 16.01.2020
698 Clear 21 1019 23 10000 3.1 140 14:45 16.01.2020
699 Clear 21 1019 23 10000 3.1 140 14:24 16.01.2020
700 Clear 20 1020 25 10000 4.6 140 13:56 16.01.2020
701 Clear 20 1020 25 10000 4.6 140 13:37 16.01.2020
702 Clear 19 1020 23 10000 4.6 140 13:19 16.01.2020
703 Clear 19 1019 23 10000 5.1 130 12:42 16.01.2020
704 Clear 18 1019 23 10000 5.1 130 12:22 16.01.2020
705 Clear 17 1018 31 10000 3.1 150 11:43 16.01.2020
706 Clear 15 1018 31 10000 3.1 150 11:24 16.01.2020
707 Clear 15 1017 51 10000 2.1 170 10:59 16.01.2020
708 Clear 14 1017 51 10000 2.1 170 10:38 16.01.2020
709 Clear 13 1017 51 10000 2.1 170 10:20 16.01.2020
710 Clear 14 1016 48 10000 2.6 140 09:44 16.01.2020
711 Clear 14 1016 48 10000 2.6 140 09:24 16.01.2020
712 Clear 14 1016 41 10000 4.1 140 08:59 16.01.2020
713 Clear 14 1016 41 10000 4.1 140 08:41 16.01.2020
714 Clear 14 1016 41 10000 4.1 140 08:20 16.01.2020
715 Clear 15 1016 39 10000 5.7 140 07:43 16.01.2020
716 Clear 15 1016 39 10000 5.7 140 07:24 16.01.2020
717 Clear 16 1016 42 10000 6.7 140 06:55 16.01.2020
718 Clear 16 1016 42 10000 6.7 140 06:35 16.01.2020
719 Clear 16 1015 45 10000 7.7 130 05:51 16.01.2020
720 Clear 18 1014 40 10000 5.7 150 04:51 16.01.2020
721 Clear 19 1014 40 10000 5.7 150 04:21 16.01.2020
722 Clear 19 1012 43 10000 6.2 140 03:27 16.01.2020
723 Clouds 21 1010 40 10000 3.6 160 02:23 16.01.2020
724 Clouds 24 1007 47 10000 2.1 180 00:44 16.01.2020
725 Clouds 24 1007 47 10000 2.1 180 00:23 16.01.2020
726 Clouds 25 1006 44 10000 3.1 160 23:45 15.01.2020
727 Clouds 26 1006 44 10000 3.1 160 23:22 15.01.2020
728 Clouds 27 1006 45 10000 3.1 180 22:57 15.01.2020
729 Clouds 27 1006 45 10000 3.1 180 22:38 15.01.2020
730 Clouds 27 1006 45 10000 3.1 180 22:18 15.01.2020
731 Clouds 27 1005 54 10000 3.1 170 21:56 15.01.2020
732 Clouds 28 1005 54 10000 3.1 170 21:37 15.01.2020
733 Clouds 28 1005 54 10000 3.1 170 21:37 15.01.2020
734 Clouds 28 1005 54 10000 3.1 170 21:18 15.01.2020
735 Clouds 27 1005 61 10000 3.6 190 20:55 15.01.2020
736 Clouds 27 1005 61 10000 3.6 190 20:37 15.01.2020
737 Clouds 27 1005 61 10000 3.6 190 20:18 15.01.2020
738 Clouds 27 1005 65 10000 2.6 230 19:54 15.01.2020
739 Clouds 27 1005 65 10000 2.6 230 19:36 15.01.2020
740 Clouds 27 1005 65 10000 2.6 230 19:18 15.01.2020
741 Clouds 27 1005 65 10000 2.6 230 19:18 15.01.2020
742 Clouds 27 1004 74 10000 3.6 240 18:55 15.01.2020
743 Clouds 27 1004 74 10000 3.6 240 18:37 15.01.2020
744 Clouds 26 1004 74 10000 3.6 240 18:19 15.01.2020
745 Clouds 25 1004 88 10000 2.1 240 17:41 15.01.2020
746 Clouds 25 1004 88 10000 2.1 240 17:22 15.01.2020
747 Clouds 24 1004 94 10000 2.1 250 16:57 15.01.2020
748 Clouds 23 1004 94 10000 2.1 250 16:38 15.01.2020
749 Clouds 23 1004 94 10000 2.1 250 16:20 15.01.2020
750 Clouds 22 1004 94 10000 2.1 250 16:20 15.01.2020
751 Clouds 22 1004 94 10000 2.1 250 16:20 15.01.2020
752 Clouds 22 1003 94 10000 1.5 210 15:43 15.01.2020
753 Clouds 22 1003 94 10000 1.5 210 15:21 15.01.2020
754 Clouds 22 1003 94 10000 3.6 230 14:57 15.01.2020
755 Rain 22 1001 88 9000 3.6 80 14:39 15.01.2020
756 Thunderstorm 21 1003 94 9000 3.6 230 14:18 15.01.2020
757 Thunderstorm 21 1003 94 5000 3.1 220 13:44 15.01.2020
758 Thunderstorm 21 1002 94 5000 3.1 360 13:44 15.01.2020
759 Thunderstorm 21 1002 94 5000 3.1 360 13:23 15.01.2020
760 Thunderstorm 21 1002 94 5000 1.5 120 12:56 15.01.2020
761 Thunderstorm 21 1003 94 3000 2.1 220 12:37 15.01.2020
762 Thunderstorm 21 1003 94 3000 2.1 220 12:19 15.01.2020
763 Thunderstorm 21 1003 94 5000 2.1 260 11:54 15.01.2020
764 Thunderstorm 21 1002 88 3800 1.5 250 11:36 15.01.2020
765 Thunderstorm 21 1002 88 3800 1.5 250 11:18 15.01.2020
766 Thunderstorm 21 1002 88 2000 2.6 200 10:41 15.01.2020
767 Thunderstorm 21 1002 88 2000 2.6 200 10:21 15.01.2020
768 Thunderstorm 21 999 94 1500 6.7 210 09:41 15.01.2020
769 Thunderstorm 23 999 94 3000 3.1 340 09:22 15.01.2020
770 Clouds 25 1001 88 10000 2.1 350 08:45 15.01.2020
771 Clouds 25 1001 88 10000 2.1 350 08:27 15.01.2020
772 Thunderstorm 26 1003 88 10000 1.5 340 07:56 15.01.2020
773 Rain 26 1002 94 10000 3.28 338 07:35 15.01.2020
774 Rain 26 1003 88 10000 1.5 60 06:57 15.01.2020
775 Rain 26 1003 88 10000 1.5 60 06:57 15.01.2020
776 Rain 26 1003 88 10000 1.5 60 06:38 15.01.2020
777 Rain 26 1004 88 10000 1.5 80 05:43 15.01.2020
778 Rain 26 1004 88 10000 1 220 03:35 15.01.2020
779 Rain 27 1003 78 10000 1.62 228 01:49 15.01.2020
780 Rain 27 1003 78 10000 1.62 228 01:22 15.01.2020
781 Clouds 28 1003 83 10000 2.1 60 00:37 15.01.2020
782 Clouds 28 1003 83 10000 2.1 60 00:19 15.01.2020
783 Clouds 29 1004 74 10000 2.1 20 23:47 14.01.2020
784 Clouds 30 1004 74 10000 2.1 20 23:28 14.01.2020
785 Clouds 30 1004 66 10000 4.6 360 22:57 14.01.2020
786 Clouds 30 1004 74 10000 2.6 10 22:39 14.01.2020
787 Clouds 30 1004 74 10000 2.6 10 22:18 14.01.2020
788 Clouds 30 1005 74 10000 3.1 340 21:57 14.01.2020
789 Clouds 31 1004 66 10000 3.6 360 21:38 14.01.2020
790 Clouds 30 1005 74 10000 3.1 340 21:19 14.01.2020
791 Clouds 29 1005 74 10000 4.1 10 20:43 14.01.2020
792 Clouds 28 1005 78 10000 3.6 40 20:23 14.01.2020
793 Clouds 28 1005 78 10000 3.6 40 19:57 14.01.2020
794 Clouds 28 1005 78 10000 3.6 40 19:39 14.01.2020
795 Clouds 27 1005 78 10000 3.6 40 19:20 14.01.2020
796 Clouds 25 1006 88 10000 7.2 60 18:59 14.01.2020
797 Rain 22 1004 94 8000 9.3 60 18:40 14.01.2020
798 Rain 22 1004 94 8000 9.3 60 18:19 14.01.2020
799 Rain 22 1010 88 9000 3.1 50 17:39 14.01.2020
800 Rain 22 1010 88 9000 3.1 50 17:20 14.01.2020
801 Thunderstorm 22 1010 94 6000 2.6 20 16:59 14.01.2020
802 Rain 22 1011 88 9000 1 0 16:41 14.01.2020
803 Rain 22 1011 88 9000 1 0 16:21 14.01.2020
804 Rain 23 1011 88 9000 1 220 15:55 14.01.2020
805 Thunderstorm 22 1011 94 4000 1.5 170 15:37 14.01.2020
806 Thunderstorm 22 1011 94 4000 1.5 170 15:18 14.01.2020
807 Thunderstorm 23 1011 88 5000 3.1 190 14:43 14.01.2020
808 Thunderstorm 23 1011 88 5000 3.1 190 14:20 14.01.2020
809 Clouds 24 1009 73 10000 4.6 40 13:43 14.01.2020
810 Clouds 24 1009 73 10000 4.6 40 13:20 14.01.2020
811 Clouds 24 1009 73 10000 4.1 30 12:59 14.01.2020
812 Clouds 24 1009 73 10000 4.1 30 12:40 14.01.2020
813 Clouds 24 1009 73 10000 4.1 30 12:20 14.01.2020
814 Clouds 24 1009 73 10000 4.1 30 12:20 14.01.2020
815 Clouds 23 1009 73 10000 5.1 10 11:43 14.01.2020
816 Clouds 23 1009 73 10000 5.1 10 11:23 14.01.2020
817 Clouds 23 1009 73 10000 5.1 10 11:23 14.01.2020
818 Rain 23 1009 73 10000 4.1 20 10:58 14.01.2020
819 Rain 23 1009 73 10000 4.1 20 10:39 14.01.2020
820 Rain 23 1009 73 10000 4.1 20 10:19 14.01.2020
821 Rain 23 1009 73 10000 4.1 20 10:19 14.01.2020
822 Clouds 23 1009 69 10000 4.6 30 09:56 14.01.2020
823 Clouds 23 1009 69 10000 4.6 30 09:38 14.01.2020
824 Clouds 23 1009 69 10000 4.6 30 09:20 14.01.2020
825 Clouds 23 1009 73 10000 4.1 40 08:42 14.01.2020
826 Clear 24 1009 73 10000 4.1 40 08:23 14.01.2020
827 Clear 24 1010 65 10000 5.7 40 07:53 14.01.2020
828 Clear 24 1010 65 10000 5.7 40 07:31 14.01.2020
829 Clear 25 1010 65 10000 6.7 40 06:50 14.01.2020
830 Clear 25 1010 65 10000 6.7 40 06:23 14.01.2020
831 Clear 25 1011 69 10000 5.1 70 04:58 14.01.2020
832 Clear 25 1012 78 10000 7.7 100 03:48 14.01.2020
833 Clear 24 1012 83 10000 8.2 130 02:41 14.01.2020
834 Clouds 25 1011 83 10000 8.2 110 01:34 14.01.2020
835 Clouds 25 1011 73 10000 9.3 130 00:49 14.01.2020
836 Clouds 26 1011 73 10000 9.3 130 00:26 14.01.2020
837 Clouds 26 1011 73 10000 10.3 130 23:47 13.01.2020
838 Clouds 27 1011 73 10000 10.3 130 23:19 13.01.2020
839 Clouds 28 1011 65 10000 8.7 120 22:58 13.01.2020
840 Clouds 28 1011 65 10000 8.7 120 22:39 13.01.2020
841 Clouds 29 1011 65 10000 8.7 120 22:20 13.01.2020
842 Clouds 29 1012 65 10000 8.7 120 21:56 13.01.2020
843 Clouds 29 1012 65 10000 8.7 120 21:37 13.01.2020
844 Clouds 30 1012 65 10000 8.7 120 21:18 13.01.2020
845 Clouds 29 1013 54 10000 8.7 110 20:56 13.01.2020
846 Clouds 29 1013 54 10000 8.7 110 20:38 13.01.2020
847 Clouds 30 1013 54 10000 8.7 110 20:19 13.01.2020
848 Clouds 30 1013 51 10000 9.3 110 19:41 13.01.2020
849 Clouds 30 1013 51 10000 9.3 110 19:21 13.01.2020
850 Clouds 29 1014 47 10000 8.2 100 18:59 13.01.2020
851 Clouds 30 1014 47 10000 8.2 100 18:40 13.01.2020
852 Clouds 30 1014 47 10000 8.2 100 18:20 13.01.2020
853 Clouds 29 1015 44 10000 6.7 110 18:20 13.01.2020
854 Clouds 29 1015 44 10000 6.7 110 18:20 13.01.2020
855 Clouds 30 1014 47 10000 8.2 100 18:20 13.01.2020
856 Clouds 29 1015 44 10000 6.7 110 17:58 13.01.2020
857 Clouds 29 1015 44 10000 6.7 110 17:39 13.01.2020
858 Clear 28 1015 44 10000 6.7 110 17:20 13.01.2020
859 Clear 29 1016 28 0 5.03 93 16:43 13.01.2020
860 Clear 28 1016 28 0 5.03 93 16:24 13.01.2020
861 Clear 28 1016 26 0 5.03 93 15:59 13.01.2020
862 Clear 27 1017 26 0 5.03 93 15:41 13.01.2020
863 Clear 27 1017 26 0 5.03 93 15:21 13.01.2020
864 Clear 27 1017 25 0 5.03 93 14:44 13.01.2020
865 Clear 26 1017 26 0 6.42 75 14:26 13.01.2020
866 Clear 26 1017 26 0 6.42 75 13:59 13.01.2020
867 Clear 25 1017 26 0 6.42 75 13:40 13.01.2020
868 Clear 25 1018 25 0 6.51 77 13:22 13.01.2020
869 Clear 25 1018 25 0 6.51 77 12:57 13.01.2020
870 Clear 24 1018 26 0 6.51 77 12:39 13.01.2020
871 Clear 23 1017 43 10000 7.7 80 12:21 13.01.2020
872 Clear 22 1017 68 10000 6.7 60 11:40 13.01.2020
873 Clear 21 1017 68 10000 6.7 60 11:20 13.01.2020
874 Clear 21 1017 60 10000 7.2 70 10:57 13.01.2020
875 Clear 20 1017 60 10000 7.2 70 10:39 13.01.2020
876 Clear 20 1017 60 10000 7.2 70 10:39 13.01.2020
877 Clear 20 1017 60 10000 7.2 70 10:20 13.01.2020
878 Clear 20 1017 68 10000 7.2 70 09:56 13.01.2020
879 Clear 20 1017 68 10000 7.2 70 09:38 13.01.2020
880 Clear 20 1017 68 10000 7.2 70 09:19 13.01.2020
881 Clear 20 1017 68 10000 6.7 70 08:39 13.01.2020
882 Clear 20 1017 68 10000 6.7 70 08:20 13.01.2020
883 Clear 20 1017 60 10000 7.2 90 07:46 13.01.2020
884 Clear 20 1017 60 10000 7.2 90 07:27 13.01.2020
885 Clear 21 1017 64 10000 7.7 80 06:42 13.01.2020
886 Clear 21 1017 64 10000 7.7 80 06:19 13.01.2020
887 Clear 21 1017 60 10000 9.8 100 05:22 13.01.2020
888 Clear 22 1017 53 10000 10.3 110 03:52 13.01.2020
889 Clear 22 1016 53 10000 11.8 110 03:22 13.01.2020
890 Clear 22 1016 53 10000 11.8 110 02:39 13.01.2020
891 Clouds 23 1016 53 10000 11.8 110 02:18 13.01.2020
892 Clouds 24 1016 53 10000 10.8 120 01:18 13.01.2020
893 Clouds 24 1015 65 10000 8.2 100 00:40 13.01.2020
894 Clouds 25 1015 65 10000 8.2 100 00:21 13.01.2020
895 Clouds 25 1015 47 10000 11.3 120 23:41 12.01.2020
896 Clouds 26 1015 47 10000 11.3 120 23:23 12.01.2020
897 Clouds 27 1015 57 10000 11.8 110 22:57 12.01.2020
898 Clouds 27 1015 57 10000 11.8 110 22:39 12.01.2020
899 Clouds 28 1015 57 10000 11.8 110 22:21 12.01.2020
900 Clouds 28 1015 44 10000 9.3 100 21:55 12.01.2020
901 Clouds 29 1015 44 10000 9.3 100 21:37 12.01.2020
902 Clouds 29 1015 44 10000 9.3 100 21:19 12.01.2020
903 Clouds 30 1015 39 10000 8.2 100 20:55 12.01.2020
904 Clouds 29 1015 39 10000 8.2 100 20:37 12.01.2020
905 Clouds 30 1015 39 10000 8.2 100 20:19 12.01.2020
906 Clouds 30 1016 54 10000 6.7 100 19:54 12.01.2020
907 Clouds 30 1016 54 10000 6.7 100 19:54 12.01.2020
908 Clouds 30 1016 54 10000 6.7 100 19:36 12.01.2020
909 Clouds 31 1016 54 10000 6.7 100 19:18 12.01.2020
910 Clouds 31 1016 61 10000 6.2 100 18:54 12.01.2020
911 Clouds 30 1016 61 10000 6.2 100 18:36 12.01.2020
912 Clouds 31 1016 61 10000 6.2 100 18:18 12.01.2020
913 Clouds 30 1016 61 10000 7.2 110 17:42 12.01.2020
914 Clouds 29 1016 61 10000 7.2 110 17:20 12.01.2020
915 Clouds 29 1017 65 10000 7.2 100 16:57 12.01.2020
916 Clouds 29 1017 65 10000 7.2 100 16:37 12.01.2020
917 Clouds 29 1017 65 10000 7.2 100 16:19 12.01.2020
918 Clouds 29 1017 69 10000 7.2 100 15:43 12.01.2020
919 Clouds 28 1017 69 10000 7.2 100 15:25 12.01.2020
920 Clouds 28 1017 65 10000 6.7 110 14:57 12.01.2020
921 Clouds 28 1017 65 10000 6.7 110 14:38 12.01.2020
922 Clouds 26 1016 69 10000 6.7 130 14:20 12.01.2020
923 Clouds 26 1016 69 10000 6.7 130 13:54 12.01.2020
924 Clouds 26 1016 69 10000 6.7 130 13:36 12.01.2020
925 Clear 25 1016 69 10000 6.7 130 13:18 12.01.2020
926 Clear 25 1016 69 10000 6.7 130 13:18 12.01.2020
927 Clear 24 1016 69 10000 5.1 130 12:43 12.01.2020
928 Clear 24 1016 69 10000 5.1 130 12:20 12.01.2020
929 Clear 22 1015 73 10000 4.6 130 11:59 12.01.2020
930 Clear 22 1015 73 10000 4.6 130 11:59 12.01.2020
931 Clear 22 1015 73 10000 4.6 130 11:39 12.01.2020
932 Clear 21 1015 73 10000 4.6 130 11:20 12.01.2020
933 Clear 19 1015 73 10000 7.2 140 10:42 12.01.2020
934 Clear 20 1015 73 10000 7.2 140 10:22 12.01.2020
935 Clouds 20 1014 68 10000 5.1 140 09:57 12.01.2020
936 Clouds 20 1014 68 10000 5.1 140 09:39 12.01.2020
937 Clouds 20 1014 68 10000 5.1 140 09:20 12.01.2020
938 Clouds 21 1013 56 10000 3.1 150 08:45 12.01.2020
939 Clouds 21 1013 56 10000 3.1 150 08:21 12.01.2020
940 Clear 22 1013 69 10000 2.6 360 07:42 12.01.2020
941 Clear 22 1013 69 10000 2.6 360 07:24 12.01.2020
942 Clear 23 1012 65 10000 1 160 06:48 12.01.2020
943 Clear 24 1012 65 10000 1 160 06:30 12.01.2020
944 Rain 25 1012 74 9000 2.1 10 05:32 12.01.2020
945 Clear 25 1013 65 10000 1 20 04:30 12.01.2020
946 Clear 26 1012 51 10000 2.98 134 03:25 12.01.2020
947 Clear 27 1012 45 10000 2.1 150 02:34 12.01.2020
948 Clear 27 1010 57 10000 2.1 80 01:51 12.01.2020
949 Clear 27 1010 57 10000 2.1 80 01:29 12.01.2020
950 Clouds 28 1010 54 10000 1.5 50 00:41 12.01.2020
951 Clouds 29 1010 54 10000 1.5 50 00:20 12.01.2020
952 Clouds 29 1010 54 10000 1.5 50 00:20 12.01.2020
953 Clouds 30 1009 48 10000 3.6 80 23:42 11.01.2020
954 Clouds 30 1009 48 10000 3.6 80 23:20 11.01.2020
955 Clouds 31 1009 51 10000 4.1 80 22:58 11.01.2020
956 Clouds 32 1009 51 10000 4.1 80 22:40 11.01.2020
957 Clouds 32 1009 51 10000 4.1 80 22:20 11.01.2020
958 Clouds 32 1009 48 10000 4.6 60 21:58 11.01.2020
959 Clouds 32 1009 48 10000 4.6 60 21:39 11.01.2020
960 Clouds 32 1009 48 10000 4.6 60 21:39 11.01.2020
961 Clouds 32 1009 48 10000 4.6 60 21:18 11.01.2020
962 Clouds 32 1010 51 10000 3.6 60 20:40 11.01.2020
963 Clouds 32 1010 51 10000 3.6 60 20:22 11.01.2020
964 Clouds 32 1011 55 10000 3.6 60 19:58 11.01.2020
965 Clouds 32 1011 55 10000 3.6 60 19:39 11.01.2020
966 Clouds 32 1011 54 10000 3.1 20 19:21 11.01.2020
967 Clouds 32 1011 55 10000 3.6 0 18:58 11.01.2020
968 Clouds 31 1012 61 10000 3.6 30 18:38 11.01.2020
969 Clouds 31 1012 65 10000 3.1 30 18:19 11.01.2020
970 Clouds 31 1012 62 10000 3.6 40 17:57 11.01.2020
971 Clouds 31 1012 62 10000 3.6 40 17:39 11.01.2020
972 Clouds 31 1012 62 10000 3.6 40 17:19 11.01.2020
973 Clouds 30 1013 62 10000 4.1 50 16:44 11.01.2020
974 Clouds 30 1013 62 10000 4.1 50 16:26 11.01.2020
975 Clouds 29 1013 61 10000 2.6 70 15:58 11.01.2020
976 Clouds 29 1013 36 10000 2.6 20 15:40 11.01.2020
977 Clouds 29 1013 36 10000 2.6 20 15:20 11.01.2020
978 Clouds 29 1013 65 10000 2.6 60 14:56 11.01.2020
979 Clouds 28 1013 65 10000 2.6 60 14:38 11.01.2020
980 Clouds 28 1013 65 10000 2.6 60 14:19 11.01.2020
981 Clouds 27 1013 73 10000 3.6 100 13:39 11.01.2020
982 Clouds 25 1013 73 10000 3.6 100 13:20 11.01.2020
983 Clear 25 1013 73 10000 3.1 130 12:56 11.01.2020
984 Clear 24 1013 73 10000 3.1 130 12:38 11.01.2020
985 Clear 24 1013 73 10000 3.1 130 12:20 11.01.2020
986 Clear 22 1012 73 10000 2.1 140 11:45 11.01.2020
987 Clear 21 1012 73 10000 2.1 140 11:24 11.01.2020
988 Clear 18 1012 77 10000 3.1 130 10:50 11.01.2020
989 Clear 17 1012 77 10000 3.1 130 10:30 11.01.2020
990 Clear 18 1012 82 10000 3.1 120 09:55 11.01.2020
991 Clear 18 1012 82 10000 3.1 120 09:37 11.01.2020
992 Clear 18 1012 82 10000 3.1 120 09:18 11.01.2020
993 Clear 18 1011 77 10000 3.6 120 08:41 11.01.2020
994 Clear 19 1011 77 10000 3.6 120 08:20 11.01.2020
995 Clear 20 1011 57 10000 1.5 160 07:43 11.01.2020
996 Clear 20 1011 57 10000 1.5 160 07:24 11.01.2020
997 Clear 20 1011 64 10000 6.2 110 06:45 11.01.2020
998 Clear 21 1011 60 10000 6.2 110 05:31 11.01.2020
999 Clear 23 1011 53 10000 1.5 80 04:43 11.01.2020
1000 Clear 22 1011 57 10000 2.6 120 04:25 11.01.2020
1001 Clear 25 1011 57 10000 2.6 110 02:48 11.01.2020
1002 Clouds 25 1010 69 10000 2.6 110 01:48 11.01.2020
1003 Clouds 26 1010 69 10000 2.6 110 01:28 11.01.2020
1004 Clouds 26 1009 69 10000 3.1 70 00:54 11.01.2020
1005 Clouds 27 1009 69 10000 3.1 70 00:29 11.01.2020
1006 Clouds 28 1009 65 10000 2.6 40 23:59 10.01.2020
1007 Clouds 28 1009 65 10000 2.6 40 23:39 10.01.2020
1008 Clouds 28 1009 65 10000 2.6 40 23:39 10.01.2020
1009 Clouds 29 1009 65 10000 2.6 40 23:20 10.01.2020
1010 Clouds 30 1008 42 10000 3.6 150 22:41 10.01.2020
1011 Clouds 31 1008 42 10000 3.6 150 22:22 10.01.2020
1012 Clouds 30 1009 61 10000 3.1 50 21:59 10.01.2020
1013 Clouds 30 1009 61 10000 3.1 50 21:41 10.01.2020
1014 Clouds 30 1009 61 10000 3.1 50 21:20 10.01.2020
1015 Clouds 31 1009 40 10000 2.6 0 20:57 10.01.2020
1016 Clouds 31 1009 40 10000 2.6 0 20:38 10.01.2020
1017 Clouds 31 1009 40 10000 2.6 0 20:19 10.01.2020
1018 Clear 31 1010 43 10000 3.6 50 19:40 10.01.2020
1019 Clear 30 1010 43 10000 3.6 50 19:21 10.01.2020
1020 Clear 30 1010 61 10000 4.1 50 18:55 10.01.2020
1021 Clear 30 1010 61 10000 4.1 50 18:37 10.01.2020
1022 Clear 30 1010 61 10000 4.1 50 18:18 10.01.2020
1023 Clear 30 1010 65 10000 3.6 70 17:56 10.01.2020
1024 Clear 30 1010 65 10000 3.6 70 17:37 10.01.2020
1025 Clouds 30 1010 65 10000 3.6 70 17:19 10.01.2020
1026 Clouds 30 1010 65 10000 4.6 90 16:41 10.01.2020
1027 Clouds 29 1010 65 10000 4.6 90 16:21 10.01.2020
1028 Clouds 28 1010 65 10000 4.6 110 15:56 10.01.2020
1029 Clouds 28 1010 65 10000 4.6 110 15:37 10.01.2020
1030 Clouds 27 1010 65 10000 4.6 110 15:19 10.01.2020
1031 Clouds 27 1010 65 10000 4.6 110 15:19 10.01.2020
1032 Clouds 27 1010 65 10000 4.6 110 15:19 10.01.2020
1033 Clouds 27 1010 69 10000 4.6 110 14:57 10.01.2020
1034 Clouds 26 1010 69 10000 4.6 110 14:38 10.01.2020
1035 Clouds 26 1010 69 10000 4.6 110 14:19 10.01.2020
1036 Clouds 25 1010 65 10000 5.1 110 13:45 10.01.2020
1037 Clouds 25 1010 65 10000 5.1 110 13:27 10.01.2020
1038 Clouds 24 1010 73 10000 6.2 110 12:59 10.01.2020
1039 Clouds 24 1010 73 10000 6.2 110 12:40 10.01.2020
1040 Clouds 24 1010 73 10000 6.2 110 12:21 10.01.2020
1041 Clouds 23 1010 78 10000 6.2 110 11:57 10.01.2020
1042 Clouds 23 1010 78 10000 6.2 110 11:39 10.01.2020
1043 Clouds 22 1010 78 10000 6.2 110 11:19 10.01.2020
1044 Clouds 21 1010 83 10000 4.1 110 10:58 10.01.2020
1045 Clouds 21 1010 83 10000 4.1 110 10:58 10.01.2020
1046 Clouds 21 1010 83 10000 4.1 110 10:58 10.01.2020
1047 Clouds 20 1010 83 10000 4.1 110 10:37 10.01.2020
1048 Clouds 20 1010 83 10000 4.1 110 10:18 10.01.2020
1049 Clouds 20 1010 83 10000 4.1 110 10:18 10.01.2020
1050 Clouds 20 1010 78 10000 3.6 140 09:45 10.01.2020
1051 Clouds 20 1010 78 10000 3.6 140 09:25 10.01.2020
1052 Clouds 20 1010 83 10000 4.6 110 08:44 10.01.2020
1053 Clouds 20 1010 83 10000 4.6 110 08:24 10.01.2020
1054 Clear 21 1009 69 10000 5.7 100 07:58 10.01.2020
1055 Clear 21 1009 69 10000 5.7 100 07:58 10.01.2020
1056 Clear 21 1009 69 10000 5.7 100 07:39 10.01.2020
1057 Clear 21 1009 69 10000 5.7 100 07:19 10.01.2020
1058 Clear 22 1009 64 10000 6.2 110 06:27 10.01.2020
1059 Clear 22 1010 69 10000 6.7 110 05:59 10.01.2020
1060 Clouds 23 1010 69 10000 6.7 100 03:50 10.01.2020
1061 Clouds 24 1010 69 10000 6.7 100 03:31 10.01.2020
1062 Clouds 24 1010 78 10000 5.7 110 02:52 10.01.2020
1063 Clouds 25 1008 78 10000 5.7 110 01:53 10.01.2020
1064 Clouds 25 1008 78 10000 5.7 110 01:29 10.01.2020
1065 Rain 26 1008 69 10000 4.6 110 00:48 10.01.2020
1066 Rain 26 1008 69 10000 4.6 110 00:30 10.01.2020
1067 Rain 28 1007 61 10000 4.1 90 23:40 09.01.2020
1068 Clouds 29 1007 61 10000 4.1 90 23:21 09.01.2020
1069 Clouds 29 1007 61 10000 4.1 90 23:21 09.01.2020
1070 Clouds 29 1007 61 10000 5.1 100 22:58 09.01.2020
1071 Clouds 29 1007 61 10000 5.1 100 22:58 09.01.2020
1072 Clouds 29 1007 61 10000 5.1 100 22:39 09.01.2020
1073 Clouds 29 1007 61 10000 5.1 100 22:19 09.01.2020
1074 Clouds 29 1007 58 10000 4.6 80 21:58 09.01.2020
1075 Clouds 30 1007 58 10000 4.6 80 21:39 09.01.2020
1076 Clouds 30 1007 58 10000 4.6 80 21:20 09.01.2020
1077 Clouds 30 1008 48 10000 5.7 90 20:58 09.01.2020
1078 Clouds 30 1008 48 10000 5.7 90 20:39 09.01.2020
1079 Clouds 30 1008 48 10000 5.7 90 20:20 09.01.2020
1080 Rain 30 1008 48 10000 5.7 90 20:20 09.01.2020
1081 Rain 30 1008 54 10000 5.1 90 19:58 09.01.2020
1082 Rain 30 1008 54 10000 5.1 90 19:39 09.01.2020
1083 Rain 30 1008 54 10000 5.1 90 19:20 09.01.2020
1084 Rain 29 1008 48 10000 2.6 0 18:56 09.01.2020
1085 Rain 29 1008 48 10000 2.6 0 18:56 09.01.2020
1086 Rain 29 1008 48 10000 2.6 0 18:37 09.01.2020
1087 Rain 29 1008 48 10000 2.6 0 18:19 09.01.2020
1088 Rain 28 1009 54 10000 3.1 180 17:41 09.01.2020
1089 Clouds 28 1009 54 10000 3.1 180 17:19 09.01.2020
1090 Clouds 27 1009 54 10000 2.6 0 16:56 09.01.2020
1091 Clouds 27 1009 54 10000 2.6 0 16:36 09.01.2020
1092 Clouds 27 1009 54 10000 2.6 0 16:18 09.01.2020
1093 Clouds 26 1009 65 10000 3.1 110 15:41 09.01.2020
1094 Clouds 26 1009 65 10000 3.1 110 15:41 09.01.2020
1095 Clouds 26 1009 65 10000 3.1 110 15:20 09.01.2020
1096 Clouds 25 1008 73 10000 3.1 120 14:55 09.01.2020
1097 Clouds 25 1008 73 10000 3.1 120 14:36 09.01.2020
1098 Clouds 25 1008 73 10000 3.1 120 14:36 09.01.2020
1099 Rain 25 1008 73 10000 3.1 120 14:18 09.01.2020
1100 Rain 25 1007 73 10000 4.6 70 13:54 09.01.2020
1101 Rain 25 1007 73 10000 4.6 70 13:36 09.01.2020
1102 Clouds 24 1007 73 10000 4.6 70 13:18 09.01.2020
1103 Clouds 24 1007 69 10000 8.2 100 12:40 09.01.2020
1104 Clouds 24 1007 69 10000 8.2 100 12:22 09.01.2020
1105 Clouds 23 1007 60 10000 5.7 120 11:57 09.01.2020
1106 Clouds 23 1007 60 10000 5.7 120 11:38 09.01.2020
1107 Clouds 23 1007 60 10000 5.7 120 11:20 09.01.2020
1108 Clouds 23 1006 47 10000 5.7 140 10:44 09.01.2020
1109 Clouds 23 1006 47 10000 5.7 140 10:22 09.01.2020
1110 Clouds 23 1006 53 10000 6.7 160 09:58 09.01.2020
1111 Clouds 23 1006 53 10000 6.7 160 09:38 09.01.2020
1112 Clouds 24 1006 53 10000 6.7 160 09:19 09.01.2020
1113 Clouds 25 1005 51 10000 4.6 230 08:55 09.01.2020
1114 Clouds 25 1005 51 10000 4.6 230 08:37 09.01.2020
1115 Clear 26 1005 51 10000 4.6 230 08:19 09.01.2020
1116 Clear 26 1002 57 10000 7.2 360 07:42 09.01.2020
1117 Clear 26 1002 57 10000 7.2 360 07:23 09.01.2020
1118 Clear 26 1003 61 10000 5.7 330 06:38 09.01.2020
1119 Clear 26 1003 61 10000 5.7 330 06:19 09.01.2020
1120 Clear 27 1003 61 10000 5.7 350 05:44 09.01.2020
1121 Clear 27 1003 69 10000 2.6 330 04:42 09.01.2020
1122 Clear 27 1004 65 10000 2.6 340 03:31 09.01.2020
1123 Clear 27 1004 61 10000 2.6 320 02:52 09.01.2020
1124 Clear 28 1004 61 10000 2.6 320 02:23 09.01.2020
1125 Clear 28 1003 58 10000 2.6 330 01:35 09.01.2020
1126 Clear 29 1003 51 10000 2.6 330 00:42 09.01.2020
1127 Clear 30 1003 51 10000 2.6 330 00:20 09.01.2020
1128 Clear 30 1002 48 10000 4.6 330 23:41 08.01.2020
1129 Clear 31 1002 48 10000 4.6 330 23:23 08.01.2020
1130 Clear 31 1002 26 10000 7.7 360 22:58 08.01.2020
1131 Clear 32 1003 42 10000 5.7 330 22:38 08.01.2020
1132 Clear 32 1003 42 10000 5.7 330 22:20 08.01.2020
1133 Clear 32 1004 48 10000 4.1 350 21:56 08.01.2020
1134 Clear 32 1004 48 10000 4.1 350 21:56 08.01.2020
1135 Clear 32 1004 48 10000 4.1 350 21:37 08.01.2020
1136 Clear 32 1003 33 10000 6.2 360 21:18 08.01.2020
1137 Clear 32 1004 33 10000 7.2 360 20:56 08.01.2020
1138 Clear 32 1004 33 10000 7.2 360 20:37 08.01.2020
1139 Clear 32 1004 33 10000 7.2 360 20:19 08.01.2020
1140 Clear 32 1005 33 10000 6.7 340 19:39 08.01.2020
1141 Clear 32 1005 33 10000 6.7 340 19:20 08.01.2020
1142 Clear 32 1006 35 10000 7.7 360 18:59 08.01.2020
1143 Clear 32 1006 35 10000 7.7 360 18:40 08.01.2020
1144 Clear 32 1006 35 10000 7.7 360 18:19 08.01.2020
1145 Clear 32 1006 35 10000 7.7 360 18:19 08.01.2020
1146 Clear 32 1006 35 10000 7.7 360 18:19 08.01.2020
1147 Clear 31 1007 35 10000 2.1 360 17:58 08.01.2020
1148 Clear 31 1007 48 10000 5.1 360 17:39 08.01.2020
1149 Clear 30 1007 35 10000 2.1 360 17:20 08.01.2020
1150 Clear 30 1008 42 10000 7.2 360 16:57 08.01.2020
1151 Clear 30 1008 42 10000 7.2 360 16:57 08.01.2020
1152 Clear 30 1008 42 10000 7.2 360 16:38 08.01.2020
1153 Clear 29 1008 42 10000 7.2 360 16:19 08.01.2020
1154 Clear 29 1009 51 10000 5.1 360 15:45 08.01.2020
1155 Clear 29 1009 51 10000 5.1 360 15:22 08.01.2020
1156 Clear 28 1009 57 10000 4.6 340 14:59 08.01.2020
1157 Clear 27 1009 57 10000 4.6 340 14:40 08.01.2020
1158 Clear 27 1009 57 10000 4.6 340 14:21 08.01.2020
1159 Clear 26 1009 50 10000 4.1 340 13:42 08.01.2020
1160 Clear 26 1009 60 10000 4.1 330 13:22 08.01.2020
1161 Clear 24 1009 53 10000 4.1 340 12:55 08.01.2020
1162 Clear 24 1009 53 10000 4.1 340 12:37 08.01.2020
1163 Clear 23 1009 53 10000 4.1 340 12:18 08.01.2020
1164 Clear 21 1009 49 10000 4.6 330 11:48 08.01.2020
1165 Clear 20 1009 49 10000 4.6 330 11:19 08.01.2020
1166 Clear 20 1008 52 10000 4.6 320 10:59 08.01.2020
1167 Clear 19 1008 52 10000 4.6 320 10:59 08.01.2020
1168 Clear 20 1008 52 10000 4.6 320 10:40 08.01.2020
1169 Clear 20 1008 52 10000 4.6 320 10:20 08.01.2020
1170 Clear 20 1008 49 10000 4.6 320 09:43 08.01.2020
1171 Clear 20 1008 49 10000 4.6 320 09:20 08.01.2020
1172 Clear 20 1007 49 10000 5.1 320 08:58 08.01.2020
1173 Clear 20 1007 49 10000 5.1 320 08:39 08.01.2020
1174 Clear 21 1007 49 10000 5.1 320 08:20 08.01.2020
1175 Clear 21 1007 56 10000 3.6 320 07:51 08.01.2020
1176 Clear 21 1007 56 10000 3.6 320 07:33 08.01.2020
1177 Clear 21 1008 53 10000 3.6 310 06:50 08.01.2020
1178 Clear 21 1008 53 10000 3.6 310 06:32 08.01.2020
1179 Clear 21 1008 49 10000 4.1 320 05:54 08.01.2020
1180 Clear 21 1008 49 10000 4.1 320 05:18 08.01.2020
1181 Clear 22 1008 47 10000 4.6 320 04:27 08.01.2020
1182 Clear 23 1007 50 10000 4.6 310 02:45 08.01.2020
1183 Clear 24 1007 50 10000 4.6 310 02:27 08.01.2020
1184 Clear 25 1007 50 10000 5.7 320 01:50 08.01.2020
1185 Clear 25 1007 50 10000 5.7 320 01:25 08.01.2020
1186 Clear 26 1006 47 10000 4.6 320 00:40 08.01.2020
1187 Clear 26 1006 47 10000 4.6 320 00:20 08.01.2020
1188 Clear 28 1006 42 10000 5.7 330 23:44 07.01.2020
1189 Clear 28 1006 42 10000 5.7 330 23:20 07.01.2020
1190 Clear 29 1006 39 10000 6.2 330 22:40 07.01.2020
1191 Clear 29 1006 39 10000 6.2 330 22:20 07.01.2020
1192 Clear 30 1006 37 10000 6.7 340 21:57 07.01.2020
1193 Clear 30 1006 37 10000 6.7 340 21:39 07.01.2020
1194 Clear 30 1006 37 10000 6.7 340 21:21 07.01.2020
1195 Clear 30 1007 30 10000 5.1 290 20:56 07.01.2020
1196 Clear 30 1007 30 10000 5.1 290 20:38 07.01.2020
1197 Clear 30 1007 30 10000 5.1 290 20:19 07.01.2020
1198 Clear 30 1007 25 10000 6.2 290 19:38 07.01.2020
1199 Clear 30 1007 25 10000 6.2 290 19:20 07.01.2020
1200 Clear 29 1008 23 10000 3.6 320 18:58 07.01.2020
1201 Clear 29 1008 23 10000 3.6 320 18:40 07.01.2020
1202 Clear 29 1008 23 10000 3.6 320 18:19 07.01.2020
1203 Clear 28 1008 26 10000 5.7 330 18:00 07.01.2020
1204 Clear 28 1008 26 10000 5.7 330 17:39 07.01.2020
1205 Clear 28 1008 26 10000 5.7 330 17:21 07.01.2020
1206 Clear 28 1009 26 10000 5.1 290 16:57 07.01.2020
1207 Clear 27 1009 26 10000 5.1 290 16:38 07.01.2020
1208 Clear 27 1009 26 10000 5.1 290 16:19 07.01.2020
1209 Clear 26 1010 29 10000 4.6 290 15:58 07.01.2020
1210 Clear 26 1010 29 10000 4.6 290 15:39 07.01.2020
1211 Clear 26 1010 29 10000 4.6 290 15:21 07.01.2020
1212 Clear 25 1010 33 10000 3.6 250 14:42 07.01.2020
1213 Clear 25 1010 33 10000 3.6 250 14:24 07.01.2020
1214 Clear 23 1010 38 10000 3.6 260 13:57 07.01.2020
1215 Clear 23 1010 38 10000 3.6 260 13:39 07.01.2020
1216 Clear 22 1010 38 10000 3.6 260 13:18 07.01.2020
1217 Clear 20 1010 43 10000 2.6 260 12:41 07.01.2020
1218 Clear 20 1010 43 10000 2.6 260 12:19 07.01.2020
1219 Clear 18 1009 45 10000 2.6 260 11:45 07.01.2020
1220 Clear 17 1009 45 10000 2.6 260 11:23 07.01.2020
1221 Clear 16 1009 48 10000 2.1 270 10:59 07.01.2020
1222 Clear 16 1009 48 10000 2.1 270 10:40 07.01.2020
1223 Clear 16 1009 48 10000 2.1 270 10:22 07.01.2020
1224 Clear 16 1009 52 10000 1.5 250 09:56 07.01.2020
1225 Clear 15 1009 52 10000 1.5 250 09:37 07.01.2020
1226 Clear 15 1009 52 10000 1.5 250 09:19 07.01.2020
1227 Clear 16 1008 55 10000 1.5 260 08:42 07.01.2020
1228 Clear 16 1008 55 10000 1.5 260 08:21 07.01.2020
1229 Clear 16 1008 56 10000 1.5 230 07:51 07.01.2020
1230 Clear 17 1008 52 10000 1 0 07:26 07.01.2020
1231 Clear 17 1008 52 10000 1 0 06:53 07.01.2020
1232 Clear 17 1008 52 10000 1 0 06:32 07.01.2020
1233 Clear 17 1008 46 10000 1.5 240 05:46 07.01.2020
1234 Clear 18 1008 43 10000 2.1 240 04:31 07.01.2020
1235 Clear 19 1007 43 10000 2.6 230 03:25 07.01.2020
1236 Clear 20 1006 40 10000 3.6 230 02:21 07.01.2020
1237 Clear 20 1005 40 10000 3.1 0 01:45 07.01.2020
1238 Clear 21 1005 40 10000 3.1 0 01:18 07.01.2020
1239 Clear 22 1004 38 10000 3.1 0 00:21 07.01.2020
1240 Clear 23 1003 33 10000 4.1 260 23:58 06.01.2020
1241 Clear 24 1003 33 10000 4.1 260 23:38 06.01.2020
1242 Clear 24 1003 33 10000 4.1 260 23:20 06.01.2020
1243 Clouds 25 1003 30 10000 5.1 250 22:44 06.01.2020
1244 Clouds 25 1003 30 10000 5.1 250 22:44 06.01.2020
1245 Clouds 26 1003 30 10000 5.1 250 22:26 06.01.2020
1246 Clear 26 1003 29 10000 8.2 240 21:59 06.01.2020
1247 Clear 26 1003 29 10000 8.2 240 21:40 06.01.2020
1248 Clouds 27 1003 28 10000 5.1 250 21:21 06.01.2020
1249 Clouds 27 1003 28 10000 5.1 250 20:58 06.01.2020
1250 Clouds 27 1003 28 10000 5.1 250 20:40 06.01.2020
1251 Clouds 27 1003 28 10000 5.1 250 20:20 06.01.2020
1252 Clouds 27 1003 28 10000 3.6 290 19:57 06.01.2020
1253 Clouds 27 1003 28 10000 3.6 290 19:39 06.01.2020
1254 Clouds 27 1003 28 10000 3.6 290 19:20 06.01.2020
1255 Clouds 27 1004 31 10000 7.7 250 18:48 06.01.2020
1256 Clouds 26 1003 28 10000 5.7 260 18:25 06.01.2020
1257 Clouds 26 1004 39 10000 6.7 270 17:59 06.01.2020
1258 Clouds 26 1004 39 10000 6.7 270 17:39 06.01.2020
1259 Clouds 26 1004 39 10000 6.7 270 17:19 06.01.2020
1260 Clouds 25 1004 50 10000 4.6 320 16:47 06.01.2020
1261 Clouds 25 1004 50 10000 4.6 320 16:27 06.01.2020
1262 Clouds 24 1004 53 10000 4.6 290 15:59 06.01.2020
1263 Clouds 24 1004 53 10000 4.6 290 15:41 06.01.2020
1264 Clouds 24 1004 53 10000 4.6 290 15:20 06.01.2020
1265 Clouds 23 1004 56 10000 5.7 290 14:58 06.01.2020
1266 Clouds 23 1004 56 10000 5.7 290 14:40 06.01.2020
1267 Clouds 22 1004 56 10000 5.7 290 14:20 06.01.2020
1268 Clouds 21 1003 56 10000 5.1 250 13:55 06.01.2020
1269 Clouds 21 1003 56 10000 5.1 250 13:55 06.01.2020
1270 Clouds 21 1003 56 10000 5.1 250 13:37 06.01.2020
1271 Clouds 20 1003 56 10000 5.1 250 13:19 06.01.2020
1272 Clouds 20 1003 56 10000 4.1 290 12:42 06.01.2020
1273 Clouds 20 1003 56 10000 4.1 290 12:20 06.01.2020
1274 Clouds 19 1002 68 10000 3.6 320 11:57 06.01.2020
1275 Clouds 19 1002 68 10000 3.6 320 11:38 06.01.2020
1276 Rain 19 1002 68 10000 3.6 320 11:20 06.01.2020
1277 Clouds 18 1001 60 10000 2.1 360 10:45 06.01.2020
1278 Clouds 18 1001 60 10000 2.1 360 10:27 06.01.2020
1279 Rain 17 1002 64 8000 1.5 230 09:57 06.01.2020
1280 Rain 17 1002 64 8000 1.5 230 09:37 06.01.2020
1281 Rain 17 1002 88 7000 2.1 200 09:19 06.01.2020
1282 Rain 17 1002 82 10000 3.6 210 08:42 06.01.2020
1283 Rain 18 1002 64 10000 3.6 230 08:23 06.01.2020
1284 Rain 18 1003 72 10000 6.2 220 07:48 06.01.2020
1285 Rain 18 1003 72 10000 6.2 220 07:21 06.01.2020
1286 Rain 18 1003 72 10000 6.2 220 07:21 06.01.2020
1287 Rain 17 1003 100 10000 4.6 230 06:41 06.01.2020
1288 Clouds 18 1003 68 10000 5.1 220 05:51 06.01.2020
1289 Clouds 18 1003 68 10000 5.1 220 05:29 06.01.2020
1290 Rain 20 1003 83 7000 5.7 250 04:25 06.01.2020
1291 Clouds 20 1004 60 7000 12.9 230 03:52 06.01.2020
1292 Clear 25 1000 69 10000 5.7 110 02:32 06.01.2020
1293 Clouds 26 1000 69 10000 7.2 110 01:55 06.01.2020
1294 Clouds 26 1000 69 10000 7.2 110 01:32 06.01.2020
1295 Clouds 26 1000 57 10000 6.7 110 00:48 06.01.2020
1296 Clouds 27 1000 57 10000 6.7 110 00:29 06.01.2020
1297 Clouds 27 1000 54 10000 5.7 110 23:59 05.01.2020
1298 Clouds 28 1000 54 10000 5.7 110 23:40 05.01.2020
1299 Clouds 29 1000 54 10000 5.7 110 23:21 05.01.2020
1300 Clouds 29 1000 48 10000 3.1 70 22:40 05.01.2020
1301 Clouds 29 1000 48 10000 3.1 70 22:21 05.01.2020
1302 Clouds 29 1001 45 10000 2.6 20 21:58 05.01.2020
1303 Clouds 29 1001 45 10000 2.6 20 21:40 05.01.2020
1304 Clouds 30 1001 45 10000 2.6 20 21:20 05.01.2020
1305 Clouds 30 1002 45 10000 2.6 40 20:58 05.01.2020
1306 Clouds 30 1002 45 10000 2.6 40 20:39 05.01.2020
1307 Clouds 30 1002 45 10000 2.6 40 20:19 05.01.2020
1308 Clouds 29 1003 45 10000 2.1 10 19:58 05.01.2020
1309 Clouds 29 1003 45 10000 2.1 10 19:39 05.01.2020
1310 Clouds 30 1003 45 10000 2.1 10 19:20 05.01.2020
1311 Clouds 29 1004 47 10000 4.1 50 18:56 05.01.2020
1312 Clouds 29 1004 47 10000 4.1 50 18:37 05.01.2020
1313 Clouds 29 1004 47 10000 4.1 50 18:19 05.01.2020
1314 Clouds 29 1005 47 10000 3.6 30 17:58 05.01.2020
1315 Clouds 29 1005 47 10000 3.6 30 17:38 05.01.2020
1316 Clouds 29 1005 47 10000 3.6 30 17:19 05.01.2020
1317 Clouds 29 1006 45 10000 1 100 16:56 05.01.2020
1318 Clouds 29 1006 57 10000 3.1 30 16:38 05.01.2020
1319 Clouds 29 1006 57 10000 3.1 30 16:19 05.01.2020
1320 Clouds 28 1007 61 10000 2.1 20 15:38 05.01.2020
1321 Clouds 28 1007 61 10000 2.1 20 15:38 05.01.2020
1322 Clouds 28 1007 61 10000 2.1 20 15:20 05.01.2020
1323 Clouds 28 1007 61 10000 3.1 350 14:56 05.01.2020
1324 Clear 28 1007 54 10000 1 0 14:37 05.01.2020
1325 Clear 28 1007 54 10000 1 0 14:19 05.01.2020
1326 Clear 27 1007 69 10000 2.6 20 13:56 05.01.2020
1327 Clear 26 1007 69 10000 2.6 20 13:37 05.01.2020
1328 Clear 26 1007 69 10000 2.6 20 13:18 05.01.2020
1329 Clear 26 1007 69 10000 2.6 20 13:18 05.01.2020
1330 Clear 25 1007 65 10000 1.5 10 12:55 05.01.2020
1331 Clear 25 1007 65 10000 1.5 10 12:37 05.01.2020
1332 Clear 25 1007 65 10000 1.5 10 12:18 05.01.2020
1333 Clear 23 1007 69 10000 1.5 40 11:43 05.01.2020
1334 Clear 23 1007 69 10000 1.5 40 11:43 05.01.2020
1335 Clear 23 1007 69 10000 1.5 40 11:43 05.01.2020
1336 Clear 23 1007 69 10000 1.5 40 11:43 05.01.2020
1337 Clear 23 1007 69 10000 1.5 40 11:43 05.01.2020
1338 Clear 22 1007 69 10000 1.5 40 11:19 05.01.2020
1339 Clear 21 1006 78 10000 2.6 90 10:58 05.01.2020
1340 Clear 21 1006 78 10000 2.6 90 10:39 05.01.2020
1341 Clear 21 1006 78 10000 2.6 90 10:39 05.01.2020
1342 Clear 21 1006 78 10000 2.6 90 10:39 05.01.2020
1343 Clear 21 1006 78 10000 2.6 90 10:39 05.01.2020
1344 Clear 21 1006 78 10000 2.6 90 10:39 05.01.2020
1345 Clear 20 1006 78 10000 2.6 90 10:19 05.01.2020
1346 Clear 20 1007 69 10000 2.1 70 09:42 05.01.2020
1347 Clear 20 1007 69 10000 2.1 70 09:22 05.01.2020
1348 Clear 20 1007 73 10000 2.6 100 08:49 05.01.2020
1349 Clear 20 1007 73 10000 2.6 100 08:30 05.01.2020
1350 Clear 21 1007 73 10000 2.1 120 07:56 05.01.2020
1351 Clear 21 1007 73 10000 2.1 120 07:37 05.01.2020
1352 Clear 21 1007 73 10000 2.1 120 07:18 05.01.2020
1353 Clear 22 1008 69 10000 3.6 100 05:59 05.01.2020
1354 Clear 22 1008 69 10000 3.6 100 05:30 05.01.2020
1355 Clear 23 1009 69 10000 4.1 110 04:43 05.01.2020
1356 Clear 23 1009 73 10000 5.7 100 03:52 05.01.2020
1357 Clear 24 1009 65 10000 5.7 100 02:46 05.01.2020
1358 Clear 24 1009 65 10000 5.7 100 02:22 05.01.2020
1359 Clear 25 1009 50 10000 3.6 110 01:46 05.01.2020
1360 Clear 25 1009 50 10000 3.6 110 01:18 05.01.2020
1361 Clear 25 1009 50 10000 4.1 100 00:41 05.01.2020
1362 Clear 26 1009 50 10000 4.1 100 00:22 05.01.2020
1363 Clear 27 1009 44 10000 4.6 110 23:59 04.01.2020
1364 Clear 27 1009 44 10000 4.6 110 23:39 04.01.2020
1365 Clear 28 1009 44 10000 4.6 110 23:19 04.01.2020
1366 Clear 28 1010 44 10000 5.1 100 22:39 04.01.2020
1367 Clear 28 1010 44 10000 5.1 100 22:21 04.01.2020
1368 Clear 28 1011 44 10000 4.6 100 21:57 04.01.2020
1369 Clear 28 1011 44 10000 4.6 100 21:38 04.01.2020
1370 Clear 29 1011 44 10000 4.6 100 21:19 04.01.2020
1371 Clear 28 1012 47 10000 4.1 70 20:57 04.01.2020
1372 Clear 28 1012 47 10000 4.1 70 20:38 04.01.2020
1373 Clear 28 1012 47 10000 4.1 70 20:19 04.01.2020
1374 Clear 28 1013 57 10000 4.1 60 19:42 04.01.2020
1375 Clouds 28 1013 45 10000 5.1 70 19:24 04.01.2020
1376 Clear 29 1014 57 10000 2.6 50 18:58 04.01.2020
1377 Clear 29 1014 57 10000 2.6 50 18:39 04.01.2020
1378 Clear 29 1014 57 10000 2.6 50 18:21 04.01.2020
1379 Clouds 28 1014 61 10000 3.1 30 17:58 04.01.2020
1380 Clouds 28 1014 61 10000 3.1 30 17:40 04.01.2020
1381 Clouds 28 1014 61 10000 3.1 30 17:22 04.01.2020
1382 Clouds 27 1015 57 10000 3.6 30 16:42 04.01.2020
1383 Clouds 27 1015 57 10000 3.6 30 16:24 04.01.2020
1384 Clear 27 1016 61 10000 3.1 30 15:59 04.01.2020
1385 Clear 27 1016 61 10000 3.1 30 15:59 04.01.2020
1386 Clear 27 1016 61 10000 3.1 30 15:41 04.01.2020
1387 Clear 27 1016 61 10000 3.1 30 15:19 04.01.2020
1388 Clear 26 1016 64 10000 4.1 20 14:58 04.01.2020
1389 Clear 26 1016 64 10000 4.1 20 14:58 04.01.2020
1390 Clear 26 1016 64 10000 4.1 20 14:40 04.01.2020
1391 Clear 25 1016 64 10000 4.1 20 14:19 04.01.2020
1392 Clear 25 1016 69 10000 4.1 360 13:56 04.01.2020
1393 Clear 24 1016 69 10000 4.1 360 13:37 04.01.2020
1394 Clear 23 1016 69 10000 4.1 360 13:18 04.01.2020
1395 Clear 22 1017 73 10000 4.6 360 12:42 04.01.2020
1396 Clear 22 1017 73 10000 4.6 360 12:20 04.01.2020
1397 Clear 22 1017 73 10000 4.6 360 12:20 04.01.2020
1398 Clear 22 1016 73 10000 4.1 10 11:59 04.01.2020
1399 Clear 22 1016 73 10000 4.1 10 11:40 04.01.2020
1400 Clear 21 1016 73 10000 4.1 10 11:19 04.01.2020
1401 Clear 21 1016 68 10000 3.1 10 10:55 04.01.2020
1402 Clear 21 1016 68 10000 3.1 10 10:55 04.01.2020
1403 Clear 20 1016 68 10000 3.1 10 10:36 04.01.2020
1404 Clear 20 1016 68 10000 3.1 10 10:18 04.01.2020
1405 Clear 20 1016 68 10000 5.1 360 09:41 04.01.2020
1406 Clear 20 1016 68 10000 5.1 360 09:22 04.01.2020
1407 Clear 21 1016 73 10000 5.7 10 08:42 04.01.2020
1408 Clear 21 1016 73 10000 5.7 10 08:21 04.01.2020
1409 Clear 21 1016 69 10000 5.7 20 07:44 04.01.2020
1410 Clear 22 1016 69 10000 5.7 20 07:20 04.01.2020
1411 Clear 21 1016 69 10000 6.2 40 06:33 04.01.2020
1412 Clouds 22 1016 78 10000 3.6 50 05:22 04.01.2020
1413 Clouds 22 1016 78 10000 5.7 110 04:42 04.01.2020
1414 Clouds 22 1016 78 10000 5.7 110 04:24 04.01.2020
1415 Clear 23 1017 73 10000 6.7 120 03:18 04.01.2020
1416 Clear 23 1017 78 10000 6.2 120 02:22 04.01.2020
1417 Clear 23 1017 73 10000 7.7 120 01:55 04.01.2020
1418 Clear 23 1017 73 10000 7.7 120 01:32 04.01.2020
1419 Clear 24 1017 69 10000 8.2 130 00:46 04.01.2020
1420 Clear 24 1017 69 10000 8.2 130 00:26 04.01.2020
1421 Clear 25 1017 69 10000 7.2 120 23:48 03.01.2020
1422 Clear 26 1017 69 10000 7.2 120 23:25 03.01.2020
1423 Clear 27 1017 73 10000 7.7 110 22:54 03.01.2020
1424 Clear 27 1017 73 10000 7.7 110 22:36 03.01.2020
1425 Clear 27 1017 73 10000 7.7 110 22:18 03.01.2020
1426 Clouds 28 1018 65 10000 6.7 100 21:54 03.01.2020
1427 Clouds 27 1018 65 10000 6.7 100 21:36 03.01.2020
1428 Clouds 28 1018 65 10000 6.7 100 21:18 03.01.2020
1429 Clouds 28 1018 57 10000 6.2 100 20:41 03.01.2020
1430 Clouds 28 1018 57 10000 6.2 100 20:41 03.01.2020
1431 Clouds 28 1018 57 10000 6.2 100 20:19 03.01.2020
1432 Clouds 28 1019 61 10000 6.7 100 19:57 03.01.2020
1433 Clouds 28 1019 61 10000 6.7 100 19:38 03.01.2020
1434 Clouds 28 1019 61 10000 6.7 100 19:20 03.01.2020
1435 Clouds 28 1020 61 10000 6.2 100 18:44 03.01.2020
1436 Clouds 27 1020 61 10000 6.2 100 18:25 03.01.2020
1437 Clouds 27 1020 69 10000 6.2 100 17:56 03.01.2020
1438 Clouds 27 1020 69 10000 6.2 100 17:37 03.01.2020
1439 Clouds 27 1020 69 10000 6.2 100 17:37 03.01.2020
1440 Clouds 27 1020 69 10000 6.2 100 17:19 03.01.2020
1441 Clouds 26 1021 73 10000 5.1 110 16:42 03.01.2020
1442 Clouds 26 1021 73 10000 5.1 110 16:23 03.01.2020
1443 Clouds 26 1022 69 10000 4.6 80 15:57 03.01.2020
1444 Clouds 26 1022 69 10000 4.6 80 15:38 03.01.2020
1445 Clouds 26 1022 69 10000 4.6 80 15:18 03.01.2020
1446 Clouds 25 1022 69 10000 5.1 70 14:38 03.01.2020
1447 Clouds 25 1022 69 10000 5.1 70 14:19 03.01.2020
1448 Clouds 24 1022 73 10000 5.7 70 13:44 03.01.2020
1449 Clouds 24 1022 73 10000 5.7 70 13:24 03.01.2020
1450 Clouds 23 1022 78 10000 5.7 80 12:59 03.01.2020
1451 Clouds 23 1022 78 10000 5.7 80 12:39 03.01.2020
1452 Clouds 23 1022 78 10000 5.7 80 12:21 03.01.2020
1453 Clouds 22 1021 78 10000 5.7 80 11:44 03.01.2020
1454 Clouds 21 1021 78 10000 5.7 80 11:21 03.01.2020
1455 Clouds 21 1021 83 10000 5.7 80 10:44 03.01.2020
1456 Clouds 20 1021 83 10000 5.7 80 10:26 03.01.2020
1457 Clouds 20 1020 77 10000 5.7 80 09:58 03.01.2020
1458 Clouds 20 1020 77 10000 5.7 80 09:39 03.01.2020
1459 Clouds 20 1020 77 10000 5.7 80 09:21 03.01.2020
1460 Clouds 20 1020 77 10000 6.7 70 08:56 03.01.2020
1461 Clouds 20 1020 77 10000 6.7 70 08:37 03.01.2020
1462 Clouds 20 1020 77 10000 6.7 70 08:19 03.01.2020
1463 Clouds 20 1020 73 10000 5.7 70 07:39 03.01.2020
1464 Clouds 20 1020 73 10000 5.7 70 07:18 03.01.2020
1465 Clouds 21 1020 78 10000 6.2 90 06:47 03.01.2020
1466 Clouds 21 1020 78 10000 6.2 90 06:29 03.01.2020
1467 Clouds 21 1020 78 10000 8.7 100 05:30 03.01.2020
1468 Clouds 21 1019 78 10000 8.7 110 04:18 03.01.2020
1469 Clouds 21 1019 83 10000 8.7 120 02:56 03.01.2020
1470 Clouds 22 1019 83 10000 8.7 120 02:26 03.01.2020
1471 Clouds 22 1018 78 10000 8.7 120 01:38 03.01.2020
1472 Clouds 23 1018 78 10000 8.7 130 00:49 03.01.2020
1473 Clouds 23 1018 78 10000 8.7 130 00:29 03.01.2020
1474 Clouds 23 1018 73 10000 9.3 120 23:55 02.01.2020
1475 Clouds 24 1018 73 10000 9.3 120 23:37 02.01.2020
1476 Clouds 25 1018 73 10000 9.3 120 23:18 02.01.2020
1477 Clear 25 1018 69 10000 8.7 110 22:44 02.01.2020
1478 Clear 26 1018 69 10000 8.7 110 22:20 02.01.2020
1479 Clear 26 1018 64 10000 8.7 110 21:57 02.01.2020
1480 Clear 26 1018 64 10000 8.7 110 21:57 02.01.2020
1481 Clear 26 1018 64 10000 8.7 110 21:57 02.01.2020
1482 Clear 26 1018 64 10000 8.7 110 21:38 02.01.2020
1483 Clear 26 1018 64 10000 8.7 110 21:20 02.01.2020
1484 Clouds 26 1018 61 10000 8.7 110 20:56 02.01.2020
1485 Clouds 26 1018 61 10000 8.7 110 20:38 02.01.2020
1486 Clouds 26 1018 61 10000 8.7 110 20:20 02.01.2020
1487 Clouds 27 1018 65 10000 8.7 110 19:54 02.01.2020
1488 Clouds 26 1018 65 10000 8.7 110 19:36 02.01.2020
1489 Clouds 27 1018 65 10000 8.7 110 19:18 02.01.2020
1490 Clouds 27 1018 65 10000 8.7 110 19:18 02.01.2020
1491 Clouds 26 1018 65 10000 8.2 110 18:43 02.01.2020
1492 Clouds 26 1018 65 10000 8.2 110 18:25 02.01.2020
1493 Clouds 26 1019 65 10000 7.7 110 17:59 02.01.2020
1494 Clouds 26 1019 65 10000 7.7 110 17:39 02.01.2020
1495 Clouds 26 1019 65 10000 7.7 110 17:21 02.01.2020
1496 Clouds 26 1019 69 10000 7.7 110 16:59 02.01.2020
1497 Clouds 25 1019 69 10000 7.7 110 16:41 02.01.2020
1498 Clouds 25 1019 69 10000 7.7 110 16:20 02.01.2020
1499 Clouds 25 1019 65 10000 7.7 110 15:58 02.01.2020
1500 Clouds 25 1019 65 10000 7.7 110 15:40 02.01.2020
1501 Clouds 25 1019 65 10000 7.7 110 15:22 02.01.2020
1502 Clouds 24 1018 69 10000 7.7 110 14:57 02.01.2020
1503 Clouds 23 1018 69 10000 7.7 110 14:36 02.01.2020
1504 Clouds 24 1018 69 10000 7.7 110 14:36 02.01.2020
1505 Clouds 22 1018 83 10000 3.1 70 14:18 02.01.2020
1506 Clouds 22 1018 83 10000 3.1 70 13:49 02.01.2020
1507 Rain 22 1018 83 10000 3.1 70 13:31 02.01.2020
1508 Rain 22 1018 88 3000 4.6 110 12:46 02.01.2020
1509 Drizzle 21 1018 88 2000 2.1 160 12:26 02.01.2020
1510 Drizzle 20 1018 88 2000 2.1 160 11:59 02.01.2020
1511 Rain 20 1017 82 3000 2.6 150 11:40 02.01.2020
1512 Rain 20 1017 82 3000 2.6 150 11:20 02.01.2020
1513 Clouds 19 1017 88 10000 3.1 170 10:44 02.01.2020
1514 Clouds 19 1017 88 10000 3.1 170 10:44 02.01.2020
1515 Clouds 19 1017 88 10000 3.1 170 10:25 02.01.2020
1516 Clouds 19 1016 88 10000 2.6 190 09:48 02.01.2020
1517 Clouds 19 1016 88 10000 2.6 190 09:29 02.01.2020
1518 Clouds 18 1016 93 10000 3.6 150 08:47 02.01.2020
1519 Clouds 19 1016 88 10000 2.6 170 08:27 02.01.2020
1520 Clouds 18 1016 88 10000 2.6 160 07:53 02.01.2020
1521 Clouds 18 1016 88 10000 2.6 160 07:30 02.01.2020
1522 Clouds 18 1016 82 10000 3.1 160 06:45 02.01.2020
1523 Clouds 19 1016 82 10000 3.1 160 06:27 02.01.2020
1524 Clouds 19 1016 77 10000 3.1 150 05:21 02.01.2020
1525 Clouds 20 1016 73 10000 4.6 140 04:31 02.01.2020
1526 Clouds 21 1016 73 10000 6.2 140 02:37 02.01.2020
1527 Clouds 22 1015 68 10000 5.1 140 01:59 02.01.2020
1528 Clouds 22 1015 68 10000 5.1 140 01:33 02.01.2020
1529 Clouds 23 1015 64 10000 8.7 130 00:57 02.01.2020
1530 Clouds 23 1015 64 10000 8.7 130 00:33 02.01.2020
1531 Clouds 24 1014 73 10000 8.2 110 23:49 01.01.2020
1532 Clouds 24 1014 73 10000 8.2 110 23:27 01.01.2020
1533 Clouds 25 1013 69 10000 7.7 110 22:56 01.01.2020
1534 Clouds 25 1013 69 10000 7.7 110 22:38 01.01.2020
1535 Clouds 25 1013 69 10000 7.7 110 22:19 01.01.2020
1536 Clouds 25 1013 73 10000 6.7 110 21:55 01.01.2020
1537 Clouds 25 1013 73 10000 6.7 110 21:37 01.01.2020
1538 Clouds 26 1013 73 10000 6.7 110 21:18 01.01.2020
1539 Clouds 26 1013 69 10000 7.2 100 20:42 01.01.2020
1540 Clouds 26 1013 69 10000 7.2 100 20:22 01.01.2020
1541 Clouds 26 1014 73 10000 6.7 110 19:58 01.01.2020
1542 Clouds 26 1014 73 10000 6.7 110 19:39 01.01.2020
1543 Clouds 26 1014 73 10000 6.7 110 19:21 01.01.2020
1544 Clouds 26 1014 73 10000 7.2 110 18:59 01.01.2020
1545 Clouds 26 1014 73 10000 7.2 110 18:39 01.01.2020
1546 Clouds 26 1014 73 10000 7.2 110 18:20 01.01.2020
1547 Clouds 26 1014 61 10000 5.1 140 17:59 01.01.2020
1548 Clouds 26 1014 61 10000 5.1 140 17:40 01.01.2020
1549 Clouds 25 1014 61 10000 5.1 140 17:20 01.01.2020
1550 Clouds 25 1014 61 10000 4.1 160 16:59 01.01.2020
1551 Clouds 25 1014 61 10000 4.1 160 16:38 01.01.2020
1552 Clouds 25 1014 61 10000 4.1 160 16:20 01.01.2020
1553 Clouds 25 1014 60 10000 5.7 140 15:57 01.01.2020
1554 Clouds 25 1014 60 10000 5.7 140 15:57 01.01.2020
1555 Clouds 25 1014 60 10000 5.7 140 15:38 01.01.2020
1556 Clouds 24 1014 60 10000 5.7 140 15:20 01.01.2020
1557 Clouds 24 1014 69 10000 6.2 160 14:56 01.01.2020
1558 Clouds 24 1014 69 10000 6.2 160 14:37 01.01.2020
1559 Clouds 23 1014 69 10000 6.2 160 14:19 01.01.2020
1560 Clouds 23 1013 73 10000 5.1 160 13:55 01.01.2020
1561 Clouds 22 1013 73 10000 5.1 160 13:36 01.01.2020
1562 Clouds 22 1013 73 10000 5.1 160 13:18 01.01.2020
1563 Clouds 22 1013 77 10000 4.6 170 12:40 01.01.2020
1564 Clouds 21 1013 77 10000 4.6 170 12:19 01.01.2020
1565 Clouds 20 1012 88 10000 4.6 160 11:57 01.01.2020
1566 Clouds 20 1012 88 10000 4.6 160 11:38 01.01.2020
1567 Clouds 20 1012 88 10000 4.6 160 11:19 01.01.2020
1568 Clouds 20 1011 83 10000 3.6 160 10:55 01.01.2020
1569 Clouds 20 1011 83 10000 3.6 160 10:36 01.01.2020
1570 Clouds 20 1011 83 10000 3.6 160 10:18 01.01.2020
1571 Clouds 20 1011 83 10000 4.6 160 09:40 01.01.2020
1572 Clouds 20 1011 83 10000 4.6 160 09:20 01.01.2020
1573 Clouds 20 1011 100 10000 3.1 160 08:57 01.01.2020
1574 Clouds 20 1011 100 10000 3.1 160 08:57 01.01.2020
1575 Clouds 20 1011 88 10000 3.6 170 08:38 01.01.2020
1576 Clouds 20 1011 88 10000 3.6 170 08:19 01.01.2020
1577 Clouds 20 1011 78 10000 2.6 160 07:57 01.01.2020
1578 Clouds 20 1011 78 10000 2.6 160 07:38 01.01.2020
1579 Clouds 20 1011 78 10000 4.6 150 06:50 01.01.2020
1580 Clouds 20 1011 78 10000 4.6 150 06:32 01.01.2020
1581 Clouds 21 1011 78 10000 4.6 140 05:46 01.01.2020
1582 Clear 22 1010 78 10000 4.1 110 03:48 01.01.2020
1583 Clear 22 1010 78 10000 4.1 110 03:28 01.01.2020
1584 Clouds 23 1009 78 10000 5.7 120 02:59 01.01.2020
1585 Clouds 23 1009 78 10000 5.7 120 02:41 01.01.2020
1586 Clouds 24 1009 78 10000 5.7 120 02:21 01.01.2020
1587 Clouds 24 1008 73 10000 4.1 140 01:40 01.01.2020
1588 Clouds 25 1008 73 10000 4.1 140 01:21 01.01.2020
1589 Clouds 25 1007 69 10000 4.1 140 00:44 01.01.2020
1590 Clouds 26 1007 69 10000 4.1 140 00:26 01.01.2020
1591 Clouds 26 1007 61 10000 4.1 170 23:43 31.12.2019
1592 Clouds 28 1007 61 10000 4.1 170 23:24 31.12.2019
1593 Clouds 28 1007 61 10000 4.1 170 22:59 31.12.2019
1594 Clouds 28 1007 61 10000 4.1 170 22:39 31.12.2019
1595 Clouds 28 1007 61 10000 4.1 170 22:20 31.12.2019
1596 Clouds 28 1007 61 10000 3.6 190 21:59 31.12.2019
1597 Clouds 28 1007 61 10000 3.6 190 21:41 31.12.2019
1598 Clouds 28 1007 61 10000 3.6 190 21:23 31.12.2019
1599 Clouds 28 1007 65 10000 3.6 190 20:57 31.12.2019
1600 Clouds 28 1007 65 10000 3.6 190 20:37 31.12.2019
1601 Clouds 28 1007 65 10000 3.6 190 20:19 31.12.2019
1602 Clouds 27 1007 69 10000 3.6 200 19:55 31.12.2019
1603 Clouds 27 1007 69 10000 3.6 200 19:37 31.12.2019
1604 Clouds 27 1007 69 10000 3.6 200 19:18 31.12.2019
1605 Clouds 27 1007 69 10000 3.6 200 18:54 31.12.2019
1606 Clouds 27 1007 69 10000 3.6 200 18:54 31.12.2019
1607 Clouds 27 1007 69 10000 3.6 200 18:36 31.12.2019
1608 Clouds 27 1007 69 10000 3.6 200 18:18 31.12.2019
1609 Clouds 26 1008 73 10000 4.6 210 17:55 31.12.2019
1610 Clouds 26 1008 73 10000 4.6 210 17:36 31.12.2019
1611 Clouds 26 1008 73 10000 4.6 210 17:36 31.12.2019
1612 Clouds 25 1008 73 10000 4.6 210 17:18 31.12.2019
1613 Clouds 25 1007 73 10000 3.6 210 16:55 31.12.2019
1614 Clouds 25 1007 73 10000 3.6 210 16:36 31.12.2019
1615 Clouds 25 1007 73 10000 3.6 210 16:18 31.12.2019
1616 Clouds 25 1007 78 10000 3.6 220 15:55 31.12.2019
1617 Clouds 25 1007 78 10000 3.6 220 15:37 31.12.2019
1618 Clouds 24 1007 78 10000 3.6 220 15:18 31.12.2019
1619 Clouds 24 1007 78 10000 3.6 220 15:18 31.12.2019
1620 Clouds 24 1007 83 10000 3.6 210 14:55 31.12.2019
1621 Clouds 24 1007 83 10000 3.6 210 14:36 31.12.2019
1622 Clouds 24 1007 83 10000 3.6 210 14:18 31.12.2019
1623 Clouds 23 1007 88 10000 3.6 200 13:54 31.12.2019
1624 Clouds 23 1007 88 10000 3.6 200 13:36 31.12.2019
1625 Clouds 22 1007 88 10000 3.6 200 13:18 31.12.2019
1626 Clouds 22 1007 88 10000 5.1 190 12:40 31.12.2019
1627 Clouds 22 1007 88 10000 5.1 190 12:21 31.12.2019
1628 Clouds 22 1007 88 10000 5.1 190 12:21 31.12.2019
1629 Clouds 22 1006 94 10000 2.1 180 11:57 31.12.2019
1630 Clouds 21 1006 94 10000 2.1 180 11:39 31.12.2019
1631 Clouds 21 1006 94 10000 2.1 180 11:20 31.12.2019
1632 Clouds 22 1005 94 10000 1 180 10:58 31.12.2019
1633 Drizzle 21 1005 94 1000 2.1 190 10:38 31.12.2019
1634 Drizzle 21 1005 94 1000 2.1 190 10:20 31.12.2019
1635 Drizzle 21 1005 94 3000 1.5 220 09:59 31.12.2019
1636 Drizzle 21 1005 94 3000 1.5 220 09:39 31.12.2019
1637 Drizzle 21 1005 94 3000 1.5 220 09:39 31.12.2019
1638 Drizzle 21 1005 94 3000 1.5 220 09:39 31.12.2019
1639 Drizzle 22 1005 94 5000 1.5 260 09:21 31.12.2019
1640 Rain 22 1005 100 10000 2.1 230 08:57 31.12.2019
1641 Drizzle 22 1005 94 5000 1.5 270 08:39 31.12.2019
1642 Clouds 22 1005 94 10000 1.5 280 08:19 31.12.2019
1643 Drizzle 22 1005 100 5000 1.5 0 07:43 31.12.2019
1644 Clouds 22 1006 94 10000 1.5 300 07:21 31.12.2019
1645 Clouds 22 1006 94 10000 3.1 310 06:50 31.12.2019
1646 Drizzle 23 1006 88 4500 4.1 350 05:57 31.12.2019
1647 Clouds 23 1007 94 10000 3.1 40 04:29 31.12.2019
1648 Rain 23 1007 94 10000 2.6 50 03:38 31.12.2019
1649 Rain 23 1007 88 10000 5.7 70 02:55 31.12.2019
1650 Drizzle 23 1007 88 9000 3.6 50 02:18 31.12.2019
1651 Clouds 23 1005 94 10000 8.7 100 01:42 31.12.2019
1652 Clouds 23 1005 94 10000 8.7 100 01:23 31.12.2019
1653 Rain 23 1005 94 7000 5.7 80 00:46 31.12.2019
1654 Rain 23 1006 88 8000 10.3 100 00:22 31.12.2019
1655 Rain 23 1007 94 1000 5.1 70 23:56 30.12.2019
1656 Rain 23 1007 94 1000 5.1 70 23:38 30.12.2019
1657 Rain 23 1007 94 5000 10.8 100 23:20 30.12.2019
1658 Rain 23 1007 94 2500 7.7 110 22:57 30.12.2019
1659 Rain 23 1007 94 2500 7.7 110 22:38 30.12.2019
1660 Rain 23 1007 94 3000 7.2 110 22:19 30.12.2019
1661 Rain 23 1007 94 2500 6.7 130 21:56 30.12.2019
1662 Rain 23 1007 88 3000 5.1 140 21:38 30.12.2019
1663 Rain 23 1007 88 3000 5.1 140 21:18 30.12.2019
1664 Rain 23 1007 88 3500 5.7 130 20:56 30.12.2019
1665 Rain 23 1007 88 3500 5.7 130 20:56 30.12.2019
1666 Rain 23 1007 88 3500 5.7 130 20:38 30.12.2019
1667 Rain 23 1008 94 6000 6.7 120 20:19 30.12.2019
1668 Rain 23 1008 100 5000 3.6 120 19:56 30.12.2019
1669 Rain 23 1010 88 6000 1.5 160 19:37 30.12.2019
1670 Rain 23 1010 88 6000 1.5 160 19:18 30.12.2019
1671 Rain 23 1009 88 5000 2.6 160 18:56 30.12.2019
1672 Rain 23 1009 94 9000 2.6 190 18:36 30.12.2019
1673 Rain 23 1009 88 5000 2.6 160 18:36 30.12.2019
1674 Rain 23 1009 94 9000 2.6 190 18:18 30.12.2019
1675 Rain 23 1010 100 5000 2.6 180 17:54 30.12.2019
1676 Rain 23 1010 94 7000 2.1 200 17:36 30.12.2019
1677 Rain 23 1010 94 7000 2.1 200 17:36 30.12.2019
1678 Rain 22 1010 94 7000 2.1 200 17:18 30.12.2019
1679 Thunderstorm 22 1011 94 7000 2.6 0 16:41 30.12.2019
1680 Thunderstorm 22 1011 100 400 2.6 280 16:20 30.12.2019
1681 Thunderstorm 22 1012 94 400 4.1 270 15:57 30.12.2019
1682 Thunderstorm 22 1012 94 400 4.1 270 15:39 30.12.2019
1683 Clouds 22 1010 83 10000 3.1 190 15:19 30.12.2019
1684 Clouds 22 1010 83 10000 3.1 190 15:19 30.12.2019
1685 Thunderstorm 23 1010 88 10000 5.1 180 14:55 30.12.2019
1686 Rain 23 1011 83 10000 2.6 130 14:37 30.12.2019
1687 Thunderstorm 23 1010 88 10000 5.1 180 14:37 30.12.2019
1688 Rain 23 1011 83 10000 2.6 130 14:18 30.12.2019
1689 Clouds 24 1010 83 10000 7.2 180 13:42 30.12.2019
1690 Rain 24 1010 88 10000 7.2 110 13:24 30.12.2019
1691 Rain 25 1010 83 10000 6.7 110 12:58 30.12.2019
1692 Rain 25 1010 83 10000 6.7 110 12:40 30.12.2019
1693 Rain 25 1010 83 10000 6.7 110 12:19 30.12.2019
1694 Rain 24 1010 83 10000 5.7 130 11:56 30.12.2019
1695 Rain 24 1010 83 10000 5.7 130 11:37 30.12.2019
1696 Rain 24 1010 83 10000 5.7 130 11:18 30.12.2019
1697 Rain 24 1010 83 10000 5.7 130 10:42 30.12.2019
1698 Rain 24 1010 83 10000 5.7 130 10:42 30.12.2019
1699 Rain 24 1010 83 10000 5.7 130 10:20 30.12.2019
1700 Rain 24 1010 73 10000 3.1 130 09:44 30.12.2019
1701 Rain 24 1010 73 10000 3.1 130 09:21 30.12.2019
1702 Rain 24 1010 65 10000 2.1 160 08:57 30.12.2019
1703 Rain 24 1010 65 10000 2.1 160 08:39 30.12.2019
1704 Rain 24 1010 65 10000 2.1 160 08:20 30.12.2019
1705 Rain 24 1010 65 10000 3.1 150 07:48 30.12.2019
1706 Rain 24 1010 65 10000 3.1 150 07:23 30.12.2019
1707 Clouds 24 1011 74 10000 2.1 0 06:32 30.12.2019
1708 Rain 25 1011 78 10000 5.7 100 04:31 30.12.2019
1709 Rain 25 1012 74 10000 1.5 60 03:47 30.12.2019
1710 Rain 24 1012 74 10000 2.1 220 02:45 30.12.2019
1711 Rain 24 1012 74 10000 2.1 220 02:25 30.12.2019
1712 Rain 24 1012 78 10000 3.6 220 01:27 30.12.2019
1713 Thunderstorm 24 1013 94 9000 5.7 230 00:56 30.12.2019
1714 Thunderstorm 24 1013 94 9000 5.7 230 00:36 30.12.2019
1715 Thunderstorm 26 1012 69 9000 6.2 280 23:42 29.12.2019
1716 Rain 27 1011 78 10000 4.6 110 23:24 29.12.2019
1717 Clouds 29 1010 74 10000 6.7 110 22:58 29.12.2019
1718 Clouds 30 1010 74 10000 6.7 110 22:38 29.12.2019
1719 Clouds 30 1010 74 10000 6.7 110 22:38 29.12.2019
1720 Clouds 30 1010 74 10000 6.7 110 22:20 29.12.2019
1721 Clouds 32 1010 66 10000 6.2 100 21:55 29.12.2019
1722 Clouds 32 1010 66 10000 6.2 100 21:55 29.12.2019
1723 Clouds 32 1010 66 10000 6.2 100 21:37 29.12.2019
1724 Clouds 33 1010 66 10000 6.2 100 21:18 29.12.2019
1725 Clouds 34 1010 58 10000 5.1 100 20:55 29.12.2019
1726 Clouds 34 1010 58 10000 5.1 100 20:55 29.12.2019
1727 Clouds 34 1010 58 10000 5.1 100 20:37 29.12.2019
1728 Clouds 34 1010 58 10000 5.1 100 20:37 29.12.2019
1729 Clouds 34 1010 58 10000 5.1 100 20:18 29.12.2019
1730 Clouds 34 1011 55 10000 5.7 100 19:55 29.12.2019
1731 Clouds 34 1011 55 10000 5.7 100 19:37 29.12.2019
1732 Clouds 34 1011 55 10000 5.7 100 19:18 29.12.2019
1733 Clouds 34 1012 56 10000 3.1 90 18:41 29.12.2019
1734 Clouds 34 1012 56 10000 3.1 90 18:21 29.12.2019
1735 Rain 34 1012 55 10000 4.1 70 17:59 29.12.2019
1736 Rain 34 1012 55 10000 4.1 70 17:40 29.12.2019
1737 Rain 34 1012 55 10000 4.1 70 17:20 29.12.2019
1738 Rain 33 1013 59 10000 4.1 70 16:58 29.12.2019
1739 Rain 33 1013 59 10000 4.1 70 16:40 29.12.2019
1740 Rain 33 1013 59 10000 4.1 70 16:40 29.12.2019
1741 Rain 33 1013 59 10000 4.1 70 16:21 29.12.2019
1742 Rain 32 1013 66 10000 4.1 70 15:59 29.12.2019
1743 Rain 32 1013 69 10000 4.1 100 15:40 29.12.2019
1744 Rain 31 1013 69 10000 4.1 100 15:20 29.12.2019
1745 Rain 31 1013 69 10000 4.6 100 14:58 29.12.2019
1746 Rain 31 1013 69 10000 4.6 100 14:39 29.12.2019
1747 Rain 30 1013 69 10000 4.6 100 14:18 29.12.2019
1748 Haze 29 1013 74 5000 2.1 90 13:58 29.12.2019
1749 Haze 29 1013 74 5000 2.1 90 13:39 29.12.2019
1750 Haze 28 1013 74 5000 2.1 90 13:21 29.12.2019
1751 Rain 27 1013 74 8000 1.5 140 12:56 29.12.2019
1752 Rain 27 1013 74 8000 1.5 140 12:38 29.12.2019
1753 Rain 26 1013 74 8000 1.5 140 12:19 29.12.2019
1754 Rain 25 1012 74 9000 1 0 11:40 29.12.2019
1755 Rain 24 1012 74 9000 1 0 11:20 29.12.2019
1756 Rain 23 1011 78 10000 1 0 10:55 29.12.2019
1757 Rain 23 1011 78 10000 1 0 10:37 29.12.2019
1758 Rain 22 1011 78 10000 1 0 10:18 29.12.2019
1759 Rain 22 1011 83 10000 1.5 230 09:43 29.12.2019
1760 Rain 22 1011 83 10000 1.5 230 09:25 29.12.2019
1761 Rain 22 1011 83 10000 1 220 08:50 29.12.2019
1762 Rain 23 1011 83 10000 1 220 08:29 29.12.2019
1763 Rain 23 1011 88 10000 2.34 30 07:59 29.12.2019
1764 Rain 23 1011 88 10000 2.34 30 07:32 29.12.2019
1765 Rain 23 1011 88 10000 2.34 30 06:57 29.12.2019
1766 Rain 23 1011 88 10000 2.34 30 06:27 29.12.2019
1767 Rain 24 1012 83 10000 1 230 05:54 29.12.2019
1768 Rain 24 1012 83 10000 1 140 04:42 29.12.2019
1769 Rain 24 1012 83 10000 1 140 04:21 29.12.2019
1770 Rain 25 1013 83 10000 2.1 130 03:21 29.12.2019
1771 Clouds 26 1012 88 10000 4.1 100 02:22 29.12.2019
1772 Clouds 26 1012 88 10000 4.1 100 02:22 29.12.2019
1773 Clouds 26 1011 78 10000 3.6 110 01:42 29.12.2019
1774 Rain 26 1011 78 10000 3.6 110 01:22 29.12.2019
1775 Rain 28 1011 83 10000 2.6 80 00:42 29.12.2019
1776 Rain 28 1011 83 10000 2.6 80 00:24 29.12.2019
1777 Rain 30 1010 69 10000 1.5 60 23:45 28.12.2019
1778 Clouds 30 1010 69 10000 1.5 60 23:18 28.12.2019
1779 Clouds 31 1009 69 10000 1.5 30 22:40 28.12.2019
1780 Clouds 31 1009 69 10000 1.5 30 22:21 28.12.2019
1781 Clouds 30 1010 62 10000 1.5 190 21:58 28.12.2019
1782 Clouds 31 1010 62 10000 1.5 190 21:40 28.12.2019
1783 Clouds 30 1010 62 10000 1.5 190 21:21 28.12.2019
1784 Clouds 30 1010 74 10000 2.6 80 20:58 28.12.2019
1785 Clouds 30 1010 74 10000 2.6 80 20:38 28.12.2019
1786 Clouds 29 1010 74 10000 2.6 80 20:20 28.12.2019
1787 Clouds 29 1009 70 10000 3.6 360 19:58 28.12.2019
1788 Clouds 29 1010 74 10000 2.6 50 19:39 28.12.2019
1789 Clouds 29 1010 74 10000 2.6 50 19:20 28.12.2019
1790 Clouds 29 1010 74 10000 5.1 20 18:57 28.12.2019
1791 Clouds 28 1011 78 10000 3.6 20 18:39 28.12.2019
1792 Clouds 28 1011 78 10000 3.6 20 18:18 28.12.2019
1793 Clouds 27 1012 78 10000 3.6 50 17:54 28.12.2019
1794 Clouds 28 1012 78 10000 3.6 50 17:36 28.12.2019
1795 Clouds 28 1012 78 10000 3.6 50 17:18 28.12.2019
1796 Clouds 28 1013 78 10000 3.6 70 16:45 28.12.2019
1797 Clouds 28 1013 78 10000 3.6 70 16:24 28.12.2019
1798 Clouds 28 1013 74 10000 3.6 150 15:44 28.12.2019
1799 Clouds 27 1013 74 10000 3.6 150 15:24 28.12.2019
1800 Rain 26 1013 78 10000 2.6 170 14:57 28.12.2019
1801 Rain 25 1013 78 10000 2.6 170 14:38 28.12.2019
1802 Rain 24 1013 83 5000 4.6 200 14:20 28.12.2019
1803 Rain 24 1013 83 10000 4.1 210 13:43 28.12.2019
1804 Thunderstorm 23 1013 83 5000 5.1 220 13:21 28.12.2019
1805 Rain 25 1012 74 10000 7.7 230 12:59 28.12.2019
1806 Clouds 25 1012 74 10000 7.7 230 12:40 28.12.2019
1807 Rain 26 1010 74 10000 4.1 310 12:21 28.12.2019
1808 Rain 27 1008 78 10000 3.1 320 11:40 28.12.2019
1809 Rain 27 1008 78 10000 3.1 320 11:22 28.12.2019
1810 Rain 27 1007 83 10000 3.1 350 10:59 28.12.2019
1811 Rain 27 1007 83 10000 3.1 350 10:41 28.12.2019
1812 Rain 27 1007 83 10000 3.1 350 10:20 28.12.2019
1813 Rain 27 1008 88 10000 1.5 70 09:55 28.12.2019
1814 Rain 26 1008 88 10000 1.5 70 09:36 28.12.2019
1815 Rain 26 1008 88 10000 1.5 70 09:36 28.12.2019
1816 Rain 26 1008 88 10000 1.5 70 09:18 28.12.2019
1817 Rain 26 1008 83 10000 2.1 70 08:42 28.12.2019
1818 Rain 26 1008 83 10000 2.1 70 08:23 28.12.2019
1819 Rain 26 1008 83 10000 1.5 80 07:47 28.12.2019
1820 Rain 26 1008 83 10000 1.5 80 07:22 28.12.2019
1821 Rain 26 1010 83 10000 2.1 80 05:46 28.12.2019
1822 Clouds 26 1011 78 10000 4.6 100 03:48 28.12.2019
1823 Clouds 26 1011 83 10000 5.1 110 02:51 28.12.2019
1824 Rain 26 1011 83 10000 5.1 110 02:20 28.12.2019
1825 Rain 26 1010 83 10000 7.2 110 01:55 28.12.2019
1826 Rain 27 1010 83 10000 7.2 110 01:23 28.12.2019
1827 Rain 27 1010 83 10000 6.2 120 00:45 28.12.2019
1828 Rain 28 1010 83 10000 6.2 120 00:27 28.12.2019
1829 Rain 28 1010 78 10000 6.2 110 23:57 27.12.2019
1830 Rain 29 1010 78 10000 6.2 110 23:37 27.12.2019
1831 Rain 30 1010 78 10000 6.2 110 23:18 27.12.2019
1832 Rain 31 1010 83 10000 5.7 100 22:55 27.12.2019
1833 Rain 31 1010 83 10000 5.7 100 22:37 27.12.2019
1834 Rain 31 1010 83 10000 5.7 100 22:19 27.12.2019
1835 Clouds 33 1010 66 10000 5.7 70 21:41 27.12.2019
1836 Clouds 34 1010 66 10000 5.7 70 21:23 27.12.2019
1837 Clouds 34 1010 59 10000 3.6 70 20:44 27.12.2019
1838 Clouds 33 1011 70 10000 4.6 80 20:26 27.12.2019
1839 Clouds 33 1011 66 10000 2.1 70 19:58 27.12.2019
1840 Clouds 33 1011 66 10000 2.1 70 19:58 27.12.2019
1841 Clouds 33 1011 66 10000 2.1 70 19:40 27.12.2019
1842 Clouds 33 1011 66 10000 2.1 70 19:19 27.12.2019
1843 Clouds 33 1012 74 10000 2.1 60 18:55 27.12.2019
1844 Clouds 32 1012 74 10000 2.1 60 18:36 27.12.2019
1845 Clouds 32 1012 74 10000 2.1 60 18:18 27.12.2019
1846 Clouds 31 1013 74 10000 2.6 80 17:55 27.12.2019
1847 Clouds 31 1013 74 10000 2.6 80 17:36 27.12.2019
1848 Clouds 31 1013 74 10000 2.6 80 17:18 27.12.2019
1849 Clouds 30 1013 78 10000 2.6 70 16:41 27.12.2019
1850 Clouds 30 1013 78 10000 2.6 70 16:22 27.12.2019
1851 Clouds 29 1013 74 10000 3.1 50 15:57 27.12.2019
1852 Clouds 29 1013 74 10000 3.1 50 15:37 27.12.2019
1853 Clouds 29 1013 74 10000 3.1 50 15:37 27.12.2019
1854 Clouds 29 1013 74 10000 3.1 50 15:18 27.12.2019
1855 Rain 27 1014 74 10000 3.6 100 14:55 27.12.2019
1856 Rain 27 1014 74 10000 3.6 100 14:37 27.12.2019
1857 Rain 26 1014 74 10000 3.6 100 14:19 27.12.2019
1858 Clouds 25 1014 78 10000 3.1 90 13:44 27.12.2019
1859 Clouds 25 1014 78 10000 3.1 90 13:22 27.12.2019
1860 Clouds 24 1014 83 10000 3.1 90 12:48 27.12.2019
1861 Clouds 23 1014 83 10000 3.1 90 12:29 27.12.2019
1862 Clouds 23 1013 83 10000 1.5 50 11:56 27.12.2019
1863 Clouds 23 1013 83 10000 1.5 50 11:38 27.12.2019
1864 Rain 22 1013 94 10000 1 20 11:19 27.12.2019
1865 Clouds 22 1013 88 10000 1.5 20 10:45 27.12.2019
1866 Clouds 22 1012 100 10000 2.1 50 10:23 27.12.2019
1867 Clouds 22 1013 100 10000 1.5 30 09:49 27.12.2019
1868 Clouds 22 1013 100 10000 1.5 30 09:22 27.12.2019
1869 Thunderstorm 22 1012 100 8000 1.5 0 08:59 27.12.2019
1870 Thunderstorm 22 1012 100 8000 1.5 0 08:40 27.12.2019
1871 Thunderstorm 22 1012 100 3000 2.1 30 08:18 27.12.2019
1872 Thunderstorm 22 1013 100 5000 2.1 210 07:38 27.12.2019
1873 Thunderstorm 22 1013 94 2500 1 0 06:43 27.12.2019
1874 Thunderstorm 22 1013 88 7000 2.1 120 06:22 27.12.2019
1875 Rain 22 1013 94 9000 5.7 70 04:32 27.12.2019
1876 Rain 21 1012 88 10000 4.6 90 02:27 27.12.2019
1877 Thunderstorm 21 1012 94 10000 4.1 150 01:42 27.12.2019
1878 Thunderstorm 21 1012 94 9000 8.7 130 01:20 27.12.2019
1879 Thunderstorm 21 1012 94 10000 5.7 120 00:46 27.12.2019
1880 Thunderstorm 21 1013 88 2000 5.1 150 00:25 27.12.2019
1881 Thunderstorm 21 1013 88 2000 5.1 150 00:25 27.12.2019
1882 Thunderstorm 21 1011 100 1500 5.1 80 23:44 26.12.2019
1883 Thunderstorm 22 1011 88 5000 9.8 110 23:24 26.12.2019
1884 Thunderstorm 22 1011 88 10000 10.3 120 22:58 26.12.2019
1885 Clouds 23 1012 83 10000 8.2 110 22:38 26.12.2019
1886 Clouds 24 1012 83 10000 8.2 110 22:18 26.12.2019
1887 Rain 25 1012 78 10000 7.7 110 21:39 26.12.2019
1888 Rain 25 1012 78 10000 7.7 110 21:21 26.12.2019
1889 Clouds 26 1013 73 10000 6.7 120 20:47 26.12.2019
1890 Clouds 26 1013 73 10000 6.7 120 20:24 26.12.2019
1891 Clouds 27 1013 69 10000 6.2 110 19:59 26.12.2019
1892 Clouds 27 1013 69 10000 6.2 110 19:40 26.12.2019
1893 Clouds 26 1013 69 10000 6.2 110 19:22 26.12.2019
1894 Clouds 26 1014 69 10000 5.7 110 18:59 26.12.2019
1895 Clouds 26 1014 69 10000 5.7 110 18:40 26.12.2019
1896 Clouds 26 1014 69 10000 5.7 110 18:20 26.12.2019
1897 Clouds 26 1014 64 10000 6.2 110 17:58 26.12.2019
1898 Clouds 26 1014 64 10000 6.2 110 17:40 26.12.2019
1899 Clouds 26 1014 64 10000 6.2 110 17:19 26.12.2019
1900 Clouds 26 1015 60 10000 6.2 100 16:46 26.12.2019
1901 Clouds 26 1015 60 10000 6.2 100 16:26 26.12.2019
1902 Clouds 25 1015 60 10000 6.2 110 15:56 26.12.2019
1903 Clouds 25 1015 60 10000 6.2 110 15:56 26.12.2019
1904 Clouds 25 1015 60 10000 6.2 110 15:38 26.12.2019
1905 Clouds 25 1015 60 10000 6.2 110 15:18 26.12.2019
1906 Clouds 24 1015 64 10000 6.7 110 14:41 26.12.2019
1907 Clouds 23 1015 64 10000 6.7 110 14:22 26.12.2019
1908 Clouds 22 1016 64 10000 6.7 100 13:45 26.12.2019
1909 Clouds 22 1016 64 10000 6.7 100 13:23 26.12.2019
1910 Clouds 21 1015 64 10000 7.7 110 12:58 26.12.2019
1911 Clouds 20 1015 64 10000 7.7 110 12:39 26.12.2019
1912 Clouds 20 1015 64 10000 7.7 110 12:21 26.12.2019
1913 Clouds 19 1015 64 10000 6.7 100 11:58 26.12.2019
1914 Clouds 19 1015 64 10000 6.7 100 11:39 26.12.2019
1915 Clouds 18 1015 64 10000 6.7 100 11:20 26.12.2019
1916 Clouds 16 1015 72 10000 6.2 100 10:49 26.12.2019
1917 Clouds 15 1015 72 10000 6.2 100 10:19 26.12.2019
1918 Clouds 14 1016 82 10000 3.1 70 09:53 26.12.2019
1919 Clouds 14 1016 82 10000 3.1 70 09:32 26.12.2019
1920 Clouds 14 1016 82 10000 4.1 90 08:55 26.12.2019
1921 Clouds 14 1016 82 10000 4.1 90 08:37 26.12.2019
1922 Clouds 15 1016 82 10000 4.1 90 08:18 26.12.2019
1923 Clouds 15 1016 82 10000 4.6 50 07:30 26.12.2019
1924 Clouds 15 1016 82 10000 4.6 50 07:30 26.12.2019
1925 Clouds 15 1016 77 10000 4.1 130 06:54 26.12.2019
1926 Clouds 15 1016 77 10000 4.1 130 06:54 26.12.2019
1927 Clouds 15 1016 82 10000 4.6 90 06:32 26.12.2019
1928 Clouds 15 1017 87 10000 2.1 140 05:46 26.12.2019
1929 Clouds 15 1017 77 10000 5.1 140 04:59 26.12.2019
1930 Rain 15 1017 87 10000 3.1 110 04:30 26.12.2019
1931 Rain 15 1016 77 10000 5.1 150 02:58 26.12.2019
1932 Clouds 15 1017 93 10000 2.6 140 02:34 26.12.2019
1933 Clouds 15 1016 82 10000 4.6 150 01:51 26.12.2019
1934 Clouds 15 1016 82 10000 4.6 150 01:33 26.12.2019
1935 Rain 15 1016 100 9000 3.1 150 00:50 26.12.2019
1936 Clouds 15 1016 87 10000 4.1 150 00:27 26.12.2019
1937 Clouds 15 1016 87 10000 4.1 150 00:27 26.12.2019
1938 Rain 15 1015 93 6000 2.6 180 23:59 25.12.2019
1939 Rain 15 1015 93 6000 2.6 180 23:40 25.12.2019
1940 Thunderstorm 15 1015 93 2500 2.6 120 23:21 25.12.2019
1941 Thunderstorm 15 1014 87 1500 4.1 160 22:59 25.12.2019
1942 Thunderstorm 15 1014 87 1500 4.1 160 22:39 25.12.2019
1943 Rain 16 1015 72 6000 4.1 160 22:21 25.12.2019
1944 Rain 17 1015 56 5000 5.1 170 21:58 25.12.2019
1945 Rain 17 1015 56 5000 5.1 170 21:39 25.12.2019
1946 Clouds 18 1014 43 10000 4.6 160 21:20 25.12.2019
1947 Clouds 19 1014 49 10000 3.6 110 20:56 25.12.2019
1948 Clouds 20 1014 49 10000 3.6 110 20:38 25.12.2019
1949 Clouds 21 1014 49 10000 3.6 110 20:18 25.12.2019
1950 Clouds 21 1014 49 10000 3.6 110 20:18 25.12.2019
1951 Clouds 21 1014 49 10000 3.6 110 20:18 25.12.2019
1952 Clouds 22 1014 43 10000 4.1 110 19:43 25.12.2019
1953 Clouds 22 1014 43 10000 4.1 110 19:24 25.12.2019
1954 Clouds 22 1015 46 10000 3.1 110 18:58 25.12.2019
1955 Clouds 22 1015 46 10000 3.1 110 18:36 25.12.2019
1956 Clouds 22 1015 46 10000 3.1 110 18:18 25.12.2019
1957 Clouds 21 1016 40 10000 3.6 110 17:41 25.12.2019
1958 Clouds 21 1016 40 10000 3.6 110 17:19 25.12.2019
1959 Clouds 21 1016 40 10000 3.6 130 16:57 25.12.2019
1960 Clouds 21 1016 40 10000 3.6 130 16:37 25.12.2019
1961 Clouds 21 1016 40 10000 3.6 130 16:18 25.12.2019
1962 Clouds 21 1016 40 10000 3.6 130 16:18 25.12.2019
1963 Clouds 21 1016 43 10000 4.6 110 15:56 25.12.2019
1964 Clouds 20 1016 43 10000 4.6 110 15:38 25.12.2019
1965 Clouds 21 1016 43 10000 4.6 110 15:19 25.12.2019
1966 Clouds 21 1016 43 10000 4.6 110 15:19 25.12.2019
1967 Clouds 20 1016 46 10000 4.6 110 14:56 25.12.2019
1968 Clouds 20 1016 46 10000 4.6 110 14:37 25.12.2019
1969 Clouds 20 1016 46 10000 4.6 110 14:18 25.12.2019
1970 Clouds 20 1015 43 10000 6.7 110 13:42 25.12.2019
1971 Clouds 20 1015 43 10000 6.7 110 13:21 25.12.2019
1972 Clouds 20 1015 45 10000 6.2 160 12:44 25.12.2019
1973 Clouds 19 1015 45 10000 6.2 160 12:23 25.12.2019
1974 Clouds 19 1014 43 10000 6.2 160 11:58 25.12.2019
1975 Clouds 19 1014 43 10000 6.2 160 11:40 25.12.2019
1976 Clouds 20 1014 43 10000 6.2 160 11:21 25.12.2019
1977 Clouds 20 1014 43 10000 5.7 160 10:41 25.12.2019
1978 Clouds 20 1014 43 10000 5.7 160 10:21 25.12.2019
1979 Clouds 20 1013 43 10000 9.3 160 09:59 25.12.2019
1980 Clouds 20 1013 43 10000 9.3 160 09:40 25.12.2019
1981 Clouds 20 1013 43 10000 9.3 160 09:22 25.12.2019
1982 Clouds 21 1011 46 10000 7.2 160 08:43 25.12.2019
1983 Clouds 21 1011 46 10000 7.2 160 08:24 25.12.2019
1984 Clear 22 1011 46 10000 6.7 160 07:43 25.12.2019
1985 Clear 22 1011 46 10000 6.7 160 07:22 25.12.2019
1986 Clear 22 1008 49 10000 5.1 160 06:24 25.12.2019
1987 Clear 23 1007 44 10000 5.1 200 05:50 25.12.2019
1988 Clear 25 1006 47 10000 5.7 190 04:44 25.12.2019
1989 Clear 25 1005 61 10000 5.1 320 04:24 25.12.2019
1990 Clear 26 1005 69 10000 3.6 340 03:43 25.12.2019
1991 Clear 27 1005 65 10000 2.6 340 02:58 25.12.2019
1992 Clear 28 1005 65 10000 2.6 340 02:29 25.12.2019
1993 Clear 28 1004 69 10000 2.6 320 01:43 25.12.2019
1994 Clear 28 1004 69 10000 2.6 320 01:18 25.12.2019
1995 Clear 29 1003 69 10000 2.6 360 00:41 25.12.2019
1996 Clear 30 1003 48 10000 3.6 20 00:23 25.12.2019
1997 Clear 31 1002 35 10000 4.6 340 23:39 24.12.2019
1998 Clear 32 1002 35 10000 4.6 340 23:20 24.12.2019
1999 Clear 33 1002 35 10000 5.7 330 22:42 24.12.2019
2000 Clear 33 1002 35 10000 5.7 330 22:24 24.12.2019
2001 Clear 33 1002 33 10000 6.7 320 21:59 24.12.2019
2002 Clear 33 1002 33 10000 6.7 320 21:40 24.12.2019
2003 Clear 33 1002 33 10000 6.7 320 21:19 24.12.2019
2004 Clear 33 1002 33 10000 6.7 320 21:19 24.12.2019
2005 Clear 33 1003 40 10000 6.2 340 20:41 24.12.2019
2006 Clear 33 1003 40 10000 6.2 340 20:20 24.12.2019
2007 Clear 33 1003 33 10000 7.2 320 19:47 24.12.2019
2008 Clear 33 1003 33 10000 7.2 320 19:22 24.12.2019
2009 Clear 33 1004 33 10000 7.2 310 18:59 24.12.2019
2010 Clear 32 1004 40 10000 7.2 340 18:40 24.12.2019
2011 Clear 32 1004 40 10000 7.2 340 18:18 24.12.2019
2012 Clear 32 1005 33 10000 7.7 330 17:43 24.12.2019
2013 Clear 31 1005 33 10000 7.7 330 17:22 24.12.2019
2014 Clear 30 1005 37 10000 8.2 340 16:58 24.12.2019
2015 Clear 31 1005 37 10000 8.2 340 16:39 24.12.2019
2016 Clear 30 1005 37 10000 8.2 340 16:20 24.12.2019
2017 Clear 30 1006 39 10000 8.7 340 15:57 24.12.2019
2018 Clear 29 1006 39 10000 8.7 340 15:36 24.12.2019
2019 Clear 29 1006 39 10000 8.7 340 15:18 24.12.2019
2020 Clear 28 1006 44 10000 7.2 340 14:57 24.12.2019
2021 Clear 28 1006 44 10000 7.2 340 14:57 24.12.2019
2022 Clear 28 1006 44 10000 7.2 340 14:57 24.12.2019
2023 Clear 28 1006 44 10000 7.2 340 14:38 24.12.2019
2024 Clear 27 1006 44 10000 7.2 340 14:20 24.12.2019
2025 Clear 26 1007 50 10000 5.7 340 13:55 24.12.2019
2026 Clear 26 1007 50 10000 5.7 340 13:37 24.12.2019
2027 Clear 25 1007 50 10000 5.7 340 13:19 24.12.2019
2028 Clear 24 1007 60 10000 5.7 330 12:55 24.12.2019
2029 Clear 23 1007 60 10000 5.7 330 12:36 24.12.2019
2030 Clear 22 1007 60 10000 5.7 330 12:18 24.12.2019
2031 Clear 22 1007 60 10000 5.7 330 12:18 24.12.2019
2032 Clear 21 1007 60 10000 5.7 330 11:55 24.12.2019
2033 Clear 21 1007 60 10000 5.7 330 11:36 24.12.2019
2034 Clear 21 1007 60 10000 5.7 330 11:18 24.12.2019
2035 Clear 20 1007 68 10000 6.7 330 10:55 24.12.2019
2036 Clear 20 1007 68 10000 6.7 330 10:55 24.12.2019
2037 Clear 19 1007 68 10000 6.7 330 10:37 24.12.2019
2038 Clear 19 1007 68 10000 6.7 330 10:19 24.12.2019
2039 Clear 20 1007 64 10000 4.1 320 09:54 24.12.2019
2040 Clear 20 1007 64 10000 4.1 320 09:36 24.12.2019
2041 Clear 20 1007 64 10000 4.1 320 09:18 24.12.2019
2042 Clear 20 1007 60 10000 6.2 320 08:43 24.12.2019
2043 Clouds 20 1007 60 10000 6.2 320 08:20 24.12.2019
2044 Clouds 20 1008 64 10000 5.1 330 07:45 24.12.2019
2045 Clouds 21 1008 49 10000 4.1 330 07:24 24.12.2019
2046 Clouds 21 1008 64 10000 5.1 320 06:44 24.12.2019
2047 Clouds 21 1008 64 10000 5.1 320 06:22 24.12.2019
2048 Clouds 22 1009 53 10000 5.7 330 05:57 24.12.2019
2049 Clear 22 1009 53 10000 5.7 330 05:20 24.12.2019
2050 Clear 22 1009 53 10000 5.1 330 04:33 24.12.2019
2051 Clear 23 1009 50 10000 4.6 340 03:50 24.12.2019
2052 Clear 23 1009 47 10000 4.1 330 02:59 24.12.2019
2053 Clear 24 1009 47 10000 4.1 330 02:18 24.12.2019
2054 Clear 25 1009 47 10000 4.1 330 01:42 24.12.2019
2055 Clear 25 1009 47 10000 4.1 330 01:19 24.12.2019
2056 Clear 25 1009 47 10000 3.6 340 00:41 24.12.2019
2057 Clear 26 1009 47 10000 3.6 340 00:22 24.12.2019
2058 Clear 28 1009 47 10000 4.6 350 23:43 23.12.2019
2059 Clear 28 1009 47 10000 4.6 350 23:24 23.12.2019
2060 Clear 29 1010 39 10000 4.6 350 22:58 23.12.2019
2061 Clear 29 1010 39 10000 4.6 350 22:58 23.12.2019
2062 Clear 30 1010 39 10000 4.6 350 22:38 23.12.2019
2063 Clear 30 1010 39 10000 4.6 350 22:20 23.12.2019
2064 Clear 30 1010 37 10000 5.1 350 21:57 23.12.2019
2065 Clear 30 1010 37 10000 5.1 350 21:37 23.12.2019
2066 Clear 30 1010 37 10000 5.1 350 21:19 23.12.2019
2067 Clear 30 1011 44 10000 4.1 20 20:59 23.12.2019
2068 Clear 30 1011 44 10000 4.1 20 20:41 23.12.2019
2069 Clear 30 1011 44 10000 4.1 20 20:19 23.12.2019
2070 Clear 30 1011 44 10000 4.1 20 20:19 23.12.2019
2071 Clear 31 1012 39 10000 5.1 360 19:59 23.12.2019
2072 Clear 31 1012 39 10000 5.1 360 19:40 23.12.2019
2073 Clear 31 1012 39 10000 5.1 360 19:40 23.12.2019
2074 Clear 30 1012 39 10000 5.1 360 19:21 23.12.2019
2075 Clear 30 1012 42 10000 4.6 350 18:58 23.12.2019
2076 Clear 30 1012 42 10000 4.6 350 18:58 23.12.2019
2077 Clear 30 1012 42 10000 4.6 350 18:39 23.12.2019
2078 Clear 30 1012 42 10000 4.6 350 18:20 23.12.2019
2079 Clear 29 1013 36 10000 5.7 350 17:59 23.12.2019
2080 Clear 29 1013 36 10000 5.7 350 17:40 23.12.2019
2081 Clear 29 1013 36 10000 5.7 350 17:19 23.12.2019
2082 Clear 28 1013 34 10000 4.6 340 16:57 23.12.2019
2083 Clear 28 1013 34 10000 4.6 340 16:39 23.12.2019
2084 Clear 27 1014 41 10000 5.1 340 16:18 23.12.2019
2085 Clear 27 1014 41 10000 5.1 340 15:56 23.12.2019
2086 Clear 27 1014 41 10000 5.1 340 15:36 23.12.2019
2087 Clear 26 1014 41 10000 5.1 340 15:18 23.12.2019
2088 Clear 26 1013 33 10000 3.6 330 14:55 23.12.2019
2089 Clear 26 1013 33 10000 3.6 330 14:36 23.12.2019
2090 Clear 25 1013 33 10000 3.6 330 14:18 23.12.2019
2091 Clear 24 1014 35 10000 2.6 260 13:41 23.12.2019
2092 Clear 23 1014 35 10000 2.6 260 13:23 23.12.2019
2093 Clear 22 1014 40 10000 3.1 270 12:59 23.12.2019
2094 Clear 21 1014 40 10000 3.1 270 12:40 23.12.2019
2095 Clear 20 1014 40 10000 3.1 270 12:21 23.12.2019
2096 Clear 18 1014 52 10000 2.1 300 11:55 23.12.2019
2097 Clear 18 1014 52 10000 2.1 300 11:37 23.12.2019
2098 Clear 16 1014 52 10000 2.1 300 11:18 23.12.2019
2099 Clear 15 1013 67 10000 2.6 310 10:54 23.12.2019
2100 Clear 16 1013 67 10000 2.6 310 10:36 23.12.2019
2101 Clear 15 1013 67 10000 2.6 310 10:18 23.12.2019
2102 Clear 14 1013 77 10000 2.6 300 09:40 23.12.2019
2103 Clear 14 1013 77 10000 2.6 300 09:22 23.12.2019
2104 Clear 14 1013 72 10000 3.6 340 08:59 23.12.2019
2105 Clear 14 1013 72 10000 3.6 340 08:40 23.12.2019
2106 Clear 15 1013 72 10000 3.6 340 08:22 23.12.2019
2107 Clear 15 1014 68 10000 3.1 20 07:48 23.12.2019
2108 Clear 16 1014 68 10000 3.1 20 07:21 23.12.2019
2109 Clear 16 1014 68 10000 3.6 50 06:57 23.12.2019
2110 Clear 16 1014 68 10000 3.6 50 06:27 23.12.2019
2111 Clear 16 1015 68 10000 4.6 70 05:56 23.12.2019
2112 Clear 17 1015 68 10000 4.6 70 05:29 23.12.2019
2113 Clear 18 1015 56 10000 3.6 110 04:39 23.12.2019
2114 Clear 18 1015 35 10000 5.03 65 03:28 23.12.2019
2115 Clear 20 1015 28 10000 5.03 65 02:43 23.12.2019
2116 Clear 20 1015 28 10000 3.33 92 02:19 23.12.2019
2117 Clear 21 1014 25 10000 1.5 0 01:43 23.12.2019
2118 Clear 21 1014 25 10000 1.5 0 01:25 23.12.2019
2119 Clear 23 1014 25 10000 1.5 0 00:43 23.12.2019
2120 Clear 23 1014 25 10000 1.5 0 00:23 23.12.2019
2121 Clear 25 1014 24 10000 3.6 200 23:40 22.12.2019
2122 Clear 26 1014 24 10000 3.6 200 23:21 22.12.2019
2123 Clear 26 1014 24 10000 3.6 200 22:58 22.12.2019
2124 Clear 26 1014 24 10000 3.6 200 22:58 22.12.2019
2125 Clear 26 1014 24 10000 3.6 200 22:58 22.12.2019
2126 Clear 26 1014 24 10000 3.6 200 22:40 22.12.2019
2127 Clear 26 1014 26 10000 4.6 180 22:21 22.12.2019
2128 Clear 26 1015 26 10000 4.6 180 21:58 22.12.2019
2129 Clear 26 1015 26 10000 4.6 180 21:40 22.12.2019
2130 Clear 26 1015 26 10000 4.6 180 21:21 22.12.2019
2131 Clear 26 1015 24 10000 2.6 180 20:58 22.12.2019
2132 Clear 26 1015 24 10000 2.6 180 20:38 22.12.2019
2133 Clear 26 1015 24 10000 2.6 180 20:18 22.12.2019
2134 Clear 26 1016 22 10000 4.6 210 19:56 22.12.2019
2135 Clear 26 1016 22 10000 4.6 210 19:37 22.12.2019
2136 Clear 26 1016 22 10000 4.6 210 19:19 22.12.2019
2137 Clear 25 1016 23 10000 5.1 150 18:40 22.12.2019
2138 Clear 25 1016 23 10000 5.1 150 18:40 22.12.2019
2139 Clear 25 1016 27 10000 3.6 200 18:22 22.12.2019
2140 Clear 24 1017 31 10000 3.1 170 17:55 22.12.2019
2141 Clear 24 1017 31 10000 3.1 170 17:37 22.12.2019
2142 Clear 24 1017 31 10000 3.1 170 17:18 22.12.2019
2143 Clear 23 1017 35 10000 3.1 180 16:56 22.12.2019
2144 Clear 23 1017 35 10000 3.1 180 16:56 22.12.2019
2145 Clear 22 1017 35 10000 3.1 180 16:38 22.12.2019
2146 Clear 22 1017 35 10000 3.1 180 16:19 22.12.2019
2147 Clear 21 1017 42 10000 3.1 200 15:56 22.12.2019
2148 Clear 20 1017 42 10000 3.1 200 15:36 22.12.2019
2149 Clear 21 1017 42 10000 3.1 200 15:36 22.12.2019
2150 Clear 20 1017 42 10000 3.1 200 15:18 22.12.2019
2151 Clear 19 1017 48 10000 2.1 230 14:54 22.12.2019
2152 Clear 19 1017 48 10000 2.1 230 14:36 22.12.2019
2153 Clear 18 1017 48 10000 2.1 230 14:18 22.12.2019
2154 Clear 18 1017 48 10000 2.1 230 14:18 22.12.2019
2155 Clear 17 1017 59 10000 2.6 180 13:54 22.12.2019
2156 Clear 17 1017 59 10000 2.6 180 13:36 22.12.2019
2157 Clear 16 1017 59 10000 2.6 180 13:18 22.12.2019
2158 Clear 15 1017 67 10000 4.1 160 12:54 22.12.2019
2159 Clear 15 1017 67 10000 4.1 160 12:36 22.12.2019
2160 Clear 14 1017 67 10000 4.1 160 12:18 22.12.2019
2161 Clear 13 1017 71 10000 3.1 180 11:39 22.12.2019
2162 Clear 12 1017 71 10000 3.1 180 11:20 22.12.2019
2163 Clear 11 1016 71 10000 3.6 180 10:58 22.12.2019
2164 Clear 11 1016 71 10000 3.6 180 10:40 22.12.2019
2165 Clear 10 1016 71 10000 3.6 180 10:20 22.12.2019
2166 Clear 10 1015 71 10000 4.1 200 09:58 22.12.2019
2167 Clear 10 1015 71 10000 4.1 200 09:40 22.12.2019
2168 Clear 10 1015 71 10000 4.1 200 09:21 22.12.2019
2169 Clear 10 1014 71 10000 3.6 200 08:45 22.12.2019
2170 Clear 11 1014 71 10000 3.6 200 08:23 22.12.2019
2171 Clear 11 1014 62 10000 4.1 200 07:52 22.12.2019
2172 Clear 12 1014 62 10000 4.1 200 07:22 22.12.2019
2173 Clear 12 1014 58 10000 3.1 180 06:57 22.12.2019
2174 Clear 12 1014 58 10000 3.1 180 06:30 22.12.2019
2175 Clear 13 1014 59 10000 4.1 180 05:43 22.12.2019
2176 Clear 14 1014 59 10000 4.1 180 05:21 22.12.2019
2177 Clear 15 1014 59 10000 5.1 160 04:27 22.12.2019
2178 Clear 16 1014 59 10000 5.1 160 03:24 22.12.2019
2179 Clear 17 1013 59 10000 5.1 160 02:34 22.12.2019
2180 Clear 19 1012 52 10000 6.2 160 01:33 22.12.2019
2181 Clear 20 1011 35 10000 5.1 180 00:58 22.12.2019
2182 Clear 20 1011 35 10000 5.1 180 00:39 22.12.2019
2183 Clear 21 1011 35 10000 5.1 180 00:20 22.12.2019
2184 Clear 22 1011 33 10000 5.1 200 23:42 21.12.2019
2185 Clear 23 1011 33 10000 5.1 200 23:24 21.12.2019
2186 Clear 24 1010 31 10000 3.6 230 22:57 21.12.2019
2187 Clear 24 1010 31 10000 3.6 230 22:39 21.12.2019
2188 Clear 24 1010 31 10000 3.6 230 22:18 21.12.2019
2189 Clear 24 1011 33 10000 4.6 220 21:56 21.12.2019
2190 Clear 24 1011 33 10000 4.6 220 21:37 21.12.2019
2191 Clear 24 1011 33 10000 4.6 220 21:18 21.12.2019
2192 Clear 24 1011 36 10000 6.7 190 20:57 21.12.2019
2193 Clear 24 1011 36 10000 6.7 190 20:57 21.12.2019
2194 Clear 24 1011 35 10000 4.1 220 20:37 21.12.2019
2195 Clear 23 1011 35 10000 4.1 220 20:19 21.12.2019
2196 Clear 24 1011 41 10000 4.1 220 19:55 21.12.2019
2197 Clear 23 1011 41 10000 4.1 220 19:36 21.12.2019
2198 Clear 23 1011 41 10000 4.1 220 19:36 21.12.2019
2199 Clear 23 1011 41 10000 4.1 220 19:18 21.12.2019
2200 Clouds 23 1011 49 10000 4.1 190 18:41 21.12.2019
2201 Clouds 23 1011 49 10000 4.1 190 18:23 21.12.2019
2202 Clouds 22 1011 52 10000 3.6 220 17:56 21.12.2019
2203 Clouds 21 1011 52 10000 3.6 220 17:38 21.12.2019
2204 Clouds 21 1011 52 10000 3.6 220 17:20 21.12.2019
2205 Clouds 20 1012 63 10000 3.1 220 16:57 21.12.2019
2206 Clouds 20 1012 63 10000 3.1 220 16:38 21.12.2019
2207 Clouds 20 1012 63 10000 3.1 220 16:18 21.12.2019
2208 Clouds 19 1012 63 10000 2.6 190 15:55 21.12.2019
2209 Clouds 19 1012 63 10000 2.6 190 15:37 21.12.2019
2210 Clouds 19 1012 63 10000 2.6 190 15:18 21.12.2019
2211 Clouds 19 1012 63 10000 2.6 190 15:18 21.12.2019
2212 Clouds 18 1011 67 10000 4.1 190 14:41 21.12.2019
2213 Clouds 18 1011 67 10000 4.1 190 14:23 21.12.2019
2214 Clouds 17 1010 72 10000 3.6 180 13:58 21.12.2019
2215 Clouds 17 1010 72 10000 3.6 180 13:39 21.12.2019
2216 Clouds 17 1010 72 10000 3.6 180 13:19 21.12.2019
2217 Clouds 17 1010 72 10000 3.6 180 13:19 21.12.2019
2218 Clouds 16 1010 72 10000 4.1 190 12:56 21.12.2019
2219 Clouds 16 1010 72 10000 4.1 190 12:38 21.12.2019
2220 Clouds 15 1010 72 10000 4.1 190 12:20 21.12.2019
2221 Clouds 14 1010 77 10000 3.1 200 11:46 21.12.2019
2222 Clouds 15 1010 77 10000 3.1 200 11:27 21.12.2019
2223 Clouds 14 1010 82 10000 4.1 190 10:59 21.12.2019
2224 Clouds 14 1010 82 10000 4.1 190 10:40 21.12.2019
2225 Clouds 14 1010 82 10000 4.1 190 10:21 21.12.2019
2226 Clouds 14 1009 82 10000 4.6 190 09:57 21.12.2019
2227 Clouds 14 1009 82 10000 4.6 190 09:39 21.12.2019
2228 Clouds 14 1009 82 10000 4.6 190 09:19 21.12.2019
2229 Clouds 14 1009 82 10000 3.6 210 08:46 21.12.2019
2230 Clouds 13 1009 82 10000 3.6 210 08:26 21.12.2019
2231 Clouds 14 1008 82 10000 3.1 200 07:47 21.12.2019
2232 Clouds 14 1008 82 10000 3.1 200 07:23 21.12.2019
2233 Clouds 14 1009 77 10000 4.1 200 06:47 21.12.2019
2234 Clouds 13 1009 77 10000 4.1 200 06:28 21.12.2019
2235 Clouds 14 1008 87 10000 5.1 190 05:58 21.12.2019
2236 Clouds 16 1009 82 10000 3.6 170 04:59 21.12.2019
2237 Clouds 17 1009 82 10000 3.6 170 04:19 21.12.2019
2238 Clouds 17 1009 82 10000 3.1 190 03:56 21.12.2019
2239 Clouds 18 1008 82 10000 3.6 190 02:19 21.12.2019
2240 Clouds 18 1008 82 10000 3.6 190 01:41 21.12.2019
2241 Clouds 18 1008 82 10000 3.6 190 01:22 21.12.2019
2242 Clouds 18 1008 82 10000 4.1 190 00:37 21.12.2019
2243 Clouds 18 1008 82 10000 4.1 190 00:18 21.12.2019
2244 Clouds 19 1007 82 10000 3.6 170 23:38 20.12.2019
2245 Clouds 19 1007 82 10000 3.6 170 23:19 20.12.2019
2246 Rain 20 1008 94 9000 5.1 180 22:43 20.12.2019
2247 Clouds 20 1007 77 10000 3.6 220 22:22 20.12.2019
2248 Rain 20 1008 100 2000 3.1 190 21:59 20.12.2019
2249 Rain 20 1008 100 2000 3.1 190 21:40 20.12.2019
2250 Clouds 20 1008 78 10000 1.5 200 21:20 20.12.2019
2251 Clouds 20 1008 78 10000 1.5 200 21:20 20.12.2019
2252 Rain 20 1009 100 5000 2.6 220 20:55 20.12.2019
2253 Clouds 20 1009 83 10000 2.6 150 20:36 20.12.2019
2254 Rain 20 1009 88 9000 3.1 190 20:18 20.12.2019
2255 Rain 20 1009 88 9000 3.1 190 19:41 20.12.2019
2256 Rain 20 1009 88 9000 3.1 190 19:20 20.12.2019
2257 Rain 20 1008 88 8000 5.7 140 18:58 20.12.2019
2258 Rain 20 1008 88 8000 5.7 140 18:38 20.12.2019
2259 Rain 20 1009 88 4500 3.1 130 18:20 20.12.2019
2260 Rain 19 1009 82 7000 4.1 190 17:54 20.12.2019
2261 Rain 19 1009 82 7000 4.1 190 17:36 20.12.2019
2262 Rain 19 1009 82 7000 4.1 190 17:18 20.12.2019
2263 Rain 19 1010 88 6000 4.1 210 16:40 20.12.2019
2264 Rain 19 1010 88 6000 4.1 210 16:20 20.12.2019
2265 Rain 19 1009 88 7000 4.1 200 15:57 20.12.2019
2266 Rain 19 1010 93 6000 8.2 200 15:39 20.12.2019
2267 Rain 19 1010 93 6000 8.2 200 15:19 20.12.2019
2268 Rain 20 1009 83 8000 4.6 220 14:57 20.12.2019
2269 Rain 20 1009 83 8000 4.6 220 14:57 20.12.2019
2270 Rain 20 1008 73 10000 4.1 200 14:39 20.12.2019
2271 Clouds 22 1008 73 10000 4.1 200 14:20 20.12.2019
2272 Clouds 23 1008 74 10000 2.6 230 13:41 20.12.2019
2273 Clouds 24 1008 74 10000 2.6 230 13:21 20.12.2019
2274 Clouds 24 1009 78 10000 2.1 70 12:59 20.12.2019
2275 Clouds 24 1009 78 10000 2.1 70 12:40 20.12.2019
2276 Clouds 24 1008 88 10000 6.2 240 12:19 20.12.2019
2277 Clouds 24 1008 88 10000 6.2 240 11:59 20.12.2019
2278 Clouds 24 1008 88 10000 6.2 240 11:59 20.12.2019
2279 Clouds 24 1008 73 10000 4.1 110 11:39 20.12.2019
2280 Clouds 24 1008 73 10000 4.1 110 11:19 20.12.2019
2281 Clouds 23 1008 65 10000 1.5 150 10:58 20.12.2019
2282 Clouds 23 1008 65 10000 1.5 150 10:40 20.12.2019
2283 Clouds 23 1008 65 10000 1.5 150 10:20 20.12.2019
2284 Clouds 23 1008 65 10000 3.1 140 09:54 20.12.2019
2285 Clouds 23 1008 65 10000 3.1 140 09:36 20.12.2019
2286 Clouds 23 1008 65 10000 3.1 140 09:18 20.12.2019
2287 Clouds 23 1007 60 10000 4.1 90 08:42 20.12.2019
2288 Clouds 23 1007 60 10000 4.1 90 08:22 20.12.2019
2289 Clouds 23 1007 73 10000 6.2 110 07:58 20.12.2019
2290 Clouds 23 1007 73 10000 6.2 110 07:39 20.12.2019
2291 Clouds 23 1007 73 10000 6.2 110 07:18 20.12.2019
2292 Clouds 24 1007 69 10000 7.2 110 06:49 20.12.2019
2293 Clouds 24 1007 69 10000 7.2 110 06:30 20.12.2019
2294 Clouds 24 1009 69 10000 7.2 110 05:49 20.12.2019
2295 Clouds 24 1009 69 10000 7.2 110 05:25 20.12.2019
2296 Clouds 25 1010 65 10000 7.7 110 03:50 20.12.2019
2297 Clouds 25 1010 65 10000 7.7 110 03:29 20.12.2019
2298 Clouds 25 1009 57 10000 6.2 140 02:33 20.12.2019
2299 Clear 27 1009 65 10000 6.2 110 01:36 20.12.2019
2300 Clear 26 1009 65 10000 6.2 110 01:36 20.12.2019
2301 Clear 27 1009 51 10000 5.1 110 00:58 20.12.2019
2302 Clear 27 1009 51 10000 5.1 110 00:39 20.12.2019
2303 Clear 29 1008 48 10000 6.2 110 23:59 19.12.2019
2304 Clear 29 1008 48 10000 6.2 110 23:40 19.12.2019
2305 Clear 30 1008 48 10000 6.2 110 23:21 19.12.2019
2306 Clear 31 1009 45 10000 6.2 110 22:40 19.12.2019
2307 Clear 32 1009 45 10000 6.2 110 22:22 19.12.2019
2308 Clear 33 1009 37 10000 4.6 110 21:59 19.12.2019
2309 Clear 32 1009 37 10000 4.6 110 21:41 19.12.2019
2310 Clear 32 1009 37 10000 4.6 110 21:19 19.12.2019
2311 Clear 33 1009 23 10000 2.6 50 20:57 19.12.2019
2312 Clouds 33 1009 23 10000 2.6 50 20:38 19.12.2019
2313 Clouds 34 1009 23 10000 2.6 50 20:20 19.12.2019
2314 Clouds 34 1009 23 10000 2.6 50 20:20 19.12.2019
2315 Clouds 33 1010 37 10000 2.6 40 19:58 19.12.2019
2316 Clouds 33 1010 37 10000 2.6 40 19:40 19.12.2019
2317 Clouds 33 1010 37 10000 2.6 40 19:40 19.12.2019
2318 Clouds 33 1010 37 10000 2.6 40 19:19 19.12.2019
2319 Clouds 33 1010 37 10000 2.6 40 19:19 19.12.2019
2320 Clouds 33 1010 37 10000 2.6 40 19:19 19.12.2019
2321 Clouds 33 1011 51 10000 2.6 40 18:58 19.12.2019
2322 Clouds 33 1011 51 10000 2.6 40 18:40 19.12.2019
2323 Clouds 32 1011 51 10000 2.6 40 18:19 19.12.2019
2324 Clouds 32 1012 54 10000 2.6 40 17:56 19.12.2019
2325 Clouds 32 1012 54 10000 2.6 40 17:37 19.12.2019
2326 Clear 32 1012 54 10000 2.6 40 17:18 19.12.2019
2327 Clear 31 1012 57 10000 2.6 40 16:56 19.12.2019
2328 Clear 31 1012 57 10000 2.6 40 16:37 19.12.2019
2329 Clear 30 1013 61 10000 2.6 20 16:19 19.12.2019
2330 Clear 31 1012 48 10000 3.6 20 15:56 19.12.2019
2331 Clear 30 1012 48 10000 3.6 20 15:37 19.12.2019
2332 Clear 30 1012 48 10000 3.6 20 15:18 19.12.2019
2333 Clear 28 1013 51 10000 4.6 360 14:42 19.12.2019
2334 Clear 27 1013 61 10000 3.1 360 14:20 19.12.2019
2335 Clear 27 1013 64 10000 4.6 340 13:58 19.12.2019
2336 Clear 27 1013 64 10000 4.6 340 13:58 19.12.2019
2337 Clear 26 1013 64 10000 4.6 340 13:38 19.12.2019
2338 Clouds 26 1013 64 10000 4.6 340 13:19 19.12.2019
2339 Clouds 25 1013 69 10000 5.1 350 12:57 19.12.2019
2340 Clouds 25 1013 69 10000 5.1 350 12:39 19.12.2019
2341 Clouds 25 1013 69 10000 5.1 350 12:39 19.12.2019
2342 Clouds 24 1013 69 10000 5.1 350 12:19 19.12.2019
2343 Clouds 24 1012 64 10000 6.7 350 11:58 19.12.2019
2344 Clouds 23 1012 64 10000 6.7 350 11:40 19.12.2019
2345 Clouds 22 1012 64 10000 6.7 350 11:18 19.12.2019
2346 Clouds 22 1012 64 10000 7.7 360 10:56 19.12.2019
2347 Clouds 22 1012 64 10000 7.7 360 10:37 19.12.2019
2348 Clouds 22 1012 64 10000 7.7 360 10:19 19.12.2019
2349 Clouds 22 1011 60 10000 6.7 10 09:40 19.12.2019
2350 Clouds 22 1011 60 10000 6.7 10 09:21 19.12.2019
2351 Clouds 22 1010 60 10000 6.2 10 08:58 19.12.2019
2352 Clouds 22 1010 60 10000 6.2 10 08:40 19.12.2019
2353 Clouds 23 1010 60 10000 6.2 10 08:19 19.12.2019
2354 Clouds 23 1010 61 10000 5.7 360 07:57 19.12.2019
2355 Clouds 23 1010 61 10000 5.7 360 07:38 19.12.2019
2356 Clouds 23 1010 61 10000 5.7 360 07:19 19.12.2019
2357 Clouds 24 1010 57 10000 5.1 360 06:49 19.12.2019
2358 Clouds 24 1010 57 10000 5.1 360 06:29 19.12.2019
2359 Clouds 24 1011 57 10000 4.6 10 05:55 19.12.2019
2360 Clouds 25 1011 57 10000 4.6 10 05:33 19.12.2019
2361 Clouds 25 1011 61 10000 3.6 340 04:51 19.12.2019
2362 Clouds 26 1011 54 10000 3.6 320 02:54 19.12.2019
2363 Clouds 27 1010 54 10000 3.6 340 01:51 19.12.2019
2364 Clouds 27 1010 54 10000 3.6 340 01:22 19.12.2019
2365 Clouds 28 1009 42 10000 3.6 20 00:40 19.12.2019
2366 Clouds 29 1010 45 10000 4.6 330 00:21 19.12.2019
2367 Clouds 29 1010 45 10000 4.6 330 23:55 18.12.2019
2368 Clouds 30 1010 45 10000 4.6 330 23:36 18.12.2019
2369 Clouds 30 1010 45 10000 4.6 330 23:18 18.12.2019
2370 Clouds 31 1010 48 10000 4.1 330 22:55 18.12.2019
2371 Clouds 31 1010 38 10000 4.1 360 22:36 18.12.2019
2372 Clouds 31 1010 38 10000 4.1 360 22:18 18.12.2019
2373 Clouds 31 1010 48 10000 4.1 350 21:41 18.12.2019
2374 Clouds 31 1010 48 10000 4.1 350 21:21 18.12.2019
2375 Clouds 32 1011 51 10000 4.6 350 20:58 18.12.2019
2376 Clouds 32 1011 51 10000 4.6 350 20:39 18.12.2019
2377 Clouds 32 1011 35 10000 7.7 360 20:20 18.12.2019
2378 Clouds 32 1010 35 10000 6.2 320 20:20 18.12.2019
2379 Clouds 32 1011 35 10000 7.7 360 19:57 18.12.2019
2380 Clouds 32 1011 35 10000 7.7 360 19:39 18.12.2019
2381 Clouds 32 1011 45 10000 4.1 10 19:39 18.12.2019
2382 Clouds 32 1011 45 10000 4.1 10 19:19 18.12.2019
2383 Clouds 32 1011 35 10000 7.7 360 18:59 18.12.2019
2384 Clouds 32 1011 35 10000 7.7 360 18:41 18.12.2019
2385 Clouds 32 1011 35 10000 7.7 360 18:22 18.12.2019
2386 Clouds 32 1012 40 10000 7.7 340 17:55 18.12.2019
2387 Clouds 32 1012 40 10000 7.7 340 17:55 18.12.2019
2388 Clouds 32 1012 40 10000 7.7 340 17:55 18.12.2019
2389 Clouds 32 1012 40 10000 7.7 340 17:37 18.12.2019
2390 Clouds 31 1013 65 10000 3.6 10 17:19 18.12.2019
2391 Clouds 31 1014 58 10000 5.1 350 16:42 18.12.2019
2392 Clouds 30 1014 58 10000 5.1 350 16:24 18.12.2019
2393 Clear 30 1014 57 10000 3.6 350 15:59 18.12.2019
2394 Clear 30 1014 51 10000 6.2 340 15:39 18.12.2019
2395 Clear 29 1014 51 10000 6.2 340 15:21 18.12.2019
2396 Clear 28 1014 57 10000 5.7 350 14:57 18.12.2019
2397 Clear 28 1014 57 10000 5.7 350 14:39 18.12.2019
2398 Clear 27 1014 57 10000 5.7 350 14:19 18.12.2019
2399 Clear 27 1014 57 10000 7.2 360 13:55 18.12.2019
2400 Clear 27 1014 57 10000 7.2 360 13:37 18.12.2019
2401 Clear 26 1014 57 10000 7.2 360 13:19 18.12.2019
2402 Clear 25 1014 69 10000 7.7 350 12:41 18.12.2019
2403 Clear 24 1014 69 10000 7.7 350 12:22 18.12.2019
2404 Clear 23 1014 69 10000 6.7 360 11:57 18.12.2019
2405 Clear 23 1014 69 10000 6.7 360 11:39 18.12.2019
2406 Clear 22 1014 69 10000 6.7 360 11:20 18.12.2019
2407 Clear 21 1013 69 10000 5.7 10 10:58 18.12.2019
2408 Clear 21 1013 69 10000 5.7 10 10:39 18.12.2019
2409 Clear 21 1013 69 10000 5.7 10 10:20 18.12.2019
2410 Clear 21 1013 69 10000 7.2 360 09:59 18.12.2019
2411 Clear 20 1013 69 10000 7.2 360 09:59 18.12.2019
2412 Clear 21 1013 69 10000 7.2 360 09:20 18.12.2019
2413 Clear 20 1012 69 10000 6.7 10 08:44 18.12.2019
2414 Clear 20 1012 69 10000 6.7 10 08:25 18.12.2019
2415 Clouds 20 1012 69 10000 6.7 10 08:25 18.12.2019
2416 Clouds 21 1012 73 10000 4.6 10 07:57 18.12.2019
2417 Clouds 21 1012 73 10000 4.6 10 07:57 18.12.2019
2418 Clouds 21 1012 73 10000 4.6 10 07:39 18.12.2019
2419 Clouds 21 1012 73 10000 4.6 10 07:20 18.12.2019
2420 Clouds 21 1013 69 10000 2.6 40 06:52 18.12.2019
2421 Clouds 21 1013 69 10000 2.6 40 06:25 18.12.2019
2422 Clouds 21 1014 69 10000 3.6 50 05:36 18.12.2019
2423 Clouds 21 1014 64 10000 5.7 90 04:31 18.12.2019
2424 Clouds 21 1014 73 10000 8.7 100 02:47 18.12.2019
2425 Clouds 22 1014 73 10000 8.7 100 02:28 18.12.2019
2426 Clouds 21 1013 73 10000 8.7 110 01:44 18.12.2019
2427 Clouds 22 1013 73 10000 8.7 110 01:25 18.12.2019
2428 Clouds 22 1013 73 10000 8.2 110 00:42 18.12.2019
2429 Clouds 22 1013 73 10000 8.2 110 00:24 18.12.2019
2430 Clouds 23 1013 69 10000 9.3 110 23:59 17.12.2019
2431 Clouds 24 1013 69 10000 9.3 110 23:40 17.12.2019
2432 Clear 24 1013 69 10000 9.3 110 23:21 17.12.2019
2433 Clear 25 1013 69 10000 8.7 100 22:57 17.12.2019
2434 Clear 25 1013 69 10000 8.7 100 22:39 17.12.2019
2435 Clear 26 1013 69 10000 8.7 100 22:19 17.12.2019
2436 Clouds 26 1013 69 10000 7.7 110 21:57 17.12.2019
2437 Clouds 26 1013 69 10000 7.7 110 21:38 17.12.2019
2438 Clouds 27 1013 69 10000 7.7 110 21:38 17.12.2019
2439 Clouds 27 1013 69 10000 7.7 110 21:20 17.12.2019
2440 Clouds 27 1013 61 10000 6.2 90 20:58 17.12.2019
2441 Clouds 27 1013 61 10000 6.2 90 20:39 17.12.2019
2442 Clouds 28 1013 61 10000 6.2 90 20:18 17.12.2019
2443 Clouds 29 1013 50 10000 6.2 70 19:56 17.12.2019
2444 Clouds 29 1013 50 10000 6.2 70 19:38 17.12.2019
2445 Clouds 29 1013 47 10000 5.1 70 19:19 17.12.2019
2446 Clouds 29 1013 47 10000 5.1 70 18:55 17.12.2019
2447 Clouds 29 1013 47 10000 5.1 70 18:37 17.12.2019
2448 Clouds 29 1013 47 10000 5.1 70 18:19 17.12.2019
2449 Clouds 28 1014 47 10000 4.6 60 17:42 17.12.2019
2450 Clouds 28 1014 47 10000 4.6 60 17:42 17.12.2019
2451 Clouds 28 1014 47 10000 4.6 60 17:42 17.12.2019
2452 Clouds 28 1014 47 10000 4.6 60 17:21 17.12.2019
2453 Clear 28 1014 57 10000 4.1 50 16:57 17.12.2019
2454 Clear 28 1014 57 10000 4.1 50 16:38 17.12.2019
2455 Clear 27 1014 57 10000 4.1 50 16:19 17.12.2019
2456 Clouds 27 1014 60 10000 3.6 60 15:58 17.12.2019
2457 Clouds 27 1014 60 10000 3.6 60 15:37 17.12.2019
2458 Clouds 26 1014 60 10000 3.6 60 15:19 17.12.2019
2459 Clear 26 1014 60 10000 3.6 60 14:55 17.12.2019
2460 Clear 25 1014 60 10000 3.6 60 14:37 17.12.2019
2461 Clear 25 1014 60 10000 3.6 60 14:18 17.12.2019
2462 Clear 24 1014 60 10000 2.1 170 13:55 17.12.2019
2463 Clear 24 1014 60 10000 2.1 170 13:37 17.12.2019
2464 Clear 23 1014 60 10000 2.1 170 13:18 17.12.2019
2465 Clear 22 1014 64 10000 1.5 200 12:41 17.12.2019
2466 Clear 21 1014 64 10000 1.5 200 12:19 17.12.2019
2467 Clear 20 1013 73 10000 1 0 11:59 17.12.2019
2468 Clear 20 1013 73 10000 1 0 11:38 17.12.2019
2469 Clear 18 1013 88 10000 1.29 252 11:19 17.12.2019
2470 Clear 18 1013 88 10000 1.29 252 11:19 17.12.2019
2471 Clear 17 1012 77 10000 1 230 10:59 17.12.2019
2472 Clear 17 1012 77 10000 1 230 10:59 17.12.2019
2473 Clear 17 1012 77 10000 1 230 10:41 17.12.2019
2474 Clear 16 1012 77 10000 1 230 10:23 17.12.2019
2475 Clear 16 1012 82 10000 1.29 252 09:59 17.12.2019
2476 Clear 16 1012 82 10000 1.29 252 09:41 17.12.2019
2477 Clear 16 1012 82 10000 1.29 252 09:21 17.12.2019
2478 Clear 16 1011 82 10000 1.29 252 08:56 17.12.2019
2479 Clear 16 1011 82 10000 1.7 294 08:38 17.12.2019
2480 Clear 16 1011 82 10000 1.29 252 08:38 17.12.2019
2481 Clear 16 1011 82 10000 1.29 252 08:38 17.12.2019
2482 Clear 16 1011 82 10000 3.5 331 08:20 17.12.2019
2483 Clear 17 1011 73 10000 2.1 100 07:54 17.12.2019
2484 Clear 17 1011 73 10000 2.1 100 07:36 17.12.2019
2485 Clear 17 1011 73 10000 2.1 100 07:18 17.12.2019
2486 Clear 18 1011 73 10000 5.7 90 06:35 17.12.2019
2487 Clear 18 1012 73 10000 3.6 90 05:54 17.12.2019
2488 Clear 18 1012 73 10000 3.6 90 05:36 17.12.2019
2489 Clouds 19 1011 56 10000 4.1 120 04:31 17.12.2019
2490 Clouds 21 1011 53 10000 6.2 270 02:34 17.12.2019
2491 Thunderstorm 22 1011 60 10000 7.2 280 01:55 17.12.2019
2492 Clouds 24 1009 64 10000 1.5 350 00:59 17.12.2019
2493 Rain 25 1009 57 10000 3.6 320 00:38 17.12.2019
2494 Rain 25 1009 57 10000 3.6 320 00:19 17.12.2019
2495 Clouds 25 1008 61 10000 3.1 20 23:41 16.12.2019
2496 Clouds 26 1008 61 10000 3.1 20 23:19 16.12.2019
2497 Rain 26 1008 50 10000 3.1 30 22:56 16.12.2019
2498 Rain 26 1008 50 10000 3.1 30 22:37 16.12.2019
2499 Rain 26 1008 50 10000 3.1 30 22:19 16.12.2019
2500 Thunderstorm 26 1008 47 10000 3.6 30 21:55 16.12.2019
2501 Clouds 26 1008 53 10000 3.6 40 21:37 16.12.2019
2502 Clouds 26 1008 53 10000 3.6 40 21:19 16.12.2019
2503 Clouds 26 1009 51 10000 5.1 20 20:57 16.12.2019
2504 Clouds 26 1009 51 10000 5.1 20 20:57 16.12.2019
2505 Clouds 26 1009 61 10000 4.1 50 20:37 16.12.2019
2506 Clouds 27 1009 61 10000 4.1 50 20:19 16.12.2019
2507 Clouds 28 1009 57 10000 4.6 50 19:55 16.12.2019
2508 Clouds 28 1009 57 10000 4.6 50 19:36 16.12.2019
2509 Clouds 29 1009 57 10000 4.6 50 19:18 16.12.2019
2510 Clouds 28 1009 57 10000 4.6 50 19:18 16.12.2019
2511 Clouds 28 1010 65 10000 4.1 30 18:55 16.12.2019
2512 Clouds 28 1010 65 10000 4.1 30 18:37 16.12.2019
2513 Clouds 28 1010 65 10000 4.1 30 18:37 16.12.2019
2514 Clouds 28 1010 65 10000 4.1 30 18:19 16.12.2019
2515 Clouds 28 1010 65 10000 4.1 30 18:19 16.12.2019
2516 Clouds 28 1010 69 10000 4.6 40 17:57 16.12.2019
2517 Clouds 27 1010 69 10000 4.6 40 17:37 16.12.2019
2518 Clouds 28 1010 69 10000 4.6 40 17:19 16.12.2019
2519 Clouds 27 1010 64 10000 3.1 40 16:55 16.12.2019
2520 Clouds 27 1010 64 10000 3.1 40 16:37 16.12.2019
2521 Clouds 27 1010 64 10000 3.1 40 16:37 16.12.2019
2522 Clouds 27 1010 64 10000 3.1 40 16:18 16.12.2019
2523 Clouds 26 1011 69 10000 3.1 360 15:55 16.12.2019
2524 Clouds 26 1011 69 10000 3.1 360 15:37 16.12.2019
2525 Clouds 26 1011 69 10000 3.1 360 15:19 16.12.2019
2526 Clouds 25 1011 68 10000 2.6 30 14:54 16.12.2019
2527 Clouds 25 1011 68 10000 2.6 30 14:36 16.12.2019
2528 Clouds 24 1011 68 10000 2.6 50 14:18 16.12.2019
2529 Clouds 23 1011 68 10000 2.6 50 13:38 16.12.2019
2530 Clouds 23 1011 68 10000 2.6 50 13:20 16.12.2019
2531 Clouds 22 1010 64 10000 1 0 12:59 16.12.2019
2532 Clouds 22 1010 64 10000 1 0 12:59 16.12.2019
2533 Clouds 22 1010 64 10000 1 0 12:41 16.12.2019
2534 Clouds 21 1010 64 10000 1 0 12:20 16.12.2019
2535 Clouds 20 1010 72 10000 1 0 11:59 16.12.2019
2536 Clouds 20 1010 72 10000 1 0 11:59 16.12.2019
2537 Clouds 20 1010 72 10000 1 0 11:41 16.12.2019
2538 Clouds 18 1010 72 10000 1 0 11:22 16.12.2019
2539 Clouds 16 1010 77 10000 1.5 230 10:59 16.12.2019
2540 Clouds 16 1010 77 10000 1.5 230 10:40 16.12.2019
2541 Clouds 16 1010 77 10000 1.5 230 10:40 16.12.2019
2542 Clouds 15 1010 77 10000 1.5 230 10:20 16.12.2019
2543 Mist 14 1009 100 3000 1.5 230 09:46 16.12.2019
2544 Clouds 15 1009 82 10000 0.5 250 09:28 16.12.2019
2545 Clouds 15 1009 82 10000 1 240 08:58 16.12.2019
2546 Clouds 15 1009 82 10000 1 240 08:38 16.12.2019
2547 Clouds 15 1009 82 10000 1 240 08:18 16.12.2019
2548 Clouds 15 1009 72 10000 1 180 07:47 16.12.2019
2549 Clouds 16 1008 100 10000 0.5 0 07:29 16.12.2019
2550 Clouds 16 1008 68 10000 1.5 150 06:46 16.12.2019
2551 Clouds 16 1008 68 10000 1.5 150 06:26 16.12.2019
2552 Clouds 16 1008 68 10000 2.1 160 05:54 16.12.2019
2553 Clouds 16 1008 68 10000 2.1 160 05:35 16.12.2019
2554 Clouds 17 1009 72 10000 2.6 150 04:27 16.12.2019
2555 Clouds 19 1008 68 10000 1.5 0 02:36 16.12.2019
2556 Clear 20 1007 64 10000 2.1 150 01:45 16.12.2019
2557 Clouds 21 1007 64 10000 2.1 150 00:43 16.12.2019
2558 Clouds 21 1007 64 10000 2.1 150 00:25 16.12.2019
2559 Clouds 22 1006 60 10000 4.1 110 23:59 15.12.2019
2560 Clouds 22 1006 60 10000 4.1 110 23:59 15.12.2019
2561 Clouds 22 1006 60 10000 4.1 110 23:39 15.12.2019
2562 Rain 22 1006 60 10000 4.1 110 23:20 15.12.2019
2563 Rain 23 1006 68 10000 4.1 150 22:56 15.12.2019
2564 Rain 23 1006 68 10000 4.1 150 22:56 15.12.2019
2565 Rain 23 1006 68 10000 4.1 150 22:56 15.12.2019
2566 Rain 23 1006 68 10000 4.1 150 22:37 15.12.2019
2567 Rain 23 1006 68 10000 4.1 150 22:37 15.12.2019
2568 Rain 23 1006 68 10000 4.1 150 22:18 15.12.2019
2569 Clouds 24 1005 69 10000 5.1 150 21:56 15.12.2019
2570 Clouds 24 1005 69 10000 5.1 150 21:56 15.12.2019
2571 Clouds 24 1005 69 10000 5.1 150 21:37 15.12.2019
2572 Clouds 24 1005 69 10000 5.1 150 21:37 15.12.2019
2573 Clouds 24 1005 69 10000 5.1 150 21:19 15.12.2019
2574 Rain 24 1005 69 10000 3.6 160 20:56 15.12.2019
2575 Rain 24 1005 69 10000 3.6 160 20:37 15.12.2019
2576 Clouds 24 1005 69 10000 3.6 160 20:18 15.12.2019
2577 Clouds 25 1005 60 10000 5.7 140 19:56 15.12.2019
2578 Clouds 24 1006 73 10000 2.1 0 19:38 15.12.2019
2579 Clouds 24 1006 73 10000 2.1 0 19:18 15.12.2019
2580 Rain 24 1006 69 9000 2.1 210 18:55 15.12.2019
2581 Rain 25 1006 69 9000 2.1 210 18:37 15.12.2019
2582 Rain 24 1006 69 9000 2.1 210 18:18 15.12.2019
2583 Rain 24 1006 69 9000 2.1 210 18:18 15.12.2019
2584 Clouds 23 1006 78 10000 1 0 17:55 15.12.2019
2585 Clouds 23 1006 78 10000 1 0 17:36 15.12.2019
2586 Rain 23 1006 78 10000 1 0 17:18 15.12.2019
2587 Clouds 23 1006 78 10000 1 0 17:18 15.12.2019
2588 Clouds 23 1007 82 10000 2.1 170 16:43 15.12.2019
2589 Clouds 22 1007 82 10000 2.1 170 16:23 15.12.2019
2590 Rain 22 1007 88 9000 3.1 170 15:57 15.12.2019
2591 Rain 23 1007 88 9000 3.1 170 15:39 15.12.2019
2592 Rain 23 1007 77 10000 4.1 140 15:19 15.12.2019
2593 Rain 22 1008 88 4000 3.6 160 14:56 15.12.2019
2594 Rain 23 1008 88 4000 3.6 160 14:38 15.12.2019
2595 Rain 22 1008 88 4000 3.6 160 14:19 15.12.2019
2596 Drizzle 21 1008 88 1400 2.6 140 13:58 15.12.2019
2597 Drizzle 21 1008 88 1400 2.6 140 13:39 15.12.2019
2598 Drizzle 21 1008 88 3000 2.6 140 13:20 15.12.2019
2599 Clouds 20 1009 82 10000 3.1 150 12:57 15.12.2019
2600 Clouds 20 1009 82 10000 3.1 150 12:39 15.12.2019
2601 Clouds 19 1009 82 10000 3.1 150 12:21 15.12.2019
2602 Rain 19 1008 100 8000 2.6 110 11:58 15.12.2019
2603 Rain 19 1009 100 4000 2.6 110 11:37 15.12.2019
2604 Rain 19 1009 100 4000 2.6 110 11:19 15.12.2019
2605 Rain 19 1009 100 4000 2.6 110 11:19 15.12.2019
2606 Rain 19 1008 93 6000 1.5 150 10:55 15.12.2019
2607 Rain 19 1008 93 6000 1.5 150 10:37 15.12.2019
2608 Rain 18 1008 93 6000 1.5 150 10:19 15.12.2019
2609 Rain 19 1008 93 1200 2.1 160 09:41 15.12.2019
2610 Rain 19 1008 94 700 3.1 120 09:20 15.12.2019
2611 Rain 19 1008 88 2800 1.5 90 08:59 15.12.2019
2612 Clouds 20 1008 83 10000 1.5 110 08:41 15.12.2019
2613 Clouds 20 1008 83 10000 1.5 110 08:22 15.12.2019
2614 Clouds 20 1009 78 10000 1.5 50 07:56 15.12.2019
2615 Clouds 20 1009 78 10000 1.5 50 07:35 15.12.2019
2616 Clouds 20 1008 88 10000 2.1 50 06:52 15.12.2019
2617 Clouds 20 1008 88 10000 2.1 50 06:20 15.12.2019
2618 Rain 21 1010 83 10000 3.1 360 05:26 15.12.2019
2619 Rain 21 1010 78 10000 4.1 340 04:47 15.12.2019
2620 Rain 22 1011 73 10000 4.1 340 03:31 15.12.2019
2621 Rain 23 1011 64 10000 5.1 330 02:34 15.12.2019
2622 Clouds 23 1010 64 10000 4.6 340 01:47 15.12.2019
2623 Clouds 24 1010 64 10000 4.6 340 01:28 15.12.2019
2624 Clouds 25 1009 61 10000 5.1 110 00:58 15.12.2019
2625 Clouds 25 1009 61 10000 5.1 110 00:40 15.12.2019
2626 Clouds 25 1009 61 10000 5.1 110 00:21 15.12.2019
2627 Clouds 26 1010 65 10000 3.6 100 23:40 14.12.2019
2628 Clouds 26 1010 65 10000 3.6 100 23:21 14.12.2019
2629 Clouds 27 1010 50 10000 4.1 110 22:58 14.12.2019
2630 Clouds 27 1010 50 10000 4.1 110 22:40 14.12.2019
2631 Clouds 27 1010 50 10000 4.1 110 22:20 14.12.2019
2632 Clouds 28 1010 65 10000 5.1 100 21:56 14.12.2019
2633 Clouds 28 1010 65 10000 5.1 100 21:37 14.12.2019
2634 Clouds 28 1010 65 10000 5.1 100 21:18 14.12.2019
2635 Clouds 29 1011 54 10000 3.6 60 20:55 14.12.2019
2636 Clouds 29 1011 54 10000 3.6 60 20:37 14.12.2019
2637 Clear 30 1011 54 10000 3.6 60 20:18 14.12.2019
2638 Clear 30 1011 54 10000 3.6 60 20:18 14.12.2019
2639 Clear 30 1011 39 10000 1.5 10 19:40 14.12.2019
2640 Clear 30 1011 39 10000 1.5 10 19:21 14.12.2019
2641 Clear 31 1012 37 10000 3.1 60 18:57 14.12.2019
2642 Clear 31 1012 37 10000 3.1 60 18:39 14.12.2019
2643 Clear 31 1012 37 10000 3.1 60 18:21 14.12.2019
2644 Clear 31 1012 37 10000 3.1 0 17:58 14.12.2019
2645 Clear 31 1012 37 10000 3.1 0 17:40 14.12.2019
2646 Clear 30 1013 47 10000 2.6 30 17:21 14.12.2019
2647 Clear 29 1013 53 10000 2.6 30 16:41 14.12.2019
2648 Clear 29 1013 53 10000 2.6 30 16:19 14.12.2019
2649 Clear 29 1014 42 10000 3.6 350 15:55 14.12.2019
2650 Clear 29 1014 42 10000 3.6 350 15:37 14.12.2019
2651 Clear 28 1014 42 10000 3.6 350 15:19 14.12.2019
2652 Clear 27 1014 47 10000 4.1 340 14:54 14.12.2019
2653 Clear 27 1014 47 10000 4.1 340 14:36 14.12.2019
2654 Clouds 27 1014 47 10000 4.1 340 14:18 14.12.2019
2655 Clouds 26 1015 49 10000 5.1 10 13:42 14.12.2019
2656 Clouds 25 1015 60 10000 4.6 350 13:19 14.12.2019
2657 Clouds 25 1015 60 10000 4.6 350 13:19 14.12.2019
2658 Clouds 24 1014 53 10000 4.1 360 12:57 14.12.2019
2659 Clouds 23 1014 53 10000 4.1 360 12:38 14.12.2019
2660 Clouds 23 1014 53 10000 4.1 360 12:20 14.12.2019
2661 Clouds 23 1014 53 10000 4.1 360 12:20 14.12.2019
2662 Clouds 21 1014 52 10000 4.6 360 11:56 14.12.2019
2663 Clouds 21 1014 52 10000 4.6 360 11:38 14.12.2019
2664 Clouds 20 1014 52 10000 4.6 360 11:19 14.12.2019
2665 Clouds 19 1013 52 10000 3.6 10 10:56 14.12.2019
2666 Clouds 18 1013 52 10000 3.6 10 10:38 14.12.2019
2667 Clouds 18 1013 52 10000 3.6 10 10:19 14.12.2019
2668 Clouds 18 1013 53 10000 3.1 10 09:43 14.12.2019
2669 Clouds 17 1013 53 10000 3.1 10 09:23 14.12.2019
2670 Clouds 17 1013 49 10000 3.6 350 08:57 14.12.2019
2671 Clouds 17 1013 56 10000 1 70 08:38 14.12.2019
2672 Clouds 18 1013 56 10000 1 70 08:19 14.12.2019
2673 Clouds 18 1013 46 10000 3.6 360 07:40 14.12.2019
2674 Clouds 18 1013 46 10000 3.6 360 07:21 14.12.2019
2675 Clouds 19 1013 43 10000 4.1 10 06:45 14.12.2019
2676 Clouds 19 1013 43 10000 4.1 10 06:22 14.12.2019
2677 Clouds 19 1013 49 10000 3.1 30 05:35 14.12.2019
2678 Clouds 20 1013 49 10000 4.6 50 03:34 14.12.2019
2679 Clouds 21 1013 53 10000 4.6 80 02:23 14.12.2019
2680 Clouds 21 1013 43 10000 5.1 90 01:44 14.12.2019
2681 Clouds 22 1013 40 10000 3.6 80 00:59 14.12.2019
2682 Clouds 22 1013 40 10000 3.6 80 00:40 14.12.2019
2683 Clouds 22 1013 40 10000 3.6 80 00:20 14.12.2019
2684 Clouds 23 1012 46 10000 4.1 50 23:41 13.12.2019
2685 Clouds 23 1012 46 10000 4.1 50 23:41 13.12.2019
2686 Clear 23 1012 46 10000 4.1 50 23:19 13.12.2019
2687 Clear 24 1013 33 10000 3.6 80 22:56 13.12.2019
2688 Clear 24 1013 33 10000 3.6 80 22:37 13.12.2019
2689 Clear 24 1013 33 10000 3.6 80 22:18 13.12.2019
2690 Clear 25 1013 28 10000 3.6 80 21:42 13.12.2019
2691 Clear 25 1013 28 10000 3.6 80 21:21 13.12.2019
2692 Clear 26 1014 36 10000 3.6 70 20:58 13.12.2019
2693 Clear 26 1008 10 0 4.96 72 20:39 13.12.2019
2694 Clouds 25 1015 23 10000 4.1 60 20:19 13.12.2019
2695 Clear 25 1015 23 10000 4.1 60 19:56 13.12.2019
2696 Clear 25 1015 23 10000 4.1 60 19:38 13.12.2019
2697 Clear 26 1015 23 10000 4.1 60 19:18 13.12.2019
2698 Clear 25 1015 33 10000 3.1 30 18:42 13.12.2019
2699 Clear 25 1015 36 10000 2.6 20 18:42 13.12.2019
2700 Clear 25 1015 33 10000 3.1 30 18:20 13.12.2019
2701 Clear 25 1016 35 10000 3.6 20 17:59 13.12.2019
2702 Clear 24 1016 35 10000 3.6 20 17:39 13.12.2019
2703 Clear 24 1016 35 10000 3.6 20 17:18 13.12.2019
2704 Clear 23 1017 37 10000 3.6 20 16:56 13.12.2019
2705 Clear 24 1017 37 10000 3.6 20 16:38 13.12.2019
2706 Clear 23 1017 37 10000 3.6 20 16:19 13.12.2019
2707 Clear 23 1017 42 10000 4.1 40 15:42 13.12.2019
2708 Clear 23 1017 42 10000 4.1 40 15:21 13.12.2019
2709 Clear 21 1017 34 10000 3.6 50 14:57 13.12.2019
2710 Clear 21 1017 34 10000 3.6 50 14:37 13.12.2019
2711 Clouds 21 1017 34 10000 3.6 50 14:18 13.12.2019
2712 Clouds 20 1017 42 10000 3.6 90 13:43 13.12.2019
2713 Clear 19 1017 42 10000 3.6 90 13:24 13.12.2019
2714 Clear 18 1016 48 10000 5.7 110 12:55 13.12.2019
2715 Clear 18 1016 48 10000 5.7 110 12:37 13.12.2019
2716 Clear 17 1016 48 10000 5.7 110 12:18 13.12.2019
2717 Clear 17 1016 48 10000 5.7 110 12:18 13.12.2019
2718 Clear 15 1017 51 10000 4.1 130 11:42 13.12.2019
2719 Clear 14 1017 51 10000 4.1 130 11:24 13.12.2019
2720 Clear 12 1017 44 10000 2.6 150 10:56 13.12.2019
2721 Clear 11 1017 44 10000 2.6 150 10:38 13.12.2019
2722 Clear 11 1017 44 10000 2.6 150 10:19 13.12.2019
2723 Clear 11 1016 41 10000 3.1 140 09:41 13.12.2019
2724 Clear 11 1016 41 10000 3.1 140 09:20 13.12.2019
2725 Clear 11 1016 41 10000 3.6 140 08:44 13.12.2019
2726 Clear 12 1016 41 10000 3.6 140 08:26 13.12.2019
2727 Clouds 12 1016 47 10000 4.6 130 07:48 13.12.2019
2728 Clouds 12 1016 47 10000 4.6 130 07:24 13.12.2019
2729 Clouds 13 1016 38 10000 4.6 150 06:55 13.12.2019
2730 Clouds 13 1016 38 10000 4.6 150 06:29 13.12.2019
2731 Clouds 14 1017 42 10000 4.6 160 05:51 13.12.2019
2732 Clouds 14 1017 42 10000 4.6 160 05:30 13.12.2019
2733 Clear 15 1016 39 10000 5.1 160 04:46 13.12.2019
2734 Clear 17 1016 37 10000 6.2 170 03:48 13.12.2019
2735 Clear 18 1015 28 10000 4.6 160 02:34 13.12.2019
2736 Clouds 19 1013 24 10000 2.6 180 01:48 13.12.2019
2737 Clouds 20 1012 24 10000 2.6 190 00:57 13.12.2019
2738 Clouds 20 1012 24 10000 2.6 190 00:37 13.12.2019
2739 Clouds 22 1012 25 10000 3.1 200 23:59 12.12.2019
2740 Clouds 23 1012 25 10000 3.1 200 23:40 12.12.2019
2741 Clouds 23 1012 25 10000 3.1 200 23:22 12.12.2019
2742 Clouds 24 1011 36 10000 8.2 210 22:56 12.12.2019
2743 Clouds 24 1011 36 10000 8.2 210 22:37 12.12.2019
2744 Clouds 24 1011 22 10000 4.6 200 22:19 12.12.2019
2745 Clouds 24 1011 25 10000 4.1 200 21:55 12.12.2019
2746 Clouds 25 1011 25 10000 4.1 200 21:36 12.12.2019
2747 Clouds 25 1011 25 10000 4.1 200 21:36 12.12.2019
2748 Clouds 25 1011 25 10000 4.1 200 21:18 12.12.2019
2749 Clouds 25 1011 25 10000 4.6 200 20:55 12.12.2019
2750 Clouds 25 1011 25 10000 4.6 200 20:37 12.12.2019
2751 Clouds 25 1010 29 10000 4.6 180 20:19 12.12.2019
2752 Clouds 25 1010 29 10000 4.6 180 19:42 12.12.2019
2753 Clouds 25 1010 29 10000 4.6 180 19:23 12.12.2019
2754 Clouds 25 1010 27 10000 5.7 250 18:58 12.12.2019
2755 Clouds 25 1010 27 10000 5.7 250 18:40 12.12.2019
2756 Clouds 25 1010 27 10000 5.7 250 18:20 12.12.2019
2757 Clouds 25 1010 29 10000 5.7 250 17:58 12.12.2019
2758 Clouds 25 1010 29 10000 5.7 250 17:58 12.12.2019
2759 Clouds 25 1010 29 10000 5.7 200 17:39 12.12.2019
2760 Clouds 24 1010 29 10000 5.7 200 17:21 12.12.2019
2761 Clouds 25 1009 36 10000 4.1 200 16:58 12.12.2019
2762 Clouds 25 1009 36 10000 4.1 200 16:39 12.12.2019
2763 Clouds 24 1009 36 10000 4.1 200 16:20 12.12.2019
2764 Clear 24 1009 33 10000 5.1 230 15:56 12.12.2019
2765 Clear 24 1009 33 10000 5.1 230 15:56 12.12.2019
2766 Clear 24 1009 33 10000 5.1 230 15:38 12.12.2019
2767 Clear 24 1009 33 10000 5.1 230 15:18 12.12.2019
2768 Clear 24 1008 33 10000 3.6 250 14:38 12.12.2019
2769 Clear 24 1008 33 10000 3.6 250 14:38 12.12.2019
2770 Clear 23 1008 33 10000 3.6 250 14:20 12.12.2019
2771 Clear 23 1009 40 10000 7.7 200 13:58 12.12.2019
2772 Clear 22 1007 31 10000 4.6 230 13:40 12.12.2019
2773 Clear 22 1007 31 10000 4.6 230 13:21 12.12.2019
2774 Clear 22 1006 28 10000 6.7 250 12:58 12.12.2019
2775 Clear 21 1006 28 10000 6.7 250 12:40 12.12.2019
2776 Clear 21 1006 28 10000 6.7 250 12:21 12.12.2019
2777 Clear 21 1005 40 10000 5.1 250 11:56 12.12.2019
2778 Clear 20 1005 40 10000 5.1 250 11:38 12.12.2019
2779 Clear 20 1005 40 10000 5.1 250 11:19 12.12.2019
2780 Clear 20 1004 53 10000 5.1 250 10:55 12.12.2019
2781 Clear 20 1004 53 10000 5.1 250 10:55 12.12.2019
2782 Clear 19 1004 53 10000 5.1 250 10:37 12.12.2019
2783 Clear 19 1003 68 10000 4.6 260 10:19 12.12.2019
2784 Clear 19 1003 68 10000 4.6 260 09:42 12.12.2019
2785 Clear 19 1003 68 10000 4.6 260 09:24 12.12.2019
2786 Clear 19 1002 73 10000 3.6 260 08:58 12.12.2019
2787 Clear 20 1002 73 10000 3.6 260 08:38 12.12.2019
2788 Clear 20 1002 73 10000 3.6 260 08:38 12.12.2019
2789 Clouds 19 1002 73 10000 3.6 260 08:20 12.12.2019
2790 Clouds 19 1002 77 10000 2.6 290 07:46 12.12.2019
2791 Clouds 19 1002 77 10000 2.6 290 07:25 12.12.2019
2792 Clouds 20 1002 69 10000 4.6 330 06:54 12.12.2019
2793 Clouds 19 1003 77 10000 1.5 270 06:33 12.12.2019
2794 Clouds 20 1004 83 10000 8.7 350 05:39 12.12.2019
2795 Clouds 21 1004 73 10000 7.2 340 04:52 12.12.2019
2796 Clouds 21 1004 73 10000 7.2 340 04:52 12.12.2019
2797 Thunderstorm 22 1007 83 4600 2.1 270 03:31 12.12.2019
2798 Clouds 22 1003 57 10000 3.6 150 02:38 12.12.2019
2799 Clouds 22 1003 57 10000 3.6 150 02:20 12.12.2019
2800 Clouds 22 1002 47 10000 5.1 150 01:37 12.12.2019
2801 Clouds 22 1002 47 10000 5.1 150 01:19 12.12.2019
2802 Rain 24 1002 50 10000 6.7 160 00:46 12.12.2019
2803 Rain 24 1002 50 10000 6.7 160 00:19 12.12.2019
2804 Rain 26 1001 38 10000 3.6 160 23:44 11.12.2019
2805 Clouds 27 1001 38 10000 3.6 160 23:21 11.12.2019
2806 Clouds 28 1000 29 10000 5.1 170 22:57 11.12.2019
2807 Clouds 27 1000 43 10000 4.1 340 22:38 11.12.2019
2808 Clouds 29 1000 43 10000 4.1 340 22:20 11.12.2019
2809 Clouds 32 1001 48 10000 5.1 190 21:57 11.12.2019
2810 Clouds 34 1001 32 10000 6.2 330 21:38 11.12.2019
2811 Clouds 34 1001 32 10000 6.2 330 21:19 11.12.2019
2812 Clouds 35 1001 32 10000 5.7 340 20:56 11.12.2019
2813 Clouds 35 1001 32 10000 5.7 340 20:56 11.12.2019
2814 Clouds 36 1001 32 10000 5.7 340 20:37 11.12.2019
2815 Clouds 36 1001 32 10000 5.7 340 20:37 11.12.2019
2816 Clouds 36 1001 32 10000 5.7 340 20:37 11.12.2019
2817 Clouds 36 1001 32 10000 5.7 340 20:19 11.12.2019
2818 Clouds 36 1002 23 10000 6.2 340 19:57 11.12.2019
2819 Clouds 36 1002 23 10000 6.2 340 19:38 11.12.2019
2820 Clouds 36 1002 23 10000 6.2 340 19:18 11.12.2019
2821 Clouds 36 1003 26 10000 6.7 290 18:40 11.12.2019
2822 Clouds 36 1003 26 10000 6.7 290 18:21 11.12.2019
2823 Clouds 36 1004 32 10000 6.2 320 17:57 11.12.2019
2824 Clouds 35 1004 32 10000 6.2 320 17:38 11.12.2019
2825 Clouds 36 1004 32 10000 6.2 320 17:18 11.12.2019
2826 Clouds 35 1005 34 10000 4.6 340 16:57 11.12.2019
2827 Clouds 36 1005 34 10000 4.6 340 16:38 11.12.2019
2828 Clouds 35 1005 34 10000 4.6 340 16:19 11.12.2019
2829 Clouds 34 1005 38 10000 3.6 360 15:58 11.12.2019
2830 Clouds 34 1005 38 10000 3.6 360 15:38 11.12.2019
2831 Clouds 33 1005 38 10000 3.6 360 15:20 11.12.2019
2832 Clouds 32 1006 69 6000 3.6 60 14:55 11.12.2019
2833 Clouds 32 1006 69 6000 3.6 60 14:37 11.12.2019
2834 Clouds 30 1007 61 10000 3.1 80 14:19 11.12.2019
2835 Clouds 30 1007 61 10000 3.1 80 13:44 11.12.2019
2836 Clouds 29 1007 61 10000 3.1 80 13:24 11.12.2019
2837 Clouds 28 1007 37 10000 1 0 12:59 11.12.2019
2838 Clouds 28 1007 37 10000 1 0 12:59 11.12.2019
2839 Clouds 28 1007 37 10000 1 0 12:40 11.12.2019
2840 Clouds 27 1007 37 10000 1 0 12:22 11.12.2019
2841 Clouds 25 1007 47 10000 0.5 280 11:58 11.12.2019
2842 Clouds 24 1007 47 10000 0.5 280 11:39 11.12.2019
2843 Clouds 24 1007 47 10000 0.5 280 11:39 11.12.2019
2844 Clouds 24 1007 47 10000 0.5 280 11:19 11.12.2019
2845 Clouds 23 1006 50 10000 2.1 240 10:59 11.12.2019
2846 Clouds 24 1006 50 10000 2.1 240 10:40 11.12.2019
2847 Clouds 23 1006 50 10000 2.1 240 10:21 11.12.2019
2848 Clouds 23 1006 47 10000 0.5 290 09:57 11.12.2019
2849 Clouds 23 1006 47 10000 0.5 290 09:38 11.12.2019
2850 Clouds 23 1006 47 10000 0.5 290 09:19 11.12.2019
2851 Clouds 23 1006 47 10000 0.5 290 09:19 11.12.2019
2852 Clouds 24 1006 44 10000 1.5 290 08:55 11.12.2019
2853 Clouds 25 1006 44 10000 1.5 290 08:36 11.12.2019
2854 Clear 24 1006 44 10000 1.5 290 08:18 11.12.2019
2855 Clear 25 1006 44 10000 2.6 310 07:42 11.12.2019
2856 Clear 25 1006 44 10000 2.6 310 07:23 11.12.2019
2857 Clear 25 1006 61 10000 1 320 06:46 11.12.2019
2858 Clear 26 1006 61 10000 1 320 06:24 11.12.2019
2859 Clear 26 1007 57 10000 2.6 340 05:54 11.12.2019
2860 Clear 26 1007 57 10000 2.6 340 05:34 11.12.2019
2861 Clear 27 1007 37 10000 2.1 310 04:49 11.12.2019
2862 Clear 28 1007 54 10000 2.1 330 03:19 11.12.2019
2863 Clear 28 1007 45 10000 2.6 310 02:31 11.12.2019
2864 Clouds 30 1007 35 10000 2.6 310 01:21 11.12.2019
2865 Rain 30 1006 45 10000 3.1 320 00:37 11.12.2019
2866 Clouds 32 1006 45 10000 3.1 320 00:18 11.12.2019
2867 Clouds 33 1006 40 10000 4.6 330 23:43 10.12.2019
2868 Clear 34 1006 40 10000 4.6 330 23:22 10.12.2019
2869 Clear 36 1006 23 10000 5.1 330 22:42 10.12.2019
2870 Clear 36 1006 23 10000 5.1 330 22:24 10.12.2019
2871 Clear 36 1006 25 10000 6.7 330 21:58 10.12.2019
2872 Clear 37 1006 25 10000 6.7 330 21:39 10.12.2019
2873 Clear 37 1006 25 10000 6.7 330 21:21 10.12.2019
2874 Clear 37 1006 32 10000 5.7 340 20:59 10.12.2019
2875 Clear 37 1006 32 10000 5.7 340 20:38 10.12.2019
2876 Clear 37 1006 32 10000 5.7 340 20:38 10.12.2019
2877 Clear 37 1006 32 10000 5.7 340 20:19 10.12.2019
2878 Clear 37 1006 32 10000 5.7 340 20:19 10.12.2019
2879 Clear 37 1006 32 10000 5.7 340 20:19 10.12.2019
2880 Clear 37 1006 32 10000 5.7 340 20:19 10.12.2019
2881 Clear 37 1007 22 10000 5.1 320 19:56 10.12.2019
2882 Clear 37 1007 22 10000 5.1 320 19:38 10.12.2019
2883 Clear 37 1007 22 10000 5.1 320 19:20 10.12.2019
2884 Clear 36 1008 26 10000 7.7 270 18:55 10.12.2019
2885 Clear 36 1008 26 10000 7.7 270 18:36 10.12.2019
2886 Clear 36 1008 26 10000 7.7 270 18:36 10.12.2019
2887 Clear 36 1008 26 10000 7.7 270 18:18 10.12.2019
2888 Clear 36 1009 23 10000 4.6 290 17:41 10.12.2019
2889 Clear 36 1009 23 10000 4.6 290 17:22 10.12.2019
2890 Clear 35 1009 26 10000 5.7 300 16:57 10.12.2019
2891 Clear 35 1009 26 10000 5.7 300 16:39 10.12.2019
2892 Clear 34 1009 38 10000 7.7 290 16:19 10.12.2019
2893 Clear 33 1009 30 10000 4.6 290 15:39 10.12.2019
2894 Clear 33 1009 30 10000 4.6 290 15:18 10.12.2019
2895 Clear 32 1010 31 10000 6.2 290 14:56 10.12.2019
2896 Clear 32 1010 33 10000 6.2 300 14:38 10.12.2019
2897 Clear 32 1010 33 10000 6.2 300 14:20 10.12.2019
2898 Clear 32 1010 33 10000 6.2 300 14:20 10.12.2019
2899 Clear 31 1010 38 10000 3.6 290 13:57 10.12.2019
2900 Clear 30 1010 38 10000 3.6 290 13:39 10.12.2019
2901 Clear 30 1010 38 10000 3.6 290 13:20 10.12.2019
2902 Clear 28 1009 42 10000 3.6 290 12:48 10.12.2019
2903 Clear 26 1009 42 10000 3.6 290 12:28 10.12.2019
2904 Clear 25 1009 47 10000 5.1 300 11:55 10.12.2019
2905 Clear 25 1009 47 10000 5.1 300 11:37 10.12.2019
2906 Clear 24 1009 47 10000 5.1 300 11:18 10.12.2019
2907 Clear 23 1009 53 10000 5.1 300 10:42 10.12.2019
2908 Clear 23 1009 53 10000 5.1 300 10:24 10.12.2019
2909 Clear 23 1008 47 10000 4.6 310 09:57 10.12.2019
2910 Clear 23 1008 47 10000 4.6 310 09:57 10.12.2019
2911 Clear 23 1008 47 10000 4.6 310 09:39 10.12.2019
2912 Clear 23 1008 47 10000 4.6 310 09:20 10.12.2019
2913 Clear 22 1007 60 10000 4.1 310 08:58 10.12.2019
2914 Clear 23 1007 60 10000 4.1 310 08:39 10.12.2019
2915 Clear 23 1007 60 10000 4.1 310 08:39 10.12.2019
2916 Clear 23 1007 60 10000 4.1 310 08:19 10.12.2019
2917 Clear 24 1007 57 10000 4.1 320 07:44 10.12.2019
2918 Clear 24 1007 57 10000 4.1 320 07:26 10.12.2019
2919 Clear 24 1008 47 10000 4.1 310 06:50 10.12.2019
2920 Clear 24 1008 42 10000 3.6 310 06:24 10.12.2019
2921 Clear 24 1008 42 10000 3.6 310 05:55 10.12.2019
2922 Rain 25 1008 42 10000 3.6 310 05:19 10.12.2019
2923 Clear 26 1008 61 10000 3.1 330 03:54 10.12.2019
2924 Clear 27 1008 57 10000 2.6 330 02:48 10.12.2019
2925 Clear 27 1008 57 10000 2.6 330 02:48 10.12.2019
2926 Clear 28 1008 51 10000 4.1 310 01:51 10.12.2019
2927 Clear 28 1008 51 10000 4.1 310 01:26 10.12.2019
2928 Clear 28 1008 51 10000 4.1 310 01:26 10.12.2019
2929 Clear 29 1007 48 10000 4.1 320 00:49 10.12.2019
2930 Clear 30 1007 48 10000 4.1 320 00:24 10.12.2019
2931 Clear 31 1007 51 10000 4.6 330 23:43 09.12.2019
2932 Clear 32 1007 51 10000 4.6 330 23:24 09.12.2019
2933 Clouds 33 1007 48 10000 5.1 330 22:58 09.12.2019
2934 Clouds 33 1007 48 10000 5.1 330 22:40 09.12.2019
2935 Clear 34 1008 32 10000 6.2 330 22:20 09.12.2019
2936 Clear 34 1008 32 10000 6.2 330 21:57 09.12.2019
2937 Clear 35 1008 32 10000 6.2 330 21:39 09.12.2019
2938 Clear 35 1008 32 10000 6.2 330 21:19 09.12.2019
2939 Clear 35 1008 34 10000 5.7 320 20:57 09.12.2019
2940 Clear 35 1008 34 10000 5.7 320 20:39 09.12.2019
2941 Clear 35 1008 34 10000 5.7 320 20:20 09.12.2019
2942 Clear 35 1009 30 10000 6.2 310 19:56 09.12.2019
2943 Clear 35 1009 30 10000 6.2 310 19:38 09.12.2019
2944 Clouds 35 1009 28 10000 7.2 290 19:19 09.12.2019
2945 Clouds 35 1009 28 10000 7.2 290 18:56 09.12.2019
2946 Clouds 35 1009 28 10000 7.2 290 18:38 09.12.2019
2947 Clouds 35 1009 28 10000 7.2 290 18:19 09.12.2019
2948 Clear 34 1010 33 10000 5.7 290 17:57 09.12.2019
2949 Clear 34 1010 33 10000 5.7 290 17:39 09.12.2019
2950 Clear 34 1010 33 10000 5.7 290 17:20 09.12.2019
2951 Clear 33 1011 33 10000 5.1 280 16:56 09.12.2019
2952 Clear 33 1011 33 10000 5.1 280 16:37 09.12.2019
2953 Clear 32 1011 33 10000 5.1 280 16:19 09.12.2019
2954 Clear 32 1011 40 10000 5.1 270 15:55 09.12.2019
2955 Clear 32 1011 40 10000 5.1 270 15:55 09.12.2019
2956 Clear 32 1011 40 10000 5.1 270 15:37 09.12.2019
2957 Clear 32 1011 40 10000 5.1 270 15:37 09.12.2019
2958 Clear 31 1011 40 10000 5.1 270 15:19 09.12.2019
2959 Clear 29 1011 51 10000 2.6 290 14:42 09.12.2019
2960 Clear 28 1011 65 10000 3.1 350 14:19 09.12.2019
2961 Clear 27 1012 64 10000 2.1 360 13:58 09.12.2019
2962 Clear 27 1012 64 10000 2.1 360 13:38 09.12.2019
2963 Clear 26 1012 64 10000 2.1 360 13:19 09.12.2019
2964 Clear 25 1012 53 10000 1.5 240 12:57 09.12.2019
2965 Clear 25 1012 53 10000 1.5 240 12:38 09.12.2019
2966 Clear 24 1012 53 10000 1.5 240 12:19 09.12.2019
2967 Clear 23 1012 57 10000 1.5 280 11:57 09.12.2019
2968 Clear 22 1012 57 10000 1.5 280 11:37 09.12.2019
2969 Clear 22 1012 57 10000 1.5 280 11:18 09.12.2019
2970 Clear 21 1011 60 10000 1 0 10:41 09.12.2019
2971 Clear 19 1011 60 10000 1 0 10:20 09.12.2019
2972 Clear 19 1010 64 10000 4.1 350 09:59 09.12.2019
2973 Clear 19 1010 64 10000 4.1 350 09:41 09.12.2019
2974 Clear 20 1010 64 10000 4.1 350 09:21 09.12.2019
2975 Clear 20 1010 64 10000 4.1 310 08:44 09.12.2019
2976 Clear 21 1010 64 10000 4.1 310 08:26 09.12.2019
2977 Thunderstorm 21 1011 64 10000 1.5 330 07:57 09.12.2019
2978 Thunderstorm 21 1011 64 10000 1.5 330 07:38 09.12.2019
2979 Thunderstorm 21 1011 64 10000 1.5 330 07:20 09.12.2019
2980 Clear 22 1011 69 10000 3.6 330 06:43 09.12.2019
2981 Clear 22 1011 69 10000 3.6 330 06:24 09.12.2019
2982 Clear 22 1011 69 10000 3.1 20 05:26 09.12.2019
2983 Clear 23 1011 57 10000 4.1 80 04:33 09.12.2019
2984 Clear 23 1011 60 10000 6.2 100 03:19 09.12.2019
2985 Clouds 24 1011 60 10000 5.1 120 02:19 09.12.2019
2986 Thunderstorm 25 1011 41 8000 7.7 140 01:41 09.12.2019
2987 Thunderstorm 26 1010 39 5000 5.1 150 00:45 09.12.2019
2988 Thunderstorm 27 1009 61 10000 3.1 350 00:25 09.12.2019
2989 Clouds 29 1008 54 10000 4.6 330 23:40 08.12.2019
2990 Clouds 30 1008 54 10000 4.6 330 23:22 08.12.2019
2991 Rain 31 1007 58 10000 6.2 340 22:57 08.12.2019
2992 Rain 31 1007 58 10000 6.2 340 22:38 08.12.2019
2993 Rain 31 1007 58 10000 6.2 340 22:19 08.12.2019
2994 Clouds 31 1007 61 10000 3.1 10 21:57 08.12.2019
2995 Clouds 32 1007 61 10000 3.1 10 21:39 08.12.2019
2996 Clouds 32 1007 61 10000 3.1 10 21:39 08.12.2019
2997 Clouds 32 1007 61 10000 3.1 10 21:19 08.12.2019
2998 Rain 32 1008 54 10000 4.6 360 20:57 08.12.2019
2999 Rain 32 1008 54 10000 4.6 360 20:38 08.12.2019
3000 Clouds 33 1008 40 10000 4.6 320 20:19 08.12.2019
3001 Clouds 32 1009 35 10000 5.1 290 19:57 08.12.2019
3002 Clouds 32 1009 35 10000 5.1 290 19:57 08.12.2019
3003 Clouds 32 1009 35 10000 5.1 290 19:39 08.12.2019
3004 Clouds 32 1009 35 10000 5.1 290 19:21 08.12.2019
3005 Clouds 32 1010 38 10000 4.6 290 18:55 08.12.2019
3006 Clouds 32 1010 38 10000 4.6 290 18:36 08.12.2019
3007 Clouds 31 1010 38 10000 4.6 290 18:18 08.12.2019
3008 Clear 31 1010 42 10000 6.2 340 17:56 08.12.2019
3009 Clear 31 1010 42 10000 6.2 340 17:37 08.12.2019
3010 Clear 31 1010 42 10000 6.2 340 17:37 08.12.2019
3011 Clear 31 1010 42 10000 6.2 340 17:19 08.12.2019
3012 Clear 30 1011 35 10000 7.2 320 16:55 08.12.2019
3013 Clear 30 1011 35 10000 7.2 320 16:37 08.12.2019
3014 Clear 29 1011 39 10000 5.1 330 16:18 08.12.2019
3015 Clear 29 1011 39 10000 5.1 330 15:38 08.12.2019
3016 Clear 28 1011 39 10000 5.1 330 15:19 08.12.2019
3017 Clear 27 1011 53 10000 3.6 350 14:58 08.12.2019
3018 Clear 27 1011 53 10000 3.6 350 14:39 08.12.2019
3019 Clear 27 1011 53 10000 3.6 350 14:39 08.12.2019
3020 Clear 27 1011 53 10000 3.6 350 14:21 08.12.2019
3021 Clear 25 1012 53 10000 3.6 320 13:54 08.12.2019
3022 Clear 25 1012 53 10000 3.6 320 13:36 08.12.2019
3023 Clear 24 1011 49 10000 3.1 330 13:18 08.12.2019
3024 Clear 23 1012 52 10000 4.1 330 12:42 08.12.2019
3025 Clear 22 1012 52 10000 4.1 330 12:23 08.12.2019
3026 Clear 20 1012 49 10000 4.1 230 12:00 08.12.2019
3027 Clear 20 1012 49 10000 4.1 230 11:38 08.12.2019
3028 Clear 19 1012 49 10000 4.1 230 11:19 08.12.2019
3029 Clear 18 1011 52 10000 3.6 320 10:58 08.12.2019
3030 Clear 17 1011 52 10000 3.6 320 10:38 08.12.2019
3031 Clear 17 1011 52 10000 3.6 320 10:19 08.12.2019
3032 Clear 17 1011 52 10000 3.6 340 09:56 08.12.2019
3033 Clear 17 1011 52 10000 3.6 340 09:37 08.12.2019
3034 Clear 17 1011 52 10000 3.6 340 09:37 08.12.2019
3035 Clear 17 1011 52 10000 3.6 340 09:19 08.12.2019
3036 Clear 18 1011 56 10000 3.6 340 08:57 08.12.2019
3037 Clear 17 1011 56 10000 3.6 340 08:36 08.12.2019
3038 Clouds 18 1011 56 10000 3.6 340 08:18 08.12.2019
3039 Clouds 18 1011 49 10000 4.1 20 07:41 08.12.2019
3040 Clouds 19 1011 49 10000 4.1 20 07:19 08.12.2019
3041 Clouds 18 1011 53 10000 3.6 20 06:43 08.12.2019
3042 Clouds 19 1011 53 10000 3.6 20 06:21 08.12.2019
3043 Clouds 19 1012 46 10000 2.6 50 05:30 08.12.2019
3044 Clouds 20 1013 40 10000 4.6 70 04:57 08.12.2019
3045 Clouds 21 1013 37 10000 5.1 70 03:41 08.12.2019
3046 Clouds 21 1013 37 10000 5.1 70 03:20 08.12.2019
3047 Clouds 21 1013 43 10000 5.1 70 02:28 08.12.2019
3048 Clouds 22 1012 49 10000 4.6 70 01:48 08.12.2019
3049 Clouds 22 1012 40 10000 4.1 70 00:59 08.12.2019
3050 Clouds 22 1012 40 10000 4.1 70 00:38 08.12.2019
3051 Clouds 23 1012 40 10000 4.1 70 00:19 08.12.2019
3052 Clouds 24 1012 41 10000 3.6 70 23:40 07.12.2019
3053 Clouds 24 1012 41 10000 3.6 70 23:20 07.12.2019
3054 Clouds 25 1013 41 10000 2.6 70 22:56 07.12.2019
3055 Clouds 25 1013 41 10000 2.6 70 22:37 07.12.2019
3056 Clouds 25 1013 41 10000 2.6 70 22:19 07.12.2019
3057 Clouds 25 1013 36 10000 4.6 60 21:56 07.12.2019
3058 Clouds 26 1013 40 10000 2.1 30 21:37 07.12.2019
3059 Clouds 26 1013 40 10000 2.1 30 21:19 07.12.2019
3060 Clouds 26 1013 40 10000 2.1 30 21:19 07.12.2019
3061 Clouds 26 1014 38 10000 2.6 20 20:40 07.12.2019
3062 Clear 26 1014 38 10000 2.6 20 20:20 07.12.2019
3063 Clear 26 1014 35 10000 2.1 30 19:58 07.12.2019
3064 Clear 26 1014 35 10000 2.1 30 19:39 07.12.2019
3065 Clear 26 1014 35 10000 2.1 30 19:21 07.12.2019
3066 Clear 26 1015 37 10000 2.1 20 18:59 07.12.2019
3067 Clear 26 1015 37 10000 2.1 20 18:40 07.12.2019
3068 Clear 26 1015 37 10000 2.1 20 18:18 07.12.2019
3069 Clear 25 1016 35 10000 3.1 10 17:56 07.12.2019
3070 Clear 25 1016 35 10000 3.1 10 17:37 07.12.2019
3071 Clear 25 1016 35 10000 3.1 10 17:19 07.12.2019
3072 Clear 25 1016 33 10000 2.6 50 16:56 07.12.2019
3073 Clear 25 1016 33 10000 2.6 50 16:36 07.12.2019
3074 Clear 25 1016 33 10000 2.6 50 16:36 07.12.2019
3075 Clear 25 1016 33 10000 2.6 50 16:18 07.12.2019
3076 Clear 25 1016 33 10000 2.6 50 16:18 07.12.2019
3077 Clear 24 1017 32 10000 3.1 40 15:41 07.12.2019
3078 Clear 24 1017 32 10000 3.1 40 15:23 07.12.2019
3079 Clear 24 1017 32 10000 3.1 40 15:23 07.12.2019
3080 Clear 23 1016 30 10000 3.6 60 14:56 07.12.2019
3081 Clear 23 1016 30 10000 3.6 60 14:38 07.12.2019
3082 Clear 23 1016 30 10000 3.6 60 14:18 07.12.2019
3083 Clear 22 1016 30 10000 3.1 80 13:40 07.12.2019
3084 Clear 20 1016 28 10000 2.1 150 13:20 07.12.2019
3085 Clear 20 1016 28 10000 2.1 150 12:55 07.12.2019
3086 Clear 20 1016 28 10000 2.1 150 12:37 07.12.2019
3087 Clear 19 1016 45 10000 1.79 55 12:18 07.12.2019
3088 Clear 18 1016 45 10000 1.79 55 11:41 07.12.2019
3089 Clear 16 1016 45 10000 2.33 137 11:23 07.12.2019
3090 Clear 15 1016 52 10000 1 0 10:56 07.12.2019
3091 Clear 14 1016 59 10000 1 210 10:36 07.12.2019
3092 Clear 13 1015 59 10000 1.5 180 10:18 07.12.2019
3093 Clear 13 1015 59 10000 1.5 180 09:39 07.12.2019
3094 Clear 13 1015 59 10000 1.5 180 09:21 07.12.2019
3095 Clear 14 1015 55 10000 3.1 140 08:46 07.12.2019
3096 Clear 14 1015 55 10000 3.1 140 08:46 07.12.2019
3097 Clear 14 1015 55 10000 3.1 140 08:25 07.12.2019
3098 Clear 14 1015 55 10000 3.1 140 08:25 07.12.2019
3099 Clear 14 1015 55 10000 3.1 140 08:25 07.12.2019
3100 Clear 15 1015 48 10000 2.1 150 07:53 07.12.2019
3101 Clear 15 1015 48 10000 2.1 150 07:53 07.12.2019
3102 Clear 16 1015 48 10000 2.1 150 07:29 07.12.2019
3103 Clear 16 1015 48 10000 4.1 130 06:53 07.12.2019
3104 Clear 17 1015 48 10000 4.1 130 06:27 07.12.2019
3105 Clear 18 1015 59 10000 4.1 130 05:49 07.12.2019
3106 Clear 19 1015 68 10000 4.6 140 04:44 07.12.2019
3107 Clear 20 1014 77 10000 7.2 120 03:50 07.12.2019
3108 Clear 21 1013 68 10000 6.7 130 02:23 07.12.2019
3109 Clear 21 1013 68 10000 6.7 130 02:23 07.12.2019
3110 Clear 23 1012 56 10000 5.7 120 01:42 07.12.2019
3111 Clear 23 1012 56 10000 5.7 120 01:24 07.12.2019
3112 Clear 25 1011 24 10000 3.1 170 00:22 07.12.2019
3113 Clear 25 1011 24 10000 3.1 170 00:22 07.12.2019
3114 Clear 26 1011 41 10000 2.1 80 23:59 06.12.2019
3115 Clear 26 1011 41 10000 2.1 80 23:40 06.12.2019
3116 Clear 27 1011 41 10000 2.1 80 23:20 06.12.2019
3117 Clear 28 1010 34 10000 3.1 30 22:39 06.12.2019
3118 Clear 28 1010 34 10000 3.1 30 22:39 06.12.2019
3119 Clear 28 1010 34 10000 3.1 30 22:21 06.12.2019
3120 Clear 29 1010 39 10000 3.6 40 21:59 06.12.2019
3121 Clear 29 1010 39 10000 3.6 40 21:41 06.12.2019
3122 Clear 29 1010 39 10000 3.6 40 21:21 06.12.2019
3123 Clear 29 1010 44 10000 2.6 20 20:56 06.12.2019
3124 Clear 29 1010 44 10000 2.6 20 20:38 06.12.2019
3125 Clear 29 1010 44 10000 2.6 20 20:38 06.12.2019
3126 Clouds 29 1010 44 10000 4.1 20 20:19 06.12.2019
3127 Clouds 29 1010 44 10000 4.1 20 19:42 06.12.2019
3128 Clouds 29 1010 44 10000 4.1 20 19:42 06.12.2019
3129 Clouds 29 1010 44 10000 4.1 20 19:24 06.12.2019
3130 Clouds 29 1010 47 10000 4.6 360 18:59 06.12.2019
3131 Clouds 29 1010 47 10000 4.6 360 18:40 06.12.2019
3132 Clouds 29 1010 47 10000 4.6 360 18:21 06.12.2019
3133 Clouds 29 1010 47 10000 4.6 360 18:21 06.12.2019
3134 Clouds 30 1011 25 10000 2.6 180 17:58 06.12.2019
3135 Clouds 30 1011 25 10000 2.6 180 17:40 06.12.2019
3136 Clouds 28 1011 50 10000 3.6 20 17:21 06.12.2019
3137 Clouds 28 1011 47 10000 3.6 30 16:56 06.12.2019
3138 Clouds 28 1011 47 10000 3.6 30 16:37 06.12.2019
3139 Clouds 28 1011 47 10000 3.6 30 16:18 06.12.2019
3140 Clouds 28 1011 30 10000 3.1 130 15:41 06.12.2019
3141 Clouds 27 1011 30 10000 3.1 130 15:22 06.12.2019
3142 Clouds 24 1011 33 10000 2.6 180 14:57 06.12.2019
3143 Clouds 24 1011 33 10000 2.6 180 14:39 06.12.2019
3144 Clouds 25 1011 33 10000 2.6 180 14:19 06.12.2019
3145 Clouds 23 1010 36 10000 3.1 210 13:46 06.12.2019
3146 Clouds 23 1010 36 10000 3.1 210 13:46 06.12.2019
3147 Clouds 23 1010 36 10000 3.1 210 13:26 06.12.2019
3148 Clouds 22 1010 43 10000 4.1 250 12:56 06.12.2019
3149 Clouds 23 1010 43 10000 4.1 250 12:38 06.12.2019
3150 Clouds 22 1010 43 10000 4.1 250 12:20 06.12.2019
3151 Clouds 20 1009 49 10000 4.6 260 11:42 06.12.2019
3152 Clouds 18 1009 49 10000 4.6 260 11:23 06.12.2019
3153 Clouds 17 1008 55 10000 4.1 270 10:55 06.12.2019
3154 Clouds 16 1008 55 10000 4.1 270 10:37 06.12.2019
3155 Clouds 16 1008 55 10000 4.1 270 10:37 06.12.2019
3156 Clouds 16 1008 55 10000 4.1 270 10:18 06.12.2019
3157 Clouds 16 1008 52 10000 4.6 290 09:55 06.12.2019
3158 Clouds 16 1008 52 10000 4.6 290 09:36 06.12.2019
3159 Clouds 16 1008 52 10000 4.6 290 09:18 06.12.2019
3160 Clouds 17 1007 45 10000 5.1 290 08:40 06.12.2019
3161 Clouds 17 1007 45 10000 5.1 290 08:21 06.12.2019
3162 Clouds 18 1007 49 10000 6.2 310 07:38 06.12.2019
3163 Clouds 18 1007 49 10000 6.2 310 07:20 06.12.2019
3164 Clouds 18 1007 59 10000 4.6 320 06:48 06.12.2019
3165 Clouds 18 1007 59 10000 4.6 320 06:24 06.12.2019
3166 Clouds 18 1008 63 10000 5.7 320 05:46 06.12.2019
3167 Clear 19 1010 53 10000 1.5 350 02:44 06.12.2019
3168 Clear 20 1010 33 10000 0.5 270 01:43 06.12.2019
3169 Clear 21 1010 33 10000 1.5 270 00:50 06.12.2019
3170 Clear 22 1010 33 10000 1.5 270 00:23 06.12.2019
3171 Clear 23 1010 27 10000 2.1 230 23:51 05.12.2019
3172 Clear 23 1010 27 10000 2.1 230 23:51 05.12.2019
3173 Clear 25 1010 27 10000 2.1 230 23:20 05.12.2019
3174 Clear 25 1010 29 10000 2.6 260 22:58 05.12.2019
3175 Clear 25 1010 29 10000 2.6 260 22:38 05.12.2019
3176 Clear 25 1010 29 10000 2.6 260 22:19 05.12.2019
3177 Clear 25 1010 31 10000 3.6 250 21:55 05.12.2019
3178 Clear 25 1010 31 10000 3.6 250 21:37 05.12.2019
3179 Clear 25 1010 31 10000 3.6 250 21:37 05.12.2019
3180 Clouds 25 1011 31 10000 2.6 230 21:19 05.12.2019
3181 Clouds 24 1011 31 10000 2.6 230 20:55 05.12.2019
3182 Clouds 25 1011 31 10000 2.6 230 20:36 05.12.2019
3183 Clouds 25 1011 31 10000 2.6 230 20:36 05.12.2019
3184 Clouds 25 1011 31 10000 2.6 230 20:18 05.12.2019
3185 Clouds 25 1012 33 10000 4.1 250 19:40 05.12.2019
3186 Clouds 25 1012 33 10000 4.1 250 19:21 05.12.2019
3187 Clouds 23 1012 37 10000 3.6 260 18:58 05.12.2019
3188 Clouds 23 1012 37 10000 3.6 260 18:38 05.12.2019
3189 Clouds 23 1012 37 10000 3.6 260 18:20 05.12.2019
3190 Clear 22 1013 37 10000 3.1 230 17:40 05.12.2019
3191 Clear 22 1013 37 10000 3.1 230 17:20 05.12.2019
3192 Clear 21 1013 40 10000 2.6 260 16:58 05.12.2019
3193 Clear 21 1013 40 10000 2.6 260 16:39 05.12.2019
3194 Clear 21 1013 40 10000 2.6 260 16:21 05.12.2019
3195 Clouds 20 1014 45 10000 3.6 230 15:57 05.12.2019
3196 Clouds 20 1014 45 10000 3.6 230 15:38 05.12.2019
3197 Clouds 20 1014 45 10000 3.6 230 15:20 05.12.2019
3198 Clouds 19 1015 48 10000 3.6 230 14:55 05.12.2019
3199 Clouds 19 1015 48 10000 3.6 230 14:37 05.12.2019
3200 Clouds 19 1015 48 10000 3.6 230 14:37 05.12.2019
3201 Clouds 17 1015 48 10000 3.6 230 14:18 05.12.2019
3202 Clouds 17 1015 51 10000 3.6 250 13:56 05.12.2019
3203 Clouds 17 1015 51 10000 3.6 250 13:38 05.12.2019
3204 Clouds 16 1015 51 10000 3.6 250 13:18 05.12.2019
3205 Clear 17 1015 58 10000 2.1 240 12:43 05.12.2019
3206 Clear 17 1015 58 10000 2.1 240 12:24 05.12.2019
3207 Clear 15 1014 62 10000 1.5 240 11:59 05.12.2019
3208 Clear 13 1014 62 10000 1.5 240 11:38 05.12.2019
3209 Clear 12 1014 62 10000 1.5 240 11:20 05.12.2019
3210 Clear 12 1014 62 10000 1.5 240 11:20 05.12.2019
3211 Clear 11 1014 66 10000 1 0 10:56 05.12.2019
3212 Clear 11 1014 66 10000 1 0 10:56 05.12.2019
3213 Clear 11 1014 66 10000 1 0 10:38 05.12.2019
3214 Clear 10 1014 66 10000 1 0 10:18 05.12.2019
3215 Clear 10 1014 66 10000 2.1 0 09:45 05.12.2019
3216 -273 0 0 0 0 0 09:23 05.12.2019
3217 Clear 10 1014 71 10000 1.5 180 08:59 05.12.2019
3218 Clear 11 1014 71 10000 1.5 180 08:38 05.12.2019
3219 Clear 11 1014 71 10000 1.5 180 08:19 05.12.2019
3220 Clear 12 1014 67 10000 2.6 180 07:50 05.12.2019
3221 Clear 12 1014 67 10000 2.6 180 07:32 05.12.2019
3222 Clear 12 1014 67 10000 2.6 180 07:32 05.12.2019
3223 Clear 12 1014 67 10000 2.6 190 06:58 05.12.2019
3224 Clear 12 1014 67 10000 2.6 190 06:38 05.12.2019
3225 Clear 12 1014 67 10000 2.6 190 06:19 05.12.2019
3226 Clear 13 1015 47 10000 4.1 180 05:47 05.12.2019
3227 Clear 13 1015 47 10000 4.1 180 05:22 05.12.2019
3228 Clear 15 1013 55 10000 3.6 180 03:59 05.12.2019
3229 Clear 15 1013 55 10000 3.6 180 03:59 05.12.2019
3230 Clear 16 1013 52 10000 3.1 180 02:43 05.12.2019
3231 Clear 16 1013 52 10000 3.1 180 02:24 05.12.2019
3232 Clouds 17 1012 40 10000 2.6 190 01:52 05.12.2019
3233 Clouds 18 1012 40 10000 2.6 190 01:24 05.12.2019
3234 Clouds 20 1011 40 10000 3.1 200 00:50 05.12.2019
3235 Clouds 20 1011 40 10000 3.1 200 00:29 05.12.2019
3236 Clouds 21 1011 43 10000 2.6 200 23:57 04.12.2019
3237 Clouds 21 1011 43 10000 2.6 200 23:57 04.12.2019
3238 Clouds 21 1011 43 10000 2.6 200 23:38 04.12.2019
3239 Clouds 22 1011 43 10000 2.6 200 23:19 04.12.2019
3240 Clouds 22 1011 43 10000 2.6 210 22:39 04.12.2019
3241 Clouds 22 1011 43 10000 2.6 210 22:20 04.12.2019
3242 Clouds 22 1011 49 10000 3.6 190 21:58 04.12.2019
3243 Clouds 22 1011 49 10000 3.6 190 21:40 04.12.2019
3244 Clouds 22 1011 49 10000 3.6 190 21:21 04.12.2019
3245 Clouds 22 1011 53 10000 4.1 210 20:59 04.12.2019
3246 Clouds 22 1011 53 10000 4.1 210 20:41 04.12.2019
3247 Clouds 23 1011 53 10000 4.1 210 20:22 04.12.2019
3248 Clouds 23 1011 47 10000 2.6 0 19:59 04.12.2019
3249 Clouds 23 1011 47 10000 2.6 0 19:38 04.12.2019
3250 Clouds 23 1011 47 10000 2.6 0 19:20 04.12.2019
3251 Clouds 23 1011 53 10000 1.5 200 18:56 04.12.2019
3252 Clouds 23 1011 53 10000 1.5 200 18:38 04.12.2019
3253 Clouds 23 1011 53 10000 1.5 200 18:20 04.12.2019
3254 Clouds 23 1011 56 10000 3.1 240 17:40 04.12.2019
3255 Clouds 22 1011 56 10000 3.1 240 17:21 04.12.2019
3256 Clouds 22 1010 57 10000 3.6 230 16:57 04.12.2019
3257 Clouds 22 1010 57 10000 3.6 230 16:39 04.12.2019
3258 Clouds 22 1010 57 10000 3.6 230 16:19 04.12.2019
3259 Clouds 23 1010 60 10000 6.2 200 15:55 04.12.2019
3260 Clouds 23 1010 60 10000 6.2 200 15:37 04.12.2019
3261 Clouds 23 1010 53 10000 1 0 15:19 04.12.2019
3262 Clouds 23 1010 53 10000 1 0 15:19 04.12.2019
3263 Clouds 24 1010 77 10000 2.6 270 14:44 04.12.2019
3264 Clouds 21 1010 77 10000 2.6 270 14:23 04.12.2019
3265 Clouds 21 1010 60 10000 3.1 320 13:58 04.12.2019
3266 Clouds 20 1010 60 10000 3.1 320 13:38 04.12.2019
3267 Clouds 20 1010 60 10000 3.1 320 13:19 04.12.2019
3268 Clouds 20 1010 60 10000 3.1 320 13:19 04.12.2019
3269 Clouds 20 1010 60 10000 2.1 330 12:44 04.12.2019
3270 Clouds 20 1010 60 10000 2.1 330 12:24 04.12.2019
3271 Clouds 19 1011 64 10000 1.5 330 11:56 04.12.2019
3272 Clouds 19 1011 64 10000 1.5 330 11:37 04.12.2019
3273 Clouds 17 1011 64 10000 1.5 330 11:19 04.12.2019
3274 Clouds 16 1010 68 10000 0.5 320 10:43 04.12.2019
3275 Clouds 16 1010 68 10000 0.5 320 10:23 04.12.2019
3276 Clouds 16 1010 68 10000 0.5 320 10:23 04.12.2019
3277 Clouds 16 1010 68 10000 1.5 310 09:55 04.12.2019
3278 Clouds 16 1010 68 10000 1.5 310 09:55 04.12.2019
3279 Clouds 16 1010 68 10000 1.5 310 09:37 04.12.2019
3280 Clouds 16 1010 68 10000 1.5 310 09:18 04.12.2019
3281 Clouds 16 1010 72 10000 1.29 276 08:39 04.12.2019
3282 Clouds 16 1010 72 10000 2.29 320 08:20 04.12.2019
3283 Clouds 16 1010 77 10000 2.29 320 07:48 04.12.2019
3284 Clouds 16 1010 77 10000 2.29 320 07:30 04.12.2019
3285 Clouds 16 1010 82 10000 1 250 06:34 04.12.2019
3286 Clouds 15 1010 77 10000 2.1 240 05:48 04.12.2019
3287 Clear 16 1009 72 10000 3.77 357 04:58 04.12.2019
3288 Clear 17 1009 64 10000 3.1 360 03:54 04.12.2019
3289 Clear 18 1009 64 10000 2.6 10 02:38 04.12.2019
3290 Rain 18 1009 64 10000 2.6 50 00:51 04.12.2019
3291 Rain 18 1009 64 10000 2.6 50 00:23 04.12.2019
3292 Rain 19 1009 60 10000 1 10 23:57 03.12.2019
3293 Rain 19 1008 88 9000 2.6 120 23:38 03.12.2019
3294 Clouds 21 1009 60 10000 1 10 23:19 03.12.2019
3295 Rain 22 1009 82 7000 1 0 22:40 03.12.2019
3296 Rain 22 1008 60 10000 3.6 30 22:19 03.12.2019
3297 Clouds 20 1009 63 10000 3.1 340 21:58 03.12.2019
3298 Clouds 21 1009 63 10000 3.1 340 21:37 03.12.2019
3299 Clouds 21 1009 63 10000 3.1 340 21:37 03.12.2019
3300 Clouds 21 1009 63 10000 3.1 340 21:19 03.12.2019
3301 Clouds 21 1010 72 10000 4.6 330 20:57 03.12.2019
3302 Clouds 20 1010 72 10000 4.6 330 20:39 03.12.2019
3303 Clouds 22 1010 72 10000 4.6 330 20:18 03.12.2019
3304 Rain 21 1010 77 9000 5.1 330 19:54 03.12.2019
3305 Rain 21 1010 77 9000 5.1 330 19:36 03.12.2019
3306 Rain 21 1010 77 9000 5.1 330 19:18 03.12.2019
3307 Rain 19 1010 93 5000 2.1 10 18:55 03.12.2019
3308 Rain 19 1011 68 5000 3.6 300 18:37 03.12.2019
3309 Rain 19 1011 68 5000 3.6 300 18:19 03.12.2019
3310 Rain 19 1011 68 5000 3.6 300 18:19 03.12.2019
3311 Rain 23 1011 46 8000 6.2 290 17:40 03.12.2019
3312 Clouds 23 1010 40 10000 7.7 310 17:19 03.12.2019
3313 Clouds 23 1011 40 10000 7.2 330 16:59 03.12.2019
3314 Clouds 23 1011 40 10000 7.2 330 16:40 03.12.2019
3315 Clouds 24 1011 40 10000 7.2 330 16:21 03.12.2019
3316 Clouds 24 1011 38 10000 10.3 330 15:59 03.12.2019
3317 Clouds 24 1011 38 10000 10.3 330 15:39 03.12.2019
3318 Clouds 24 1011 38 10000 10.3 330 15:39 03.12.2019
3319 Clouds 24 1011 38 10000 10.3 330 15:20 03.12.2019
3320 Clouds 24 1011 38 10000 10.3 330 15:20 03.12.2019
3321 Clouds 24 1011 38 10000 10.3 330 15:20 03.12.2019
3322 Clouds 24 1011 49 10000 6.7 330 14:54 03.12.2019
3323 Clouds 24 1011 49 10000 6.7 330 14:36 03.12.2019
3324 Clouds 23 1011 49 10000 6.7 330 14:18 03.12.2019
3325 Clouds 23 1011 56 10000 4.6 330 13:38 03.12.2019
3326 Clouds 23 1011 56 10000 4.6 330 13:20 03.12.2019
3327 Clouds 20 1011 52 10000 4.1 330 12:57 03.12.2019
3328 Clouds 19 1011 52 10000 4.1 330 12:37 03.12.2019
3329 Clouds 19 1011 52 10000 4.1 330 12:18 03.12.2019
3330 -273 0 0 0 0 0 11:56 03.12.2019
3331 Clouds 18 1011 45 10000 5.1 310 11:37 03.12.2019
3332 Clouds 17 1011 45 10000 5.1 310 11:18 03.12.2019
3333 Clouds 17 1012 59 10000 4.1 290 10:43 03.12.2019
3334 Clouds 17 1012 59 10000 4.1 290 10:21 03.12.2019
3335 Clouds 17 1011 77 10000 4.1 320 09:59 03.12.2019
3336 Clouds 17 1011 77 10000 4.1 320 09:40 03.12.2019
3337 Clouds 17 1011 77 10000 4.1 320 09:22 03.12.2019
3338 Clouds 17 1011 56 10000 5.1 340 08:55 03.12.2019
3339 Clouds 17 1011 56 10000 5.1 340 08:37 03.12.2019
3340 Clouds 17 1011 63 10000 3.6 340 08:18 03.12.2019
3341 Clouds 18 1011 56 10000 3.6 320 07:49 03.12.2019
3342 Clouds 18 1011 56 10000 3.6 320 07:24 03.12.2019
3343 Clouds 17 1011 67 10000 4.52 346 06:23 03.12.2019
3344 Clouds 18 1012 63 10000 1.5 20 05:59 03.12.2019
3345 Clear 19 1013 43 10000 4.1 340 04:50 03.12.2019
3346 Clear 20 1012 43 10000 5.1 360 03:40 03.12.2019
3347 Clear 20 1012 43 10000 5.1 360 03:19 03.12.2019
3348 Clear 20 1012 43 10000 5.1 360 03:19 03.12.2019
3349 Clear 20 1012 43 10000 5.1 360 03:19 03.12.2019
3350 Clear 21 1013 49 10000 3.1 20 02:47 03.12.2019
3351 Clear 21 1013 49 10000 3.1 20 02:26 03.12.2019
3352 Clear 22 1013 49 10000 4.1 70 01:42 03.12.2019
3353 Clear 22 1013 49 10000 4.1 70 01:23 03.12.2019
3354 Clear 22 1013 49 10000 2.6 50 00:55 03.12.2019
3355 Clear 23 1013 49 10000 2.6 50 00:37 03.12.2019
3356 Clear 23 1013 49 10000 2.6 50 00:37 03.12.2019
3357 Clear 23 1013 49 10000 2.6 50 00:18 03.12.2019
3358 Clear 24 1013 47 10000 2.6 20 23:41 02.12.2019
3359 Clear 25 1013 47 10000 2.6 20 23:19 02.12.2019
3360 Clear 26 1014 41 10000 3.1 360 22:40 02.12.2019
3361 Clear 26 1014 41 10000 3.1 360 22:22 02.12.2019
3362 Clear 27 1015 44 10000 3.6 20 21:58 02.12.2019
3363 Clear 27 1015 44 10000 3.6 20 21:37 02.12.2019
3364 Clear 27 1015 44 10000 3.6 20 21:18 02.12.2019
3365 Clear 27 1016 44 10000 4.1 30 20:56 02.12.2019
3366 Clear 27 1016 44 10000 4.1 30 20:38 02.12.2019
3367 Clear 27 1016 44 10000 4.1 30 20:19 02.12.2019
3368 Clear 27 1017 41 10000 3.6 30 20:19 02.12.2019
3369 Clear 27 1017 41 10000 3.6 30 19:42 02.12.2019
3370 Clear 27 1017 41 10000 3.6 30 19:21 02.12.2019
3371 Clear 27 1018 33 10000 3.6 50 18:57 02.12.2019
3372 Clear 27 1018 33 10000 3.6 50 18:38 02.12.2019
3373 Clear 27 1018 33 10000 3.6 50 18:19 02.12.2019
3374 Clear 26 1019 40 10000 3.6 40 17:57 02.12.2019
3375 Clear 26 1019 40 10000 3.6 40 17:57 02.12.2019
3376 Clear 26 1019 40 10000 3.6 40 17:38 02.12.2019
3377 Clear 26 1019 40 10000 3.6 40 17:18 02.12.2019
3378 -273 0 0 0 0 0 16:40 02.12.2019
3379 Clear 25 1019 41 10000 3.1 40 16:19 02.12.2019
3380 Clear 24 1020 49 10000 3.6 360 15:57 02.12.2019
3381 Clear 24 1020 49 10000 3.6 360 15:39 02.12.2019
3382 Clear 24 1020 49 10000 3.6 360 15:21 02.12.2019
3383 Clear 23 1019 56 10000 3.1 10 14:55 02.12.2019
3384 Clear 23 1019 56 10000 3.1 10 14:37 02.12.2019
3385 Clear 22 1019 56 10000 3.1 10 14:19 02.12.2019
3386 Clear 22 1019 56 10000 3.1 10 14:19 02.12.2019
3387 Clouds 22 1019 68 10000 3.1 350 13:55 02.12.2019
3388 Clouds 21 1019 68 10000 3.1 350 13:55 02.12.2019
3389 Clouds 21 1019 68 10000 3.1 350 13:36 02.12.2019
3390 Clouds 21 1019 68 10000 3.1 350 13:18 02.12.2019
3391 Clouds 20 1019 40 10000 2.6 70 12:42 02.12.2019
3392 Clouds 20 1019 40 10000 2.6 70 12:42 02.12.2019
3393 Clouds 19 1019 40 10000 2.6 70 12:21 02.12.2019
3394 Clouds 17 1019 48 10000 1.5 110 11:57 02.12.2019
3395 Clouds 17 1019 48 10000 1.5 110 11:37 02.12.2019
3396 Clouds 17 1019 48 10000 1.5 110 11:37 02.12.2019
3397 Clouds 15 1019 48 10000 1.5 110 11:19 02.12.2019
3398 Clouds 14 1019 55 10000 1 0 10:57 02.12.2019
3399 Clouds 14 1019 55 10000 1 0 10:38 02.12.2019
3400 Clouds 13 1019 55 10000 1 0 10:20 02.12.2019
3401 Clouds 12 1019 59 10000 1 0 09:42 02.12.2019
3402 Clouds 12 1019 59 10000 1 0 09:19 02.12.2019
3403 Clouds 13 1019 55 10000 2.6 140 08:58 02.12.2019
3404 Clouds 13 1019 55 10000 2.6 140 08:58 02.12.2019
3405 Clouds 13 1019 55 10000 2.6 140 08:40 02.12.2019
3406 Clear 13 1019 55 10000 2.6 140 08:21 02.12.2019
3407 Clear 13 1020 55 10000 2.6 140 07:44 02.12.2019
3408 Clear 14 1020 55 10000 2.6 140 07:24 02.12.2019
3409 Clear 14 1020 39 10000 2.1 140 06:58 02.12.2019
3410 Clear 14 1020 39 10000 2.1 140 06:39 02.12.2019
3411 Clear 16 1020 39 10000 2.1 130 05:36 02.12.2019
3412 Clear 16 1021 34 10000 4.1 140 04:50 02.12.2019
3413 Clear 18 1020 24 10000 1 0 02:55 02.12.2019
3414 Clear 18 1020 24 10000 1 0 02:31 02.12.2019
3415 Clear 20 1020 24 10000 1.5 180 01:27 02.12.2019
3416 Clear 20 1019 40 10000 2.6 180 00:58 02.12.2019
3417 Clear 21 1019 40 10000 2.6 180 00:25 02.12.2019
3418 Clear 22 1019 22 10000 2.1 190 23:56 01.12.2019
3419 Clear 23 1019 22 10000 2.1 190 23:37 01.12.2019
3420 Clear 24 1019 22 10000 2.1 190 23:19 01.12.2019
3421 Clear 24 1019 24 10000 2.6 200 22:55 01.12.2019
3422 Clear 24 1019 24 10000 2.6 200 22:37 01.12.2019
3423 Clear 24 1019 24 10000 2.6 200 22:18 01.12.2019
3424 Clear 25 1019 24 10000 3.6 220 21:54 01.12.2019
3425 Clear 25 1019 24 10000 3.6 220 21:36 01.12.2019
3426 Clear 25 1019 24 10000 3.6 220 21:18 01.12.2019
3427 Clear 25 1020 20 10000 3.6 220 20:55 01.12.2019
3428 Clear 25 1020 20 10000 3.6 220 20:37 01.12.2019
3429 Clear 25 1020 20 10000 3.6 220 20:19 01.12.2019
3430 Clear 25 1020 23 10000 2.6 190 19:54 01.12.2019
3431 Clear 25 1020 23 10000 2.6 190 19:36 01.12.2019
3432 Clear 25 1020 23 10000 2.6 190 19:18 01.12.2019
3433 Clear 25 1020 19 10000 2.6 0 18:54 01.12.2019
3434 Clear 25 1020 19 10000 2.6 0 18:36 01.12.2019
3435 Clear 25 1020 19 10000 2.6 0 18:18 01.12.2019
3436 Clear 24 1020 23 10000 3.6 200 17:41 01.12.2019
3437 Clear 24 1020 23 10000 3.6 200 17:23 01.12.2019
3438 Clear 23 1021 19 10000 3.1 170 16:57 01.12.2019
3439 Clear 23 1021 19 10000 3.1 170 16:39 01.12.2019
3440 Clear 22 1021 19 10000 3.1 170 16:20 01.12.2019
3441 Clear 22 1021 21 10000 4.6 140 15:50 01.12.2019
3442 Clear 22 1021 21 10000 4.6 140 15:31 01.12.2019
3443 Clear 21 1021 20 10000 4.1 170 14:44 01.12.2019
3444 Clear 20 1021 20 10000 4.1 170 14:20 01.12.2019
3445 Clear 20 1021 24 10000 6.2 140 13:59 01.12.2019
3446 Clear 20 1021 24 10000 6.2 140 13:39 01.12.2019
3447 Clear 19 1021 24 10000 6.2 140 13:20 01.12.2019
3448 Clear 18 1021 27 10000 3.6 150 12:44 01.12.2019
3449 Clear 17 1020 33 10000 3.6 150 11:59 01.12.2019
3450 Clear 16 1020 33 10000 3.6 150 11:40 01.12.2019
3451 Clear 15 1020 33 10000 3.6 150 11:21 01.12.2019
3452 Clear 14 1019 38 10000 3.6 130 10:43 01.12.2019
3453 Clear 13 1019 38 10000 3.6 130 10:21 01.12.2019
3454 Clear 13 1018 41 10000 2.6 130 09:57 01.12.2019
3455 Clear 13 1018 41 10000 2.6 130 09:38 01.12.2019
3456 Clear 13 1018 41 10000 2.6 130 09:20 01.12.2019
3457 Clear 13 1017 38 10000 4.6 130 08:44 01.12.2019
3458 Clear 13 1017 38 10000 4.6 130 08:19 01.12.2019
3459 Clear 14 1017 38 10000 4.1 140 07:50 01.12.2019
3460 Clear 14 1017 38 10000 4.1 140 07:50 01.12.2019
3461 Clear 14 1017 38 10000 4.1 140 07:30 01.12.2019
3462 Clear 15 1017 45 10000 7.2 140 06:56 01.12.2019
3463 Clear 15 1017 45 10000 7.2 140 06:25 01.12.2019
3464 Clouds 16 1016 63 10000 6.7 140 05:46 01.12.2019
3465 Clear 18 1015 63 10000 4.6 130 04:34 01.12.2019
3466 Clear 20 1012 25 10000 2.1 190 02:47 01.12.2019
3467 Clear 20 1012 25 10000 2.1 190 02:29 01.12.2019
3468 Clouds 21 1011 23 10000 2.6 190 01:56 01.12.2019
3469 Clouds 22 1011 23 10000 2.6 190 01:38 01.12.2019
3470 Clear 23 1010 21 10000 2.1 230 00:59 01.12.2019
3471 Clear 23 1010 21 10000 2.1 230 00:39 01.12.2019
3472 Clear 23 1010 21 10000 2.1 230 00:20 01.12.2019
3473 Clear 25 1010 22 10000 5.1 230 23:41 30.11.2019
3474 Clear 26 1009 19 10000 3.6 250 23:22 30.11.2019
3475 Clear 27 1009 28 10000 3.6 250 22:49 30.11.2019
3476 Clear 27 1009 28 10000 3.6 250 22:29 30.11.2019
3477 Clear 28 1009 23 10000 3.1 240 21:55 30.11.2019
3478 Clear 27 1009 23 10000 3.1 240 21:37 30.11.2019
3479 Clear 28 1009 23 10000 3.1 240 21:19 30.11.2019
3480 Clear 28 1009 21 10000 5.1 270 20:55 30.11.2019
3481 Clear 28 1009 21 10000 5.1 270 20:36 30.11.2019
3482 Clear 28 1009 21 10000 5.1 270 20:18 30.11.2019
3483 Clear 28 1009 23 10000 4.6 260 19:54 30.11.2019
3484 Clear 28 1009 23 10000 4.6 260 19:36 30.11.2019
3485 Clear 28 1009 23 10000 4.6 260 19:18 30.11.2019
3486 Clear 28 1008 23 10000 4.6 260 18:39 30.11.2019
3487 Clear 28 1008 23 10000 4.6 260 18:21 30.11.2019
3488 Clear 27 1008 21 10000 4.6 230 17:59 30.11.2019
3489 Clear 27 1008 21 10000 4.6 230 17:41 30.11.2019
3490 Clear 27 1008 21 10000 4.6 230 17:41 30.11.2019
3491 Clear 27 1008 21 10000 4.6 230 17:23 30.11.2019
3492 Clear 26 1009 24 10000 3.6 260 16:59 30.11.2019
3493 Clear 26 1009 24 10000 3.6 260 16:41 30.11.2019
3494 Clear 26 1009 24 10000 3.6 260 16:22 30.11.2019
3495 Clear 25 1010 26 10000 2.6 0 15:54 30.11.2019
3496 Clear 25 1010 26 10000 2.6 0 15:36 30.11.2019
3497 Clear 25 1010 26 10000 2.6 0 15:18 30.11.2019
3498 Clear 25 1010 27 10000 2.6 250 14:55 30.11.2019
3499 Clear 24 1010 27 10000 2.6 250 14:36 30.11.2019
3500 Clear 24 1010 27 10000 2.6 250 14:18 30.11.2019
3501 Clear 24 1010 25 10000 3.6 230 13:42 30.11.2019
3502 Clear 23 1010 25 10000 3.6 230 13:24 30.11.2019
3503 Clear 23 1010 29 10000 2.1 240 12:57 30.11.2019
3504 Clear 22 1010 29 10000 2.1 240 12:39 30.11.2019
3505 Clear 22 1010 29 10000 2.1 240 12:18 30.11.2019
3506 Clear 19 1010 46 10000 1.5 250 11:41 30.11.2019
3507 Clear 19 1010 46 10000 1.5 250 11:19 30.11.2019
3508 Clear 17 1009 55 10000 1 300 10:55 30.11.2019
3509 Clear 17 1009 55 10000 1 300 10:37 30.11.2019
3510 Clear 16 1009 55 10000 1 300 10:18 30.11.2019
3511 Clear 15 1008 52 10000 1 0 09:43 30.11.2019
3512 Clear 15 1008 52 10000 1 0 09:21 30.11.2019
3513 Fog 15 1008 100 10000 3.38 238 08:43 30.11.2019
3514 Clouds 16 1008 52 10000 1 220 08:20 30.11.2019
3515 Clouds 16 1008 46 10000 0.5 240 07:54 30.11.2019
3516 Clouds 16 1008 46 10000 0.5 240 07:36 30.11.2019
3517 Clouds 17 1008 53 10000 1 0 06:49 30.11.2019
3518 Clouds 17 1007 100 10000 2.1 220 06:28 30.11.2019
3519 Clouds 17 1007 100 10000 2.1 220 06:28 30.11.2019
3520 Clouds 18 1008 68 10000 1 0 05:33 30.11.2019
3521 Clouds 20 1007 73 10000 1 0 03:42 30.11.2019
3522 Clouds 21 1007 69 10000 1 0 02:39 30.11.2019
3523 Rain 21 1007 69 10000 1 0 02:20 30.11.2019
3524 Rain 21 1005 73 10000 2.1 320 01:25 30.11.2019
3525 Rain 22 1005 73 10000 0.5 200 00:48 30.11.2019
3526 Rain 22 1005 73 10000 0.5 200 00:30 30.11.2019
3527 Rain 23 1004 73 10000 2.1 320 23:57 29.11.2019
3528 Rain 23 1004 73 10000 2.1 320 23:38 29.11.2019
3529 Rain 24 1004 73 10000 2.1 320 23:18 29.11.2019
3530 Clouds 24 1004 73 10000 3.1 320 22:40 29.11.2019
3531 Clouds 24 1004 73 10000 3.1 320 22:21 29.11.2019
3532 Clouds 21 1004 68 10000 1 0 21:43 29.11.2019
3533 Clouds 21 1004 68 10000 1 0 21:23 29.11.2019
3534 Rain 22 1002 77 8000 5.7 60 20:57 29.11.2019
3535 Rain 22 1004 82 9000 1.5 150 20:38 29.11.2019
3536 Rain 23 1004 82 9000 1.5 150 20:19 29.11.2019
3537 Thunderstorm 24 1006 88 9000 6.2 220 19:56 29.11.2019
3538 Thunderstorm 25 1006 88 9000 6.2 220 19:38 29.11.2019
3539 Thunderstorm 29 1004 42 10000 6.7 330 19:19 29.11.2019
3540 Clouds 29 1004 39 10000 5.1 330 18:42 29.11.2019
3541 Clouds 29 1004 39 10000 5.1 330 18:42 29.11.2019
3542 Clouds 29 1004 39 10000 5.1 330 18:24 29.11.2019
3543 Clouds 30 1004 45 10000 7.2 340 18:00 29.11.2019
3544 Clouds 30 1004 45 10000 7.2 340 17:41 29.11.2019
3545 Clear 29 1004 45 10000 7.2 340 17:22 29.11.2019
3546 Clear 29 1005 51 10000 5.7 350 16:44 29.11.2019
3547 Clear 29 1005 51 10000 5.7 350 16:21 29.11.2019
3548 Clear 28 1005 47 10000 6.7 360 15:57 29.11.2019
3549 Clear 28 1005 47 10000 6.7 360 15:39 29.11.2019
3550 Clear 28 1005 47 10000 6.7 360 15:21 29.11.2019
3551 Clear 26 1006 57 10000 6.2 360 14:40 29.11.2019
3552 Clouds 26 1006 57 10000 6.2 360 14:22 29.11.2019
3553 Clouds 26 1007 47 10000 5.1 340 13:57 29.11.2019
3554 Clouds 25 1007 47 10000 5.1 340 13:38 29.11.2019
3555 Clouds 25 1007 47 10000 5.1 340 13:19 29.11.2019
3556 Clouds 24 1008 60 10000 5.1 320 12:43 29.11.2019
3557 Clouds 23 1008 60 10000 5.1 320 12:25 29.11.2019
3558 Clouds 22 1008 68 10000 5.1 340 11:57 29.11.2019
3559 Clouds 22 1008 68 10000 5.1 340 11:38 29.11.2019
3560 Clouds 21 1008 68 10000 5.1 340 11:19 29.11.2019
3561 Clouds 20 1008 68 10000 4.6 330 10:57 29.11.2019
3562 Clouds 20 1008 68 10000 4.6 330 10:39 29.11.2019
3563 Clouds 19 1008 68 10000 4.6 330 10:20 29.11.2019
3564 Clouds 19 1007 64 10000 5.1 340 09:58 29.11.2019
3565 Clouds 19 1007 64 10000 5.1 340 09:38 29.11.2019
3566 Clouds 20 1007 64 10000 5.1 340 09:20 29.11.2019
3567 Clouds 20 1008 64 10000 4.6 350 08:55 29.11.2019
3568 Clouds 20 1008 64 10000 4.6 350 08:36 29.11.2019
3569 Clear 21 1008 64 10000 4.6 350 08:18 29.11.2019
3570 Clear 21 1008 60 10000 4.1 340 07:41 29.11.2019
3571 Clear 21 1008 60 10000 4.1 340 07:23 29.11.2019
3572 Clear 22 1008 60 10000 4.6 330 06:46 29.11.2019
3573 Clear 22 1008 60 10000 4.6 330 06:27 29.11.2019
3574 Clear 23 1008 53 10000 6.7 340 05:32 29.11.2019
3575 Clear 23 1008 57 10000 6.2 340 04:49 29.11.2019
3576 -273 0 0 0 0 0 03:23 29.11.2019
3577 Clear 24 1009 57 10000 5.7 340 02:53 29.11.2019
3578 Clear 24 1009 57 10000 5.7 340 02:21 29.11.2019
3579 Clear 25 1009 61 10000 4.1 350 01:27 29.11.2019
3580 Clear 26 1008 57 10000 3.1 350 00:51 29.11.2019
3581 Clear 26 1008 57 10000 3.1 350 00:22 29.11.2019
3582 Clear 27 1008 51 10000 3.6 340 23:57 28.11.2019
3583 Clear 27 1008 51 10000 3.6 340 23:57 28.11.2019
3584 Clear 27 1008 51 10000 3.6 340 23:39 28.11.2019
3585 Clear 28 1008 51 10000 3.6 340 23:20 28.11.2019
3586 Clear 29 1009 45 10000 4.1 340 22:54 28.11.2019
3587 Clear 29 1009 45 10000 4.1 340 22:36 28.11.2019
3588 Clear 29 1009 45 10000 4.1 340 22:36 28.11.2019
3589 Clear 29 1009 45 10000 4.1 340 22:18 28.11.2019
3590 Clear 29 1009 48 10000 3.6 350 21:42 28.11.2019
3591 Clear 30 1009 48 10000 3.6 350 21:21 28.11.2019
3592 Clear 30 1010 42 10000 5.1 340 20:58 28.11.2019
3593 Clear 30 1010 42 10000 5.1 340 20:39 28.11.2019
3594 Clear 30 1010 42 10000 5.1 340 20:21 28.11.2019
3595 Clear 30 1010 42 10000 5.1 340 20:21 28.11.2019
3596 Clear 30 1011 45 10000 4.6 350 19:56 28.11.2019
3597 Clear 29 1011 45 10000 4.6 350 19:37 28.11.2019
3598 Clear 30 1011 45 10000 4.6 350 19:19 28.11.2019
3599 Clear 30 1012 44 10000 5.1 360 18:56 28.11.2019
3600 Clear 29 1012 44 10000 5.1 360 18:38 28.11.2019
3601 Clear 29 1012 44 10000 5.1 360 18:18 28.11.2019
3602 Clear 29 1013 32 10000 6.2 320 17:43 28.11.2019
3603 Clear 29 1013 32 10000 6.2 320 17:25 28.11.2019
3604 Clear 29 1013 54 10000 4.1 40 17:24 28.11.2019
3605 Clear 28 1013 36 10000 6.2 330 16:59 28.11.2019
3606 Clear 28 1013 50 10000 4.6 30 16:40 28.11.2019
3607 Clear 28 1013 50 10000 4.6 30 16:19 28.11.2019
3608 Clear 28 1014 39 10000 5.1 340 15:56 28.11.2019
3609 Clear 27 1014 50 10000 3.6 360 15:37 28.11.2019
3610 Clear 27 1014 50 10000 3.6 360 15:19 28.11.2019
3611 Clear 26 1014 53 10000 4.1 360 14:57 28.11.2019
3612 Clear 26 1014 53 10000 4.1 360 14:38 28.11.2019
3613 Clouds 25 1014 60 10000 3.1 350 14:19 28.11.2019
3614 Clouds 25 1014 60 10000 3.1 350 13:41 28.11.2019
3615 Clouds 24 1014 60 10000 3.1 350 13:22 28.11.2019
3616 Clouds 24 1014 43 10000 2.1 20 12:49 28.11.2019
3617 Clouds 23 1014 43 10000 2.1 20 12:30 28.11.2019
3618 Clouds 21 1014 49 10000 2.92 334 11:59 28.11.2019
3619 Clouds 21 1014 49 10000 2.92 334 11:59 28.11.2019
3620 Clouds 21 1014 49 10000 2.92 334 11:59 28.11.2019
3621 Clouds 21 1014 49 10000 2.92 334 11:41 28.11.2019
3622 Clear 18 1014 49 10000 2.71 42 11:21 28.11.2019
3623 Clear 16 1013 52 10000 2.71 42 10:59 28.11.2019
3624 Clear 16 1013 52 10000 2.71 42 10:41 28.11.2019
3625 Clear 16 1013 52 10000 2.71 42 10:20 28.11.2019
3626 Clear 15 1013 51 10000 2.71 42 09:42 28.11.2019
3627 Clear 15 1013 51 10000 2.71 42 09:23 28.11.2019
3628 Clear 16 1013 48 10000 0.5 210 08:59 28.11.2019
3629 Clear 15 1013 48 10000 0.5 210 08:40 28.11.2019
3630 Clear 15 1013 48 10000 0.5 210 08:21 28.11.2019
3631 Clear 16 1013 45 10000 1 0 07:42 28.11.2019
3632 Clear 16 1013 45 10000 1 0 07:24 28.11.2019
3633 Clear 16 1013 45 10000 1 0 07:24 28.11.2019
3634 Clear 16 1013 42 10000 0.5 260 06:52 28.11.2019
3635 Clear 16 1013 42 10000 0.5 260 06:52 28.11.2019
3636 Clear 16 1013 42 10000 0.5 260 06:34 28.11.2019
3637 Clear 17 1013 33 10000 1 0 05:51 28.11.2019
3638 Clear 18 1013 33 10000 1 0 05:18 28.11.2019
3639 Clear 18 1013 33 10000 1 0 05:18 28.11.2019
3640 Clear 20 1014 31 10000 1.5 220 02:50 28.11.2019
3641 Clear 22 1013 33 10000 2.65 226 01:50 28.11.2019
3642 Clear 23 1012 29 10000 2.6 240 00:48 28.11.2019
3643 Clear 23 1012 29 10000 2.6 240 00:24 28.11.2019
3644 Clear 25 1012 26 10000 3.6 250 23:55 27.11.2019
3645 Clear 26 1012 26 10000 3.6 250 23:37 27.11.2019
3646 Clear 26 1012 26 10000 3.6 250 23:37 27.11.2019
3647 Clear 26 1012 26 10000 3.6 250 23:19 27.11.2019
3648 Clouds 27 1012 28 10000 3.6 250 22:39 27.11.2019
3649 Clouds 27 1012 28 10000 3.6 250 22:20 27.11.2019
3650 Clear 27 1012 26 10000 5.1 260 21:56 27.11.2019
3651 Clear 27 1012 26 10000 5.1 260 21:38 27.11.2019
3652 Clear 27 1012 26 10000 5.1 260 21:38 27.11.2019
3653 Clear 27 1012 26 10000 5.1 260 21:19 27.11.2019
3654 Clear 27 1012 28 10000 4.1 270 20:59 27.11.2019
3655 Clear 27 1012 28 10000 4.1 270 20:39 27.11.2019
3656 Clear 27 1012 28 10000 4.1 270 20:21 27.11.2019
3657 Clear 27 1013 26 10000 3.6 260 19:58 27.11.2019
3658 Clear 27 1013 26 10000 3.6 260 19:39 27.11.2019
3659 Clear 27 1013 26 10000 3.6 260 19:21 27.11.2019
3660 Clear 27 1013 26 10000 3.6 290 18:59 27.11.2019
3661 Clear 27 1013 26 10000 3.6 290 18:37 27.11.2019
3662 Clear 27 1013 26 10000 3.6 290 18:19 27.11.2019
3663 Clear 26 1014 26 10000 4.6 230 17:57 27.11.2019
3664 Clear 26 1014 26 10000 4.6 230 17:38 27.11.2019
3665 Clear 26 1014 26 10000 4.6 230 17:20 27.11.2019
3666 Clear 26 1014 26 10000 3.1 250 16:56 27.11.2019
3667 Clear 26 1014 26 10000 3.1 250 16:38 27.11.2019
3668 Clear 25 1014 26 10000 3.1 250 16:19 27.11.2019
3669 Clear 25 1014 22 10000 4.1 260 15:57 27.11.2019
3670 Clear 25 1014 22 10000 4.1 260 15:38 27.11.2019
3671 Clear 25 1014 22 10000 4.1 260 15:38 27.11.2019
3672 Clear 24 1014 22 10000 4.1 260 15:20 27.11.2019
3673 Clear 24 1014 25 10000 3.1 230 14:56 27.11.2019
3674 Clear 24 1014 25 10000 3.1 230 14:38 27.11.2019
3675 Clear 23 1014 25 10000 3.1 230 14:20 27.11.2019
3676 Clear 22 1014 27 10000 2.1 220 13:56 27.11.2019
3677 Clear 22 1014 27 10000 2.1 220 13:37 27.11.2019
3678 Clear 21 1014 37 10000 2.1 230 13:18 27.11.2019
3679 Clear 21 1014 32 10000 1.5 230 12:41 27.11.2019
3680 Clear 20 1014 32 10000 1.5 230 12:22 27.11.2019
3681 Clear 18 1014 42 10000 1.5 240 11:57 27.11.2019
3682 Clear 18 1014 42 10000 1.5 240 11:57 27.11.2019
3683 Clear 17 1014 42 10000 1.5 240 11:37 27.11.2019
3684 Clear 15 1013 45 10000 1 220 11:18 27.11.2019
3685 Clear 14 1013 45 10000 1 220 10:46 27.11.2019
3686 Clear 14 1013 45 10000 1 220 10:46 27.11.2019
3687 Clear 14 1013 45 10000 1 220 10:46 27.11.2019
3688 Clear 13 1013 45 10000 1 220 10:24 27.11.2019
3689 Clear 13 1012 36 10000 1.5 190 09:58 27.11.2019
3690 Clear 13 1012 36 10000 1.5 190 09:39 27.11.2019
3691 Clear 14 1012 39 10000 2.6 170 09:21 27.11.2019
3692 Clear 14 1012 39 10000 2.6 170 08:42 27.11.2019
3693 Clear 15 1012 39 10000 2.6 170 08:23 27.11.2019
3694 Clear 16 1012 37 10000 2.6 190 07:49 27.11.2019
3695 Clear 16 1012 37 10000 2.6 190 07:29 27.11.2019
3696 Clear 17 1012 42 10000 1.5 220 06:55 27.11.2019
3697 Clear 17 1012 42 10000 1.5 220 06:36 27.11.2019
3698 Clear 17 1012 45 10000 1 0 05:49 27.11.2019
3699 Clear 17 1012 45 10000 1 0 05:22 27.11.2019
3700 Clear 17 1012 45 10000 1 230 04:49 27.11.2019
3701 Clear 18 1012 45 10000 1 230 04:30 27.11.2019
3702 Clear 18 1012 40 10000 1.5 190 03:41 27.11.2019
3703 Clear 18 1012 40 10000 1.5 190 03:20 27.11.2019
3704 Clear 19 1011 37 10000 2.1 190 02:28 27.11.2019
3705 Clouds 22 1010 38 10000 3.1 190 00:50 27.11.2019
3706 Clouds 22 1010 38 10000 3.1 190 00:30 27.11.2019
3707 Clouds 23 1009 44 10000 2.6 180 23:55 26.11.2019
3708 Clouds 23 1009 44 10000 2.6 180 23:37 26.11.2019
3709 Clouds 24 1009 44 10000 2.6 180 23:18 26.11.2019
3710 Clouds 25 1010 50 10000 1.5 180 22:39 26.11.2019
3711 Clouds 25 1010 50 10000 1.5 180 22:20 26.11.2019
3712 Clouds 25 1010 50 10000 3.1 190 21:59 26.11.2019
3713 Clouds 25 1010 50 10000 3.1 190 21:38 26.11.2019
3714 Clouds 25 1010 50 10000 3.1 190 21:38 26.11.2019
3715 Clouds 25 1010 50 10000 3.1 190 21:20 26.11.2019
3716 Clouds 24 1010 50 10000 2.6 180 20:57 26.11.2019
3717 Clouds 24 1010 50 10000 2.6 180 20:37 26.11.2019
3718 Clouds 24 1010 50 10000 2.6 180 20:19 26.11.2019
3719 Clouds 24 1010 57 10000 2.6 200 19:55 26.11.2019
3720 Clouds 24 1010 57 10000 2.6 200 19:55 26.11.2019
3721 Clouds 24 1010 57 10000 2.6 200 19:55 26.11.2019
3722 Clouds 24 1010 57 10000 2.6 200 19:37 26.11.2019
3723 Clouds 24 1010 57 10000 2.6 200 19:19 26.11.2019
3724 Clouds 24 1011 57 10000 2.6 200 18:57 26.11.2019
3725 Clouds 24 1011 57 10000 2.6 200 18:38 26.11.2019
3726 Clouds 24 1011 57 10000 2.6 200 18:38 26.11.2019
3727 Clouds 24 1011 57 10000 2.6 200 18:20 26.11.2019
3728 Clouds 24 1011 60 10000 3.1 230 17:56 26.11.2019
3729 Clouds 24 1011 60 10000 3.1 230 17:56 26.11.2019
3730 Clouds 23 1011 60 10000 3.1 230 17:37 26.11.2019
3731 Clouds 23 1011 60 10000 3.1 230 17:37 26.11.2019
3732 Clouds 22 1011 73 10000 2.1 230 17:19 26.11.2019
3733 Clouds 22 1011 73 10000 2.1 230 16:56 26.11.2019
3734 Clouds 21 1011 73 10000 2.1 230 16:37 26.11.2019
3735 Clouds 21 1011 73 10000 2.1 230 16:18 26.11.2019
3736 Clouds 21 1010 72 10000 4.1 200 15:57 26.11.2019
3737 Clouds 20 1010 72 10000 4.1 200 15:37 26.11.2019
3738 Clouds 19 1010 77 10000 3.6 200 15:19 26.11.2019
3739 Clouds 19 1010 77 10000 3.6 200 14:45 26.11.2019
3740 Clouds 19 1010 77 10000 3.6 200 14:24 26.11.2019
3741 Clouds 18 1010 82 10000 3.6 200 13:45 26.11.2019
3742 Clouds 18 1009 82 10000 3.6 200 13:25 26.11.2019
3743 Clouds 18 1009 82 8000 2.6 210 12:58 26.11.2019
3744 Clouds 18 1009 82 8000 2.6 210 12:37 26.11.2019
3745 Clouds 17 1009 82 8000 2.6 210 12:19 26.11.2019
3746 Clouds 17 1009 93 10000 5.1 200 11:56 26.11.2019
3747 Clouds 17 1008 88 9000 3.1 210 11:37 26.11.2019
3748 Clouds 17 1008 88 9000 3.1 210 11:19 26.11.2019
3749 Mist 16 1008 100 5000 1.5 0 10:56 26.11.2019
3750 Clouds 16 1008 93 9000 3.1 200 10:38 26.11.2019
3751 Clouds 16 1008 93 9000 3.1 200 10:19 26.11.2019
3752 Mist 17 1007 100 5000 1 0 09:43 26.11.2019
3753 Clouds 17 1007 88 10000 2.1 210 09:24 26.11.2019
3754 Clouds 17 1007 100 10000 1 0 08:56 26.11.2019
3755 Clouds 18 1006 82 10000 1 0 08:38 26.11.2019
3756 Clouds 18 1006 82 10000 1 0 08:18 26.11.2019
3757 Clouds 18 1006 82 10000 1 190 07:43 26.11.2019
3758 Clouds 18 1006 82 10000 1 190 07:24 26.11.2019
3759 Clouds 18 1007 88 7000 2.81 192 06:51 26.11.2019
3760 Clouds 19 1008 82 10000 1 0 05:59 26.11.2019
3761 Clouds 19 1008 82 10000 1 0 05:32 26.11.2019
3762 Clouds 20 1007 88 10000 2.6 120 03:22 26.11.2019
3763 Clouds 21 1007 77 10000 3.1 110 01:42 26.11.2019
3764 Clouds 21 1007 77 10000 3.1 110 01:42 26.11.2019
3765 Clouds 21 1007 77 10000 3.1 110 01:22 26.11.2019
3766 Clouds 20 1006 73 10000 1 0 00:41 26.11.2019
3767 Clouds 20 1006 73 10000 1 0 00:18 26.11.2019
3768 Clouds 21 1007 73 10000 1 0 23:38 25.11.2019
3769 Clouds 21 1007 73 10000 1 0 23:19 25.11.2019
3770 Clouds 21 1007 77 10000 2.6 70 22:40 25.11.2019
3771 Clouds 21 1007 77 10000 2.6 70 22:19 25.11.2019
3772 Clouds 21 1006 77 10000 4.6 70 21:59 25.11.2019
3773 Clouds 22 1006 77 10000 4.6 70 21:41 25.11.2019
3774 Clouds 22 1006 77 10000 4.6 70 21:23 25.11.2019
3775 Clouds 21 1006 82 10000 5.1 70 20:58 25.11.2019
3776 Clouds 21 1006 82 10000 5.1 70 20:40 25.11.2019
3777 Clouds 21 1006 82 10000 5.1 70 20:20 25.11.2019
3778 Rain 20 1006 82 9000 8.2 70 19:57 25.11.2019
3779 Rain 20 1006 82 9000 8.2 70 19:38 25.11.2019
3780 Rain 19 1006 82 9000 8.2 70 19:20 25.11.2019
3781 Rain 19 1005 82 9000 10.8 70 18:57 25.11.2019
3782 Rain 18 1009 82 5000 6.2 70 18:39 25.11.2019
3783 Rain 18 1008 93 9000 8.2 50 18:21 25.11.2019
3784 Rain 18 1008 93 9000 8.2 50 17:58 25.11.2019
3785 Rain 18 1011 77 7000 3.1 90 17:39 25.11.2019
3786 Rain 17 1011 77 7000 3.1 90 17:21 25.11.2019
3787 Rain 17 1011 77 5000 3.1 110 16:58 25.11.2019
3788 Rain 17 1011 77 5000 3.1 110 16:40 25.11.2019
3789 Rain 16 1013 82 7000 3.1 90 16:22 25.11.2019
3790 Rain 17 1012 77 5000 1.5 160 15:56 25.11.2019
3791 Rain 17 1012 88 3000 3.1 70 15:37 25.11.2019
3792 Rain 17 1012 88 3000 3.1 70 15:18 25.11.2019
3793 Clouds 17 1012 68 10000 5.7 110 14:43 25.11.2019
3794 Clouds 18 1012 68 10000 5.7 110 14:25 25.11.2019
3795 Thunderstorm 18 1013 68 10000 3.6 90 13:56 25.11.2019
3796 Clouds 17 1013 72 10000 4.6 110 13:37 25.11.2019
3797 Clouds 18 1013 72 10000 4.6 110 13:18 25.11.2019
3798 Clouds 18 1013 72 10000 4.1 110 12:55 25.11.2019
3799 Clouds 18 1013 72 10000 4.1 110 12:36 25.11.2019
3800 Clouds 17 1011 72 10000 8.2 90 12:18 25.11.2019
3801 Clouds 17 1011 72 10000 8.2 90 11:40 25.11.2019
3802 Clouds 17 1011 72 10000 8.2 90 11:40 25.11.2019
3803 Clouds 17 1011 72 10000 8.2 90 11:40 25.11.2019
3804 Clouds 18 1011 72 10000 8.2 90 11:21 25.11.2019
3805 Clouds 17 1010 72 10000 7.2 70 10:57 25.11.2019
3806 Clouds 17 1011 77 10000 7.7 90 10:38 25.11.2019
3807 Clouds 17 1011 77 10000 7.7 90 10:18 25.11.2019
3808 Clouds 18 1011 72 10000 7.7 80 09:42 25.11.2019
3809 Clouds 18 1011 72 10000 7.7 80 09:23 25.11.2019
3810 Clouds 18 1011 72 10000 6.2 80 08:42 25.11.2019
3811 Clouds 18 1011 68 10000 8.7 60 08:23 25.11.2019
3812 Clouds 18 1012 68 10000 7.2 70 07:47 25.11.2019
3813 Clouds 19 1012 68 10000 7.2 70 07:29 25.11.2019
3814 Clouds 19 1011 68 10000 8.7 50 06:59 25.11.2019
3815 Clouds 19 1011 68 10000 8.7 50 06:24 25.11.2019
3816 Clouds 20 1012 64 10000 9.3 60 05:51 25.11.2019
3817 Clouds 20 1012 64 10000 9.3 60 05:31 25.11.2019
3818 Clouds 21 1012 60 10000 9.3 60 04:48 25.11.2019
3819 Clouds 22 1011 60 10000 8.7 50 02:36 25.11.2019
3820 Clouds 23 1010 53 10000 7.7 60 01:43 25.11.2019
3821 Clouds 23 1011 53 10000 8.2 60 01:24 25.11.2019
3822 Clear 23 1010 60 10000 6.2 60 00:42 25.11.2019
3823 Clear 23 1010 60 10000 6.2 60 00:18 25.11.2019
3824 Clear 23 1011 73 10000 8.2 110 23:44 24.11.2019
3825 Clear 24 1011 73 10000 8.2 110 23:20 24.11.2019
3826 Clear 25 1011 60 10000 3.1 100 22:57 24.11.2019
3827 Clear 26 1011 60 10000 3.1 100 22:38 24.11.2019
3828 Clear 26 1011 60 10000 3.1 100 22:19 24.11.2019
3829 Clear 26 1012 57 10000 7.7 100 21:56 24.11.2019
3830 Clear 26 1012 57 10000 7.7 100 21:37 24.11.2019
3831 Clear 26 1012 57 10000 7.7 100 21:19 24.11.2019
3832 Clear 26 1013 57 10000 7.7 100 20:56 24.11.2019
3833 Clear 26 1013 57 10000 7.7 100 20:37 24.11.2019
3834 Clear 26 1013 57 10000 7.7 100 20:37 24.11.2019
3835 Clear 26 1013 57 10000 7.7 100 20:18 24.11.2019
3836 Clear 26 1014 50 10000 5.1 80 19:54 24.11.2019
3837 Clear 26 1014 50 10000 5.1 80 19:36 24.11.2019
3838 Clear 26 1014 50 10000 5.1 80 19:36 24.11.2019
3839 Clear 26 1014 50 10000 5.1 80 19:18 24.11.2019
3840 Clear 25 1015 50 10000 5.7 60 18:54 24.11.2019
3841 Clear 25 1015 50 10000 5.7 60 18:36 24.11.2019
3842 Clear 25 1016 49 10000 5.7 60 18:18 24.11.2019
3843 Clear 24 1016 49 10000 5.7 60 17:54 24.11.2019
3844 Clear 25 1016 49 10000 5.7 60 17:54 24.11.2019
3845 Clear 25 1016 49 10000 5.7 60 17:36 24.11.2019
3846 Clear 24 1016 49 10000 5.7 60 17:18 24.11.2019
3847 Clear 23 1017 53 10000 6.2 60 16:41 24.11.2019
3848 Clear 23 1017 53 10000 6.2 60 16:23 24.11.2019
3849 Clear 23 1018 56 10000 6.2 50 15:57 24.11.2019
3850 Clear 23 1018 56 10000 6.2 50 15:39 24.11.2019
3851 Clear 22 1018 56 10000 6.2 50 15:21 24.11.2019
3852 Clouds 21 1019 63 10000 6.7 50 14:40 24.11.2019
3853 Clouds 20 1019 63 10000 6.7 50 14:20 24.11.2019
3854 Clouds 20 1019 63 10000 6.7 50 14:20 24.11.2019
3855 Clouds 20 1019 63 10000 6.7 50 14:20 24.11.2019
3856 Clear 20 1019 68 10000 7.7 50 13:59 24.11.2019
3857 Clear 20 1019 68 10000 7.7 50 13:38 24.11.2019
3858 Clear 20 1019 68 10000 7.7 50 13:20 24.11.2019
3859 Clear 19 1020 72 10000 8.2 50 12:56 24.11.2019
3860 Clear 19 1020 72 10000 8.2 50 12:56 24.11.2019
3861 Clear 19 1020 72 10000 8.2 50 12:38 24.11.2019
3862 Clear 18 1020 72 10000 8.2 50 12:18 24.11.2019
3863 Clear 18 1020 72 10000 8.2 50 12:18 24.11.2019
3864 Clear 18 1019 72 10000 6.2 50 11:38 24.11.2019
3865 Clear 18 1019 72 10000 6.2 50 11:19 24.11.2019
3866 Clear 17 1019 68 10000 8.2 50 10:57 24.11.2019
3867 Clear 17 1019 68 10000 8.2 50 10:38 24.11.2019
3868 Clear 16 1019 68 10000 8.2 50 10:20 24.11.2019
3869 Clear 16 1019 72 10000 9.3 50 09:40 24.11.2019
3870 Clear 16 1019 72 10000 9.3 50 09:20 24.11.2019
3871 Clouds 16 1019 72 10000 9.3 50 08:57 24.11.2019
3872 Clouds 16 1019 72 10000 9.3 50 08:57 24.11.2019
3873 Clouds 16 1019 72 10000 9.3 50 08:39 24.11.2019
3874 Clouds 16 1019 72 10000 9.3 50 08:20 24.11.2019
3875 Clouds 17 1019 63 10000 10.3 50 07:47 24.11.2019
3876 Clouds 17 1019 63 10000 10.3 50 07:22 24.11.2019
3877 Clouds 17 1019 63 10000 10.3 70 06:51 24.11.2019
3878 Clouds 17 1020 68 10000 9.8 80 05:24 24.11.2019
3879 Clouds 17 1020 59 10000 9.3 80 04:40 24.11.2019
3880 Clouds 18 1020 63 10000 11.3 100 02:36 24.11.2019
3881 Clear 18 1020 59 10000 10.8 110 01:55 24.11.2019
3882 Clear 18 1020 59 10000 10.8 110 01:32 24.11.2019
3883 Clouds 18 1020 63 10000 11.3 110 00:52 24.11.2019
3884 Clouds 19 1020 63 10000 11.3 110 00:25 24.11.2019
3885 Clouds 19 1020 52 10000 8.7 90 23:56 23.11.2019
3886 Clouds 19 1020 52 10000 8.7 90 23:56 23.11.2019
3887 Clouds 19 1020 52 10000 8.7 90 23:38 23.11.2019
3888 Clear 20 1020 52 10000 8.7 90 23:19 23.11.2019
3889 Clear 21 1020 56 10000 9.3 120 22:55 23.11.2019
3890 Clear 21 1020 56 10000 9.3 120 22:37 23.11.2019
3891 Clear 22 1020 56 10000 9.3 120 22:18 23.11.2019
3892 Clear 22 1021 52 10000 9.3 110 21:55 23.11.2019
3893 Clear 22 1021 52 10000 9.3 110 21:36 23.11.2019
3894 Clear 23 1021 52 10000 9.3 110 21:18 23.11.2019
3895 Clear 23 1021 52 10000 8.7 110 20:38 23.11.2019
3896 Clear 23 1021 52 10000 8.7 110 20:19 23.11.2019
3897 Clear 24 1022 53 10000 8.7 110 19:56 23.11.2019
3898 Clear 24 1022 53 10000 8.7 110 19:38 23.11.2019
3899 Clear 23 1022 53 10000 8.7 110 19:18 23.11.2019
3900 Clear 23 1022 56 10000 8.7 100 18:41 23.11.2019
3901 Clear 23 1022 56 10000 8.7 100 18:21 23.11.2019
3902 Clouds 23 1023 56 10000 8.2 110 17:59 23.11.2019
3903 Clouds 23 1023 56 10000 8.2 110 17:40 23.11.2019
3904 Clouds 23 1023 56 10000 8.2 110 17:21 23.11.2019
3905 Clouds 23 1023 60 10000 7.7 100 16:56 23.11.2019
3906 Clouds 22 1023 60 10000 7.7 100 16:38 23.11.2019
3907 Clouds 22 1023 60 10000 7.7 100 16:20 23.11.2019
3908 Clouds 22 1024 52 10000 7.7 100 15:57 23.11.2019
3909 Clouds 21 1024 52 10000 7.7 100 15:38 23.11.2019
3910 Clouds 21 1024 52 10000 7.7 100 15:18 23.11.2019
3911 Clouds 21 1024 52 10000 7.7 100 15:18 23.11.2019
3912 Clouds 21 1023 68 10000 6.7 130 14:46 23.11.2019
3913 Clouds 20 1023 68 10000 6.7 130 14:23 23.11.2019
3914 Clouds 20 1023 68 10000 6.7 130 14:23 23.11.2019
3915 Clouds 19 1023 68 10000 5.1 120 13:59 23.11.2019
3916 Clouds 19 1023 68 10000 5.1 120 13:41 23.11.2019
3917 Clouds 18 1023 68 10000 2.6 160 13:19 23.11.2019
3918 Clouds 17 1023 68 10000 2.6 160 12:44 23.11.2019
3919 Clouds 17 1023 68 10000 2.6 160 12:24 23.11.2019
3920 Clouds 15 1023 72 10000 2.6 160 11:58 23.11.2019
3921 Clouds 15 1023 72 10000 2.6 160 11:40 23.11.2019
3922 Clouds 13 1023 72 10000 2.6 160 11:18 23.11.2019
3923 Clear 11 1022 72 10000 3.1 160 10:43 23.11.2019
3924 Clear 11 1022 72 10000 3.1 160 10:21 23.11.2019
3925 Clear 11 1021 76 10000 4.1 150 09:41 23.11.2019
3926 Clear 11 1021 76 10000 4.1 150 09:19 23.11.2019
3927 Clear 11 1021 72 10000 3.6 160 08:41 23.11.2019
3928 Clouds 11 1021 72 10000 3.6 160 08:19 23.11.2019
3929 Clouds 12 1021 72 10000 5.1 150 07:44 23.11.2019
3930 Clouds 12 1021 72 10000 5.1 150 07:26 23.11.2019
3931 Clouds 11 1021 72 10000 5.7 150 06:42 23.11.2019
3932 Clouds 13 1021 67 10000 6.7 160 06:19 23.11.2019
3933 Clouds 12 1021 67 10000 6.7 160 05:45 23.11.2019
3934 Clouds 12 1021 67 10000 6.7 160 05:27 23.11.2019
3935 Clouds 13 1021 58 10000 6.2 160 04:40 23.11.2019
3936 Clouds 13 1021 58 10000 6.2 160 04:21 23.11.2019
3937 Clouds 16 1021 51 10000 6.2 140 02:39 23.11.2019
3938 Clear 16 1020 45 10000 6.7 140 01:42 23.11.2019
3939 Clear 18 1019 48 10000 6.2 160 00:50 23.11.2019
3940 Clear 19 1019 48 10000 6.2 160 00:24 23.11.2019
3941 Clear 21 1018 33 10000 7.2 140 23:59 22.11.2019
3942 Clear 21 1018 33 10000 7.2 140 23:37 22.11.2019
3943 Clear 21 1018 33 10000 7.2 140 23:19 22.11.2019
3944 Clear 22 1017 43 10000 7.7 110 22:57 22.11.2019
3945 Clear 22 1017 43 10000 7.7 110 22:37 22.11.2019
3946 Rain 23 1017 43 10000 7.7 110 22:18 22.11.2019
3947 Clouds 24 1017 53 10000 8.7 120 21:41 22.11.2019
3948 Clouds 24 1017 53 10000 8.7 120 21:21 22.11.2019
3949 Clouds 24 1017 56 10000 8.2 130 20:56 22.11.2019
3950 Clouds 24 1017 56 10000 8.2 130 20:38 22.11.2019
3951 Clouds 24 1017 56 10000 8.2 130 20:20 22.11.2019
3952 Clouds 24 1017 60 10000 5.1 140 19:40 22.11.2019
3953 Clouds 24 1017 60 10000 5.1 140 19:21 22.11.2019
3954 Clouds 23 1017 56 10000 4.6 160 18:59 22.11.2019
3955 Clouds 23 1017 56 10000 4.6 160 18:38 22.11.2019
3956 Clouds 23 1017 56 10000 4.6 160 18:20 22.11.2019
3957 Clouds 22 1016 64 10000 5.1 180 17:42 22.11.2019
3958 Clouds 21 1016 64 10000 5.1 180 17:23 22.11.2019
3959 Clouds 21 1016 60 10000 3.6 180 16:56 22.11.2019
3960 Clouds 21 1016 60 10000 3.6 180 16:37 22.11.2019
3961 Clouds 21 1016 60 10000 3.6 180 16:19 22.11.2019
3962 Clouds 21 1016 68 10000 4.1 180 15:39 22.11.2019
3963 Clouds 21 1016 68 10000 4.1 180 15:20 22.11.2019
3964 Clouds 21 1015 77 10000 6.2 170 14:55 22.11.2019
3965 Clouds 20 1015 77 10000 6.2 170 14:36 22.11.2019
3966 Clouds 21 1015 77 10000 6.2 170 14:18 22.11.2019
3967 Clouds 20 1014 83 10000 5.7 170 13:39 22.11.2019
3968 Clouds 20 1014 83 10000 5.7 170 13:20 22.11.2019
3969 Clouds 19 1014 77 10000 6.2 150 12:58 22.11.2019
3970 Clouds 20 1014 77 10000 6.2 150 12:40 22.11.2019
3971 Clouds 20 1014 77 10000 6.2 150 12:20 22.11.2019
3972 Clouds 20 1014 100 10000 4.1 160 11:58 22.11.2019
3973 Clouds 20 1014 100 10000 4.1 160 11:37 22.11.2019
3974 Clouds 20 1013 83 10000 4.1 170 11:18 22.11.2019
3975 Clouds 20 1013 83 10000 4.1 170 11:18 22.11.2019
3976 Clouds 20 1013 83 10000 4.1 170 11:18 22.11.2019
3977 Rain 20 1013 88 9000 2.6 190 10:54 22.11.2019
3978 Rain 20 1012 88 9000 2.6 180 10:36 22.11.2019
3979 Rain 20 1011 88 9000 2.1 230 10:18 22.11.2019
3980 Rain 19 1011 88 9000 2.1 230 09:41 22.11.2019
3981 Rain 20 1011 83 9000 4.6 50 09:21 22.11.2019
3982 Rain 20 1013 94 8000 2.1 70 08:57 22.11.2019
3983 Rain 20 1013 94 8000 2.1 70 08:57 22.11.2019
3984 Rain 20 1013 94 8000 2.1 70 08:38 22.11.2019
3985 Rain 19 1013 94 8000 2.1 70 08:20 22.11.2019
3986 Thunderstorm 20 1013 88 3200 4.1 180 07:41 22.11.2019
3987 Thunderstorm 20 1013 88 3200 4.1 180 07:19 22.11.2019
3988 Rain 20 1012 83 8000 4.1 180 06:42 22.11.2019
3989 Rain 20 1012 83 8000 4.1 180 06:21 22.11.2019
3990 Rain 22 1010 65 10000 9.8 110 05:32 22.11.2019
3991 Rain 23 1010 73 10000 9.3 130 03:25 22.11.2019
3992 Rain 23 1010 73 10000 9.3 130 03:25 22.11.2019
3993 Clouds 23 1011 83 10000 10.3 130 02:39 22.11.2019
3994 Clouds 23 1011 83 10000 10.3 130 02:19 22.11.2019
3995 Clouds 24 1012 78 10000 7.7 130 01:42 22.11.2019
3996 Clouds 23 1012 78 10000 7.7 130 01:18 22.11.2019
3997 Rain 25 1009 73 10000 9.8 130 00:26 22.11.2019
3998 Clouds 26 1009 78 10000 7.7 110 23:59 21.11.2019
3999 Clouds 26 1009 78 10000 7.7 110 23:41 21.11.2019
4000 Clouds 27 1009 78 10000 7.7 110 23:23 21.11.2019
4001 Thunderstorm 28 1008 69 7000 6.2 140 22:54 21.11.2019
4002 Clouds 29 1009 74 10000 5.7 100 22:36 21.11.2019
4003 Clouds 30 1009 74 10000 5.7 100 22:18 21.11.2019
4004 Clouds 31 1009 74 10000 4.6 100 21:54 21.11.2019
4005 Clouds 32 1009 74 10000 4.6 100 21:36 21.11.2019
4006 Clouds 32 1009 74 10000 4.6 100 21:18 21.11.2019
4007 Clouds 32 1009 69 10000 5.1 100 20:54 21.11.2019
4008 Clouds 32 1009 69 10000 5.1 100 20:36 21.11.2019
4009 Clouds 32 1009 69 10000 5.1 100 20:18 21.11.2019
4010 Clouds 32 1010 65 10000 4.1 100 19:41 21.11.2019
4011 Clouds 32 1010 65 10000 4.1 100 19:23 21.11.2019
4012 Clouds 32 1010 74 10000 5.1 100 18:58 21.11.2019
4013 Clouds 32 1010 74 10000 5.1 100 18:40 21.11.2019
4014 Clouds 32 1010 74 10000 5.1 100 18:21 21.11.2019
4015 Clouds 31 1011 74 10000 5.7 100 17:58 21.11.2019
4016 Clouds 31 1011 74 10000 5.7 100 17:58 21.11.2019
4017 Clouds 31 1011 74 10000 5.7 100 17:39 21.11.2019
4018 Clouds 30 1011 74 10000 5.7 100 17:21 21.11.2019
4019 Clouds 29 1012 74 10000 6.7 100 16:56 21.11.2019
4020 Clouds 30 1012 74 10000 6.7 100 16:56 21.11.2019
4021 Clouds 29 1012 74 10000 6.7 100 16:37 21.11.2019
4022 Clouds 28 1012 74 10000 6.7 100 16:19 21.11.2019
4023 Clouds 28 1013 74 10000 6.2 130 15:42 21.11.2019
4024 Clouds 28 1013 74 10000 6.2 130 15:21 21.11.2019
4025 Clouds 27 1013 78 10000 6.2 130 14:57 21.11.2019
4026 Clouds 27 1013 78 10000 6.2 130 14:57 21.11.2019
4027 Clouds 27 1013 78 10000 6.2 130 14:37 21.11.2019
4028 Clouds 26 1013 78 10000 6.2 130 14:19 21.11.2019
4029 Clouds 25 1013 83 10000 8.2 110 13:56 21.11.2019
4030 Clouds 25 1013 83 10000 8.2 110 13:36 21.11.2019
4031 Clouds 25 1013 83 10000 8.2 110 13:18 21.11.2019
4032 Clouds 25 1013 83 10000 8.2 110 13:18 21.11.2019
4033 Clouds 25 1013 83 10000 8.2 110 13:18 21.11.2019
4034 Clouds 24 1014 88 10000 9.8 110 12:40 21.11.2019
4035 Clouds 24 1014 88 10000 9.8 110 12:22 21.11.2019
4036 Clouds 23 1014 88 10000 8.2 120 11:55 21.11.2019
4037 Clouds 22 1014 88 10000 8.2 120 11:36 21.11.2019
4038 Clouds 21 1014 88 10000 8.2 120 11:18 21.11.2019
4039 Clouds 20 1012 88 10000 7.2 140 10:42 21.11.2019
4040 Clouds 20 1012 88 10000 7.2 140 10:23 21.11.2019
4041 Clouds 20 1012 88 10000 7.2 140 10:23 21.11.2019
4042 Clouds 20 1012 88 10000 7.2 140 09:57 21.11.2019
4043 Clouds 21 1012 88 10000 3.1 140 09:39 21.11.2019
4044 Clouds 20 1012 88 10000 3.1 140 09:20 21.11.2019
4045 Clouds 21 1012 83 10000 4.1 160 08:43 21.11.2019
4046 Clouds 22 1011 83 10000 3.1 140 08:21 21.11.2019
4047 Clouds 22 1012 100 10000 4.1 160 07:43 21.11.2019
4048 Rain 22 1011 83 10000 5.7 120 07:19 21.11.2019
4049 Rain 22 1012 88 10000 6.7 110 06:58 21.11.2019
4050 Clouds 22 1012 88 10000 6.7 110 06:34 21.11.2019
4051 Clouds 23 1012 88 10000 7.2 120 05:39 21.11.2019
4052 Clouds 24 1012 74 10000 4.1 100 03:34 21.11.2019
4053 Clouds 27 1012 74 10000 4.1 110 02:42 21.11.2019
4054 Clear 28 1012 74 10000 4.1 110 02:21 21.11.2019
4055 Clear 29 1011 65 10000 5.1 100 01:42 21.11.2019
4056 Clear 29 1011 65 10000 5.1 100 01:19 21.11.2019
4057 Clear 29 1011 69 10000 3.6 110 00:37 21.11.2019
4058 Rain 29 1011 69 10000 3.6 110 00:18 21.11.2019
4059 Clear 31 1010 66 10000 3.6 100 23:41 20.11.2019
4060 Clear 32 1010 66 10000 3.6 100 23:21 20.11.2019
4061 Clear 34 1010 38 10000 3.6 110 22:56 20.11.2019
4062 Clear 34 1010 43 10000 3.1 70 22:37 20.11.2019
4063 Clear 34 1010 43 10000 3.1 70 22:18 20.11.2019
4064 Clear 35 1011 49 10000 3.6 70 21:57 20.11.2019
4065 Clear 34 1011 49 10000 3.6 70 21:37 20.11.2019
4066 Clear 35 1011 49 10000 3.6 70 21:19 20.11.2019
4067 Clear 35 1011 49 10000 3.1 50 20:55 20.11.2019
4068 Clear 35 1011 49 10000 3.1 50 20:37 20.11.2019
4069 Clear 35 1011 49 10000 3.1 50 20:37 20.11.2019
4070 Clear 35 1011 49 10000 3.1 50 20:18 20.11.2019
4071 Clear 35 1012 52 10000 3.1 70 19:54 20.11.2019
4072 Clear 35 1012 52 10000 3.1 70 19:36 20.11.2019
4073 Clear 35 1012 52 10000 3.1 70 19:18 20.11.2019
4074 Clear 34 1012 48 10000 2.6 20 18:55 20.11.2019
4075 Clear 35 1012 48 10000 2.6 20 18:36 20.11.2019
4076 Clear 34 1012 48 10000 2.6 20 18:18 20.11.2019
4077 Clear 34 1012 41 10000 4.1 290 17:55 20.11.2019
4078 Clear 34 1012 41 10000 4.1 290 17:36 20.11.2019
4079 Clear 33 1012 41 10000 4.1 290 17:18 20.11.2019
4080 Clear 33 1013 31 10000 4.1 320 16:41 20.11.2019
4081 Clear 33 1013 31 10000 4.1 320 16:20 20.11.2019
4082 Clear 32 1013 45 10000 3.1 340 15:57 20.11.2019
4083 Clear 32 1013 45 10000 3.1 340 15:57 20.11.2019
4084 Clear 32 1013 45 10000 3.1 340 15:39 20.11.2019
4085 Clear 31 1013 45 10000 3.1 340 15:19 20.11.2019
4086 Clear 30 1014 65 10000 3.1 20 14:56 20.11.2019
4087 Clear 30 1014 65 10000 3.1 20 14:37 20.11.2019
4088 Rain 30 1014 65 10000 3.1 20 14:18 20.11.2019
4089 Rain 29 1014 61 10000 4.1 360 13:55 20.11.2019
4090 Rain 29 1014 61 10000 4.1 360 13:55 20.11.2019
4091 Clear 28 1014 61 10000 4.1 360 13:36 20.11.2019
4092 Clear 28 1014 61 10000 4.1 360 13:18 20.11.2019
4093 Clear 27 1014 61 10000 4.6 340 12:38 20.11.2019
4094 Clear 26 1013 65 10000 4.6 340 12:19 20.11.2019
4095 Clear 25 1013 65 10000 4.6 340 11:46 20.11.2019
4096 Clear 24 1013 65 10000 4.6 340 11:23 20.11.2019
4097 Clear 24 1013 65 10000 4.6 340 10:58 20.11.2019
4098 Clear 24 1013 65 10000 4.6 340 10:39 20.11.2019
4099 Clear 23 1013 65 10000 4.6 340 10:20 20.11.2019
4100 Clear 23 1012 69 10000 4.1 340 09:56 20.11.2019
4101 Clear 23 1012 69 10000 4.1 340 09:37 20.11.2019
4102 Clear 23 1012 69 10000 4.1 340 09:37 20.11.2019
4103 Clear 23 1012 69 10000 4.1 340 09:19 20.11.2019
4104 Clear 23 1012 73 10000 3.1 360 08:42 20.11.2019
4105 Clear 23 1012 73 10000 3.1 360 08:24 20.11.2019
4106 Clear 23 1012 73 10000 1.5 30 07:50 20.11.2019
4107 Clear 24 1012 73 10000 1.5 30 07:30 20.11.2019
4108 Clear 23 1012 69 10000 2.6 50 06:55 20.11.2019
4109 Clear 24 1012 69 10000 2.6 50 06:37 20.11.2019
4110 Clear 24 1012 69 10000 2.6 50 06:18 20.11.2019
4111 Clear 24 1012 65 10000 5.7 80 04:40 20.11.2019
4112 Clear 25 1013 73 10000 5.7 110 02:23 20.11.2019
4113 Clear 25 1013 78 10000 6.2 110 01:35 20.11.2019
4114 Clear 26 1012 78 10000 6.7 110 00:44 20.11.2019
4115 Clear 26 1012 78 10000 6.7 110 00:18 20.11.2019
4116 Clouds 27 1012 74 10000 6.2 110 23:39 19.11.2019
4117 Clouds 28 1012 74 10000 6.2 110 23:20 19.11.2019
4118 Clouds 29 1012 65 10000 5.7 100 22:42 19.11.2019
4119 Clouds 29 1012 65 10000 5.7 100 22:20 19.11.2019
4120 Clouds 30 1013 65 10000 5.1 100 21:58 19.11.2019
4121 Clouds 30 1013 65 10000 5.1 100 21:38 19.11.2019
4122 Clouds 30 1013 65 10000 5.1 100 21:20 19.11.2019
4123 Clouds 30 1013 65 10000 5.1 100 21:20 19.11.2019
4124 Clouds 30 1013 61 10000 4.6 100 20:58 19.11.2019
4125 Clouds 30 1013 61 10000 4.6 100 20:39 19.11.2019
4126 Clouds 30 1013 61 10000 4.6 100 20:21 19.11.2019
4127 Clouds 30 1014 57 10000 5.1 100 19:59 19.11.2019
4128 Clouds 30 1014 57 10000 5.1 100 19:41 19.11.2019
4129 Clouds 30 1014 57 10000 5.1 100 19:19 19.11.2019
4130 Clouds 30 1015 61 10000 5.7 90 18:57 19.11.2019
4131 Clouds 30 1015 61 10000 5.7 90 18:38 19.11.2019
4132 Clouds 30 1015 61 10000 5.7 90 18:18 19.11.2019
4133 Clouds 30 1016 57 10000 5.1 100 17:56 19.11.2019
4134 Clouds 30 1016 57 10000 5.1 100 17:37 19.11.2019
4135 Clouds 29 1016 57 10000 5.1 100 17:18 19.11.2019
4136 Clouds 29 1016 74 10000 4.6 100 16:55 19.11.2019
4137 Clouds 29 1016 74 10000 4.6 100 16:37 19.11.2019
4138 Clouds 28 1016 74 10000 4.6 100 16:18 19.11.2019
4139 Rain 28 1016 78 10000 5.1 100 15:41 19.11.2019
4140 Rain 28 1016 78 10000 5.1 100 15:23 19.11.2019
4141 Clouds 27 1017 78 10000 5.7 100 14:56 19.11.2019
4142 Clouds 26 1017 78 10000 5.7 100 14:38 19.11.2019
4143 Clouds 26 1017 78 10000 5.7 100 14:38 19.11.2019
4144 Clouds 26 1017 78 10000 5.7 100 14:19 19.11.2019
4145 Clouds 25 1017 83 10000 5.7 120 13:41 19.11.2019
4146 Clouds 25 1017 83 10000 5.7 120 13:41 19.11.2019
4147 Clouds 25 1017 83 10000 5.7 120 13:20 19.11.2019
4148 Clear 23 1017 78 10000 3.6 120 12:42 19.11.2019
4149 Clear 23 1017 78 10000 3.6 120 12:23 19.11.2019
4150 Clear 23 1017 78 10000 3.6 120 12:23 19.11.2019
4151 Clear 22 1017 73 10000 2.1 150 11:58 19.11.2019
4152 Clear 21 1017 73 10000 2.1 150 11:38 19.11.2019
4153 Clear 21 1017 73 10000 2.1 150 11:20 19.11.2019
4154 Clear 20 1016 73 10000 2.6 150 10:48 19.11.2019
4155 Clear 19 1016 73 10000 2.6 150 10:23 19.11.2019
4156 Clear 19 1015 64 10000 1.5 160 09:58 19.11.2019
4157 Clear 19 1015 64 10000 1.5 160 09:58 19.11.2019
4158 Clear 19 1015 64 10000 1.5 160 09:40 19.11.2019
4159 Clear 19 1015 64 10000 1.5 160 09:19 19.11.2019
4160 Clear 19 1015 64 10000 1.5 160 09:19 19.11.2019
4161 Clear 20 1015 78 10000 1.5 150 08:41 19.11.2019
4162 Clear 20 1015 78 10000 1.5 150 08:23 19.11.2019
4163 Rain 21 1014 83 10000 2.6 120 07:58 19.11.2019
4164 Rain 21 1014 83 10000 2.6 120 07:39 19.11.2019
4165 Rain 21 1014 83 10000 2.6 120 07:20 19.11.2019
4166 Rain 22 1015 73 10000 2.6 150 06:50 19.11.2019
4167 Rain 22 1015 73 10000 2.6 150 06:50 19.11.2019
4168 Rain 22 1015 73 10000 2.6 150 06:30 19.11.2019
4169 Rain 22 1015 78 10000 1 0 05:39 19.11.2019
4170 Rain 23 1015 100 10000 2.1 180 04:22 19.11.2019
4171 Clouds 23 1015 83 10000 1 0 03:32 19.11.2019
4172 Rain 23 1015 100 10000 2.1 190 02:56 19.11.2019
4173 Rain 24 1015 83 10000 1 20 02:22 19.11.2019
4174 Clouds 24 1015 88 10000 1 0 01:27 19.11.2019
4175 Thunderstorm 25 1015 69 6000 2.6 360 00:21 19.11.2019
4176 Thunderstorm 26 1015 69 6000 5.7 320 23:57 18.11.2019
4177 Clouds 26 1014 73 10000 2.1 90 23:37 18.11.2019
4178 Clouds 27 1014 73 10000 2.1 90 23:18 18.11.2019
4179 Rain 27 1013 73 9000 1.5 0 22:42 18.11.2019
4180 Rain 27 1013 73 9000 1.5 0 22:23 18.11.2019
4181 Rain 27 1013 83 9000 2.1 180 21:55 18.11.2019
4182 Rain 26 1013 83 9000 2.1 180 21:37 18.11.2019
4183 Clouds 28 1013 58 10000 4.6 140 21:19 18.11.2019
4184 Thunderstorm 28 1013 51 10000 5.7 80 20:42 18.11.2019
4185 Thunderstorm 29 1013 73 3000 5.1 150 20:20 18.11.2019
4186 Rain 30 1013 36 9000 2.6 200 19:58 18.11.2019
4187 Rain 31 1013 36 9000 2.6 200 19:39 18.11.2019
4188 Clouds 31 1013 55 10000 4.6 130 19:21 18.11.2019
4189 Clouds 32 1013 58 10000 2.6 40 18:58 18.11.2019
4190 Clouds 32 1013 58 10000 2.6 40 18:39 18.11.2019
4191 Clouds 32 1013 58 10000 2.6 40 18:20 18.11.2019
4192 Clouds 32 1013 66 10000 3.6 30 17:59 18.11.2019
4193 Clouds 32 1014 40 10000 3.1 290 17:38 18.11.2019
4194 Clouds 33 1014 40 10000 3.1 290 17:19 18.11.2019
4195 Clouds 32 1014 45 10000 3.1 340 16:43 18.11.2019
4196 Clouds 32 1014 45 10000 3.1 340 16:43 18.11.2019
4197 Clouds 32 1014 45 10000 3.1 340 16:25 18.11.2019
4198 Rain 32 1014 51 10000 3.1 290 15:59 18.11.2019
4199 Rain 32 1014 51 10000 3.1 290 15:59 18.11.2019
4200 Rain 32 1014 51 10000 3.1 290 15:59 18.11.2019
4201 Rain 31 1014 51 10000 3.1 290 15:41 18.11.2019
4202 Rain 31 1014 51 10000 3.1 290 15:22 18.11.2019
4203 Rain 30 1014 51 10000 3.6 270 14:58 18.11.2019
4204 Rain 29 1014 51 10000 3.6 270 14:39 18.11.2019
4205 Rain 28 1014 73 10000 2.6 350 14:20 18.11.2019
4206 Rain 27 1014 69 10000 2.6 350 13:43 18.11.2019
4207 Rain 27 1014 69 10000 2.6 350 13:25 18.11.2019
4208 Rain 26 1013 61 10000 3.1 350 12:43 18.11.2019
4209 Rain 25 1013 61 10000 3.1 350 12:20 18.11.2019
4210 Rain 24 1013 64 10000 1 0 11:57 18.11.2019
4211 Rain 23 1013 64 10000 1 0 11:38 18.11.2019
4212 Clouds 23 1013 64 10000 1 0 11:20 18.11.2019
4213 Clouds 22 1012 64 10000 2.6 320 10:44 18.11.2019
4214 Clouds 21 1012 64 10000 2.6 320 10:25 18.11.2019
4215 Clouds 21 1011 53 10000 2.1 310 09:57 18.11.2019
4216 Clouds 21 1011 53 10000 2.1 310 09:38 18.11.2019
4217 Clouds 21 1011 53 10000 2.1 310 09:20 18.11.2019
4218 Clouds 22 1011 60 10000 1 0 08:47 18.11.2019
4219 Clouds 22 1011 60 10000 1 0 08:25 18.11.2019
4220 Rain 23 1011 64 10000 1.5 320 07:59 18.11.2019
4221 Rain 23 1011 64 10000 1.5 320 07:39 18.11.2019
4222 Rain 23 1011 64 10000 1.5 320 07:20 18.11.2019
4223 Rain 23 1011 69 10000 1.5 290 06:43 18.11.2019
4224 Rain 23 1011 69 10000 1.5 290 06:25 18.11.2019
4225 Rain 24 1011 83 10000 1 0 05:41 18.11.2019
4226 Rain 25 1011 61 10000 1.5 330 03:53 18.11.2019
4227 Clouds 26 1010 61 10000 2.6 310 01:40 18.11.2019
4228 Clouds 26 1009 65 10000 2.6 340 00:53 18.11.2019
4229 Clouds 27 1009 65 10000 2.6 340 00:19 18.11.2019
4230 Clouds 28 1009 51 10000 2.6 340 23:41 17.11.2019
4231 Clouds 28 1009 51 10000 2.6 340 23:21 17.11.2019
4232 Clouds 28 1009 54 10000 2.6 330 22:57 17.11.2019
4233 Clouds 29 1009 54 10000 2.6 330 22:39 17.11.2019
4234 Clouds 29 1009 54 10000 2.6 330 22:39 17.11.2019
4235 Clouds 29 1009 54 10000 2.6 330 22:20 17.11.2019
4236 Clouds 30 1009 58 10000 3.1 330 21:42 17.11.2019
4237 Clouds 30 1009 58 10000 3.1 330 21:20 17.11.2019
4238 Clouds 30 1009 51 10000 4.6 330 20:59 17.11.2019
4239 Clouds 30 1009 51 10000 4.6 330 20:40 17.11.2019
4240 Clouds 30 1009 51 10000 4.6 330 20:20 17.11.2019
4241 Clouds 30 1009 48 10000 5.1 340 19:57 17.11.2019
4242 Clouds 30 1009 48 10000 5.1 340 19:39 17.11.2019
4243 Clouds 30 1009 48 10000 5.1 340 19:39 17.11.2019
4244 Clouds 30 1009 48 10000 5.1 340 19:20 17.11.2019
4245 Clouds 30 1009 48 10000 5.1 340 19:20 17.11.2019
4246 Clouds 30 1009 48 10000 5.1 340 19:20 17.11.2019
4247 Clouds 30 1010 73 10000 1.5 300 18:57 17.11.2019
4248 Clouds 30 1010 73 10000 1.5 300 18:57 17.11.2019
4249 Clouds 30 1010 73 10000 1.5 300 18:57 17.11.2019
4250 Clouds 30 1010 73 10000 1.5 300 18:39 17.11.2019
4251 Clouds 30 1010 73 10000 1.5 300 18:19 17.11.2019
4252 Clouds 31 1010 40 10000 5.1 320 17:58 17.11.2019
4253 Clouds 31 1010 40 10000 5.1 320 17:58 17.11.2019
4254 Clouds 31 1010 40 10000 5.1 320 17:40 17.11.2019
4255 Clear 31 1010 40 10000 5.1 320 17:21 17.11.2019
4256 Clear 30 1010 45 10000 5.1 340 16:59 17.11.2019
4257 Clear 30 1010 45 10000 5.1 340 16:41 17.11.2019
4258 Clear 29 1010 45 10000 5.1 340 16:21 17.11.2019
4259 Clear 29 1010 51 10000 3.1 360 15:57 17.11.2019
4260 Clear 29 1010 51 10000 3.1 360 15:39 17.11.2019
4261 Clear 29 1010 51 10000 3.1 360 15:19 17.11.2019
4262 Clear 28 1010 57 10000 3.1 360 14:57 17.11.2019
4263 Clear 28 1010 57 10000 3.1 360 14:38 17.11.2019
4264 Clear 27 1010 57 10000 3.1 360 14:20 17.11.2019
4265 Clear 26 1010 65 10000 2.6 10 13:57 17.11.2019
4266 Clear 26 1010 65 10000 2.6 10 13:39 17.11.2019
4267 Clear 25 1010 65 10000 2.6 10 13:19 17.11.2019
4268 Clear 24 1011 78 10000 2.1 350 12:44 17.11.2019
4269 Clear 23 1011 78 10000 2.1 350 12:22 17.11.2019
4270 Clear 22 1010 93 9000 1 360 11:57 17.11.2019
4271 Clear 21 1010 93 9000 1 360 11:39 17.11.2019
4272 Clear 20 1010 93 9000 1 360 11:20 17.11.2019
4273 Mist 19 1010 100 5000 1 290 10:44 17.11.2019
4274 Mist 18 1010 100 5000 1 290 10:23 17.11.2019
4275 Mist 17 1010 100 5000 1.5 300 09:57 17.11.2019
4276 Mist 17 1010 100 5000 1.5 300 09:57 17.11.2019
4277 Clear 17 1009 100 9000 1 360 09:39 17.11.2019
4278 Clear 18 1009 100 9000 1 360 09:21 17.11.2019
4279 Fog 17 1009 100 10000 3.42 327 08:40 17.11.2019
4280 Fog 18 1009 100 10000 3.25 335 08:20 17.11.2019
4281 Fog 18 1009 100 10000 3.25 335 07:48 17.11.2019
4282 Fog 18 1009 100 10000 3.25 335 07:48 17.11.2019
4283 Fog 18 1009 100 10000 3.25 335 07:24 17.11.2019
4284 Fog 19 1010 93 10000 3.25 335 06:57 17.11.2019
4285 Fog 19 1010 93 10000 3.25 335 06:57 17.11.2019
4286 Fog 19 1010 93 10000 3.25 335 06:33 17.11.2019
4287 Fog 19 1010 88 10000 3.25 335 05:54 17.11.2019
4288 Fog 20 1010 88 10000 3.88 314 04:23 17.11.2019
4289 Fog 20 1011 93 10000 3.88 314 03:45 17.11.2019
4290 Fog 20 1011 93 10000 3.88 314 03:25 17.11.2019
4291 Clear 21 1011 88 10000 1.5 320 02:27 17.11.2019
4292 Clouds 22 1010 88 10000 1.5 340 01:25 17.11.2019
4293 Clouds 22 1009 69 10000 3.1 300 00:53 17.11.2019
4294 Clouds 22 1009 69 10000 3.1 300 00:22 17.11.2019
4295 Clouds 24 1009 69 10000 4.6 330 23:44 16.11.2019
4296 Clouds 24 1009 69 10000 4.6 330 23:20 16.11.2019
4297 Clouds 25 1009 69 10000 5.7 340 22:59 16.11.2019
4298 Clouds 25 1009 69 10000 5.7 340 22:40 16.11.2019
4299 Clouds 25 1009 69 10000 5.7 340 22:40 16.11.2019
4300 Clouds 25 1009 69 10000 5.7 340 22:18 16.11.2019
4301 Clouds 25 1009 73 10000 5.1 320 21:42 16.11.2019
4302 Clouds 25 1009 73 10000 5.1 320 21:23 16.11.2019
4303 Clouds 25 1009 78 10000 7.2 330 20:59 16.11.2019
4304 Clouds 24 1009 78 10000 7.2 330 20:41 16.11.2019
4305 Rain 24 1009 78 10000 7.2 330 20:20 16.11.2019
4306 Rain 23 1010 83 10000 5.1 330 19:57 16.11.2019
4307 Rain 23 1010 83 10000 5.1 330 19:38 16.11.2019
4308 Rain 22 1010 83 10000 5.1 330 19:20 16.11.2019
4309 Rain 20 1011 88 10000 6.2 320 18:45 16.11.2019
4310 Rain 20 1011 88 10000 6.2 320 18:27 16.11.2019
4311 Rain 20 1012 82 9000 5.1 360 17:56 16.11.2019
4312 Rain 20 1012 82 9000 5.1 360 17:56 16.11.2019
4313 Rain 20 1012 82 9000 5.1 360 17:37 16.11.2019
4314 Rain 20 1012 82 9000 5.1 360 17:18 16.11.2019
4315 Rain 20 1013 82 5000 3.1 340 16:47 16.11.2019
4316 Rain 20 1012 77 8000 3.1 360 16:28 16.11.2019
4317 Rain 19 1013 82 3000 2.6 350 15:57 16.11.2019
4318 Rain 19 1013 82 3000 2.6 350 15:38 16.11.2019
4319 Rain 19 1013 72 5000 2.6 350 15:20 16.11.2019
4320 Rain 19 1013 64 10000 2.1 150 14:41 16.11.2019
4321 Rain 20 1013 64 10000 2.1 150 14:22 16.11.2019
4322 Rain 19 1013 100 3000 1 110 13:57 16.11.2019
4323 Rain 19 1013 100 3000 1 110 13:39 16.11.2019
4324 Rain 19 1013 64 10000 2.6 220 13:19 16.11.2019
4325 Clouds 20 1012 52 10000 3.6 260 12:59 16.11.2019
4326 Clouds 20 1012 52 10000 3.6 260 12:41 16.11.2019
4327 Clouds 20 1012 52 10000 3.6 260 12:20 16.11.2019
4328 Thunderstorm 20 1009 56 3500 5.1 240 11:46 16.11.2019
4329 Clouds 20 1009 60 10000 6.7 330 11:28 16.11.2019
4330 Clouds 20 1009 68 10000 5.1 320 10:58 16.11.2019
4331 Clouds 20 1009 68 10000 5.1 320 10:39 16.11.2019
4332 Clouds 20 1009 68 10000 5.1 320 10:21 16.11.2019
4333 Clouds 20 1008 72 10000 5.7 320 09:45 16.11.2019
4334 Clouds 20 1008 72 10000 5.7 320 09:22 16.11.2019
4335 Clouds 20 1008 68 10000 4.6 340 08:59 16.11.2019
4336 Clouds 20 1008 68 10000 4.6 340 08:39 16.11.2019
4337 Clear 20 1008 68 10000 4.6 340 08:19 16.11.2019
4338 Clear 21 1009 64 10000 3.1 340 07:43 16.11.2019
4339 Clear 21 1009 64 10000 3.1 340 07:21 16.11.2019
4340 Clear 22 1008 56 10000 6.7 340 06:54 16.11.2019
4341 Clear 22 1008 56 10000 6.7 340 06:33 16.11.2019
4342 Clear 22 1009 57 10000 6.2 340 05:40 16.11.2019
4343 Clouds 23 1010 65 10000 4.1 30 03:49 16.11.2019
4344 Clouds 23 1010 65 10000 4.1 30 03:25 16.11.2019
4345 Clouds 25 1010 65 10000 4.1 40 01:51 16.11.2019
4346 Clouds 25 1010 65 10000 4.1 40 01:20 16.11.2019
4347 Clouds 25 1010 65 10000 3.6 50 00:44 16.11.2019
4348 Clouds 25 1010 65 10000 3.6 50 00:25 16.11.2019
4349 Clouds 25 1010 65 10000 4.6 50 23:40 15.11.2019
4350 Clouds 27 1010 65 10000 4.6 50 23:21 15.11.2019
4351 Clouds 28 1010 61 10000 4.6 50 22:55 15.11.2019
4352 Clouds 28 1010 61 10000 4.6 50 22:55 15.11.2019
4353 Clouds 28 1010 61 10000 4.6 50 22:37 15.11.2019
4354 Clouds 29 1010 61 10000 4.6 50 22:18 15.11.2019
4355 Clouds 30 1011 54 10000 3.6 50 21:41 15.11.2019
4356 Clouds 30 1011 54 10000 3.6 50 21:21 15.11.2019
4357 Clouds 30 1011 50 10000 4.1 50 20:59 15.11.2019
4358 Clouds 30 1011 50 10000 4.1 50 20:59 15.11.2019
4359 Clouds 29 1011 50 10000 4.1 50 20:40 15.11.2019
4360 Clear 30 1011 50 10000 4.1 50 20:21 15.11.2019
4361 Clear 30 1012 47 10000 3.6 40 19:58 15.11.2019
4362 Clear 30 1012 47 10000 3.6 40 19:40 15.11.2019
4363 Clear 29 1012 47 10000 3.6 40 19:20 15.11.2019
4364 Clear 29 1013 50 10000 3.1 40 18:58 15.11.2019
4365 Clear 29 1013 50 10000 3.1 40 18:40 15.11.2019
4366 Clear 28 1013 50 10000 3.1 40 18:21 15.11.2019
4367 Clear 28 1013 53 10000 3.6 30 17:43 15.11.2019
4368 Clear 28 1013 53 10000 3.6 30 17:25 15.11.2019
4369 Clear 28 1013 53 10000 3.6 30 17:25 15.11.2019
4370 Clear 27 1014 50 10000 3.1 10 16:57 15.11.2019
4371 Clear 27 1014 50 10000 3.1 10 16:38 15.11.2019
4372 Clear 27 1014 50 10000 3.1 10 16:19 15.11.2019
4373 Clear 26 1015 56 10000 3.1 360 15:39 15.11.2019
4374 Clear 26 1015 56 10000 3.1 360 15:20 15.11.2019
4375 Clear 26 1015 56 10000 3.1 360 15:20 15.11.2019
4376 Clear 25 1015 56 10000 3.6 20 14:57 15.11.2019
4377 Clear 25 1015 56 10000 3.6 20 14:38 15.11.2019
4378 Clouds 24 1015 56 10000 3.6 20 14:19 15.11.2019
4379 Clouds 24 1015 56 10000 2.6 20 13:58 15.11.2019
4380 Clouds 24 1015 56 10000 2.6 20 13:39 15.11.2019
4381 Clouds 23 1015 56 10000 2.6 20 13:21 15.11.2019
4382 Clouds 22 1015 64 10000 3.1 20 12:58 15.11.2019
4383 Clouds 23 1015 64 10000 3.1 20 12:40 15.11.2019
4384 Clouds 22 1015 64 10000 3.1 20 12:20 15.11.2019
4385 Clouds 21 1014 68 10000 3.1 50 11:57 15.11.2019
4386 Clouds 21 1014 68 10000 3.1 50 11:38 15.11.2019
4387 Clouds 19 1014 68 10000 3.1 50 11:20 15.11.2019
4388 Clouds 19 1014 68 10000 3.6 50 10:41 15.11.2019
4389 Clouds 19 1014 68 10000 3.6 50 10:41 15.11.2019
4390 Clouds 18 1014 68 10000 3.6 50 10:22 15.11.2019
4391 Clouds 18 1013 68 10000 3.6 50 09:58 15.11.2019
4392 Clouds 18 1013 68 10000 3.6 50 09:40 15.11.2019
4393 Clouds 18 1013 68 10000 3.6 50 09:19 15.11.2019
4394 Clear 18 1013 68 10000 3.6 60 08:44 15.11.2019
4395 Clouds 18 1013 68 10000 3.6 60 08:22 15.11.2019
4396 Clouds 18 1013 64 10000 3.6 70 07:48 15.11.2019
4397 Clouds 19 1013 64 10000 3.6 70 07:28 15.11.2019
4398 Clouds 19 1013 64 10000 3.6 70 06:44 15.11.2019
4399 Clouds 19 1013 64 10000 3.6 70 06:25 15.11.2019
4400 Clouds 19 1013 60 10000 3.1 60 05:39 15.11.2019
4401 Clouds 20 1013 60 10000 3.1 60 05:20 15.11.2019
4402 Clouds 21 1013 60 10000 3.1 70 03:48 15.11.2019
4403 Clouds 22 1013 69 10000 3.1 80 02:52 15.11.2019
4404 Clear 23 1013 69 10000 3.1 80 02:18 15.11.2019
4405 Clear 23 1013 64 10000 3.6 90 01:32 15.11.2019
4406 Clouds 23 1012 60 10000 5.1 110 00:48 15.11.2019
4407 Clouds 24 1012 60 10000 5.1 110 00:29 15.11.2019
4408 Clouds 26 1012 26 10000 4.1 150 23:49 14.11.2019
4409 Clouds 26 1012 26 10000 4.1 150 23:27 14.11.2019
4410 Clear 27 1011 24 10000 4.1 150 22:57 14.11.2019
4411 Clear 28 1011 24 10000 4.1 150 22:39 14.11.2019
4412 Clear 28 1011 24 10000 4.1 150 22:39 14.11.2019
4413 Clear 28 1011 24 10000 4.1 150 22:19 14.11.2019
4414 Clear 29 1011 21 10000 5.7 160 21:42 14.11.2019
4415 Clear 29 1011 21 10000 5.7 160 21:23 14.11.2019
4416 Clear 29 1011 30 10000 4.1 200 20:56 14.11.2019
4417 Clear 29 1011 30 10000 4.1 200 20:37 14.11.2019
4418 Clouds 29 1011 26 10000 4.1 200 20:19 14.11.2019
4419 Clouds 30 1011 27 10000 3.6 200 19:57 14.11.2019
4420 Clouds 30 1011 27 10000 3.6 200 19:38 14.11.2019
4421 Clouds 29 1011 27 10000 3.6 200 19:18 14.11.2019
4422 Clouds 30 1027 26 0 2.68 226 18:43 14.11.2019
4423 Clouds 30 1027 26 0 2.68 226 18:43 14.11.2019
4424 Clouds 29 1011 39 10000 3.6 200 18:24 14.11.2019
4425 Clouds 29 1011 39 10000 3.6 200 17:58 14.11.2019
4426 Clouds 28 1011 39 10000 3.6 200 17:38 14.11.2019
4427 Clouds 28 1011 39 10000 3.6 200 17:20 14.11.2019
4428 Clouds 28 1011 39 10000 2.1 200 16:58 14.11.2019
4429 Clouds 28 1011 39 10000 2.1 200 16:58 14.11.2019
4430 Clouds 28 1011 39 10000 2.1 200 16:37 14.11.2019
4431 Clouds 28 1011 39 10000 2.1 200 16:19 14.11.2019
4432 Clouds 27 1011 54 10000 3.1 20 15:58 14.11.2019
4433 Clouds 27 1011 54 10000 3.1 20 15:38 14.11.2019
4434 Clouds 27 1011 54 10000 3.1 20 15:20 14.11.2019
4435 Clouds 26 1011 57 10000 1.5 90 14:55 14.11.2019
4436 Clouds 27 1011 57 10000 1.5 90 14:55 14.11.2019
4437 Clouds 26 1011 57 10000 1.5 90 14:37 14.11.2019
4438 Clouds 25 1011 57 10000 1.5 90 14:18 14.11.2019
4439 Clouds 25 1011 57 10000 3.1 160 13:41 14.11.2019
4440 Clouds 24 1011 57 10000 3.1 160 13:22 14.11.2019
4441 Clouds 23 1010 60 10000 3.6 160 12:57 14.11.2019
4442 Clouds 23 1010 60 10000 3.6 160 12:38 14.11.2019
4443 Clouds 22 1010 60 10000 3.6 160 12:19 14.11.2019
4444 Clouds 22 1009 69 10000 1.5 200 11:54 14.11.2019
4445 Clouds 22 1009 69 10000 1.5 200 11:36 14.11.2019
4446 Clouds 21 1009 69 10000 1.5 200 11:18 14.11.2019
4447 Clouds 21 1009 69 10000 1.5 200 11:18 14.11.2019
4448 Clouds 20 1008 64 10000 1.5 320 10:41 14.11.2019
4449 Clouds 20 1008 64 10000 1.5 320 10:41 14.11.2019
4450 Clouds 19 1008 64 10000 1.5 320 10:21 14.11.2019
4451 Clear 20 1008 73 10000 0.5 270 09:59 14.11.2019
4452 Clear 19 1010 74 0 2.43 268 09:41 14.11.2019
4453 Clear 18 1007 73 10000 0.5 230 09:22 14.11.2019
4454 Clear 18 1007 73 10000 0.5 230 08:48 14.11.2019
4455 Clear 18 1007 73 10000 0.5 230 08:26 14.11.2019
4456 Clear 19 1007 64 10000 0.5 220 07:57 14.11.2019
4457 Clear 19 1007 64 10000 0.5 220 07:38 14.11.2019
4458 Clear 19 1007 64 10000 0.5 220 07:20 14.11.2019
4459 Clear 20 1008 60 10000 1 200 06:44 14.11.2019
4460 Clear 20 1008 60 10000 1 200 06:19 14.11.2019
4461 Clear 23 1009 57 10000 1.5 160 04:48 14.11.2019
4462 Clear 24 1008 65 10000 1 0 04:26 14.11.2019
4463 Clear 25 1008 73 10000 1 0 02:49 14.11.2019
4464 Clear 25 1008 73 10000 1 0 02:28 14.11.2019
4465 Clouds 26 1007 73 10000 0.5 230 01:33 14.11.2019
4466 Clouds 26 1007 73 10000 1 0 00:55 14.11.2019
4467 Clouds 26 1007 73 10000 1 0 00:33 14.11.2019
4468 Clouds 28 1006 69 10000 1.5 10 23:44 13.11.2019
4469 Clouds 28 1006 69 10000 1.5 10 23:44 13.11.2019
4470 Clouds 28 1006 69 10000 1.5 10 23:25 13.11.2019
4471 Clouds 28 1006 74 10000 1.5 40 22:59 13.11.2019
4472 Clouds 28 1006 74 10000 1.5 40 22:41 13.11.2019
4473 Clouds 31 1006 40 10000 4.6 200 22:22 13.11.2019
4474 Clouds 31 1006 38 10000 4.6 230 21:56 13.11.2019
4475 Clouds 31 1006 38 10000 4.6 230 21:38 13.11.2019
4476 Clouds 31 1006 38 10000 4.6 230 21:19 13.11.2019
4477 Clouds 30 1006 40 10000 3.1 200 20:57 13.11.2019
4478 Clouds 30 1006 40 10000 3.1 200 20:37 13.11.2019
4479 Clouds 30 1006 40 10000 3.1 200 20:37 13.11.2019
4480 Clouds 31 1006 40 10000 3.1 200 20:19 13.11.2019
4481 Clouds 31 1007 43 10000 4.1 200 19:56 13.11.2019
4482 Clouds 31 1007 43 10000 4.1 200 19:37 13.11.2019
4483 Clouds 31 1007 43 10000 4.1 200 19:18 13.11.2019
4484 Clouds 30 1008 69 10000 3.1 50 18:54 13.11.2019
4485 Clouds 30 1008 45 10000 4.1 200 18:36 13.11.2019
4486 Clouds 30 1008 45 10000 4.1 200 18:18 13.11.2019
4487 Clouds 30 1008 45 10000 4.1 200 18:18 13.11.2019
4488 Clouds 30 1008 45 10000 3.1 200 17:40 13.11.2019
4489 Clouds 30 1008 45 10000 3.1 200 17:22 13.11.2019
4490 Clouds 29 1008 51 10000 3.6 200 16:59 13.11.2019
4491 Clouds 29 1008 51 10000 3.6 200 16:40 13.11.2019
4492 Clouds 29 1008 51 10000 3.6 200 16:40 13.11.2019
4493 Clouds 29 1008 51 10000 3.6 200 16:40 13.11.2019
4494 Clouds 29 1008 51 10000 3.6 200 16:40 13.11.2019
4495 Clouds 29 1008 51 10000 3.6 200 16:21 13.11.2019
4496 Clouds 29 1009 51 10000 3.6 200 15:58 13.11.2019
4497 Clouds 29 1009 51 10000 3.6 200 15:40 13.11.2019
4498 Clouds 28 1008 83 10000 3.1 30 15:21 13.11.2019
4499 Clouds 27 1009 78 10000 3.1 40 14:43 13.11.2019
4500 Clouds 27 1009 78 10000 3.1 40 14:23 13.11.2019
4501 Rain 26 1009 83 10000 2.6 40 13:59 13.11.2019
4502 Rain 26 1009 83 10000 2.6 40 13:37 13.11.2019
4503 Rain 25 1009 83 10000 2.6 40 13:19 13.11.2019
4504 Rain 24 1009 83 10000 2.6 60 12:56 13.11.2019
4505 Rain 24 1009 83 10000 2.6 60 12:37 13.11.2019
4506 Rain 23 1009 83 10000 2.6 60 12:19 13.11.2019
4507 Rain 21 1009 88 10000 1 130 11:41 13.11.2019
4508 Clouds 20 1009 88 10000 1 130 11:21 13.11.2019
4509 Clouds 19 1008 83 10000 1 0 10:58 13.11.2019
4510 Clouds 19 1008 83 10000 1 0 10:40 13.11.2019
4511 Clouds 19 1008 83 10000 1 0 10:20 13.11.2019
4512 Clouds 19 1008 83 10000 1.5 150 09:56 13.11.2019
4513 Clouds 19 1008 83 10000 1.5 150 09:38 13.11.2019
4514 Clouds 19 1008 83 10000 1.5 150 09:38 13.11.2019
4515 Clouds 19 1008 83 10000 1.5 150 09:20 13.11.2019
4516 Clouds 20 1008 83 10000 1.77 311 08:39 13.11.2019
4517 Clouds 20 1008 83 10000 2.2 7 08:20 13.11.2019
4518 Clouds 20 1008 88 10000 2.6 90 07:42 13.11.2019
4519 Clouds 20 1008 88 10000 2.6 90 07:21 13.11.2019
4520 Clouds 20 1009 83 10000 1 100 06:46 13.11.2019
4521 Clouds 21 1009 83 10000 1 100 06:19 13.11.2019
4522 Clouds 21 1009 83 10000 1 100 06:19 13.11.2019
4523 Clouds 21 1009 83 10000 1 100 06:19 13.11.2019
4524 Clouds 21 1010 83 10000 1.5 60 05:53 13.11.2019
4525 Clouds 21 1010 83 10000 1.5 60 05:34 13.11.2019
4526 Clear 21 1010 83 10000 2.6 80 04:43 13.11.2019
4527 Clouds 22 1010 83 10000 4.1 120 02:19 13.11.2019
4528 Clouds 22 1010 78 10000 6.2 110 01:41 13.11.2019
4529 Clouds 23 1010 78 10000 5.7 130 00:44 13.11.2019
4530 Clouds 23 1010 78 10000 5.7 130 00:21 13.11.2019
4531 Clouds 24 1009 83 10000 6.7 120 23:41 12.11.2019
4532 Clouds 24 1009 83 10000 6.7 120 23:21 12.11.2019
4533 Clouds 25 1010 78 10000 5.7 110 22:54 12.11.2019
4534 Clouds 25 1010 78 10000 5.7 110 22:36 12.11.2019
4535 Clouds 26 1010 78 10000 5.7 110 22:18 12.11.2019
4536 Clouds 26 1010 78 10000 6.7 110 21:43 12.11.2019
4537 Clouds 26 1010 78 10000 6.7 110 21:24 12.11.2019
4538 Clouds 27 1010 73 10000 8.2 100 20:57 12.11.2019
4539 Clouds 27 1010 73 10000 8.2 100 20:37 12.11.2019
4540 Clouds 27 1010 73 10000 8.2 100 20:18 12.11.2019
4541 Clouds 28 1012 69 10000 5.1 100 19:57 12.11.2019
4542 Clouds 28 1012 69 10000 5.1 100 19:38 12.11.2019
4543 Clouds 28 1012 69 10000 5.1 100 19:19 12.11.2019
4544 Clouds 28 1012 57 10000 4.1 70 18:58 12.11.2019
4545 Clouds 28 1012 57 10000 4.1 70 18:39 12.11.2019
4546 Clouds 28 1012 57 10000 4.1 70 18:21 12.11.2019
4547 Clouds 28 1013 61 10000 3.1 60 17:56 12.11.2019
4548 Clouds 28 1013 61 10000 3.1 60 17:56 12.11.2019
4549 Clouds 27 1013 61 10000 3.1 60 17:37 12.11.2019
4550 Clouds 27 1013 69 10000 3.1 60 17:19 12.11.2019
4551 Clouds 26 1014 64 10000 2.1 0 16:44 12.11.2019
4552 Clouds 26 1014 73 10000 2.6 30 16:25 12.11.2019
4553 Clouds 25 1015 73 10000 4.1 360 15:57 12.11.2019
4554 Clouds 25 1015 73 10000 4.1 360 15:57 12.11.2019
4555 Clouds 25 1015 73 10000 4.1 360 15:39 12.11.2019
4556 Clouds 24 1015 73 10000 4.1 360 15:20 12.11.2019
4557 Clouds 24 1015 77 10000 4.6 10 14:55 12.11.2019
4558 Clouds 23 1015 69 10000 5.7 20 14:36 12.11.2019
4559 Clouds 23 1015 77 10000 4.6 10 14:18 12.11.2019
4560 Clouds 22 1016 82 10000 4.6 10 13:54 12.11.2019
4561 Clouds 22 1016 82 10000 4.6 10 13:36 12.11.2019
4562 Clouds 22 1016 82 10000 4.6 10 13:18 12.11.2019
4563 Clouds 20 1016 77 10000 4.6 20 12:39 12.11.2019
4564 Clouds 20 1016 77 10000 4.6 20 12:19 12.11.2019
4565 Clouds 19 1015 82 10000 5.7 30 11:54 12.11.2019
4566 Clouds 19 1016 82 10000 4.6 30 11:36 12.11.2019
4567 Clouds 19 1016 82 10000 4.6 30 11:18 12.11.2019
4568 Clouds 19 1016 82 10000 5.1 40 10:55 12.11.2019
4569 Clouds 19 1016 82 10000 5.1 40 10:36 12.11.2019
4570 Clouds 19 1016 82 10000 5.1 40 10:36 12.11.2019
4571 Clouds 18 1016 82 10000 5.1 40 10:18 12.11.2019
4572 Clouds 18 1016 82 10000 5.1 40 09:39 12.11.2019
4573 Clouds 18 1016 82 10000 5.1 40 09:18 12.11.2019
4574 Clouds 18 1016 82 10000 6.2 50 08:48 12.11.2019
4575 Clouds 19 1016 77 10000 6.7 40 08:28 12.11.2019
4576 Clear 19 1016 77 10000 6.7 40 07:42 12.11.2019
4577 Clear 19 1016 77 10000 6.7 40 07:24 12.11.2019
4578 Clear 19 1016 77 10000 8.2 50 06:51 12.11.2019
4579 Clear 20 1016 77 10000 6.2 50 06:26 12.11.2019
4580 Clear 20 1017 77 10000 8.7 50 05:52 12.11.2019
4581 Clear 20 1017 73 10000 8.7 50 04:51 12.11.2019
4582 Clear 21 1017 73 10000 8.7 50 04:20 12.11.2019
4583 Clouds 22 1016 64 10000 7.2 70 01:53 12.11.2019
4584 Clouds 22 1016 64 10000 7.2 70 01:26 12.11.2019
4585 Clouds 22 1016 78 10000 7.7 100 00:52 12.11.2019
4586 Clouds 22 1016 78 10000 7.7 100 00:32 12.11.2019
4587 Clouds 22 1016 78 10000 7.2 100 23:49 11.11.2019
4588 Clouds 23 1016 78 10000 7.2 100 23:26 11.11.2019
4589 Clouds 24 1017 78 10000 8.7 120 22:59 11.11.2019
4590 Clouds 24 1017 78 10000 8.7 120 22:38 11.11.2019
4591 Clouds 25 1017 78 10000 8.7 120 22:19 11.11.2019
4592 Clouds 25 1017 69 10000 8.2 100 21:57 11.11.2019
4593 Clouds 24 1017 69 10000 8.2 100 21:38 11.11.2019
4594 Clouds 24 1017 69 10000 8.2 100 21:20 11.11.2019
4595 Clouds 25 1018 68 10000 6.7 100 20:55 11.11.2019
4596 Clouds 24 1018 68 10000 6.7 100 20:36 11.11.2019
4597 Clouds 24 1018 68 10000 6.7 100 20:18 11.11.2019
4598 Rain 23 1019 77 9000 6.7 100 19:42 11.11.2019
4599 Rain 23 1019 77 9000 6.7 100 19:41 11.11.2019
4600 Rain 23 1019 77 9000 6.7 100 19:19 11.11.2019
4601 Clouds 23 1020 73 10000 5.7 100 18:57 11.11.2019
4602 Clouds 23 1020 73 10000 5.7 100 18:38 11.11.2019
4603 Clouds 22 1020 73 10000 5.7 100 18:19 11.11.2019
4604 Clouds 23 1021 77 10000 5.1 100 17:43 11.11.2019
4605 Clouds 23 1021 77 10000 5.1 100 17:24 11.11.2019
4606 Clouds 23 1021 68 10000 4.1 70 16:45 11.11.2019
4607 Clouds 23 1021 68 10000 4.1 70 16:24 11.11.2019
4608 Clouds 22 1022 68 10000 4.6 60 15:59 11.11.2019
4609 Clouds 22 1022 68 10000 4.6 60 15:41 11.11.2019
4610 Clouds 22 1022 68 10000 4.6 60 15:20 11.11.2019
4611 Clouds 21 1022 72 10000 4.6 50 14:45 11.11.2019
4612 Clouds 21 1022 72 10000 4.6 50 14:45 11.11.2019
4613 Clouds 21 1022 72 10000 4.6 50 14:25 11.11.2019
4614 Clouds 20 1022 77 10000 5.7 50 13:59 11.11.2019
4615 Clouds 20 1022 77 10000 5.7 50 13:38 11.11.2019
4616 Clouds 20 1022 77 10000 5.7 50 13:20 11.11.2019
4617 Clouds 20 1022 77 10000 6.2 50 12:58 11.11.2019
4618 Clouds 19 1022 77 10000 6.2 50 12:39 11.11.2019
4619 Clouds 19 1022 77 10000 6.2 50 12:21 11.11.2019
4620 Clouds 19 1022 68 10000 7.2 50 11:43 11.11.2019
4621 Clouds 18 1022 68 10000 7.2 50 11:22 11.11.2019
4622 Clouds 17 1022 72 10000 5.1 60 10:58 11.11.2019
4623 Clouds 17 1022 72 10000 5.1 60 10:39 11.11.2019
4624 Clouds 17 1022 72 10000 5.1 60 10:18 11.11.2019
4625 Clouds 17 1021 72 10000 5.1 40 09:55 11.11.2019
4626 Clouds 17 1021 72 10000 5.1 40 09:36 11.11.2019
4627 Clouds 17 1021 72 10000 5.1 40 09:18 11.11.2019
4628 Clouds 18 1021 68 10000 5.1 40 08:39 11.11.2019
4629 Clear 18 1021 68 10000 5.1 40 08:20 11.11.2019
4630 Clear 18 1021 72 10000 7.2 50 07:55 11.11.2019
4631 Clear 18 1021 72 10000 7.2 50 07:36 11.11.2019
4632 Clear 18 1021 72 10000 7.2 50 07:18 11.11.2019
4633 Clear 18 1020 77 10000 7.2 60 06:41 11.11.2019
4634 Clear 18 1020 82 10000 6.2 60 06:20 11.11.2019
4635 Clear 18 1021 72 10000 7.7 80 05:49 11.11.2019
4636 Clear 18 1021 72 10000 7.7 80 05:49 11.11.2019
4637 Clear 18 1021 64 10000 9.8 100 03:56 11.11.2019
4638 Clear 19 1021 64 10000 9.8 100 03:20 11.11.2019
4639 Clear 19 1021 72 10000 8.7 100 02:19 11.11.2019
4640 Clear 19 1020 72 10000 7.7 110 01:51 11.11.2019
4641 Clear 19 1020 72 10000 7.7 110 01:31 11.11.2019
4642 Clear 20 1020 68 10000 7.7 120 00:41 11.11.2019
4643 Clear 21 1020 64 10000 8.2 110 23:58 10.11.2019
4644 Clear 21 1020 64 10000 8.2 110 23:38 10.11.2019
4645 Clouds 22 1020 64 10000 8.2 110 23:19 10.11.2019
4646 Clouds 23 1020 60 10000 8.2 110 22:57 10.11.2019
4647 Clouds 23 1020 60 10000 8.2 110 22:38 10.11.2019
4648 Clouds 23 1020 60 10000 8.2 110 22:19 10.11.2019
4649 Clouds 24 1020 60 10000 7.2 120 21:55 10.11.2019
4650 Clouds 24 1020 60 10000 7.2 120 21:37 10.11.2019
4651 Clouds 24 1020 60 10000 7.2 120 21:19 10.11.2019
4652 Clouds 24 1020 56 10000 6.7 110 20:41 10.11.2019
4653 Clear 25 1020 56 10000 6.7 110 20:22 10.11.2019
4654 Clear 25 1021 68 10000 6.7 100 19:56 10.11.2019
4655 Clear 25 1021 68 10000 6.7 100 19:56 10.11.2019
4656 Clear 25 1021 68 10000 6.7 100 19:38 10.11.2019
4657 Clear 25 1021 68 10000 6.7 100 19:19 10.11.2019
4658 Clear 25 1021 73 10000 6.7 110 18:58 10.11.2019
4659 Clear 25 1021 73 10000 6.7 110 18:39 10.11.2019
4660 Clear 25 1021 44 10000 6.2 90 18:19 10.11.2019
4661 Clear 25 1021 44 10000 6.2 90 18:19 10.11.2019
4662 Clear 24 1021 68 10000 6.7 100 17:56 10.11.2019
4663 Clear 24 1021 68 10000 6.7 100 17:38 10.11.2019
4664 Clear 24 1021 68 10000 6.7 100 17:19 10.11.2019
4665 Clear 24 1022 73 10000 6.7 100 16:57 10.11.2019
4666 Clear 24 1022 73 10000 6.7 100 16:38 10.11.2019
4667 Clear 23 1022 73 10000 6.7 100 16:19 10.11.2019
4668 Clear 23 1022 68 10000 6.7 100 15:55 10.11.2019
4669 Clear 23 1022 68 10000 6.7 100 15:36 10.11.2019
4670 Clear 23 1022 68 10000 6.7 100 15:36 10.11.2019
4671 Clear 22 1022 68 10000 6.7 100 15:18 10.11.2019
4672 Clear 22 1022 68 10000 6.7 100 15:18 10.11.2019
4673 Clear 22 1022 68 10000 6.7 100 15:18 10.11.2019
4674 Clouds 22 1022 68 10000 6.2 100 14:40 10.11.2019
4675 Clouds 21 1022 68 10000 6.2 100 14:22 10.11.2019
4676 Clouds 21 1022 72 10000 5.7 120 13:57 10.11.2019
4677 Clouds 21 1022 72 10000 5.7 120 13:39 10.11.2019
4678 Clouds 20 1021 64 10000 5.7 70 13:19 10.11.2019
4679 Clouds 20 1021 72 10000 5.1 110 12:42 10.11.2019
4680 Clouds 19 1021 72 10000 5.1 110 12:20 10.11.2019
4681 Clouds 19 1021 72 10000 5.1 110 12:20 10.11.2019
4682 Clouds 17 1020 82 10000 5.1 130 11:57 10.11.2019
4683 Clouds 17 1020 82 10000 5.1 130 11:38 10.11.2019
4684 Clouds 16 1020 82 10000 5.1 130 11:20 10.11.2019
4685 Clouds 14 1019 77 10000 5.7 100 10:55 10.11.2019
4686 Clouds 14 1019 77 10000 5.7 100 10:55 10.11.2019
4687 Clouds 14 1019 77 10000 5.7 100 10:37 10.11.2019
4688 Clouds 14 1019 77 10000 5.7 100 10:18 10.11.2019
4689 Clouds 14 1019 77 10000 4.6 90 09:41 10.11.2019
4690 Clouds 14 1019 77 10000 4.6 90 09:22 10.11.2019
4691 Clouds 14 1019 82 10000 5.1 100 08:40 10.11.2019
4692 Clouds 14 1019 82 10000 5.1 100 08:21 10.11.2019
4693 Clouds 15 1019 72 10000 6.7 100 07:53 10.11.2019
4694 Clouds 15 1019 72 10000 6.7 100 07:34 10.11.2019
4695 Clouds 15 1019 77 10000 6.7 110 06:59 10.11.2019
4696 Clouds 16 1019 77 10000 6.7 110 06:22 10.11.2019
4697 Clouds 17 1019 72 10000 3.6 110 03:55 10.11.2019
4698 Clouds 18 1019 72 10000 8.7 110 02:33 10.11.2019
4699 Clouds 18 1018 77 10000 9.3 130 01:37 10.11.2019
4700 Clouds 19 1018 77 10000 9.3 130 01:18 10.11.2019
4701 Clouds 19 1017 77 10000 9.3 130 00:37 10.11.2019
4702 Clouds 20 1017 82 10000 3.6 120 23:42 09.11.2019
4703 Clouds 20 1017 82 10000 3.6 120 23:19 09.11.2019
4704 Clouds 21 1016 73 10000 7.2 120 22:43 09.11.2019
4705 Clouds 22 1016 73 10000 7.2 120 22:23 09.11.2019
4706 Clouds 22 1016 73 10000 7.2 120 22:23 09.11.2019
4707 Clouds 22 1016 73 10000 7.2 120 22:23 09.11.2019
4708 Clouds 22 1016 77 10000 8.2 100 21:58 09.11.2019
4709 Clouds 22 1016 77 10000 8.2 100 21:40 09.11.2019
4710 Clouds 23 1016 77 10000 8.2 100 21:21 09.11.2019
4711 Clouds 24 1015 78 10000 7.7 100 20:56 09.11.2019
4712 Clouds 24 1015 78 10000 7.7 100 20:38 09.11.2019
4713 Clouds 24 1015 78 10000 7.7 100 20:20 09.11.2019
4714 Clouds 24 1015 73 10000 7.7 100 19:54 09.11.2019
4715 Clouds 24 1015 73 10000 7.7 100 19:36 09.11.2019
4716 Clouds 24 1015 73 10000 7.7 100 19:18 09.11.2019
4717 Clouds 24 1016 73 10000 5.7 80 18:39 09.11.2019
4718 Clouds 24 1016 73 10000 5.7 80 18:39 09.11.2019
4719 Clouds 24 1016 73 10000 5.7 80 18:19 09.11.2019
4720 Clouds 24 1016 64 10000 5.1 90 17:44 09.11.2019
4721 Clouds 24 1016 64 10000 5.1 90 17:23 09.11.2019
4722 Clouds 24 1016 69 10000 7.2 90 16:59 09.11.2019
4723 Clouds 24 1016 69 10000 7.2 90 16:40 09.11.2019
4724 Clouds 24 1016 69 10000 7.2 90 16:19 09.11.2019
4725 Clouds 23 1016 64 10000 4.1 50 15:42 09.11.2019
4726 Clouds 23 1016 64 10000 4.1 50 15:24 09.11.2019
4727 Clouds 23 1016 64 10000 4.1 50 15:24 09.11.2019
4728 Clouds 22 1016 64 10000 4.1 30 14:47 09.11.2019
4729 Clouds 21 1016 64 10000 4.1 30 14:24 09.11.2019
4730 Clouds 21 1016 64 10000 4.1 30 14:24 09.11.2019
4731 Rain 21 1016 77 9000 3.1 30 13:58 09.11.2019
4732 Rain 20 1016 77 9000 3.1 30 13:40 09.11.2019
4733 Rain 20 1016 77 9000 3.1 30 13:21 09.11.2019
4734 Rain 19 1017 72 9000 2.6 80 12:59 09.11.2019
4735 Rain 18 1017 72 9000 2.6 80 12:40 09.11.2019
4736 Rain 18 1017 72 9000 2.6 80 12:22 09.11.2019
4737 Clouds 17 1017 72 10000 7.2 100 11:54 09.11.2019
4738 Clouds 17 1017 72 10000 7.2 100 11:36 09.11.2019
4739 Clouds 17 1017 72 10000 7.2 100 11:18 09.11.2019
4740 Clouds 17 1017 77 10000 6.2 140 10:39 09.11.2019
4741 Clouds 17 1017 77 10000 6.2 140 10:19 09.11.2019
4742 Clouds 17 1017 77 10000 5.1 160 09:47 09.11.2019
4743 Clouds 17 1017 77 10000 5.1 160 09:28 09.11.2019
4744 Clouds 17 1016 77 10000 5.7 170 08:59 09.11.2019
4745 Clouds 17 1016 77 10000 5.7 170 08:40 09.11.2019
4746 Clouds 17 1016 77 10000 6.7 110 08:19 09.11.2019
4747 Thunderstorm 17 1017 87 10000 5.1 200 07:45 09.11.2019
4748 Clouds 18 1015 77 10000 9.3 110 07:23 09.11.2019
4749 Clouds 18 1015 82 10000 9.3 110 06:49 09.11.2019
4750 Clouds 18 1015 82 10000 9.3 110 06:30 09.11.2019
4751 Clouds 18 1015 82 10000 7.7 140 05:43 09.11.2019
4752 Clouds 18 1015 82 10000 6.2 140 04:58 09.11.2019
4753 Clouds 18 1014 72 10000 9.8 130 03:52 09.11.2019
4754 Clouds 18 1014 82 10000 10.8 120 02:43 09.11.2019
4755 Clouds 18 1014 82 10000 8.7 130 01:55 09.11.2019
4756 Clear 19 1013 59 10000 9.3 130 00:51 09.11.2019
4757 Clear 20 1013 59 10000 9.3 130 00:31 09.11.2019
4758 Clear 21 1012 64 10000 8.7 130 23:57 08.11.2019
4759 Clear 21 1012 64 10000 8.7 130 23:38 08.11.2019
4760 Clear 21 1012 64 10000 8.7 130 23:19 08.11.2019
4761 Clear 22 1012 60 10000 9.3 140 22:47 08.11.2019
4762 Clear 23 1012 60 10000 9.3 140 22:22 08.11.2019
4763 Clear 24 1012 68 10000 8.2 120 21:56 08.11.2019
4764 Clear 24 1012 60 10000 6.7 100 21:38 08.11.2019
4765 Clear 23 1012 64 10000 8.2 120 21:18 08.11.2019
4766 Clear 24 1012 64 10000 8.2 120 20:41 08.11.2019
4767 Clouds 24 1012 64 10000 8.2 120 20:22 08.11.2019
4768 Clouds 24 1013 68 10000 7.7 110 19:58 08.11.2019
4769 Clouds 24 1013 68 10000 7.7 110 19:38 08.11.2019
4770 Clouds 24 1013 68 10000 7.7 110 19:18 08.11.2019
4771 Clouds 24 1013 68 10000 7.7 110 19:18 08.11.2019
4772 Clouds 24 1014 64 10000 7.2 110 18:55 08.11.2019
4773 Clouds 24 1014 64 10000 7.2 110 18:55 08.11.2019
4774 Clouds 24 1014 64 10000 7.2 110 18:37 08.11.2019
4775 Clouds 23 1014 64 10000 7.2 110 18:19 08.11.2019
4776 Clouds 23 1015 64 10000 7.7 110 17:55 08.11.2019
4777 Clouds 23 1015 64 10000 7.7 110 17:36 08.11.2019
4778 Clear 23 1015 64 10000 7.7 110 17:18 08.11.2019
4779 Clear 22 1015 68 10000 7.7 110 16:57 08.11.2019
4780 Clear 22 1015 68 10000 7.7 110 16:39 08.11.2019
4781 Clear 22 1015 68 10000 7.7 110 16:19 08.11.2019
4782 Clear 22 1016 64 10000 7.7 110 15:56 08.11.2019
4783 Clear 22 1016 64 10000 7.7 110 15:38 08.11.2019
4784 Clear 22 1016 64 10000 7.7 110 15:38 08.11.2019
4785 Clear 21 1016 64 10000 7.7 110 15:19 08.11.2019
4786 Clear 21 1016 64 10000 7.7 110 14:55 08.11.2019
4787 Clear 21 1016 64 10000 7.7 110 14:36 08.11.2019
4788 Clear 21 1016 64 10000 7.7 110 14:36 08.11.2019
4789 Clear 21 1016 64 10000 7.7 110 14:18 08.11.2019
4790 Clear 21 1016 64 10000 7.7 110 14:18 08.11.2019
4791 Clear 19 1016 63 10000 7.7 110 13:42 08.11.2019
4792 Clear 19 1016 63 10000 7.7 110 13:22 08.11.2019
4793 Clear 19 1016 63 10000 7.7 110 13:22 08.11.2019
4794 Clear 18 1016 68 10000 6.7 110 12:57 08.11.2019
4795 Clear 18 1016 68 10000 6.7 110 12:39 08.11.2019
4796 Clear 17 1016 68 10000 6.7 110 12:21 08.11.2019
4797 Clear 16 1016 67 10000 4.6 150 11:55 08.11.2019
4798 Clear 16 1016 67 10000 4.6 150 11:37 08.11.2019
4799 Clear 16 1016 67 10000 4.6 150 11:37 08.11.2019
4800 Clear 15 1016 67 10000 4.6 150 11:18 08.11.2019
4801 Clear 14 1016 67 10000 4.6 150 10:42 08.11.2019
4802 Clear 14 1016 67 10000 4.6 150 10:22 08.11.2019
4803 Clear 15 1015 67 10000 5.7 150 09:58 08.11.2019
4804 Clear 15 1015 67 10000 5.7 150 09:39 08.11.2019
4805 Clear 15 1015 67 10000 5.7 150 09:19 08.11.2019
4806 Clear 15 1015 67 10000 5.7 140 08:45 08.11.2019
4807 Clear 15 1015 67 10000 5.7 140 08:23 08.11.2019
4808 Clear 15 1015 67 10000 5.1 140 07:55 08.11.2019
4809 Clear 15 1015 67 10000 5.1 140 07:37 08.11.2019
4810 Clear 15 1015 67 10000 5.1 140 07:19 08.11.2019
4811 Clear 15 1015 67 10000 6.2 140 06:38 08.11.2019
4812 Clear 15 1015 67 10000 6.2 140 06:19 08.11.2019
4813 Clear 16 1015 67 10000 6.2 140 05:36 08.11.2019
4814 Clouds 16 1015 67 10000 6.2 140 04:29 08.11.2019
4815 Clouds 17 1015 67 10000 7.2 130 03:42 08.11.2019
4816 Clouds 17 1015 67 10000 7.2 130 03:19 08.11.2019
4817 Clear 19 1014 55 10000 11.8 120 01:54 08.11.2019
4818 Clear 19 1014 55 10000 11.8 120 01:36 08.11.2019
4819 Clouds 23 1013 52 10000 8.7 130 00:49 08.11.2019
4820 Clouds 23 1013 52 10000 8.7 130 00:22 08.11.2019
4821 Clouds 23 1013 52 10000 8.7 130 00:22 08.11.2019
4822 Clear 23 1012 68 10000 11.3 120 23:49 07.11.2019
4823 Clear 23 1012 68 10000 11.3 120 23:28 07.11.2019
4824 Clear 25 1011 42 10000 7.7 130 22:58 07.11.2019
4825 Clear 26 1011 42 10000 7.7 130 22:40 07.11.2019
4826 Clear 27 1011 42 10000 7.7 130 22:20 07.11.2019
4827 Clear 28 1010 39 10000 3.1 170 21:40 07.11.2019
4828 Clear 29 1010 39 10000 3.1 170 21:21 07.11.2019
4829 Clouds 29 1010 40 10000 3.1 230 20:59 07.11.2019
4830 Clouds 29 1010 40 10000 3.1 230 20:59 07.11.2019
4831 Clouds 29 1010 40 10000 3.1 230 20:41 07.11.2019
4832 Clouds 29 1010 40 10000 3.1 230 20:41 07.11.2019
4833 Clouds 30 1010 40 10000 3.1 230 20:22 07.11.2019
4834 Clear 29 1011 37 10000 4.1 230 19:58 07.11.2019
4835 Clear 30 1011 37 10000 4.1 230 19:39 07.11.2019
4836 Clear 30 1011 37 10000 4.1 230 19:20 07.11.2019
4837 Clear 29 1011 42 10000 3.6 290 18:57 07.11.2019
4838 Clear 29 1011 42 10000 3.6 290 18:38 07.11.2019
4839 Clear 29 1011 42 10000 3.6 290 18:38 07.11.2019
4840 Clear 29 1011 42 10000 3.6 290 18:19 07.11.2019
4841 Clear 29 1011 39 10000 4.1 260 17:56 07.11.2019
4842 Clear 29 1011 39 10000 4.1 260 17:37 07.11.2019
4843 Clear 28 1012 42 10000 4.6 290 17:19 07.11.2019
4844 Clear 28 1012 42 10000 4.6 290 16:55 07.11.2019
4845 Clear 27 1012 42 10000 4.6 290 16:37 07.11.2019
4846 Clear 27 1012 42 10000 4.6 290 16:18 07.11.2019
4847 Clear 27 1012 42 10000 4.6 280 15:40 07.11.2019
4848 Clear 27 1012 42 10000 4.6 280 15:20 07.11.2019
4849 Clear 26 1013 41 10000 4.6 300 14:57 07.11.2019
4850 Clear 26 1013 41 10000 4.6 300 14:37 07.11.2019
4851 Clear 25 1013 41 10000 4.6 300 14:19 07.11.2019
4852 Clear 24 1013 44 10000 4.6 290 13:55 07.11.2019
4853 Clear 24 1013 44 10000 4.6 290 13:36 07.11.2019
4854 Clear 24 1013 44 10000 4.6 290 13:18 07.11.2019
4855 Clear 22 1013 49 10000 4.1 310 12:55 07.11.2019
4856 Clear 22 1013 49 10000 4.1 310 12:37 07.11.2019
4857 Clear 21 1013 49 10000 4.1 310 12:18 07.11.2019
4858 Clear 21 1013 49 10000 4.1 310 12:18 07.11.2019
4859 Clear 19 1013 59 10000 4.6 310 11:41 07.11.2019
4860 Clear 18 1013 59 10000 4.6 310 11:22 07.11.2019
4861 Clear 18 1012 55 10000 3.6 300 10:42 07.11.2019
4862 Clear 17 1012 55 10000 4.6 310 10:19 07.11.2019
4863 Clear 17 1012 55 10000 4.6 310 09:55 07.11.2019
4864 Clear 17 1012 55 10000 4.6 310 09:36 07.11.2019
4865 Clear 17 1012 55 10000 4.6 310 09:18 07.11.2019
4866 -273 0 0 0 0 0 08:41 07.11.2019
4867 Clear 18 1011 68 10000 5.1 320 08:40 07.11.2019
4868 -273 0 0 0 0 0 08:22 07.11.2019
4869 Clouds 18 1011 72 10000 5.7 320 07:56 07.11.2019
4870 Clouds 18 1011 72 10000 5.7 320 07:37 07.11.2019
4871 -273 0 0 0 0 0 07:19 07.11.2019
4872 Clouds 18 1011 72 10000 5.7 320 07:19 07.11.2019
4873 Clouds 19 1012 68 10000 5.1 320 06:42 07.11.2019
4874 Clouds 19 1012 68 10000 5.1 320 06:41 07.11.2019
4875 Clouds 19 1012 68 10000 5.1 320 06:22 07.11.2019
4876 Clouds 19 1013 68 10000 4.1 320 05:47 07.11.2019
4877 Clouds 19 1013 68 10000 4.1 320 05:29 07.11.2019
4878 Clouds 20 1013 64 10000 4.1 320 04:49 07.11.2019
4879 Clouds 20 1013 64 10000 4.1 320 04:27 07.11.2019
4880 Clouds 22 1012 64 10000 3.6 330 01:18 07.11.2019
4881 Clouds 23 1012 78 10000 3.1 340 00:26 07.11.2019
4882 Clouds 24 1012 69 10000 3.6 340 23:49 06.11.2019
4883 Clouds 24 1012 69 10000 3.6 340 23:23 06.11.2019
4884 Clouds 25 1013 61 10000 4.1 360 22:58 06.11.2019
4885 Clouds 25 1013 61 10000 4.1 360 22:39 06.11.2019
4886 Clouds 25 1013 61 10000 4.1 360 22:39 06.11.2019
4887 Clouds 25 1013 61 10000 4.1 360 22:19 06.11.2019
4888 Clouds 26 1013 61 10000 4.1 360 21:57 06.11.2019
4889 Clouds 26 1013 61 10000 4.1 360 21:57 06.11.2019
4890 Clouds 26 1013 61 10000 4.1 360 21:38 06.11.2019
4891 Clouds 26 1013 61 10000 4.1 360 21:19 06.11.2019
4892 Clouds 26 1014 50 10000 5.1 340 20:55 06.11.2019
4893 Clouds 26 1014 50 10000 5.1 340 20:36 06.11.2019
4894 Clouds 26 1014 50 10000 5.1 340 20:18 06.11.2019
4895 Clouds 26 1015 61 10000 4.6 360 19:40 06.11.2019
4896 Clouds 26 1015 61 10000 4.6 360 19:22 06.11.2019
4897 Clouds 26 1015 61 10000 5.7 340 18:59 06.11.2019
4898 Clouds 26 1015 61 10000 5.7 340 18:39 06.11.2019
4899 Clouds 25 1015 61 10000 5.7 340 18:19 06.11.2019
4900 Clouds 25 1016 69 10000 5.1 340 17:58 06.11.2019
4901 Clouds 24 1016 69 10000 5.1 340 17:40 06.11.2019
4902 Clouds 24 1016 69 10000 5.1 340 17:21 06.11.2019
4903 Clouds 24 1016 68 10000 2.6 360 16:55 06.11.2019
4904 Clouds 24 1016 68 10000 2.6 360 16:55 06.11.2019
4905 Clouds 24 1016 68 10000 2.6 360 16:37 06.11.2019
4906 Clouds 23 1016 68 10000 2.6 360 16:18 06.11.2019
4907 Clouds 23 1017 73 10000 3.6 340 15:55 06.11.2019
4908 Clouds 24 1017 73 10000 3.6 340 15:37 06.11.2019
4909 Clouds 23 1017 73 10000 3.6 340 15:18 06.11.2019
4910 Clouds 23 1017 68 10000 4.1 340 14:55 06.11.2019
4911 Clouds 23 1017 68 10000 4.1 340 14:37 06.11.2019
4912 Clouds 22 1017 68 10000 4.1 340 14:19 06.11.2019
4913 Clouds 22 1017 68 10000 4.1 340 14:19 06.11.2019
4914 Clouds 21 1017 72 10000 3.6 340 13:40 06.11.2019
4915 Clouds 21 1017 72 10000 3.6 340 13:22 06.11.2019
4916 Clouds 20 1017 72 10000 3.6 340 12:58 06.11.2019
4917 Clouds 19 1017 72 10000 3.6 340 12:39 06.11.2019
4918 Clouds 19 1017 72 10000 3.6 340 12:39 06.11.2019
4919 Clouds 19 1017 72 10000 3.6 340 12:21 06.11.2019
4920 Clouds 18 1017 72 10000 4.6 340 11:58 06.11.2019
4921 Clouds 18 1017 72 10000 4.6 340 11:37 06.11.2019
4922 Clouds 17 1017 72 10000 4.6 340 11:18 06.11.2019
4923 Clouds 17 1016 77 10000 3.1 340 10:56 06.11.2019
4924 Clouds 16 1016 77 10000 3.1 340 10:38 06.11.2019
4925 Clouds 16 1016 77 10000 3.1 340 10:19 06.11.2019
4926 Clouds 16 1016 72 10000 2.6 330 09:43 06.11.2019
4927 Clouds 16 1016 72 10000 2.6 330 09:22 06.11.2019
4928 Clouds 15 1016 72 10000 1 320 08:58 06.11.2019
4929 Clouds 16 1016 68 10000 2.6 350 08:38 06.11.2019
4930 Clear 16 1016 68 10000 2.6 350 08:19 06.11.2019
4931 Clear 16 1015 68 10000 2.6 20 07:55 06.11.2019
4932 Clear 16 1015 68 10000 2.6 20 07:36 06.11.2019
4933 Clear 16 1015 68 10000 2.6 20 07:36 06.11.2019
4934 Clear 16 1015 68 10000 2.6 20 07:18 06.11.2019
4935 Clear 16 1015 64 10000 1.5 20 06:40 06.11.2019
4936 Clear 16 1016 82 10000 3.84 2 06:22 06.11.2019
4937 Clear 17 1016 68 10000 3.91 36 03:52 06.11.2019
4938 Clear 19 1016 64 10000 2.48 57 02:18 06.11.2019
4939 Clear 20 1015 53 10000 1.5 20 00:55 06.11.2019
4940 Clear 21 1015 53 10000 1.5 20 00:27 06.11.2019
4941 Clear 23 1015 56 10000 2.1 40 23:57 05.11.2019
4942 Clear 23 1015 56 10000 2.1 40 23:37 05.11.2019
4943 Clear 24 1015 56 10000 2.1 40 23:18 05.11.2019
4944 Clear 25 1015 49 10000 3.6 40 22:42 05.11.2019
4945 Clear 25 1015 49 10000 3.6 40 22:19 05.11.2019
4946 Clear 25 1015 49 10000 3.6 40 22:19 05.11.2019
4947 Clear 25 1014 46 10000 4.6 60 21:57 05.11.2019
4948 Clear 26 1014 46 10000 4.6 60 21:57 05.11.2019
4949 Clear 26 1014 46 10000 4.6 60 21:39 05.11.2019
4950 Clear 26 1014 46 10000 4.6 60 21:19 05.11.2019
4951 Clear 26 1014 49 10000 3.6 40 20:56 05.11.2019
4952 Clear 26 1014 39 10000 4.6 220 20:38 05.11.2019
4953 Clear 26 1014 39 10000 4.6 220 20:19 05.11.2019
4954 Clouds 26 1015 49 10000 2.6 40 19:42 05.11.2019
4955 Clouds 26 1015 49 10000 2.6 40 19:23 05.11.2019
4956 Clouds 26 1015 64 10000 3.1 40 18:59 05.11.2019
4957 Clouds 25 1015 64 10000 3.1 40 18:40 05.11.2019
4958 Clear 25 1015 41 10000 4.1 90 18:22 05.11.2019
4959 Clouds 25 1016 73 10000 2.6 40 17:59 05.11.2019
4960 Clouds 25 1016 73 10000 2.6 40 17:39 05.11.2019
4961 Clouds 24 1016 73 10000 2.6 40 17:20 05.11.2019
4962 Clouds 24 1016 73 10000 3.1 50 16:57 05.11.2019
4963 Clear 25 1016 53 10000 3.1 0 16:57 05.11.2019
4964 Clouds 24 1016 73 10000 3.1 50 16:57 05.11.2019
4965 Clear 25 1016 53 10000 3.1 0 16:39 05.11.2019
4966 Clear 25 1016 53 10000 3.1 0 16:19 05.11.2019
4967 Clear 24 1016 73 10000 3.1 40 15:39 05.11.2019
4968 Clear 23 1016 73 10000 3.1 40 15:20 05.11.2019
4969 Clear 23 1016 73 10000 3.1 40 15:20 05.11.2019
4970 Clear 22 1015 77 10000 1 0 14:59 05.11.2019
4971 Clear 22 1015 77 10000 1 0 14:40 05.11.2019
4972 Clear 21 1015 77 10000 1 0 14:21 05.11.2019
4973 Clouds 20 1015 82 10000 2.6 60 13:56 05.11.2019
4974 Clouds 19 1015 82 10000 2.6 60 13:38 05.11.2019
4975 Clouds 19 1015 82 10000 2.6 60 13:20 05.11.2019
4976 Clouds 19 1014 77 10000 2.6 100 12:39 05.11.2019
4977 Clouds 17 1014 77 10000 2.6 100 12:21 05.11.2019
4978 Clear 16 1014 77 10000 1.5 170 11:56 05.11.2019
4979 Clear 15 1014 77 10000 1.5 170 11:37 05.11.2019
4980 Clear 15 1014 77 10000 1.5 170 11:19 05.11.2019
4981 Clouds 13 1013 100 10000 2.6 180 10:44 05.11.2019
4982 Clouds 13 1013 93 10000 1.5 210 10:25 05.11.2019
4983 Clouds 13 1012 100 10000 2.6 190 09:59 05.11.2019
4984 Clouds 13 1012 100 10000 2.6 190 09:40 05.11.2019
4985 Clear 14 1012 88 10000 1.5 170 09:19 05.11.2019
4986 Clear 14 1011 93 10000 3.1 120 08:55 05.11.2019
4987 Clear 14 1011 93 10000 3.1 120 08:55 05.11.2019
4988 Clear 15 1011 93 10000 3.1 120 08:37 05.11.2019
4989 Rain 15 1011 93 10000 3.1 120 08:18 05.11.2019
4990 Clouds 16 1010 88 10000 3.1 150 07:43 05.11.2019
4991 Clouds 16 1010 88 10000 3.1 150 07:24 05.11.2019
4992 Clouds 16 1010 93 10000 3.1 150 06:51 05.11.2019
4993 Clouds 17 1010 100 10000 2.6 160 05:54 05.11.2019
4994 Clouds 17 1010 100 10000 2.6 160 05:54 05.11.2019
4995 Clouds 17 1010 93 10000 3.1 160 05:36 05.11.2019
4996 Clouds 17 1010 93 10000 3.1 160 05:18 05.11.2019
4997 Clouds 17 1009 100 8000 2.6 190 04:18 05.11.2019
4998 Clear 18 1009 93 9000 2.1 230 03:23 05.11.2019
4999 Clouds 18 1008 100 10000 3.1 140 02:41 05.11.2019
5000 Rain 19 1006 88 10000 1 0 01:48 05.11.2019
5001 Clouds 20 1006 88 10000 2.6 180 00:39 05.11.2019
5002 Clouds 20 1004 88 10000 5.1 50 00:18 05.11.2019
5003 Rain 21 1005 78 8000 1.5 230 23:41 04.11.2019
5004 Thunderstorm 22 1005 78 4500 1.5 230 23:18 04.11.2019
5005 Clouds 22 1004 78 10000 1.5 210 22:43 04.11.2019
5006 Clouds 22 1004 78 10000 1.5 210 22:24 04.11.2019
5007 Clouds 22 1003 83 10000 2.1 200 21:57 04.11.2019
5008 Clouds 22 1003 83 10000 2.1 200 21:38 04.11.2019
5009 Clouds 22 1003 83 10000 2.1 200 21:20 04.11.2019
5010 Clouds 22 1002 88 10000 3.1 360 20:59 04.11.2019
5011 Clouds 22 1002 88 10000 3.1 360 20:40 04.11.2019
5012 Clouds 22 1002 88 10000 3.1 360 20:21 04.11.2019
5013 Clouds 22 1005 88 10000 2.1 310 19:59 04.11.2019
5014 Clouds 22 1005 88 10000 2.1 310 19:41 04.11.2019
5015 Clouds 22 1005 88 10000 2.1 310 19:22 04.11.2019
5016 Clouds 21 1004 94 10000 2.6 350 18:58 04.11.2019
5017 Clouds 21 1004 94 10000 2.6 350 18:39 04.11.2019
5018 Clouds 22 1004 94 10000 2.6 350 18:19 04.11.2019
5019 Clouds 21 1004 94 10000 2.6 300 17:55 04.11.2019
5020 Clouds 21 1004 94 10000 2.6 300 17:55 04.11.2019
5021 Clouds 21 1004 94 10000 2.6 300 17:36 04.11.2019
5022 Clouds 21 1004 94 10000 2.6 300 17:18 04.11.2019
5023 Drizzle 20 1004 100 9000 3.1 10 16:41 04.11.2019
5024 Drizzle 20 1004 100 9000 3.1 10 16:23 04.11.2019
5025 Clouds 20 1005 100 1100 2.6 350 15:57 04.11.2019
5026 Clouds 20 1005 100 1100 2.6 350 15:39 04.11.2019
5027 Thunderstorm 20 1004 100 450 2.6 360 15:19 04.11.2019
5028 Thunderstorm 20 1005 94 300 3.1 360 14:57 04.11.2019
5029 Thunderstorm 20 1005 94 300 3.1 360 14:39 04.11.2019
5030 Thunderstorm 20 1004 94 1000 1.5 360 14:19 04.11.2019
5031 Thunderstorm 21 1005 88 3000 1.5 10 13:55 04.11.2019
5032 Clouds 21 1005 83 10000 2.6 20 13:37 04.11.2019
5033 Clouds 20 1005 83 10000 2.6 20 13:19 04.11.2019
5034 Clouds 20 1005 88 10000 2.6 20 12:44 04.11.2019
5035 Clouds 20 1005 88 10000 2.6 20 12:24 04.11.2019
5036 Rain 20 1005 88 9000 1.5 20 11:57 04.11.2019
5037 Drizzle 20 1005 83 8000 2.1 30 11:39 04.11.2019
5038 Drizzle 20 1005 83 8000 2.1 30 11:21 04.11.2019
5039 Clouds 20 1005 83 10000 2.6 20 10:45 04.11.2019
5040 Clouds 20 1005 83 10000 2.6 20 10:26 04.11.2019
5041 Rain 20 1004 88 9000 5.1 40 09:54 04.11.2019
5042 Clouds 20 1005 83 10000 3.1 20 09:36 04.11.2019
5043 Clouds 20 1005 83 10000 3.1 20 09:18 04.11.2019
5044 Clouds 20 1005 77 10000 4.1 20 08:41 04.11.2019
5045 Clouds 20 1005 77 10000 4.1 20 08:21 04.11.2019
5046 Clouds 20 1005 77 10000 4.1 20 08:21 04.11.2019
5047 Rain 20 1006 73 9000 4.1 40 07:45 04.11.2019
5048 Rain 20 1006 73 9000 4.1 40 07:25 04.11.2019
5049 Clouds 20 1007 88 10000 2.6 90 06:59 04.11.2019
5050 Clouds 19 1007 88 10000 2.6 90 06:36 04.11.2019
5051 Clouds 19 1006 88 10000 5.1 100 05:59 04.11.2019
5052 Clouds 19 1007 88 10000 3.6 130 04:45 04.11.2019
5053 Clouds 19 1007 88 10000 3.6 130 04:23 04.11.2019
5054 Clouds 19 1008 82 10000 3.6 110 02:44 04.11.2019
5055 Clouds 20 1007 77 10000 4.1 100 01:22 04.11.2019
5056 Clouds 20 1007 77 10000 4.6 110 00:49 04.11.2019
5057 Clouds 20 1007 77 10000 4.6 110 00:21 04.11.2019
5058 Clouds 21 1008 82 10000 3.1 140 23:44 03.11.2019
5059 Clear 22 1008 72 10000 3.6 100 23:22 03.11.2019
5060 Clear 22 1008 68 10000 3.6 100 22:59 03.11.2019
5061 Clear 23 1008 68 10000 3.6 100 22:41 03.11.2019
5062 Clear 23 1008 68 10000 3.6 100 22:21 03.11.2019
5063 Clear 24 1008 60 10000 3.6 90 21:58 03.11.2019
5064 Clear 24 1008 60 10000 3.6 90 21:40 03.11.2019
5065 Clear 24 1008 60 10000 3.6 90 21:20 03.11.2019
5066 Clear 24 1008 60 10000 2.6 70 20:56 03.11.2019
5067 Clear 24 1008 60 10000 2.6 70 20:37 03.11.2019
5068 Clear 24 1008 60 10000 2.6 70 20:18 03.11.2019
5069 Clear 24 1009 49 10000 3.6 50 19:56 03.11.2019
5070 Clear 24 1009 49 10000 3.6 50 19:37 03.11.2019
5071 Clear 23 1009 43 10000 2.6 40 19:19 03.11.2019
5072 Clear 23 1011 56 10000 3.1 70 18:39 03.11.2019
5073 Clear 23 1011 56 10000 3.1 70 18:19 03.11.2019
5074 Clear 23 1012 68 10000 2.6 40 17:58 03.11.2019
5075 Clear 23 1012 68 10000 2.6 40 17:40 03.11.2019
5076 Clear 23 1011 64 10000 3.6 70 17:19 03.11.2019
5077 Clear 22 1013 60 10000 3.1 50 16:55 03.11.2019
5078 Clear 22 1013 60 10000 3.1 50 16:37 03.11.2019
5079 Clear 22 1013 60 10000 3.1 50 16:18 03.11.2019
5080 Clouds 21 1013 72 10000 3.1 40 15:54 03.11.2019
5081 Clouds 21 1013 72 10000 3.1 40 15:36 03.11.2019
5082 Clouds 21 1013 72 10000 3.1 40 15:18 03.11.2019
5083 Clouds 20 1013 72 10000 3.6 80 14:40 03.11.2019
5084 Clouds 20 1013 72 10000 3.6 80 14:19 03.11.2019
5085 Clouds 20 1013 72 10000 3.6 80 14:19 03.11.2019
5086 Clouds 20 1013 72 10000 3.6 80 14:19 03.11.2019
5087 Clouds 19 1014 72 10000 3.6 90 13:55 03.11.2019
5088 Clouds 19 1014 72 10000 3.6 90 13:36 03.11.2019
5089 Clouds 19 1014 72 10000 3.6 90 13:36 03.11.2019
5090 Clouds 18 1014 72 10000 3.6 90 13:18 03.11.2019
5091 Clouds 17 1014 77 10000 5.1 110 12:38 03.11.2019
5092 Clouds 16 1014 77 10000 5.1 110 12:19 03.11.2019
5093 Clear 15 1014 76 10000 3.6 130 11:55 03.11.2019
5094 Clear 14 1014 76 10000 3.6 130 11:37 03.11.2019
5095 Clear 14 1014 76 10000 3.6 130 11:19 03.11.2019
5096 Clear 12 1014 67 10000 3.1 140 10:40 03.11.2019
5097 Clear 11 1014 67 10000 3.1 140 10:22 03.11.2019
5098 Clear 11 1014 67 10000 3.1 140 10:22 03.11.2019
5099 Clear 12 1013 67 10000 3.1 160 09:57 03.11.2019
5100 Clear 12 1013 67 10000 3.1 160 09:39 03.11.2019
5101 Clear 12 1013 67 10000 3.1 160 09:21 03.11.2019
5102 Clear 13 1013 58 10000 2.6 160 08:41 03.11.2019
5103 Clear 13 1013 58 10000 2.6 160 08:22 03.11.2019
5104 Clear 13 1013 55 10000 4.6 150 07:46 03.11.2019
5105 Clear 13 1013 55 10000 4.6 150 07:25 03.11.2019
5106 Clear 14 1013 51 10000 5.1 160 06:50 03.11.2019
5107 Clear 14 1013 51 10000 5.1 160 06:31 03.11.2019
5108 Clear 15 1014 48 10000 3.6 150 05:39 03.11.2019
5109 Clear 16 1014 67 10000 3.1 160 04:56 03.11.2019
5110 Clear 16 1013 48 10000 2.6 170 04:33 03.11.2019
5111 Clear 18 1013 49 10000 3.1 170 03:30 03.11.2019
5112 Clear 19 1013 40 10000 2.6 180 02:30 03.11.2019
5113 Clouds 20 1013 35 10000 2.1 210 01:59 03.11.2019
5114 Clouds 19 1013 35 10000 2.1 210 01:38 03.11.2019
5115 Clouds 20 1013 35 10000 2.1 210 01:19 03.11.2019
5116 Clouds 21 1012 33 10000 3.1 190 00:42 03.11.2019
5117 Clouds 21 1012 33 10000 3.1 190 00:23 03.11.2019
5118 Clouds 23 1012 33 10000 2.1 210 23:57 02.11.2019
5119 Clouds 23 1012 33 10000 2.1 210 23:37 02.11.2019
5120 Clouds 23 1012 47 10000 3.1 190 23:18 02.11.2019
5121 Clouds 25 1011 34 10000 3.1 190 22:55 02.11.2019
5122 Clouds 25 1011 34 10000 3.1 190 22:37 02.11.2019
5123 Clouds 25 1012 44 10000 5.1 200 22:37 02.11.2019
5124 Clouds 25 1011 34 10000 3.1 190 22:18 02.11.2019
5125 Clouds 25 1011 34 10000 3.1 190 22:18 02.11.2019
5126 Clouds 26 1011 36 10000 3.6 220 21:55 02.11.2019
5127 Clouds 26 1011 36 10000 3.6 220 21:55 02.11.2019
5128 Clouds 26 1011 36 10000 3.6 220 21:37 02.11.2019
5129 Clouds 26 1011 36 10000 3.6 220 21:18 02.11.2019
5130 Clouds 26 1011 32 10000 3.1 180 20:56 02.11.2019
5131 Clouds 26 1011 32 10000 3.1 180 20:56 02.11.2019
5132 Clouds 26 1011 32 10000 3.1 180 20:38 02.11.2019
5133 Clouds 26 1011 32 10000 3.1 180 20:18 02.11.2019
5134 Clouds 26 1011 36 10000 3.6 180 19:40 02.11.2019
5135 Clouds 26 1011 36 10000 3.6 180 19:21 02.11.2019
5136 Clouds 26 1011 47 10000 3.1 190 18:56 02.11.2019
5137 Clouds 26 1011 47 10000 3.1 190 18:56 02.11.2019
5138 Clouds 26 1011 47 10000 3.1 190 18:37 02.11.2019
5139 Clouds 26 1011 47 10000 3.1 190 18:18 02.11.2019
5140 Clouds 26 1012 50 10000 2.1 190 17:56 02.11.2019
5141 Clouds 26 1012 50 10000 2.1 190 17:56 02.11.2019
5142 Clouds 26 1012 50 10000 2.1 190 17:37 02.11.2019
5143 Clouds 26 1012 50 10000 2.1 190 17:37 02.11.2019
5144 Clouds 25 1012 50 10000 2.1 190 17:18 02.11.2019
5145 Clouds 25 1012 61 10000 3.1 190 16:40 02.11.2019
5146 Clouds 25 1012 61 10000 3.1 190 16:21 02.11.2019
5147 Clouds 24 1012 64 10000 3.6 180 15:44 02.11.2019
5148 Clouds 23 1012 64 10000 3.6 180 15:22 02.11.2019
5149 Clouds 23 1011 64 10000 4.6 190 14:59 02.11.2019
5150 Clouds 23 1011 64 10000 4.6 190 14:41 02.11.2019
5151 Clouds 23 1011 64 10000 4.6 190 14:41 02.11.2019
5152 Clouds 23 1011 64 10000 4.6 190 14:22 02.11.2019
5153 Clouds 23 1010 78 10000 4.6 210 13:55 02.11.2019
5154 Clouds 22 1010 78 10000 4.6 210 13:37 02.11.2019
5155 Clouds 22 1010 78 10000 4.6 210 13:18 02.11.2019
5156 Clouds 21 1011 88 10000 5.7 200 12:40 02.11.2019
5157 Clouds 21 1010 83 10000 2.1 200 12:22 02.11.2019
5158 Clouds 20 1010 88 10000 2.1 170 11:56 02.11.2019
5159 Clouds 20 1010 88 10000 2.1 170 11:38 02.11.2019
5160 Clouds 20 1010 88 10000 2.1 170 11:19 02.11.2019
5161 Clouds 20 1010 94 6000 2.1 180 10:43 02.11.2019
5162 Clouds 20 1009 88 10000 2.6 190 10:24 02.11.2019
5163 Clouds 20 1009 83 10000 3.1 190 09:54 02.11.2019
5164 Clouds 20 1009 83 10000 3.1 190 09:36 02.11.2019
5165 Rain 19 1009 94 4000 4.1 190 09:18 02.11.2019
5166 Clouds 20 1009 88 10000 1.5 180 08:42 02.11.2019
5167 Rain 20 1009 94 4000 1 200 08:19 02.11.2019
5168 Mist 20 1009 94 4000 2.6 180 07:45 02.11.2019
5169 Mist 20 1009 94 4000 2.6 180 07:26 02.11.2019
5170 Mist 20 1009 94 4000 2.6 180 07:26 02.11.2019
5171 Clouds 20 1009 88 5000 1 0 06:52 02.11.2019
5172 Clouds 20 1009 88 5000 1 0 06:25 02.11.2019
5173 Rain 20 1009 100 3000 1.83 238 05:50 02.11.2019
5174 Rain 20 1010 88 10000 1.5 200 04:28 02.11.2019
5175 Rain 20 1010 83 10000 1.5 200 03:59 02.11.2019
5176 Rain 21 1010 88 10000 1 0 03:32 02.11.2019
5177 Clouds 21 1010 88 10000 1.5 140 02:32 02.11.2019
5178 Thunderstorm 21 1009 83 10000 1 20 01:36 02.11.2019
5179 Thunderstorm 21 1009 83 10000 1 20 01:18 02.11.2019
5180 Rain 21 1010 83 10000 2.6 190 00:42 02.11.2019
5181 Thunderstorm 21 1009 83 5000 1 0 00:22 02.11.2019
5182 Thunderstorm 22 1009 83 10000 1.5 20 23:42 01.11.2019
5183 Thunderstorm 22 1009 83 10000 1.5 20 23:42 01.11.2019
5184 Rain 22 1009 88 10000 1 0 23:20 01.11.2019
5185 Clouds 22 1010 83 10000 1 0 22:42 01.11.2019
5186 Clouds 22 1010 83 10000 1 0 22:21 01.11.2019
5187 Clouds 22 1010 83 10000 2.6 50 21:55 01.11.2019
5188 Clouds 22 1010 83 10000 2.6 50 21:36 01.11.2019
5189 Clouds 22 1010 83 10000 2.6 50 21:18 01.11.2019
5190 Clouds 22 1010 78 10000 4.1 20 20:42 01.11.2019
5191 Clouds 22 1010 78 10000 4.1 20 20:23 01.11.2019
5192 Clouds 22 1011 83 10000 3.6 50 19:59 01.11.2019
5193 Clouds 22 1011 83 10000 3.6 50 19:59 01.11.2019
5194 Clouds 22 1011 83 10000 3.6 50 19:59 01.11.2019
5195 Clouds 22 1011 83 10000 3.6 50 19:59 01.11.2019
5196 Clouds 22 1011 83 10000 3.6 50 19:40 01.11.2019
5197 Clouds 21 1011 83 10000 3.6 50 19:21 01.11.2019
5198 Clouds 21 1013 82 10000 5.1 40 18:41 01.11.2019
5199 Clouds 21 1013 82 10000 5.1 40 18:21 01.11.2019
5200 Clouds 21 1013 82 10000 6.2 50 17:59 01.11.2019
5201 Clouds 20 1013 82 10000 6.2 50 17:41 01.11.2019
5202 Clouds 20 1013 82 10000 6.2 50 17:22 01.11.2019
5203 Clouds 20 1014 77 10000 6.2 50 16:40 01.11.2019
5204 Clouds 20 1014 77 10000 6.2 50 16:20 01.11.2019
5205 Clouds 19 1015 77 10000 6.2 50 15:58 01.11.2019
5206 Clouds 19 1015 77 10000 6.2 50 15:40 01.11.2019
5207 Clouds 19 1015 77 10000 6.2 50 15:22 01.11.2019
5208 Clouds 19 1015 77 10000 6.7 30 14:44 01.11.2019
5209 Clouds 18 1015 77 10000 6.7 30 14:25 01.11.2019
5210 Clouds 18 1016 82 10000 8.2 50 13:59 01.11.2019
5211 Clouds 18 1016 82 10000 8.2 50 13:40 01.11.2019
5212 Clouds 18 1016 82 10000 8.2 50 13:40 01.11.2019
5213 Clouds 18 1016 82 10000 8.2 50 13:21 01.11.2019
5214 -273 0 0 0 0 0 12:55 01.11.2019
5215 Clouds 18 1017 82 10000 7.2 50 12:37 01.11.2019
5216 Clouds 18 1017 82 10000 7.2 50 12:18 01.11.2019
5217 Clouds 17 1017 82 10000 6.7 50 11:41 01.11.2019
5218 Clouds 17 1017 82 10000 6.7 50 11:22 01.11.2019
5219 Clouds 17 1017 82 10000 7.2 50 10:42 01.11.2019
5220 Clouds 17 1017 82 10000 7.2 50 10:24 01.11.2019
5221 Clouds 17 1018 82 10000 7.7 50 09:58 01.11.2019
5222 Clouds 17 1018 82 10000 7.7 50 09:58 01.11.2019
5223 Clouds 17 1018 82 10000 7.7 50 09:40 01.11.2019
5224 Clouds 17 1018 82 10000 7.7 50 09:20 01.11.2019
5225 Clouds 17 1018 82 10000 7.7 50 09:20 01.11.2019
5226 Clouds 17 1018 82 10000 8.7 60 08:45 01.11.2019
5227 Clouds 17 1018 82 10000 8.7 60 08:22 01.11.2019
5228 Clouds 17 1018 82 10000 7.7 60 07:57 01.11.2019
5229 Clouds 17 1018 82 10000 7.7 60 07:39 01.11.2019
5230 Clouds 17 1018 82 10000 7.7 60 07:20 01.11.2019
5231 Clear 17 1018 77 10000 8.7 60 06:46 01.11.2019
5232 Clear 18 1018 77 10000 8.7 60 06:22 01.11.2019
5233 Clear 18 1018 72 10000 10.8 50 05:43 01.11.2019
5234 Clear 17 1018 68 10000 8.2 70 04:28 01.11.2019
5235 Clear 17 1017 82 10000 8.2 110 02:49 01.11.2019
5236 Clear 17 1017 82 10000 8.2 110 02:49 01.11.2019
5237 Clear 18 1017 77 10000 9.3 110 01:31 01.11.2019
5238 Clear 18 1017 72 10000 9.8 110 00:40 01.11.2019
5239 Clear 19 1017 72 10000 9.8 110 00:18 01.11.2019
5240 Clear 19 1017 68 10000 9.8 110 23:43 31.10.2019
5241 Clear 20 1017 68 10000 9.8 110 23:23 31.10.2019
5242 Clear 21 1017 60 10000 7.2 110 22:55 31.10.2019
5243 Clear 22 1017 60 10000 7.2 110 22:37 31.10.2019
5244 Clear 22 1017 60 10000 7.2 110 22:18 31.10.2019
5245 Clear 23 1017 49 10000 7.2 120 21:42 31.10.2019
5246 Clear 23 1017 49 10000 7.2 120 21:20 31.10.2019
5247 Clear 23 1018 46 10000 7.7 110 20:57 31.10.2019
5248 Clear 23 1018 46 10000 7.7 110 20:39 31.10.2019
5249 Clear 23 1018 46 10000 7.7 110 20:20 31.10.2019
5250 Clear 23 1019 46 10000 6.7 110 19:41 31.10.2019
5251 Clear 23 1019 46 10000 6.7 110 19:21 31.10.2019
5252 Clear 23 1021 60 10000 6.7 100 18:56 31.10.2019
5253 Clear 23 1021 60 10000 6.7 100 18:37 31.10.2019
5254 Clear 23 1021 60 10000 6.7 100 18:18 31.10.2019
5255 Clear 23 1021 64 10000 5.1 80 17:41 31.10.2019
5256 Clear 23 1021 64 10000 5.1 80 17:22 31.10.2019
5257 Clear 23 1021 56 10000 5.1 90 16:57 31.10.2019
5258 Clear 22 1021 56 10000 5.1 90 16:39 31.10.2019
5259 Clear 22 1021 56 10000 5.1 90 16:20 31.10.2019
5260 Clear 22 1021 60 10000 5.7 110 15:54 31.10.2019
5261 Clear 22 1021 60 10000 5.7 110 15:36 31.10.2019
5262 Clear 22 1021 60 10000 5.7 110 15:18 31.10.2019
5263 Clear 21 1021 56 10000 6.2 110 14:41 31.10.2019
5264 Clear 20 1021 56 10000 6.2 110 14:23 31.10.2019
5265 Clear 20 1021 59 10000 7.7 110 13:59 31.10.2019
5266 Clear 19 1021 59 10000 7.7 110 13:39 31.10.2019
5267 Clear 19 1021 59 10000 7.7 110 13:19 31.10.2019
5268 Clear 18 1021 63 10000 7.7 120 12:57 31.10.2019
5269 Clear 18 1021 63 10000 7.7 120 12:38 31.10.2019
5270 Clear 17 1021 63 10000 7.7 120 12:20 31.10.2019
5271 Clear 15 1021 77 10000 4.1 130 11:45 31.10.2019
5272 Clear 15 1021 77 10000 4.1 130 11:21 31.10.2019
5273 Clear 15 1021 77 10000 4.1 130 11:21 31.10.2019
5274 Clear 13 1020 72 10000 4.1 140 10:58 31.10.2019
5275 Clear 13 1020 72 10000 4.1 140 10:58 31.10.2019
5276 Clear 13 1020 72 10000 4.1 140 10:39 31.10.2019
5277 Clear 13 1020 72 10000 4.1 140 10:39 31.10.2019
5278 Clear 12 1020 72 10000 4.1 140 10:21 31.10.2019
5279 Clear 13 1020 72 10000 4.1 140 09:54 31.10.2019
5280 Clear 13 1020 72 10000 4.1 140 09:36 31.10.2019
5281 Clear 13 1020 72 10000 4.1 140 09:18 31.10.2019
5282 Clear 13 1020 72 10000 4.6 140 08:43 31.10.2019
5283 Clear 13 1020 72 10000 4.6 140 08:24 31.10.2019
5284 Clear 14 1020 72 10000 4.1 130 07:46 31.10.2019
5285 Clear 14 1020 72 10000 4.1 130 07:26 31.10.2019
5286 Clear 14 1020 72 10000 6.2 120 06:52 31.10.2019
5287 Clear 14 1020 72 10000 6.2 120 06:31 31.10.2019
5288 Clear 15 1020 82 10000 4.1 140 05:20 31.10.2019
5289 Clear 15 1020 82 10000 4.1 140 05:20 31.10.2019
5290 Clear 16 1019 77 10000 3.1 130 02:50 31.10.2019
5291 Clouds 16 1019 77 10000 3.1 130 02:25 31.10.2019
5292 Clouds 17 1019 77 10000 5.1 120 01:20 31.10.2019
5293 Clouds 18 1017 64 10000 4.1 150 00:26 31.10.2019
5294 Clouds 20 1016 56 10000 4.6 150 23:42 30.10.2019
5295 Clouds 20 1016 56 10000 4.6 150 23:23 30.10.2019
5296 Clouds 21 1016 77 10000 6.7 110 22:42 30.10.2019
5297 Clouds 21 1016 77 10000 6.7 110 22:19 30.10.2019
5298 Clouds 21 1015 72 10000 6.7 120 21:55 30.10.2019
5299 Clouds 21 1015 72 10000 6.7 120 21:37 30.10.2019
5300 Clouds 21 1015 72 10000 6.7 120 21:18 30.10.2019
5301 Clouds 21 1014 77 10000 6.7 120 20:58 30.10.2019
5302 Clouds 22 1014 77 10000 6.7 120 20:38 30.10.2019
5303 Clouds 22 1014 77 10000 6.7 120 20:37 30.10.2019
5304 Clouds 21 1014 77 10000 6.7 120 20:19 30.10.2019
5305 Clouds 22 1014 68 10000 7.2 110 19:43 30.10.2019
5306 Clouds 22 1014 68 10000 7.2 110 19:25 30.10.2019
5307 Clouds 22 1015 56 10000 5.1 150 19:00 30.10.2019
5308 Clouds 22 1015 56 10000 5.1 150 18:38 30.10.2019
5309 Clouds 22 1015 56 10000 5.1 150 18:38 30.10.2019
5310 Clouds 21 1015 56 10000 5.1 150 18:19 30.10.2019
5311 Clouds 21 1014 56 10000 5.1 170 17:56 30.10.2019
5312 Clouds 21 1014 56 10000 5.1 170 17:37 30.10.2019
5313 Clouds 20 1014 56 10000 5.1 170 17:18 30.10.2019
5314 Clouds 20 1014 56 10000 5.1 170 17:18 30.10.2019
5315 Clouds 20 1014 60 10000 6.7 160 16:54 30.10.2019
5316 Clouds 20 1014 60 10000 6.7 160 16:36 30.10.2019
5317 Clouds 20 1014 60 10000 6.7 160 16:18 30.10.2019
5318 Clouds 19 1014 64 10000 5.7 170 15:40 30.10.2019
5319 Clouds 19 1014 64 10000 5.7 170 15:21 30.10.2019
5320 Clouds 18 1014 72 10000 5.1 150 14:59 30.10.2019
5321 Clouds 18 1014 72 10000 5.1 150 14:41 30.10.2019
5322 Clouds 18 1014 72 10000 5.1 150 14:22 30.10.2019
5323 Clouds 18 1013 82 10000 7.2 130 13:55 30.10.2019
5324 Clouds 18 1013 82 10000 7.2 130 13:37 30.10.2019
5325 Clouds 18 1013 82 10000 7.2 130 13:37 30.10.2019
5326 Clouds 17 1013 82 10000 7.2 130 13:19 30.10.2019
5327 Clouds 16 1012 82 10000 4.6 150 12:45 30.10.2019
5328 Clouds 16 1012 82 10000 4.6 150 12:27 30.10.2019
5329 Clouds 16 1011 82 10000 7.2 140 11:58 30.10.2019
5330 Clouds 15 1011 82 10000 7.2 140 11:40 30.10.2019
5331 Clouds 15 1011 82 10000 7.2 140 11:21 30.10.2019
5332 Clouds 14 1011 87 10000 7.7 140 10:43 30.10.2019
5333 Clouds 15 1011 87 10000 7.7 140 10:23 30.10.2019
5334 Clouds 15 1009 93 10000 6.2 140 09:42 30.10.2019
5335 Clouds 15 1009 93 10000 6.2 140 09:24 30.10.2019
5336 Clouds 15 1010 87 10000 5.7 140 08:57 30.10.2019
5337 Clouds 15 1010 87 10000 5.7 140 08:39 30.10.2019
5338 Clouds 15 1010 87 10000 5.7 140 08:39 30.10.2019
5339 Clouds 15 1010 87 10000 5.7 140 08:20 30.10.2019
5340 Clouds 15 1010 100 10000 4.1 140 07:45 30.10.2019
5341 Clouds 15 1010 100 10000 4.1 140 07:20 30.10.2019
5342 Clouds 15 1009 87 10000 6.2 110 06:42 30.10.2019
5343 Clouds 15 1009 88 10000 8.2 130 06:18 30.10.2019
5344 Clouds 15 1010 88 10000 8.2 120 05:41 30.10.2019
5345 Clouds 15 1011 88 10000 8.2 110 04:42 30.10.2019
5346 Clouds 15 1010 88 10000 6.7 120 03:43 30.10.2019
5347 Clouds 15 1010 88 10000 6.7 120 03:43 30.10.2019
5348 Clouds 15 1009 87 10000 5.1 140 02:50 30.10.2019
5349 Clouds 16 1009 82 10000 6.7 130 01:51 30.10.2019
5350 Clouds 16 1009 82 10000 6.2 120 00:49 30.10.2019
5351 Clouds 17 1009 82 10000 6.2 120 00:28 30.10.2019
5352 Clouds 18 1009 82 10000 7.2 120 23:41 29.10.2019
5353 Clouds 18 1009 82 10000 7.2 120 23:22 29.10.2019
5354 Clouds 20 1009 77 10000 6.7 110 22:45 29.10.2019
5355 Clouds 20 1009 77 10000 6.7 110 22:20 29.10.2019
5356 Clouds 21 1009 77 10000 7.7 100 21:56 29.10.2019
5357 Clouds 21 1009 77 10000 7.7 100 21:38 29.10.2019
5358 Clouds 21 1009 77 10000 7.7 100 21:20 29.10.2019
5359 Clouds 21 1009 77 10000 7.7 100 20:42 29.10.2019
5360 Clouds 22 1009 77 10000 7.7 100 20:23 29.10.2019
5361 Clouds 22 1009 72 10000 7.7 120 19:59 29.10.2019
5362 Clouds 22 1009 72 10000 7.7 120 19:41 29.10.2019
5363 Clouds 22 1009 72 10000 7.7 120 19:22 29.10.2019
5364 Clouds 22 1009 77 10000 8.2 110 18:59 29.10.2019
5365 Clouds 21 1009 77 10000 8.2 110 18:40 29.10.2019
5366 Clouds 21 1009 77 10000 8.2 110 18:21 29.10.2019
5367 Clouds 20 1010 77 10000 8.2 100 17:58 29.10.2019
5368 Clouds 20 1010 77 10000 8.2 100 17:40 29.10.2019
5369 Clouds 20 1010 77 10000 8.2 100 17:21 29.10.2019
5370 Clouds 20 1010 77 10000 8.2 100 17:21 29.10.2019
5371 Clouds 20 1010 77 10000 7.7 110 16:57 29.10.2019
5372 Clouds 19 1010 77 10000 7.7 110 16:38 29.10.2019
5373 Clouds 19 1010 77 10000 7.7 110 16:18 29.10.2019
5374 Clouds 17 1010 87 10000 5.7 120 15:42 29.10.2019
5375 Clouds 16 1010 87 10000 5.7 120 15:21 29.10.2019
5376 Clouds 15 1010 87 8000 5.7 110 14:58 29.10.2019
5377 Clouds 15 1010 87 8000 5.7 110 14:39 29.10.2019
5378 Clouds 15 1010 87 8000 5.7 110 14:39 29.10.2019
5379 Clouds 15 1010 87 8000 5.7 110 14:21 29.10.2019
5380 Clouds 14 1010 100 10000 4.1 140 13:57 29.10.2019
5381 Mist 14 1009 82 5000 4.6 120 13:37 29.10.2019
5382 Mist 14 1009 82 5000 4.6 120 13:18 29.10.2019
5383 Mist 14 1009 82 5000 4.6 120 13:18 29.10.2019
5384 Drizzle 14 1009 100 8000 3.6 150 12:42 29.10.2019
5385 Mist 14 1009 87 5000 3.1 120 12:24 29.10.2019
5386 Mist 13 1009 87 4900 3.6 140 11:54 29.10.2019
5387 Clouds 13 1008 87 10000 3.6 140 11:36 29.10.2019
5388 Clouds 13 1008 87 10000 3.6 140 11:18 29.10.2019
5389 Clouds 13 1008 87 10000 5.1 140 10:55 29.10.2019
5390 Clouds 13 1008 87 10000 5.1 140 10:36 29.10.2019
5391 Clouds 13 1008 87 10000 5.1 140 10:18 29.10.2019
5392 Clouds 13 1008 100 10000 3.6 160 09:41 29.10.2019
5393 Clouds 13 1008 100 10000 3.6 160 09:41 29.10.2019
5394 Clouds 13 1007 87 10000 3.1 160 09:23 29.10.2019
5395 Clouds 14 1007 87 10000 3.1 150 08:55 29.10.2019
5396 Clouds 14 1007 87 10000 3.1 150 08:36 29.10.2019
5397 Clouds 14 1007 87 10000 3.1 150 08:18 29.10.2019
5398 Clouds 14 1006 87 10000 3.1 180 07:47 29.10.2019
5399 Clouds 14 1006 87 10000 3.1 180 07:19 29.10.2019
5400 Drizzle 14 1006 100 6000 5.1 170 06:46 29.10.2019
5401 Clouds 14 1005 87 10000 2.6 180 06:26 29.10.2019
5402 Clouds 15 1007 87 10000 3.6 180 05:52 29.10.2019
5403 Clouds 15 1007 87 10000 3.6 180 05:34 29.10.2019
5404 Clouds 16 1007 87 10000 3.1 160 04:32 29.10.2019
5405 Clouds 16 1007 82 10000 1.5 0 02:34 29.10.2019
5406 Rain 16 1005 82 10000 2.1 190 01:49 29.10.2019
5407 Clouds 16 1005 82 10000 2.1 190 01:22 29.10.2019
5408 Clouds 16 1004 77 10000 2.6 170 00:48 29.10.2019
5409 Clouds 17 1004 82 10000 4.1 120 23:44 28.10.2019
5410 Rain 17 1004 82 10000 4.1 120 23:21 28.10.2019
5411 Clouds 17 1005 82 10000 4.1 170 22:59 28.10.2019
5412 Clouds 17 1005 82 10000 4.1 170 22:37 28.10.2019
5413 Clouds 17 1005 82 10000 4.1 170 22:18 28.10.2019
5414 Clouds 17 1005 82 10000 4.1 160 21:56 28.10.2019
5415 Clouds 17 1004 82 10000 4.1 190 21:38 28.10.2019
5416 Clouds 17 1004 82 10000 4.1 190 21:38 28.10.2019
5417 Clouds 17 1004 82 10000 4.1 190 21:19 28.10.2019
5418 Clouds 18 1003 88 10000 4.6 180 20:45 28.10.2019
5419 Clouds 19 1003 78 10000 4.1 190 20:24 28.10.2019
5420 Rain 20 1004 100 3000 7.2 190 19:59 28.10.2019
5421 Rain 20 1004 100 3000 7.2 190 19:39 28.10.2019
5422 Clouds 22 1003 78 8000 3.6 210 19:21 28.10.2019
5423 Mist 21 1003 88 5000 2.1 200 18:58 28.10.2019
5424 Mist 22 1003 88 5000 2.1 200 18:39 28.10.2019
5425 Mist 22 1003 88 5000 2.1 200 18:21 28.10.2019
5426 Clouds 21 1004 100 6000 1.5 240 17:56 28.10.2019
5427 Clouds 21 1004 100 6000 1.5 240 17:38 28.10.2019
5428 Mist 21 1004 88 4000 2.1 200 17:19 28.10.2019
5429 Mist 20 1004 100 5000 1.5 140 16:56 28.10.2019
5430 Thunderstorm 20 1004 94 5000 1.5 0 16:38 28.10.2019
5431 Thunderstorm 20 1004 94 5000 1.5 0 16:19 28.10.2019
5432 Mist 19 1004 100 1500 1.5 120 15:56 28.10.2019
5433 Clouds 19 1005 88 10000 2.6 320 15:38 28.10.2019
5434 Clouds 20 1005 88 10000 2.6 320 15:18 28.10.2019
5435 Thunderstorm 19 1005 88 5000 3.1 300 14:55 28.10.2019
5436 Thunderstorm 19 1005 88 5000 3.1 300 14:37 28.10.2019
5437 Thunderstorm 20 1005 94 9000 3.6 200 14:18 28.10.2019
5438 Thunderstorm 20 1006 100 2000 5.1 0 13:54 28.10.2019
5439 Thunderstorm 20 1006 100 2000 5.1 0 13:54 28.10.2019
5440 Clouds 20 1004 88 10000 4.1 100 13:36 28.10.2019
5441 Clouds 20 1004 88 10000 4.1 100 13:18 28.10.2019
5442 Mist 19 1003 100 3000 3.6 90 12:40 28.10.2019
5443 Clouds 19 1003 94 10000 5.1 100 12:19 28.10.2019
5444 Clouds 19 1003 94 10000 6.7 90 11:38 28.10.2019
5445 Clouds 19 1003 94 10000 6.7 90 11:20 28.10.2019
5446 Clouds 18 1005 94 10000 5.1 90 10:43 28.10.2019
5447 Clouds 18 1005 94 10000 5.1 90 10:25 28.10.2019
5448 Thunderstorm 19 1005 94 9000 4.6 100 09:59 28.10.2019
5449 Thunderstorm 19 1005 94 9000 4.6 100 09:41 28.10.2019
5450 Thunderstorm 19 1006 94 2500 2.6 30 09:20 28.10.2019
5451 Thunderstorm 19 1006 94 500 9.8 180 08:58 28.10.2019
5452 Thunderstorm 19 1006 94 500 9.8 180 08:58 28.10.2019
5453 Thunderstorm 19 1006 94 500 9.8 180 08:39 28.10.2019
5454 Thunderstorm 19 1005 88 8000 2.6 0 08:20 28.10.2019
5455 Thunderstorm 20 1006 93 5000 4.1 300 07:59 28.10.2019
5456 Rain 20 1004 88 10000 4.6 80 07:40 28.10.2019
5457 Rain 20 1004 88 10000 4.6 80 07:20 28.10.2019
5458 Clouds 20 1005 88 10000 5.1 110 06:40 28.10.2019
5459 Clouds 20 1005 88 10000 5.1 110 06:19 28.10.2019
5460 Thunderstorm 20 1007 83 8000 0.5 140 04:29 28.10.2019
5461 Clouds 20 1008 77 10000 4.1 120 03:41 28.10.2019
5462 Clouds 21 1007 73 10000 7.7 110 02:45 28.10.2019
5463 Clouds 22 1007 77 10000 6.7 120 01:27 28.10.2019
5464 Rain 22 1007 78 10000 5.1 100 00:46 28.10.2019
5465 Rain 22 1006 77 10000 4.6 130 00:22 28.10.2019
5466 Clouds 23 1005 83 10000 5.1 120 23:43 27.10.2019
5467 Clouds 23 1005 83 10000 5.1 120 23:19 27.10.2019
5468 Rain 24 1005 73 10000 6.7 120 22:43 27.10.2019
5469 Rain 24 1005 73 10000 6.7 120 22:23 27.10.2019
5470 Rain 24 1005 73 10000 6.7 110 21:58 27.10.2019
5471 Rain 24 1005 73 10000 6.7 110 21:39 27.10.2019
5472 Rain 24 1005 73 10000 6.7 110 21:21 27.10.2019
5473 Rain 24 1005 73 10000 7.7 100 20:58 27.10.2019
5474 Rain 24 1005 73 10000 7.7 100 20:39 27.10.2019
5475 Rain 26 1005 73 10000 7.7 100 20:21 27.10.2019
5476 Rain 26 1006 73 10000 5.1 80 19:55 27.10.2019
5477 Rain 26 1006 73 10000 5.1 80 19:36 27.10.2019
5478 Rain 26 1006 73 10000 5.1 80 19:18 27.10.2019
5479 Rain 26 1006 78 10000 5.7 80 18:55 27.10.2019
5480 Rain 26 1006 78 10000 5.7 80 18:36 27.10.2019
5481 Rain 26 1006 78 10000 5.7 80 18:18 27.10.2019
5482 Clouds 26 1009 54 10000 2.1 110 17:40 27.10.2019
5483 Clouds 25 1009 54 10000 2.1 110 17:20 27.10.2019
5484 Clouds 24 1011 50 10000 4.1 160 16:58 27.10.2019
5485 Clouds 24 1011 73 10000 5.1 230 16:39 27.10.2019
5486 Clouds 24 1011 73 10000 5.1 230 16:21 27.10.2019
5487 Clouds 24 1007 69 10000 4.1 110 15:56 27.10.2019
5488 Clouds 25 1007 69 10000 4.1 110 15:37 27.10.2019
5489 Clouds 24 1007 69 10000 4.1 110 15:19 27.10.2019
5490 Clouds 23 1009 73 10000 3.1 340 14:42 27.10.2019
5491 Clouds 23 1009 73 10000 3.1 340 14:42 27.10.2019
5492 Clouds 23 1009 73 10000 3.1 340 14:20 27.10.2019
5493 Rain 21 1009 73 10000 3.1 340 13:58 27.10.2019
5494 Rain 21 1009 73 10000 3.1 340 13:38 27.10.2019
5495 Rain 21 1009 73 10000 3.1 340 13:19 27.10.2019
5496 Rain 21 1010 77 9000 5.1 260 12:45 27.10.2019
5497 Clouds 20 1008 64 10000 2.6 70 12:24 27.10.2019
5498 Rain 20 1004 93 9000 6.2 130 11:59 27.10.2019
5499 Rain 20 1004 93 9000 6.2 130 11:59 27.10.2019
5500 Rain 19 1004 93 9000 6.2 130 11:40 27.10.2019
5501 Clouds 19 1005 88 10000 4.6 70 11:21 27.10.2019
5502 Thunderstorm 19 1006 72 10000 7.7 280 10:44 27.10.2019
5503 Clouds 19 1005 82 10000 3.6 50 10:24 27.10.2019
5504 Rain 19 1007 77 9000 7.2 70 09:56 27.10.2019
5505 Rain 19 1007 77 9000 7.2 70 09:37 27.10.2019
5506 Rain 19 1007 77 9000 7.2 70 09:18 27.10.2019
5507 Rain 19 1007 77 9000 7.2 70 09:18 27.10.2019
5508 Thunderstorm 19 1009 82 9000 3.1 70 08:41 27.10.2019
5509 Thunderstorm 19 1008 77 9000 4.6 70 08:21 27.10.2019
5510 Thunderstorm 19 1010 68 9000 1 340 07:50 27.10.2019
5511 Thunderstorm 19 1010 68 9000 1 340 07:29 27.10.2019
5512 Thunderstorm 18 1009 72 10000 6.2 140 06:59 27.10.2019
5513 Clouds 19 1008 68 10000 7.7 140 06:40 27.10.2019
5514 Clouds 19 1008 68 10000 7.7 140 06:21 27.10.2019
5515 Clouds 19 1009 64 10000 5.7 160 05:38 27.10.2019
5516 Rain 20 1008 60 10000 3.6 180 04:47 27.10.2019
5517 Rain 22 1008 47 10000 2.1 160 02:48 27.10.2019
5518 Rain 22 1008 47 10000 2.1 160 02:18 27.10.2019
5519 Thunderstorm 23 1007 50 10000 2.6 200 01:49 27.10.2019
5520 Thunderstorm 24 1007 50 10000 2.6 200 01:21 27.10.2019
5521 Thunderstorm 25 1007 39 10000 4.6 210 00:46 27.10.2019
5522 Clouds 27 1004 32 10000 4.1 340 00:24 27.10.2019
5523 Clouds 28 1004 30 10000 6.7 20 23:56 26.10.2019
5524 Clouds 28 1004 30 10000 6.7 20 23:56 26.10.2019
5525 Clouds 28 1004 30 10000 6.7 20 23:37 26.10.2019
5526 Clouds 28 1004 30 10000 6.7 20 23:19 26.10.2019
5527 Clouds 29 1005 51 10000 4.6 10 22:55 26.10.2019
5528 Clouds 29 1005 51 10000 4.6 10 22:36 26.10.2019
5529 Clouds 29 1005 51 10000 4.6 10 22:18 26.10.2019
5530 Clouds 29 1006 51 10000 4.1 10 21:42 26.10.2019
5531 Clouds 29 1006 51 10000 4.1 10 21:42 26.10.2019
5532 Clear 30 1006 30 10000 6.7 360 21:21 26.10.2019
5533 Clear 30 1006 27 10000 6.7 340 20:46 26.10.2019
5534 Clear 30 1006 27 10000 6.7 340 20:46 26.10.2019
5535 Clear 30 1006 27 10000 6.7 340 20:20 26.10.2019
5536 Clear 30 1007 30 10000 8.7 340 19:59 26.10.2019
5537 Clear 30 1007 30 10000 8.7 340 19:40 26.10.2019
5538 Clear 29 1007 30 10000 8.7 340 19:20 26.10.2019
5539 Clear 29 1009 32 10000 8.2 320 18:56 26.10.2019
5540 Clear 29 1009 32 10000 8.2 320 18:37 26.10.2019
5541 Clear 29 1009 32 10000 8.2 320 18:18 26.10.2019
5542 Clear 28 1009 34 10000 7.7 20 17:56 26.10.2019
5543 Clear 28 1009 34 10000 7.7 20 17:36 26.10.2019
5544 Clear 28 1009 34 10000 7.7 20 17:18 26.10.2019
5545 Clear 27 1011 36 10000 8.7 360 16:42 26.10.2019
5546 Clear 27 1011 36 10000 8.7 360 16:22 26.10.2019
5547 Clear 26 1011 50 10000 7.7 340 15:41 26.10.2019
5548 Clear 26 1011 50 10000 7.7 340 15:20 26.10.2019
5549 Clear 24 1012 56 10000 4.6 350 14:41 26.10.2019
5550 Clear 23 1012 56 10000 4.6 350 14:22 26.10.2019
5551 Clear 21 1013 57 0 4.77 10 13:59 26.10.2019
5552 Clear 22 1012 64 10000 5.7 350 13:41 26.10.2019
5553 Clear 21 1012 64 10000 5.7 350 13:21 26.10.2019
5554 Clear 20 1011 68 10000 4.6 10 12:46 26.10.2019
5555 Clear 19 1012 72 10000 4.1 340 12:24 26.10.2019
5556 Clear 18 1012 72 10000 4.1 340 11:50 26.10.2019
5557 Clear 18 1012 72 10000 4.1 340 11:29 26.10.2019
5558 Clear 18 1012 72 10000 4.1 340 11:29 26.10.2019
5559 Clear 19 1011 72 10000 3.6 340 10:54 26.10.2019
5560 Clear 19 1011 72 10000 3.6 340 10:36 26.10.2019
5561 Clear 19 1011 72 10000 3.6 340 10:18 26.10.2019
5562 Clear 19 1012 72 10000 3.6 330 09:41 26.10.2019
5563 Clear 19 1012 72 10000 3.6 330 09:23 26.10.2019
5564 Clear 19 1012 72 10000 2.6 310 08:43 26.10.2019
5565 Clear 20 1012 72 10000 2.6 360 08:25 26.10.2019
5566 Clear 20 1012 72 10000 2.6 360 08:25 26.10.2019
5567 Clear 19 1012 77 10000 2.6 350 07:44 26.10.2019
5568 Clear 19 1012 77 10000 2.6 350 07:44 26.10.2019
5569 Clear 20 1012 77 10000 2.6 350 07:25 26.10.2019
5570 Clear 19 1013 68 10000 2.6 310 06:42 26.10.2019
5571 Clear 19 1013 68 10000 2.6 310 06:23 26.10.2019
5572 Clear 18 1013 68 10000 1 320 05:19 26.10.2019
5573 Clear 19 1013 64 10000 1 320 04:23 26.10.2019
5574 Clear 22 1013 60 10000 2.1 360 02:45 26.10.2019
5575 Clear 23 1013 41 10000 1.5 300 01:51 26.10.2019
5576 Clear 24 1013 53 10000 3.1 9 01:20 26.10.2019
5577 Clear 26 1013 44 10000 2.6 290 00:23 26.10.2019
5578 Clear 27 1013 39 10000 4.1 230 23:41 25.10.2019
5579 Clear 28 1013 35 10000 2.1 250 23:20 25.10.2019
5580 Clouds 28 1013 32 10000 4.1 260 22:40 25.10.2019
5581 Clouds 29 1013 32 10000 4.1 260 22:22 25.10.2019
5582 Clouds 29 1013 35 10000 4.1 290 21:57 25.10.2019
5583 Clouds 29 1013 35 10000 4.1 290 21:39 25.10.2019
5584 Clouds 29 1013 35 10000 4.1 290 21:19 25.10.2019
5585 Clouds 28 1014 39 10000 3.1 280 20:44 25.10.2019
5586 Clouds 28 1014 39 10000 3.1 280 20:20 25.10.2019
5587 Clouds 28 1014 39 10000 3.1 280 20:20 25.10.2019
5588 Clouds 28 1014 39 10000 3.1 280 20:20 25.10.2019
5589 Clouds 28 1015 39 10000 3.6 250 19:56 25.10.2019
5590 Clouds 28 1015 39 10000 3.6 250 19:38 25.10.2019
5591 Clouds 28 1015 39 10000 3.6 250 19:20 25.10.2019
5592 Clouds 27 1016 39 10000 3.6 270 18:43 25.10.2019
5593 Clouds 27 1016 39 10000 3.6 270 18:21 25.10.2019
5594 Clear 27 1016 44 10000 4.6 300 17:41 25.10.2019
5595 Clear 26 1016 44 10000 4.6 300 17:20 25.10.2019
5596 Clear 25 1016 44 10000 3.1 300 16:47 25.10.2019
5597 Clear 25 1016 44 10000 3.1 300 16:24 25.10.2019
5598 Clear 24 1017 47 10000 4.1 310 15:58 25.10.2019
5599 Clear 24 1017 47 10000 4.1 310 15:40 25.10.2019
5600 Rain 23 1017 47 10000 4.1 310 15:21 25.10.2019
5601 Rain 22 1017 53 10000 3.6 300 14:43 25.10.2019
5602 Rain 21 1017 53 10000 3.6 300 14:23 25.10.2019
5603 Rain 19 1017 68 10000 1.5 260 13:59 25.10.2019
5604 Rain 19 1017 68 10000 1.5 260 13:39 25.10.2019
5605 Rain 18 1017 68 10000 1.5 260 13:21 25.10.2019
5606 Rain 17 1016 68 10000 1 310 12:55 25.10.2019
5607 Rain 17 1016 68 10000 1 310 12:55 25.10.2019
5608 Rain 17 1016 68 10000 1 310 12:36 25.10.2019
5609 Rain 16 1016 72 10000 1.5 0 12:18 25.10.2019
5610 Rain 15 1016 72 10000 1.5 0 11:39 25.10.2019
5611 Rain 15 1016 72 10000 1.5 0 11:39 25.10.2019
5612 Rain 15 1016 72 10000 1.5 0 11:20 25.10.2019
5613 Rain 15 1015 67 10000 2.6 310 10:41 25.10.2019
5614 Rain 15 1015 67 10000 2.6 310 10:23 25.10.2019
5615 Rain 16 1015 68 10000 2.6 300 09:59 25.10.2019
5616 Rain 16 1015 68 10000 2.6 300 09:39 25.10.2019
5617 Rain 17 1015 68 10000 2.6 300 09:20 25.10.2019
5618 Rain 17 1014 63 10000 2.6 350 08:51 25.10.2019
5619 Rain 17 1014 63 10000 2.6 350 08:33 25.10.2019
5620 Clouds 18 1015 68 10000 4.1 320 07:57 25.10.2019
5621 Clouds 18 1015 68 10000 4.1 320 07:35 25.10.2019
5622 Clouds 18 1015 68 10000 4.1 320 07:35 25.10.2019
5623 Clouds 19 1015 63 10000 2.1 310 06:42 25.10.2019
5624 Clouds 19 1015 72 10000 3.6 320 05:59 25.10.2019
5625 Clouds 19 1015 72 10000 3.6 320 05:37 25.10.2019
5626 Clouds 18 1015 72 10000 2.1 320 04:53 25.10.2019
5627 Clouds 19 1015 68 10000 1 0 03:40 25.10.2019
5628 Clouds 20 1014 60 10000 2.1 50 01:54 25.10.2019
5629 Clouds 21 1014 60 10000 2.1 50 01:27 25.10.2019
5630 Clouds 22 1013 60 10000 3.1 40 00:21 25.10.2019
5631 Clouds 24 1013 23 10000 3.1 210 23:41 24.10.2019
5632 Clouds 25 1013 23 10000 3.1 210 23:22 24.10.2019
5633 Clouds 25 1013 23 10000 3.1 250 22:56 24.10.2019
5634 Clouds 26 1013 23 10000 3.1 250 22:37 24.10.2019
5635 Clouds 26 1013 23 10000 3.1 250 22:18 24.10.2019
5636 Clouds 26 1013 22 10000 3.1 200 21:56 24.10.2019
5637 Clouds 26 1013 22 10000 3.1 200 21:37 24.10.2019
5638 Clear 26 1013 22 10000 3.1 200 21:19 24.10.2019
5639 Clear 26 1013 22 10000 1.5 200 20:56 24.10.2019
5640 Clear 26 1013 22 10000 1.5 200 20:38 24.10.2019
5641 Clear 26 1013 22 10000 1.5 200 20:19 24.10.2019
5642 Clear 25 1014 23 10000 4.1 250 19:44 24.10.2019
5643 Clear 25 1014 23 10000 4.1 250 19:23 24.10.2019
5644 Clear 25 1014 27 10000 3.6 290 18:58 24.10.2019
5645 Clear 25 1014 27 10000 3.6 290 18:40 24.10.2019
5646 Clear 24 1014 27 10000 3.6 290 18:21 24.10.2019
5647 Clear 23 1015 29 10000 3.6 250 17:57 24.10.2019
5648 Clear 23 1015 29 10000 3.6 250 17:38 24.10.2019
5649 Clear 23 1015 29 10000 3.6 250 17:19 24.10.2019
5650 Clear 23 1015 29 10000 3.6 250 17:19 24.10.2019
5651 Clear 22 1015 40 10000 3.6 290 16:54 24.10.2019
5652 Clear 22 1015 40 10000 3.6 290 16:36 24.10.2019
5653 Clear 21 1015 40 10000 3.6 290 16:18 24.10.2019
5654 Clear 20 1015 72 10000 3.6 360 15:54 24.10.2019
5655 Clear 20 1015 72 10000 3.6 360 15:36 24.10.2019
5656 Clear 19 1015 72 10000 3.6 360 15:18 24.10.2019
5657 Clear 18 1015 72 10000 3.1 340 14:41 24.10.2019
5658 Clear 17 1015 72 10000 3.1 340 14:22 24.10.2019
5659 Clear 16 1015 63 10000 1 340 13:57 24.10.2019
5660 Clear 16 1015 63 10000 1 340 13:37 24.10.2019
5661 Clear 14 1015 63 10000 1 340 13:18 24.10.2019
5662 Clear 12 1015 59 10000 1 320 12:55 24.10.2019
5663 Clear 12 1015 59 10000 1 320 12:37 24.10.2019
5664 Clear 10 1015 93 9000 2.41 280 12:18 24.10.2019
5665 Clear 9 1015 66 10000 2.41 280 11:54 24.10.2019
5666 Clear 9 1015 66 10000 2.41 280 11:36 24.10.2019
5667 Clear 9 1015 66 10000 2.41 280 11:18 24.10.2019
5668 Clear 9 1015 66 10000 0.5 270 10:41 24.10.2019
5669 Clear 9 1015 66 10000 0.5 270 10:22 24.10.2019
5670 Clear 10 1014 66 10000 2.4 281 09:39 24.10.2019
5671 Clear 10 1014 66 10000 1.64 236 09:19 24.10.2019
5672 Clear 10 1014 62 10000 1 200 08:55 24.10.2019
5673 Clear 10 1014 62 10000 1 200 08:37 24.10.2019
5674 Clear 10 1014 62 10000 1 200 08:18 24.10.2019
5675 Clear 10 1015 62 10000 1 0 07:45 24.10.2019
5676 Clear 11 1014 100 10000 1.64 236 07:22 24.10.2019
5677 Clear 12 1015 55 10000 1.5 180 06:47 24.10.2019
5678 Clear 13 1015 55 10000 1.5 180 06:24 24.10.2019
5679 Clear 13 1015 51 10000 1 0 05:49 24.10.2019
5680 Clear 13 1015 51 10000 1 0 05:28 24.10.2019
5681 Clear 14 1015 48 10000 2.6 220 03:38 24.10.2019
5682 Clear 15 1014 45 10000 2.6 220 02:56 24.10.2019
5683 Clear 16 1014 45 10000 2.6 220 02:25 24.10.2019
5684 Clear 17 1014 40 10000 2.1 230 01:51 24.10.2019
5685 Clear 17 1014 40 10000 2.1 230 01:27 24.10.2019
5686 Clear 19 1013 37 10000 4.1 250 00:41 24.10.2019
5687 Clear 19 1013 37 10000 4.1 250 00:23 24.10.2019
5688 Clouds 20 1013 35 10000 4.1 240 23:43 23.10.2019
5689 Clouds 21 1013 35 10000 4.1 240 23:23 23.10.2019
5690 Clouds 21 1013 35 10000 4.6 230 22:57 23.10.2019
5691 Clouds 21 1013 35 10000 4.6 230 22:38 23.10.2019
5692 Clouds 21 1013 35 10000 4.6 230 22:38 23.10.2019
5693 Clouds 21 1013 35 10000 4.6 230 22:19 23.10.2019
5694 Clouds 21 1014 37 10000 4.1 260 21:57 23.10.2019
5695 Clouds 21 1014 37 10000 4.1 260 21:38 23.10.2019
5696 Clouds 21 1014 37 10000 4.1 260 21:19 23.10.2019
5697 Clouds 22 1014 35 10000 5.7 250 20:56 23.10.2019
5698 Clouds 22 1014 35 10000 5.7 250 20:56 23.10.2019
5699 Clouds 22 1014 35 10000 5.7 250 20:37 23.10.2019
5700 Clouds 22 1014 35 10000 5.7 250 20:37 23.10.2019
5701 Clouds 22 1014 35 10000 5.7 250 20:19 23.10.2019
5702 Clouds 21 1015 37 10000 5.1 260 19:54 23.10.2019
5703 Clouds 21 1015 37 10000 5.1 260 19:36 23.10.2019
5704 Clouds 21 1015 37 10000 5.1 260 19:18 23.10.2019
5705 Clear 20 1015 42 10000 3.6 260 18:39 23.10.2019
5706 Clear 20 1015 42 10000 3.6 260 18:19 23.10.2019
5707 Clear 19 1016 45 10000 4.6 290 17:58 23.10.2019
5708 Clear 19 1016 45 10000 4.6 290 17:58 23.10.2019
5709 Clear 19 1016 45 10000 4.6 290 17:40 23.10.2019
5710 Clear 19 1016 45 10000 4.6 290 17:19 23.10.2019
5711 Clear 18 1016 48 10000 3.1 260 16:41 23.10.2019
5712 Clear 18 1016 48 10000 3.1 260 16:21 23.10.2019
5713 Clear 17 1017 51 10000 3.1 230 15:58 23.10.2019
5714 Clear 17 1017 51 10000 3.1 230 15:40 23.10.2019
5715 Clear 16 1017 51 10000 3.1 230 15:21 23.10.2019
5716 Clear 15 1017 55 10000 2.1 220 14:56 23.10.2019
5717 Clear 15 1017 55 10000 2.1 220 14:38 23.10.2019
5718 Clear 15 1017 55 10000 2.1 220 14:19 23.10.2019
5719 Clear 14 1017 54 10000 2.1 250 13:43 23.10.2019
5720 Clear 14 1017 54 10000 2.1 250 13:43 23.10.2019
5721 Clear 13 1017 54 10000 2.1 250 13:25 23.10.2019
5722 Clear 12 1016 67 10000 2.6 230 12:57 23.10.2019
5723 Clear 12 1016 67 10000 2.6 230 12:39 23.10.2019
5724 Clear 11 1016 67 10000 2.6 230 12:19 23.10.2019
5725 Clear 10 1015 71 10000 1.5 240 11:58 23.10.2019
5726 Clear 10 1015 71 10000 1.5 240 11:39 23.10.2019
5727 Clear 10 1015 71 10000 1.5 240 11:20 23.10.2019
5728 Clear 10 1015 71 10000 1.5 260 10:46 23.10.2019
5729 Clear 10 1015 71 10000 1.5 260 10:26 23.10.2019
5730 Clear 11 1014 67 10000 2.1 260 09:58 23.10.2019
5731 Clear 11 1014 67 10000 2.1 260 09:40 23.10.2019
5732 Clear 11 1014 67 10000 2.1 260 09:21 23.10.2019
5733 Clear 12 1014 71 10000 2.6 260 08:43 23.10.2019
5734 Clear 12 1014 71 10000 2.6 260 08:43 23.10.2019
5735 Clear 12 1014 71 10000 2.6 260 08:25 23.10.2019
5736 Clear 12 1014 93 10000 3.1 280 07:47 23.10.2019
5737 Clear 12 1015 62 10000 3.6 270 07:26 23.10.2019
5738 Clear 13 1014 62 10000 3.6 290 06:48 23.10.2019
5739 Clear 13 1014 62 10000 3.6 290 06:23 23.10.2019
5740 Clear 13 1015 59 10000 4.6 290 05:55 23.10.2019
5741 Clear 14 1015 59 10000 4.6 290 05:18 23.10.2019
5742 Clear 15 1015 51 10000 3.1 320 03:36 23.10.2019
5743 Clouds 15 1014 34 10000 1 250 02:41 23.10.2019
5744 Clouds 17 1014 32 10000 1.5 240 01:34 23.10.2019
5745 Clouds 18 1014 30 10000 4.1 250 00:56 23.10.2019
5746 Clouds 18 1014 30 10000 4.1 250 00:29 23.10.2019
5747 Clouds 20 1014 28 10000 4.6 270 23:41 22.10.2019
5748 Clouds 21 1014 28 10000 4.6 270 23:19 22.10.2019
5749 Clouds 21 1014 28 10000 5.1 270 22:58 22.10.2019
5750 Clouds 21 1014 28 10000 5.1 270 22:39 22.10.2019
5751 Clouds 21 1014 28 10000 5.1 270 22:21 22.10.2019
5752 Clouds 22 1014 30 10000 4.1 270 21:56 22.10.2019
5753 Clouds 21 1014 30 10000 4.1 270 21:37 22.10.2019
5754 Clouds 21 1014 30 10000 4.1 270 21:18 22.10.2019
5755 Clouds 21 1015 30 10000 5.7 270 20:56 22.10.2019
5756 Clouds 21 1015 30 10000 5.7 270 20:56 22.10.2019
5757 Clouds 21 1015 30 10000 5.7 270 20:38 22.10.2019
5758 Clouds 21 1015 30 10000 5.7 270 20:20 22.10.2019
5759 Clouds 21 1016 28 10000 5.7 280 19:54 22.10.2019
5760 Clouds 21 1016 28 10000 5.7 280 19:54 22.10.2019
5761 Clouds 21 1016 28 10000 5.7 280 19:54 22.10.2019
5762 Clouds 20 1016 28 10000 5.7 280 19:36 22.10.2019
5763 Clouds 20 1016 28 10000 5.7 280 19:18 22.10.2019
5764 Clouds 20 1016 30 10000 4.6 240 18:40 22.10.2019
5765 Clouds 20 1016 30 10000 4.6 240 18:22 22.10.2019
5766 Clouds 19 1017 28 10000 5.1 260 17:58 22.10.2019
5767 Clouds 19 1017 28 10000 5.1 260 17:38 22.10.2019
5768 Clouds 19 1017 28 10000 5.1 260 17:20 22.10.2019
5769 Clouds 19 1017 29 10000 4.6 230 16:57 22.10.2019
5770 Clouds 19 1017 29 10000 4.6 230 16:38 22.10.2019
5771 Clouds 19 1017 29 10000 4.6 230 16:19 22.10.2019
5772 Clouds 19 1017 29 10000 4.6 230 16:19 22.10.2019
5773 Clouds 19 1017 32 10000 4.1 220 15:44 22.10.2019
5774 Clouds 18 1017 32 10000 4.1 220 15:21 22.10.2019
5775 Clouds 18 1016 32 10000 4.6 230 14:58 22.10.2019
5776 Clouds 17 1016 32 10000 4.6 230 14:40 22.10.2019
5777 Clouds 17 1016 32 10000 4.6 230 14:19 22.10.2019
5778 Clouds 15 1016 59 10000 2.6 230 13:42 22.10.2019
5779 Clouds 15 1016 59 10000 2.6 230 13:21 22.10.2019
5780 Clouds 13 1016 82 10000 2.6 240 12:58 22.10.2019
5781 Clouds 13 1016 82 10000 2.6 240 12:39 22.10.2019
5782 Clear 12 1016 82 10000 2.6 240 12:20 22.10.2019
5783 Clear 12 1016 82 10000 2.6 240 12:20 22.10.2019
5784 Clear 11 1015 82 10000 3.6 280 11:42 22.10.2019
5785 Clear 11 1015 82 10000 3.6 280 11:23 22.10.2019
5786 Clear 11 1015 82 10000 2.6 310 10:59 22.10.2019
5787 Clear 11 1015 82 10000 2.6 310 10:59 22.10.2019
5788 Clear 11 1015 82 10000 2.6 310 10:38 22.10.2019
5789 Clear 11 1015 82 10000 2.6 310 10:19 22.10.2019
5790 Clear 11 1015 82 10000 2.6 310 10:19 22.10.2019
5791 Clear 11 1015 76 10000 2.6 300 09:59 22.10.2019
5792 Clear 11 1015 76 10000 2.6 300 09:41 22.10.2019
5793 Clear 11 1015 76 10000 2.6 300 09:21 22.10.2019
5794 Clouds 12 1015 76 10000 2.6 310 08:57 22.10.2019
5795 Clouds 12 1015 76 10000 2.6 310 08:39 22.10.2019
5796 Clouds 12 1015 76 10000 2.6 310 08:18 22.10.2019
5797 Clouds 12 1015 82 10000 3.6 320 07:42 22.10.2019
5798 Clouds 12 1015 82 10000 3.6 320 07:24 22.10.2019
5799 Clear 13 1015 87 10000 1.5 340 06:40 22.10.2019
5800 Clear 13 1015 93 10000 2.1 350 06:21 22.10.2019
5801 Clear 13 1016 87 10000 2.1 360 05:34 22.10.2019
5802 Clear 13 1016 87 10000 1.5 360 04:22 22.10.2019
5803 Clouds 14 1015 67 10000 2.6 60 02:30 22.10.2019
5804 Clouds 15 1015 63 10000 2.1 60 01:37 22.10.2019
5805 Clouds 15 1015 63 10000 2.1 60 01:18 22.10.2019
5806 Clouds 16 1015 67 10000 2.6 50 00:42 22.10.2019
5807 Clouds 17 1015 67 10000 2.6 50 00:24 22.10.2019
5808 Clouds 18 1015 63 10000 2.1 50 23:58 21.10.2019
5809 Clouds 18 1015 63 10000 2.1 50 23:38 21.10.2019
5810 Clouds 19 1015 63 10000 2.1 50 23:19 21.10.2019
5811 Clouds 19 1015 63 10000 2.1 50 23:19 21.10.2019
5812 Clouds 19 1015 67 10000 2.6 70 22:57 21.10.2019
5813 Clouds 19 1015 59 10000 1 0 22:38 21.10.2019
5814 Clouds 19 1015 59 10000 1 0 22:19 21.10.2019
5815 Clouds 19 1016 67 10000 2.6 40 21:56 21.10.2019
5816 Clouds 19 1016 67 10000 2.6 40 21:37 21.10.2019
5817 Clouds 19 1016 67 10000 2.6 40 21:19 21.10.2019
5818 Clouds 19 1016 68 10000 2.6 40 20:56 21.10.2019
5819 Clouds 18 1016 68 10000 2.6 40 20:37 21.10.2019
5820 Clouds 18 1016 68 10000 2.6 40 20:19 21.10.2019
5821 Clouds 18 1016 67 10000 1.5 330 19:41 21.10.2019
5822 Clouds 18 1016 67 10000 1.5 330 19:22 21.10.2019
5823 Clouds 18 1017 72 10000 1.5 350 18:57 21.10.2019
5824 Clouds 18 1017 72 10000 1.5 350 18:57 21.10.2019
5825 Clouds 18 1017 72 10000 1.5 350 18:38 21.10.2019
5826 Clouds 18 1017 72 10000 1.5 350 18:19 21.10.2019
5827 Clouds 18 1017 72 10000 1.5 350 18:19 21.10.2019
5828 Rain 17 1018 77 9000 1.5 330 17:59 21.10.2019
5829 Rain 17 1018 77 9000 1.5 330 17:38 21.10.2019
5830 Rain 17 1018 77 9000 1.5 330 17:19 21.10.2019
5831 Clouds 17 1018 77 10000 1.5 350 16:57 21.10.2019
5832 Clouds 17 1018 77 10000 1.5 350 16:39 21.10.2019
5833 Clouds 17 1018 77 10000 1.5 350 16:20 21.10.2019
5834 Clouds 16 1017 82 10000 2.1 340 15:47 21.10.2019
5835 Clouds 16 1017 82 10000 2.1 340 15:27 21.10.2019
5836 Clouds 15 1017 87 10000 1.5 70 14:58 21.10.2019
5837 Clouds 15 1017 87 10000 1.5 70 14:39 21.10.2019
5838 Clouds 15 1017 87 10000 1.5 70 14:21 21.10.2019
5839 Rain 15 1017 87 6000 2.1 140 13:57 21.10.2019
5840 Rain 14 1017 93 4500 1 160 13:38 21.10.2019
5841 Rain 13 1017 93 4500 1 160 13:19 21.10.2019
5842 Rain 13 1017 93 4500 1 160 13:19 21.10.2019
5843 Drizzle 13 1017 100 7000 0.5 160 12:42 21.10.2019
5844 Rain 13 1017 100 7000 0.5 0 12:22 21.10.2019
5845 Rain 13 1017 93 4900 1.5 140 11:57 21.10.2019
5846 Rain 13 1017 93 4900 1.5 140 11:57 21.10.2019
5847 Rain 13 1017 93 4900 1.5 140 11:38 21.10.2019
5848 Drizzle 13 1017 93 3800 1.5 150 11:20 21.10.2019
5849 Rain 13 1017 93 9000 2.1 200 10:56 21.10.2019
5850 -273 0 0 0 0 0 10:56 21.10.2019
5851 Rain 13 1017 93 9000 2.1 200 10:38 21.10.2019
5852 Rain 13 1017 93 8000 1 0 10:18 21.10.2019
5853 Rain 13 1017 93 8000 1 0 09:44 21.10.2019
5854 Rain 13 1017 93 8000 1 0 09:26 21.10.2019
5855 Rain 13 1017 93 8000 1.5 160 08:56 21.10.2019
5856 Rain 13 1017 93 8000 1.5 160 08:37 21.10.2019
5857 Rain 13 1017 93 8000 1.5 160 08:18 21.10.2019
5858 Rain 13 1018 93 8000 1 0 07:38 21.10.2019
5859 Rain 13 1018 93 8000 1 0 07:19 21.10.2019
5860 Rain 13 1019 93 6000 1 0 06:53 21.10.2019
5861 Rain 13 1019 93 6000 1 0 06:35 21.10.2019
5862 Rain 13 1019 87 9000 4.1 210 05:55 21.10.2019
5863 Rain 13 1019 87 9000 4.1 210 05:55 21.10.2019
5864 Rain 14 1018 100 9000 1 190 04:45 21.10.2019
5865 Clouds 15 1018 82 10000 5.7 110 02:50 21.10.2019
5866 Clouds 15 1018 82 10000 5.7 110 02:23 21.10.2019
5867 Clouds 15 1019 77 10000 4.6 120 01:55 21.10.2019
5868 Clouds 15 1019 77 10000 4.6 120 01:23 21.10.2019
5869 Clouds 15 1019 77 10000 4.6 120 01:23 21.10.2019
5870 Clouds 15 1019 77 10000 5.1 110 00:46 21.10.2019
5871 Clouds 15 1019 77 10000 5.1 110 00:25 21.10.2019
5872 Clouds 15 1018 72 10000 4.6 130 23:42 20.10.2019
5873 Clouds 15 1018 72 10000 4.6 130 23:22 20.10.2019
5874 Clear 16 1018 55 10000 3.6 150 22:56 20.10.2019
5875 Clear 16 1018 55 10000 3.6 150 22:37 20.10.2019
5876 Clear 16 1018 55 10000 3.6 150 22:18 20.10.2019
5877 Clear 16 1019 67 10000 5.7 120 21:57 20.10.2019
5878 Clear 16 1019 67 10000 5.7 120 21:38 20.10.2019
5879 Clear 16 1019 67 10000 5.7 120 21:20 20.10.2019
5880 Clear 16 1019 67 10000 5.1 120 20:41 20.10.2019
5881 Clear 17 1019 59 10000 4.6 90 20:18 20.10.2019
5882 Clear 16 1021 72 10000 5.1 100 19:56 20.10.2019
5883 Clear 16 1021 72 10000 5.1 100 19:37 20.10.2019
5884 Clear 16 1021 72 10000 5.1 100 19:19 20.10.2019
5885 Clear 16 1021 67 10000 4.1 100 18:42 20.10.2019
5886 Clear 16 1021 67 10000 3.6 110 18:24 20.10.2019
5887 Clear 16 1021 67 10000 3.6 120 17:59 20.10.2019
5888 Clear 16 1021 67 10000 3.6 120 17:41 20.10.2019
5889 Clear 16 1021 67 10000 3.6 120 17:23 20.10.2019
5890 Clear 16 1021 77 10000 3.1 100 16:56 20.10.2019
5891 Clear 16 1021 77 10000 3.1 100 16:56 20.10.2019
5892 Clear 15 1021 77 10000 3.1 100 16:38 20.10.2019
5893 Clear 15 1021 77 10000 3.1 100 16:19 20.10.2019
5894 Clear 15 1021 67 10000 5.1 100 15:55 20.10.2019
5895 Clear 15 1021 67 10000 5.1 100 15:36 20.10.2019
5896 Clear 15 1021 67 10000 5.1 100 15:18 20.10.2019
5897 Clear 15 1021 72 10000 4.6 100 14:41 20.10.2019
5898 Clear 14 1021 72 10000 4.6 100 14:23 20.10.2019
5899 Clear 14 1021 71 10000 4.6 100 13:56 20.10.2019
5900 Clear 14 1021 71 10000 4.6 100 13:37 20.10.2019
5901 Clear 13 1020 76 10000 3.6 90 13:19 20.10.2019
5902 Clear 13 1021 76 10000 3.6 60 12:58 20.10.2019
5903 Clear 13 1021 76 10000 3.6 60 12:39 20.10.2019
5904 Clear 13 1021 76 10000 3.6 60 12:21 20.10.2019
5905 Clear 13 1020 77 10000 5.1 80 11:59 20.10.2019
5906 Clear 13 1020 77 10000 5.1 80 11:40 20.10.2019
5907 Clear 12 1020 77 10000 5.1 80 11:22 20.10.2019
5908 Clear 12 1020 77 10000 5.1 80 11:22 20.10.2019
5909 Clear 12 1020 77 10000 6.2 100 10:57 20.10.2019
5910 Clear 12 1020 77 10000 6.2 100 10:38 20.10.2019
5911 Clear 13 1020 77 10000 6.2 100 10:20 20.10.2019
5912 Clear 12 1019 76 10000 5.7 120 09:44 20.10.2019
5913 Clear 12 1019 76 10000 5.7 120 09:23 20.10.2019
5914 Clear 13 1020 76 10000 6.2 100 08:59 20.10.2019
5915 Clear 13 1020 76 10000 6.2 100 08:39 20.10.2019
5916 Clear 13 1020 76 10000 6.2 100 08:20 20.10.2019
5917 Clear 13 1021 82 10000 5.7 100 07:47 20.10.2019
5918 Clear 13 1021 82 10000 5.7 100 07:24 20.10.2019
5919 Clear 14 1021 72 10000 5.1 100 06:28 20.10.2019
5920 Clear 15 1022 72 10000 6.7 90 04:28 20.10.2019
5921 Clear 16 1022 63 10000 7.2 100 03:49 20.10.2019
5922 Clear 16 1022 63 10000 7.2 100 03:21 20.10.2019
5923 Clear 16 1022 67 10000 6.7 100 02:45 20.10.2019
5924 Clear 17 1022 67 10000 6.7 100 02:18 20.10.2019
5925 Clear 17 1022 77 10000 6.7 100 01:43 20.10.2019
5926 Clear 17 1022 77 10000 6.7 100 01:19 20.10.2019
5927 Clear 18 1021 68 10000 6.7 100 00:42 20.10.2019
5928 Clear 19 1021 68 10000 6.7 100 00:20 20.10.2019
5929 Clear 20 1021 59 10000 6.2 100 23:43 19.10.2019
5930 Clear 21 1021 59 10000 6.2 100 23:24 19.10.2019
5931 Clear 22 1021 60 10000 3.1 50 22:57 19.10.2019
5932 Clear 22 1021 60 10000 3.1 50 22:39 19.10.2019
5933 Clear 22 1021 60 10000 3.1 50 22:20 19.10.2019
5934 Clear 22 1022 52 10000 3.6 130 21:46 19.10.2019
5935 Clear 23 1022 52 10000 3.1 30 21:25 19.10.2019
5936 Clear 23 1023 52 10000 3.6 40 20:57 19.10.2019
5937 Clear 23 1023 52 10000 3.6 40 20:38 19.10.2019
5938 Clear 23 1023 52 10000 3.6 40 20:20 19.10.2019
5939 Clear 23 1023 56 10000 3.1 50 19:41 19.10.2019
5940 Clear 23 1023 56 10000 3.1 50 19:23 19.10.2019
5941 Clear 23 1023 52 10000 3.1 40 18:43 19.10.2019
5942 Clear 23 1023 52 10000 3.1 40 18:25 19.10.2019
5943 Clear 23 1024 49 10000 3.6 50 17:59 19.10.2019
5944 Clear 23 1024 49 10000 3.6 50 17:37 19.10.2019
5945 Clear 23 1024 49 10000 3.6 50 17:19 19.10.2019
5946 Clear 22 1024 59 10000 2.6 30 16:39 19.10.2019
5947 Clear 22 1024 59 10000 2.6 30 16:39 19.10.2019
5948 Clear 21 1024 59 10000 2.6 30 16:20 19.10.2019
5949 Clear 20 1024 59 10000 2.6 50 15:57 19.10.2019
5950 Clear 21 1024 59 10000 2.6 50 15:39 19.10.2019
5951 Clear 20 1024 59 10000 2.6 50 15:20 19.10.2019
5952 Clear 20 1024 59 10000 2.6 50 15:20 19.10.2019
5953 Clear 19 1024 55 10000 2.1 40 14:38 19.10.2019
5954 Clear 18 1024 55 10000 2.1 40 14:20 19.10.2019
5955 Clear 17 1024 59 10000 1.03 195.42 13:56 19.10.2019
5956 Clear 16 1024 59 10000 1.03 195.42 13:37 19.10.2019
5957 Clear 15 1024 59 10000 1.61 172.95 13:18 19.10.2019
5958 Clear 15 1024 59 10000 1.61 172.95 13:18 19.10.2019
5959 Fog 12 1024 59 10000 1.61 172.95 12:39 19.10.2019
5960 Fog 11 1024 59 10000 1.65 186.129 12:21 19.10.2019
5961 Fog 10 1024 93 800 0.5 50 11:57 19.10.2019
5962 Fog 10 1024 93 800 0.5 50 11:39 19.10.2019
5963 Fog 10 1023 67 10000 0.5 260 11:21 19.10.2019
5964 Fog 10 1023 93 10000 1.65 186.129 10:41 19.10.2019
5965 Fog 11 1023 62 10000 0.5 280 10:23 19.10.2019
5966 Fog 11 1023 51 10000 0.5 200 09:59 19.10.2019
5967 Fog 11 1023 51 10000 0.5 200 09:59 19.10.2019
5968 Fog 12 1023 51 10000 0.5 200 09:40 19.10.2019
5969 Fog 12 1023 51 10000 0.5 200 09:22 19.10.2019
5970 Fog 11 1023 93 10000 1.81 181.647 08:41 19.10.2019
5971 Fog 11 1023 93 10000 1.81 181.647 08:23 19.10.2019
5972 Fog 11 1023 87 10000 1.81 181.647 07:59 19.10.2019
5973 Fog 12 1022 45 10000 1.5 170 07:41 19.10.2019
5974 Fog 11 1023 87 10000 1.81 181.647 07:23 19.10.2019
5975 Fog 13 1022 48 10000 1 0 06:35 19.10.2019
5976 Clear 13 1022 52 10000 1 0 05:35 19.10.2019
5977 Clear 15 1022 67 10000 1 180 04:26 19.10.2019
5978 Clear 16 1021 42 10000 1 0 02:57 19.10.2019
5979 Clear 18 1020 40 10000 1 0 01:56 19.10.2019
5980 Clear 18 1020 40 10000 1 0 01:37 19.10.2019
5981 Clear 20 1019 35 10000 2.6 220 00:51 19.10.2019
5982 Clear 20 1019 35 10000 2.6 220 00:28 19.10.2019
5983 Clear 22 1019 31 10000 4.1 210 23:56 18.10.2019
5984 Clear 22 1019 31 10000 4.1 210 23:56 18.10.2019
5985 Clear 22 1019 31 10000 4.1 210 23:37 18.10.2019
5986 Clear 22 1019 31 10000 4.1 210 23:19 18.10.2019
5987 Clear 23 1019 33 10000 5.1 200 22:44 18.10.2019
5988 Clear 23 1019 33 10000 5.1 200 22:21 18.10.2019
5989 Clear 23 1019 31 10000 5.1 230 21:59 18.10.2019
5990 Clear 23 1019 31 10000 5.1 230 21:39 18.10.2019
5991 Clear 23 1019 31 10000 5.1 230 21:21 18.10.2019
5992 Clear 23 1019 33 10000 7.7 200 20:59 18.10.2019
5993 Clear 23 1019 33 10000 7.7 200 20:41 18.10.2019
5994 Clear 23 1019 29 10000 5.1 230 20:22 18.10.2019
5995 Clear 23 1019 31 10000 5.7 210 19:58 18.10.2019
5996 Clear 23 1019 31 10000 5.7 210 19:58 18.10.2019
5997 Clear 23 1019 31 10000 5.7 210 19:39 18.10.2019
5998 Clear 23 1019 31 10000 5.7 210 19:39 18.10.2019
5999 Clear 23 1019 31 10000 5.7 210 19:39 18.10.2019
6000 Clear 23 1019 31 10000 5.7 210 19:21 18.10.2019
6001 Clear 23 1019 35 10000 6.7 200 18:57 18.10.2019
6002 Clear 22 1019 35 10000 6.7 200 18:39 18.10.2019
6003 Clear 22 1019 33 10000 5.1 210 18:21 18.10.2019
6004 Clear 22 1019 35 10000 4.6 220 17:39 18.10.2019
6005 Clear 22 1019 35 10000 4.6 220 17:21 18.10.2019
6006 Clear 21 1019 40 10000 4.6 220 16:59 18.10.2019
6007 Clear 21 1019 40 10000 4.6 220 16:38 18.10.2019
6008 Clear 21 1019 40 10000 4.6 220 16:19 18.10.2019
6009 Clear 20 1018 55 10000 4.1 220 15:54 18.10.2019
6010 Clear 20 1018 55 10000 4.1 220 15:36 18.10.2019
6011 Clear 19 1018 55 10000 4.1 220 15:18 18.10.2019
6012 Clear 18 1018 72 10000 4.6 220 14:54 18.10.2019
6013 Clear 18 1018 72 10000 4.6 220 14:36 18.10.2019
6014 Clear 18 1018 72 10000 4.6 220 14:36 18.10.2019
6015 Clear 17 1018 72 10000 4.6 220 14:18 18.10.2019
6016 Clear 16 1018 77 10000 3.6 240 13:41 18.10.2019
6017 Clear 15 1018 77 10000 3.6 240 13:23 18.10.2019
6018 Clear 14 1017 87 10000 1.5 240 12:57 18.10.2019
6019 Clear 14 1017 87 10000 1.5 240 12:38 18.10.2019
6020 Clear 13 1017 87 10000 1.5 240 12:20 18.10.2019
6021 Clear 12 1017 93 10000 1.5 240 11:56 18.10.2019
6022 Clear 12 1017 93 10000 1.5 240 11:38 18.10.2019
6023 Clear 12 1017 93 10000 2.6 230 11:19 18.10.2019
6024 Clear 12 1017 93 10000 1.5 280 10:43 18.10.2019
6025 -273 0 0 0 0 0 10:43 18.10.2019
6026 Clear 12 1017 93 10000 1.5 280 10:23 18.10.2019
6027 Clear 13 1017 93 10000 2.6 280 09:59 18.10.2019
6028 Clear 13 1017 93 10000 2.6 280 09:59 18.10.2019
6029 Clear 13 1017 93 10000 2.6 280 09:40 18.10.2019
6030 Clear 13 1016 100 10000 2.1 290 09:21 18.10.2019
6031 Clear 13 1014 100 10000 2.1 260 08:58 18.10.2019
6032 Clear 13 1014 100 10000 2.1 260 08:39 18.10.2019
6033 Clear 14 1015 93 10000 2.1 250 08:20 18.10.2019
6034 Clear 14 1015 93 10000 2.1 240 07:42 18.10.2019
6035 Clear 14 1015 93 10000 2.1 240 07:20 18.10.2019
6036 Clear 14 1015 93 10000 3.1 220 06:39 18.10.2019
6037 Clear 14 1015 93 10000 3.1 220 06:20 18.10.2019
6038 Clear 14 1015 93 10000 2.6 230 05:55 18.10.2019
6039 Clear 15 1015 93 10000 2.6 230 05:22 18.10.2019
6040 Clear 16 1014 100 10000 2.1 240 03:56 18.10.2019
6041 Clear 16 1014 100 10000 2.1 240 03:24 18.10.2019
6042 Clouds 16 1013 93 10000 2.6 240 02:33 18.10.2019
6043 Clouds 17 1013 93 10000 2.1 250 01:43 18.10.2019
6044 Clouds 17 1013 93 10000 2.1 250 01:25 18.10.2019
6045 Drizzle 17 1012 93 10000 2.6 240 00:44 18.10.2019
6046 Drizzle 17 1012 93 10000 2.6 240 00:20 18.10.2019
6047 Drizzle 17 1012 100 1400 2.1 270 23:43 17.10.2019
6048 Drizzle 17 1012 93 2800 4.1 330 23:21 17.10.2019
6049 Drizzle 18 1012 93 3000 5.1 350 22:58 17.10.2019
6050 Drizzle 18 1012 93 3000 5.1 350 22:39 17.10.2019
6051 Drizzle 18 1012 93 10000 7.2 360 22:20 17.10.2019
6052 Drizzle 18 1012 100 1500 5.7 340 21:58 17.10.2019
6053 Drizzle 18 1012 100 1500 5.7 340 21:40 17.10.2019
6054 Drizzle 18 1012 100 1500 5.7 340 21:40 17.10.2019
6055 Drizzle 18 1012 93 9000 4.6 340 21:21 17.10.2019
6056 Drizzle 18 1013 93 5000 5.1 350 20:58 17.10.2019
6057 Drizzle 18 1013 93 5000 5.1 350 20:40 17.10.2019
6058 Drizzle 18 1013 93 3000 7.7 340 20:20 17.10.2019
6059 Drizzle 17 1013 100 1200 4.6 40 19:59 17.10.2019
6060 Drizzle 18 1013 100 1200 4.6 40 19:59 17.10.2019
6061 Drizzle 18 1013 100 1200 4.6 40 19:40 17.10.2019
6062 Drizzle 17 1013 100 1600 4.6 70 19:20 17.10.2019
6063 Drizzle 17 1013 100 1000 4.6 50 18:58 17.10.2019
6064 Drizzle 17 1013 93 1300 5.1 70 18:38 17.10.2019
6065 Drizzle 17 1013 93 1300 5.1 70 18:20 17.10.2019
6066 Drizzle 17 1013 100 800 4.6 60 17:42 17.10.2019
6067 Drizzle 17 1013 93 1200 5.7 70 17:23 17.10.2019
6068 Drizzle 17 1013 100 1000 5.1 70 16:57 17.10.2019
6069 Drizzle 17 1013 100 1000 5.1 70 16:39 17.10.2019
6070 Drizzle 16 1014 100 1000 6.7 70 16:18 17.10.2019
6071 Clouds 16 1014 100 1000 5.7 70 15:56 17.10.2019
6072 Drizzle 16 1014 100 1600 5.1 70 15:37 17.10.2019
6073 Drizzle 16 1014 100 1600 5.1 70 15:19 17.10.2019
6074 Drizzle 16 1014 93 800 6.2 70 14:43 17.10.2019
6075 Drizzle 16 1014 93 4000 7.7 70 14:24 17.10.2019
6076 Drizzle 16 1014 93 4000 7.7 70 14:24 17.10.2019
6077 -273 0 0 0 0 0 14:24 17.10.2019
6078 Drizzle 16 1014 93 1600 7.7 70 13:57 17.10.2019
6079 Drizzle 16 1014 93 1600 7.7 70 13:39 17.10.2019
6080 Drizzle 16 1015 93 8000 5.7 90 13:19 17.10.2019
6081 Drizzle 16 1014 100 5000 5.7 70 12:41 17.10.2019
6082 Drizzle 16 1014 100 5000 5.7 70 12:41 17.10.2019
6083 Drizzle 16 1015 93 3000 6.2 10 12:21 17.10.2019
6084 Drizzle 16 1015 82 2500 6.7 50 11:59 17.10.2019
6085 Drizzle 16 1015 82 2500 6.7 50 11:59 17.10.2019
6086 Drizzle 16 1015 82 2500 6.7 50 11:59 17.10.2019
6087 Clouds 15 1015 87 10000 6.7 90 11:40 17.10.2019
6088 Clouds 15 1015 87 10000 6.7 90 11:19 17.10.2019
6089 Clouds 15 1015 87 10000 6.7 90 11:19 17.10.2019
6090 Clouds 16 1016 87 10000 6.7 90 10:55 17.10.2019
6091 Clouds 15 1016 87 10000 6.7 90 10:37 17.10.2019
6092 Clouds 16 1016 87 10000 6.7 90 10:18 17.10.2019
6093 Clouds 16 1016 87 10000 8.7 100 09:42 17.10.2019
6094 Clouds 16 1016 87 10000 8.7 100 09:23 17.10.2019
6095 Clouds 16 1016 87 10000 8.7 100 09:23 17.10.2019
6096 Clouds 16 1018 87 10000 8.2 100 08:59 17.10.2019
6097 Clouds 16 1018 87 10000 8.2 100 08:41 17.10.2019
6098 Clouds 16 1018 87 10000 8.2 100 08:21 17.10.2019
6099 Clouds 15 1019 87 10000 8.2 110 07:56 17.10.2019
6100 Clouds 16 1019 87 10000 8.2 110 07:37 17.10.2019
6101 Clouds 16 1019 87 10000 8.2 110 07:18 17.10.2019
6102 Clouds 16 1019 87 10000 6.7 90 06:40 17.10.2019
6103 Clouds 16 1019 87 10000 6.7 90 06:21 17.10.2019
6104 Clouds 16 1019 87 10000 8.7 90 05:52 17.10.2019
6105 Clouds 16 1019 87 10000 8.7 90 05:32 17.10.2019
6106 Clouds 16 1019 93 0 7.7 80 04:53 17.10.2019
6107 Clouds 16 1020 93 10000 7.2 120 03:55 17.10.2019
6108 Clouds 15 1020 87 10000 7.7 120 02:36 17.10.2019
6109 Drizzle 16 1019 82 7000 7.2 90 00:57 17.10.2019
6110 Drizzle 16 1019 82 7000 7.2 90 00:38 17.10.2019
6111 Clouds 16 1020 87 10000 8.2 110 00:18 17.10.2019
6112 Clouds 16 1019 87 10000 9.3 120 23:42 16.10.2019
6113 Clouds 16 1019 87 10000 9.3 120 23:21 16.10.2019
6114 Clouds 16 1019 87 10000 9.3 120 23:21 16.10.2019
6115 Clouds 16 1019 87 10000 9.3 120 23:21 16.10.2019
6116 Clouds 16 1020 87 10000 7.7 110 22:56 16.10.2019
6117 Clouds 16 1020 87 10000 7.7 110 22:36 16.10.2019
6118 Clouds 16 1020 87 10000 7.7 110 22:36 16.10.2019
6119 Clouds 16 1020 87 10000 7.7 110 22:18 16.10.2019
6120 Clouds 17 1020 87 10000 7.2 110 21:56 16.10.2019
6121 Clouds 16 1020 87 10000 7.2 110 21:37 16.10.2019
6122 Clouds 17 1020 87 10000 7.2 110 21:18 16.10.2019
6123 Clouds 17 1021 82 10000 7.7 110 20:56 16.10.2019
6124 Clouds 17 1021 82 10000 7.7 110 20:56 16.10.2019
6125 Clouds 17 1021 82 10000 7.7 110 20:56 16.10.2019
6126 Clouds 17 1021 82 10000 7.7 110 20:38 16.10.2019
6127 Clouds 17 1021 82 10000 7.7 110 20:20 16.10.2019
6128 Clouds 17 1022 82 10000 8.2 110 19:56 16.10.2019
6129 Clouds 17 1022 82 10000 8.2 110 19:38 16.10.2019
6130 Clouds 17 1022 82 10000 8.2 110 19:19 16.10.2019
6131 Clouds 17 1022 93 10000 5.7 90 18:39 16.10.2019
6132 Drizzle 16 1022 93 5000 5.1 90 18:19 16.10.2019
6133 Drizzle 16 1023 87 5000 7.7 110 17:56 16.10.2019
6134 Drizzle 16 1023 87 5000 7.7 110 17:38 16.10.2019
6135 Drizzle 16 1023 87 5000 7.7 110 17:38 16.10.2019
6136 Clouds 16 1023 87 10000 8.7 100 17:19 16.10.2019
6137 Clouds 16 1023 87 10000 8.7 100 17:19 16.10.2019
6138 Clouds 15 1024 82 10000 9.3 100 16:58 16.10.2019
6139 Clouds 15 1024 82 10000 9.3 100 16:38 16.10.2019
6140 Clouds 15 1024 82 10000 9.3 100 16:20 16.10.2019
6141 Drizzle 14 1024 93 2000 6.2 90 15:55 16.10.2019
6142 Drizzle 14 1024 93 2000 6.2 90 15:55 16.10.2019
6143 Drizzle 14 1024 93 2000 6.2 90 15:54 16.10.2019
6144 Drizzle 14 1024 93 2000 6.2 90 15:54 16.10.2019
6145 Clouds 14 1023 95 0 0.89 90 15:36 16.10.2019
6146 Drizzle 14 1024 100 1600 9.3 100 15:18 16.10.2019
6147 Drizzle 14 1024 100 1600 9.3 100 15:18 16.10.2019
6148 Drizzle 14 1024 100 1600 9.3 100 14:55 16.10.2019
6149 Drizzle 14 1024 100 1600 9.3 100 14:36 16.10.2019
6150 Drizzle 13 1024 100 1600 9.3 100 14:18 16.10.2019
6151 Drizzle 13 1024 93 2500 9.3 110 13:42 16.10.2019
6152 Drizzle 13 1024 93 1600 7.7 110 13:23 16.10.2019
6153 Drizzle 12 1024 93 3000 7.7 110 12:44 16.10.2019
6154 Drizzle 12 1024 93 3000 7.7 110 12:20 16.10.2019
6155 Drizzle 12 1024 100 2000 4.6 110 11:59 16.10.2019
6156 Drizzle 12 1024 100 2000 4.6 110 11:41 16.10.2019
6157 Drizzle 12 1024 100 5000 5.7 120 11:18 16.10.2019
6158 Drizzle 12 1024 100 2500 6.7 120 10:37 16.10.2019
6159 Drizzle 12 1024 100 2500 6.7 120 10:19 16.10.2019
6160 Drizzle 12 1024 100 1500 7.2 120 09:41 16.10.2019
6161 Drizzle 12 1024 93 2500 5.1 90 09:22 16.10.2019
6162 Clouds 12 1025 100 10000 3.1 150 08:58 16.10.2019
6163 Clouds 12 1025 100 10000 3.1 150 08:40 16.10.2019
6164 Clouds 12 1025 87 10000 6.2 110 08:21 16.10.2019
6165 Drizzle 12 1025 93 4000 4.6 90 07:43 16.10.2019
6166 Clouds 12 1026 82 10000 5.1 100 07:24 16.10.2019
6167 Rain 12 1026 87 7000 6.2 90 06:55 16.10.2019
6168 Rain 12 1026 87 7000 6.2 90 06:31 16.10.2019
6169 Rain 12 1026 100 9000 2.1 150 05:22 16.10.2019
6170 Rain 12 1027 100 5000 6.7 110 02:53 16.10.2019
6171 Drizzle 12 1027 87 8000 6.2 110 01:38 16.10.2019
6172 Rain 12 1027 82 9000 8.7 130 01:18 16.10.2019
6173 Rain 12 1027 93 6000 4.6 140 00:42 16.10.2019
6174 Rain 12 1027 82 9000 9.3 120 23:59 15.10.2019
6175 Rain 12 1027 93 6000 4.1 130 23:39 15.10.2019
6176 Rain 12 1027 87 5000 4.6 140 23:21 15.10.2019
6177 Rain 12 1027 87 9000 8.2 120 22:55 15.10.2019
6178 Rain 12 1027 87 9000 8.2 120 22:37 15.10.2019
6179 Rain 12 1027 87 9000 8.2 120 22:19 15.10.2019
6180 Rain 12 1027 87 3400 4.6 120 21:55 15.10.2019
6181 Rain 12 1027 87 3400 4.6 120 21:55 15.10.2019
6182 Rain 12 1027 87 5000 8.2 120 21:36 15.10.2019
6183 Rain 12 1027 87 5000 8.2 120 21:36 15.10.2019
6184 Rain 12 1027 87 5000 8.2 120 21:36 15.10.2019
6185 Rain 12 1027 87 5000 8.2 120 21:36 15.10.2019
6186 Rain 12 1027 87 3800 6.7 130 21:18 15.10.2019
6187 Rain 12 1027 87 4500 6.2 140 20:55 15.10.2019
6188 Rain 12 1028 82 8000 5.1 130 20:55 15.10.2019
6189 Rain 12 1028 82 8000 5.1 130 20:37 15.10.2019
6190 Rain 12 1027 87 7000 7.2 130 20:19 15.10.2019
6191 Rain 12 1028 82 4200 7.7 130 19:55 15.10.2019
6192 Rain 12 1028 82 4200 7.7 130 19:36 15.10.2019
6193 Rain 12 1028 82 4200 7.7 130 19:36 15.10.2019
6194 Clouds 12 1029 76 10000 6.2 130 19:18 15.10.2019
6195 Clouds 12 1029 71 10000 6.7 130 18:42 15.10.2019
6196 Clouds 12 1029 71 10000 6.7 130 18:23 15.10.2019
6197 Clouds 13 1029 62 10000 8.2 100 17:54 15.10.2019
6198 Clouds 13 1029 62 10000 8.2 100 17:36 15.10.2019
6199 Clouds 13 1029 62 10000 8.2 100 17:18 15.10.2019
6200 Rain 12 1030 62 9000 9.3 100 16:42 15.10.2019
6201 Rain 12 1030 62 9000 9.3 100 16:21 15.10.2019
6202 Clouds 12 1030 66 10000 9.3 100 15:56 15.10.2019
6203 Clouds 12 1030 66 10000 9.3 100 15:38 15.10.2019
6204 Clouds 12 1030 66 10000 9.3 100 15:19 15.10.2019
6205 Clouds 11 1031 76 10000 3.6 150 14:55 15.10.2019
6206 Clouds 11 1031 76 10000 3.6 150 14:36 15.10.2019
6207 Clouds 11 1031 76 10000 3.6 150 14:18 15.10.2019
6208 Clouds 10 1031 71 10000 2.6 170 13:43 15.10.2019
6209 Clouds 10 1031 71 10000 2.6 170 13:43 15.10.2019
6210 Clouds 10 1031 71 10000 2.6 170 13:20 15.10.2019
6211 Clouds 9 1030 76 10000 2.6 170 12:56 15.10.2019
6212 Clouds 9 1030 76 10000 2.6 170 12:37 15.10.2019
6213 Clouds 9 1030 76 10000 2.6 170 12:18 15.10.2019
6214 Clouds 9 1030 76 10000 3.1 150 11:42 15.10.2019
6215 Clouds 9 1030 76 10000 3.1 150 11:20 15.10.2019
6216 Clouds 8 1030 76 10000 2.6 150 10:55 15.10.2019
6217 Clouds 8 1030 76 10000 2.6 150 10:37 15.10.2019
6218 Clouds 9 1030 76 10000 2.6 150 10:18 15.10.2019
6219 Clouds 9 1030 66 10000 3.1 150 09:40 15.10.2019
6220 Clouds 9 1030 66 10000 3.1 150 09:21 15.10.2019
6221 Clouds 9 1030 76 10000 4.1 140 08:58 15.10.2019
6222 Clouds 9 1030 76 10000 4.1 140 08:39 15.10.2019
6223 Clouds 9 1030 76 10000 4.1 140 08:20 15.10.2019
6224 Clouds 9 1031 71 10000 3.6 110 07:43 15.10.2019
6225 Clouds 9 1031 71 10000 3.6 110 07:23 15.10.2019
6226 Clouds 9 1031 71 10000 5.7 130 06:57 15.10.2019
6227 Clouds 9 1031 71 10000 5.7 130 06:39 15.10.2019
6228 Clouds 9 1031 66 10000 4.1 140 05:56 15.10.2019
6229 Clouds 9 1031 70 10000 5.1 100 05:36 15.10.2019
6230 Clouds 9 1031 66 10000 4.6 130 04:48 15.10.2019
6231 Clouds 9 1031 66 10000 4.6 130 04:18 15.10.2019
6232 Clouds 9 1031 66 10000 5.7 140 03:35 15.10.2019
6233 Clouds 10 1030 66 10000 7.7 130 01:52 15.10.2019
6234 Clouds 10 1030 66 10000 7.7 130 01:52 15.10.2019
6235 Clouds 10 1030 66 10000 7.7 130 01:31 15.10.2019
6236 Clouds 10 1030 62 10000 7.7 90 00:59 15.10.2019
6237 Clouds 10 1030 57 10000 9.3 120 00:25 15.10.2019
6238 Clouds 11 1029 62 10000 9.8 110 23:57 14.10.2019
6239 Clouds 11 1029 62 10000 9.8 110 23:37 14.10.2019
6240 Clouds 11 1029 62 10000 9.8 110 23:18 14.10.2019
6241 Clouds 12 1029 62 10000 8.7 130 22:39 14.10.2019
6242 Clouds 12 1029 62 10000 8.7 130 22:20 14.10.2019
6243 Clouds 12 1029 58 10000 9.8 120 21:57 14.10.2019
6244 Clouds 12 1029 58 10000 9.8 120 21:39 14.10.2019
6245 Clouds 13 1029 58 10000 9.8 120 21:20 14.10.2019
6246 Clouds 13 1029 58 10000 9.8 130 20:56 14.10.2019
6247 Clouds 13 1029 58 10000 9.8 130 20:37 14.10.2019
6248 Clouds 13 1029 58 10000 9.8 130 20:18 14.10.2019
6249 Clouds 13 1029 54 10000 9.3 130 19:43 14.10.2019
6250 Clouds 13 1029 54 10000 9.3 130 19:25 14.10.2019
6251 Clouds 13 1029 54 10000 9.3 130 19:25 14.10.2019
6252 Clouds 13 1029 58 10000 8.7 140 18:59 14.10.2019
6253 Clouds 13 1029 58 10000 8.7 140 18:59 14.10.2019
6254 Clouds 13 1029 58 10000 8.7 140 18:39 14.10.2019
6255 Clouds 13 1029 58 10000 8.7 140 18:39 14.10.2019
6256 Clouds 12 1029 58 10000 8.7 140 18:20 14.10.2019
6257 Clouds 12 1029 58 10000 8.7 140 18:20 14.10.2019
6258 Clouds 12 1029 58 10000 8.7 140 18:20 14.10.2019
6259 Clouds 12 1030 58 10000 8.7 130 17:57 14.10.2019
6260 Clouds 12 1030 54 10000 8.2 140 17:39 14.10.2019
6261 Clouds 12 1030 54 10000 8.2 140 17:20 14.10.2019
6262 Clouds 12 1031 57 10000 6.2 150 16:44 14.10.2019
6263 Clouds 11 1031 57 10000 6.2 150 16:21 14.10.2019
6264 Clouds 11 1031 57 10000 5.7 150 15:44 14.10.2019
6265 Clouds 10 1031 57 10000 5.7 150 15:26 14.10.2019
6266 Clear 10 1030 61 10000 7.2 150 14:58 14.10.2019
6267 Clear 10 1030 61 10000 7.2 150 14:39 14.10.2019
6268 Clear 10 1030 61 10000 7.2 150 14:20 14.10.2019
6269 Clear 9 1030 61 10000 5.7 160 13:44 14.10.2019
6270 Clear 9 1030 61 10000 5.7 160 13:22 14.10.2019
6271 Clear 8 1029 61 10000 6.2 150 12:56 14.10.2019
6272 Clear 8 1029 61 10000 6.2 150 12:37 14.10.2019
6273 Clear 8 1029 61 10000 6.2 150 12:18 14.10.2019
6274 Clear 8 1029 66 10000 7.2 150 11:45 14.10.2019
6275 Clear 8 1029 66 10000 7.2 150 11:26 14.10.2019
6276 Clear 8 1028 57 10000 5.7 160 10:57 14.10.2019
6277 Clear 8 1028 57 10000 5.7 160 10:38 14.10.2019
6278 Clear 9 1028 57 10000 5.7 160 10:19 14.10.2019
6279 Clear 9 1028 53 10000 5.1 160 09:42 14.10.2019
6280 Clear 9 1028 53 10000 5.1 160 09:21 14.10.2019
6281 Clouds 9 1028 50 10000 4.6 130 08:51 14.10.2019
6282 Clouds 10 1028 50 10000 4.6 130 08:23 14.10.2019
6283 Clear 10 1028 50 10000 5.1 140 07:59 14.10.2019
6284 Clear 10 1028 50 10000 5.1 140 07:39 14.10.2019
6285 Clear 10 1028 50 10000 5.1 140 07:18 14.10.2019
6286 Clear 10 1027 53 10000 7.2 140 06:29 14.10.2019
6287 Clouds 10 1026 57 10000 7.2 140 05:57 14.10.2019
6288 Clouds 10 1026 57 10000 7.2 140 05:29 14.10.2019
6289 Clouds 11 1024 58 10000 9.3 140 04:34 14.10.2019
6290 Clouds 12 1024 62 10000 10.3 130 03:27 14.10.2019
6291 Clouds 13 1024 71 10000 9.8 130 02:34 14.10.2019
6292 Clouds 15 1023 72 10000 9.8 110 01:22 14.10.2019
6293 Clouds 15 1022 72 10000 8.7 110 00:45 14.10.2019
6294 Clouds 16 1022 72 10000 8.7 110 00:19 14.10.2019
6295 Clouds 17 1020 52 10000 6.7 120 23:44 13.10.2019
6296 Clouds 18 1020 52 10000 6.7 120 23:20 13.10.2019
6297 Clear 18 1020 48 10000 6.7 140 22:58 13.10.2019
6298 Clear 18 1020 48 10000 6.7 140 22:58 13.10.2019
6299 Clear 18 1020 48 10000 6.7 140 22:58 13.10.2019
6300 Clear 18 1020 48 10000 6.7 140 22:40 13.10.2019
6301 Clear 18 1020 48 10000 6.7 140 22:21 13.10.2019
6302 Clouds 18 1019 52 10000 7.2 130 21:57 13.10.2019
6303 Clouds 19 1019 52 10000 7.2 130 21:37 13.10.2019
6304 Clouds 19 1019 52 10000 7.2 130 21:37 13.10.2019
6305 Clouds 19 1019 52 10000 7.2 130 21:18 13.10.2019
6306 Clear 18 1018 48 10000 7.7 130 20:57 13.10.2019
6307 Clear 18 1018 48 10000 7.7 130 20:37 13.10.2019
6308 Clear 18 1018 48 10000 7.7 130 20:19 13.10.2019
6309 -273 0 0 0 0 0 19:56 13.10.2019
6310 Clear 18 1018 52 10000 5.1 160 19:56 13.10.2019
6311 Clear 18 1018 52 10000 5.1 160 19:56 13.10.2019
6312 -273 0 0 0 0 0 19:56 13.10.2019
6313 Clear 18 1018 52 10000 5.1 160 19:37 13.10.2019
6314 Clear 18 1018 52 10000 5.1 160 19:37 13.10.2019
6315 Clear 18 1018 52 10000 5.1 160 19:19 13.10.2019
6316 -273 0 0 0 0 0 18:55 13.10.2019
6317 -273 0 0 0 0 0 18:54 13.10.2019
6318 Clear 18 1017 52 10000 7.2 150 18:36 13.10.2019
6319 Clear 17 1017 52 10000 7.2 150 18:18 13.10.2019
6320 Clear 18 1017 55 10000 7.2 130 17:42 13.10.2019
6321 Clear 18 1017 55 10000 7.2 130 17:42 13.10.2019
6322 Clear 18 1017 55 10000 7.2 130 17:42 13.10.2019
6323 Clear 18 1017 55 10000 7.2 130 17:24 13.10.2019
6324 Clouds 17 1017 77 10000 6.2 160 16:45 13.10.2019
6325 Clouds 17 1017 77 10000 6.2 160 16:45 13.10.2019
6326 Clouds 16 1017 77 10000 5.1 170 16:20 13.10.2019
6327 Clouds 16 1016 82 10000 3.1 170 15:59 13.10.2019
6328 Clouds 16 1016 82 10000 3.1 170 15:39 13.10.2019
6329 Clouds 16 1016 82 10000 3.1 170 15:21 13.10.2019
6330 Clouds 16 1015 82 10000 1.5 180 14:59 13.10.2019
6331 Clouds 17 1015 82 10000 1.5 180 14:40 13.10.2019
6332 Clouds 17 1015 82 10000 1.5 180 14:21 13.10.2019
6333 Mist 18 1014 93 8000 2.6 170 13:58 13.10.2019
6334 Mist 18 1013 93 7000 1.5 190 13:37 13.10.2019
6335 Mist 17 1012 88 8000 2.6 170 13:19 13.10.2019
6336 Mist 17 1011 93 6000 3.1 180 12:56 13.10.2019
6337 Mist 17 1011 93 6000 3.1 180 12:37 13.10.2019
6338 Mist 17 1011 93 6000 3.1 180 12:18 13.10.2019
6339 Mist 16 1012 93 4000 2.6 180 11:55 13.10.2019
6340 Mist 16 1011 93 10000 1.5 130 11:37 13.10.2019
6341 Mist 16 1011 93 10000 1.5 130 11:18 13.10.2019
6342 Mist 16 1011 93 10000 1.5 130 11:18 13.10.2019
6343 Mist 16 1012 100 10000 1 0 10:41 13.10.2019
6344 Mist 16 1012 100 10000 1 0 10:22 13.10.2019
6345 Mist 16 1012 100 10000 1 0 10:22 13.10.2019
6346 Rain 17 1010 93 9000 2.6 130 09:41 13.10.2019
6347 Rain 17 1010 93 9000 2.6 130 09:21 13.10.2019
6348 Mist 16 1010 100 1500 1 0 08:57 13.10.2019
6349 Fog 16 1009 100 800 1.5 0 08:38 13.10.2019
6350 Fog 16 1009 100 800 1.5 0 08:19 13.10.2019
6351 Fog 17 1009 100 5000 1.5 0 07:45 13.10.2019
6352 Fog 17 1009 100 5000 1.5 0 07:45 13.10.2019
6353 Clear 17 1009 93 10000 2.1 140 06:58 13.10.2019
6354 Clear 17 1009 93 10000 2.1 140 06:31 13.10.2019
6355 Clear 17 1008 88 10000 3.1 170 05:34 13.10.2019
6356 Clear 17 1008 88 10000 3.1 170 05:34 13.10.2019
6357 Clear 18 1008 88 10000 2.1 180 04:46 13.10.2019
6358 Clear 18 1008 88 10000 2.6 190 03:39 13.10.2019
6359 Clear 18 1007 93 10000 2.1 160 02:35 13.10.2019
6360 Thunderstorm 19 1005 88 10000 1.5 120 01:51 13.10.2019
6361 Thunderstorm 19 1005 88 10000 1.5 120 01:22 13.10.2019
6362 Thunderstorm 19 1005 93 10000 1 0 00:44 13.10.2019
6363 Clear 19 1005 88 10000 1.5 100 00:20 13.10.2019
6364 Clear 19 1003 88 10000 5.1 70 23:54 12.10.2019
6365 Clear 19 1003 88 10000 5.1 70 23:54 12.10.2019
6366 Clear 19 1003 88 10000 5.1 70 23:36 12.10.2019
6367 Clear 20 1003 88 10000 5.1 70 23:36 12.10.2019
6368 Clear 20 1003 88 10000 5.1 70 23:18 12.10.2019
6369 Clear 19 1004 82 10000 6.2 70 22:54 12.10.2019
6370 Clear 19 1004 82 10000 6.2 70 22:36 12.10.2019
6371 Clear 19 1004 82 10000 6.2 70 22:18 12.10.2019
6372 Clear 19 1005 88 10000 4.1 70 21:41 12.10.2019
6373 Thunderstorm 19 1004 82 10000 6.7 100 21:23 12.10.2019
6374 Thunderstorm 18 1005 88 10000 7.2 70 20:56 12.10.2019
6375 Thunderstorm 18 1006 88 8000 5.7 120 20:37 12.10.2019
6376 Thunderstorm 18 1006 88 8000 5.7 120 20:19 12.10.2019
6377 Thunderstorm 18 1005 88 10000 6.2 80 19:36 12.10.2019
6378 Thunderstorm 18 1005 88 10000 6.2 80 19:18 12.10.2019
6379 Thunderstorm 18 1006 93 4500 7.7 90 18:44 12.10.2019
6380 Thunderstorm 18 1006 93 4500 7.7 90 18:26 12.10.2019
6381 Thunderstorm 18 1007 93 10000 5.1 60 17:46 12.10.2019
6382 Thunderstorm 17 1007 93 6000 7.7 90 17:24 12.10.2019
6383 Thunderstorm 17 1010 88 500 5.1 180 16:59 12.10.2019
6384 Thunderstorm 18 1005 88 10000 12.9 60 16:40 12.10.2019
6385 Thunderstorm 18 1005 88 10000 12.9 60 16:40 12.10.2019
6386 Thunderstorm 18 1005 88 10000 12.9 60 16:21 12.10.2019
6387 Thunderstorm 18 1006 93 10000 11.3 70 15:56 12.10.2019
6388 Thunderstorm 17 1006 93 10000 11.3 70 15:37 12.10.2019
6389 Thunderstorm 17 1006 93 10000 11.3 70 15:18 12.10.2019
6390 Thunderstorm 17 1006 88 10000 10.3 80 14:40 12.10.2019
6391 Thunderstorm 17 1007 100 3000 7.7 90 14:20 12.10.2019
6392 Thunderstorm 17 1007 100 6000 12.9 100 13:51 12.10.2019
6393 Thunderstorm 17 1008 93 3000 7.2 80 13:32 12.10.2019
6394 Thunderstorm 17 1005 93 8000 16.5 110 12:55 12.10.2019
6395 Thunderstorm 17 1007 93 1000 12.9 90 12:37 12.10.2019
6396 Thunderstorm 17 1009 88 1500 13.9 120 12:19 12.10.2019
6397 Thunderstorm 17 1009 93 7000 10.8 130 11:43 12.10.2019
6398 Thunderstorm 17 1009 93 7000 10.8 130 11:43 12.10.2019
6399 Thunderstorm 17 1009 100 8000 2.6 160 11:23 12.10.2019
6400 Thunderstorm 18 1008 88 10000 10.3 140 10:58 12.10.2019
6401 Thunderstorm 18 1008 93 2500 10.3 230 10:39 12.10.2019
6402 Thunderstorm 18 1008 93 2500 10.3 230 10:20 12.10.2019
6403 Thunderstorm 18 1010 100 1000 7.2 220 09:57 12.10.2019
6404 Thunderstorm 18 1006 93 10000 6.7 100 09:37 12.10.2019
6405 Thunderstorm 18 1006 93 10000 6.7 100 09:19 12.10.2019
6406 Thunderstorm 18 1005 100 3000 12.9 110 08:43 12.10.2019
6407 Thunderstorm 18 1006 93 10000 9.3 110 08:23 12.10.2019
6408 Thunderstorm 18 1006 93 3500 9.3 70 07:40 12.10.2019
6409 Thunderstorm 18 1006 93 3500 9.3 70 07:22 12.10.2019
6410 Thunderstorm 19 1009 82 8000 4.6 90 05:54 12.10.2019
6411 Rain 19 1009 82 8000 4.6 90 05:26 12.10.2019
6412 Rain 19 1009 82 10000 5.1 130 04:31 12.10.2019
6413 Thunderstorm 19 1009 82 6000 4.6 90 03:46 12.10.2019
6414 Thunderstorm 20 1009 82 10000 5.1 130 02:37 12.10.2019
6415 Clear 20 1009 88 10000 4.1 120 01:30 12.10.2019
6416 Clouds 20 1008 88 10000 4.6 110 00:44 12.10.2019
6417 Clouds 21 1008 88 10000 4.6 110 00:24 12.10.2019
6418 Mist 22 1008 73 10000 3.1 110 23:40 11.10.2019
6419 Mist 22 1008 73 10000 3.1 110 23:40 11.10.2019
6420 Mist 22 1008 73 10000 3.1 110 23:21 11.10.2019
6421 Rain 23 1008 83 10000 1 0 22:56 11.10.2019
6422 Rain 23 1008 83 10000 1 0 22:37 11.10.2019
6423 Rain 23 1008 83 10000 1 0 22:18 11.10.2019
6424 Clear 23 1007 83 10000 2.6 60 21:40 11.10.2019
6425 Rain 23 1007 83 10000 2.6 60 21:21 11.10.2019
6426 Clear 23 1008 83 10000 2.1 40 20:46 11.10.2019
6427 Clear 22 1008 83 10000 2.1 40 20:27 11.10.2019
6428 Thunderstorm 21 1009 94 10000 1 50 19:59 11.10.2019
6429 Thunderstorm 21 1009 94 10000 1 50 19:39 11.10.2019
6430 Thunderstorm 21 1009 94 10000 1 50 19:18 11.10.2019
6431 Thunderstorm 21 1009 94 10000 1 50 19:18 11.10.2019
6432 Thunderstorm 19 1009 93 9000 2.1 340 18:59 11.10.2019
6433 Thunderstorm 19 1009 93 5000 3.1 0 18:38 11.10.2019
6434 Thunderstorm 19 1009 93 5000 3.1 0 18:19 11.10.2019
6435 Thunderstorm 19 1009 93 1500 1 0 17:59 11.10.2019
6436 Thunderstorm 19 1009 93 1500 1 0 17:59 11.10.2019
6437 Thunderstorm 19 1009 93 9000 1.5 0 17:38 11.10.2019
6438 Thunderstorm 19 1009 93 9000 1.5 0 17:19 11.10.2019
6439 Rain 19 1009 100 1500 3.6 20 16:58 11.10.2019
6440 Rain 19 1009 93 9000 3.1 50 16:39 11.10.2019
6441 Rain 19 1009 93 9000 3.1 50 16:19 11.10.2019
6442 Rain 19 1010 93 9000 3.6 330 15:42 11.10.2019
6443 Thunderstorm 19 1010 93 3000 3.1 340 15:21 11.10.2019
6444 Thunderstorm 19 1010 94 2000 2.6 230 14:59 11.10.2019
6445 Thunderstorm 19 1008 93 10000 5.7 50 14:39 11.10.2019
6446 Thunderstorm 19 1008 93 10000 5.7 50 14:20 11.10.2019
6447 Rain 18 1008 93 9000 6.2 60 13:45 11.10.2019
6448 Rain 18 1008 93 9000 6.2 60 13:45 11.10.2019
6449 Thunderstorm 19 1008 88 10000 4.1 100 13:25 11.10.2019
6450 Thunderstorm 19 1008 93 9000 1.5 30 12:57 11.10.2019
6451 Thunderstorm 19 1007 88 10000 5.1 90 12:38 11.10.2019
6452 Thunderstorm 19 1007 88 10000 5.1 90 12:20 11.10.2019
6453 Thunderstorm 18 1007 93 9000 4.6 130 11:58 11.10.2019
6454 Thunderstorm 18 1008 88 9000 2.6 150 11:38 11.10.2019
6455 Thunderstorm 18 1008 88 9000 2.6 150 11:20 11.10.2019
6456 Thunderstorm 18 1008 100 1500 3.1 260 10:54 11.10.2019
6457 -273 0 0 0 0 0 10:54 11.10.2019
6458 Thunderstorm 18 1008 93 6000 3.6 150 10:36 11.10.2019
6459 Thunderstorm 18 1008 93 6000 3.6 150 10:18 11.10.2019
6460 Thunderstorm 18 1007 93 5000 5.1 160 09:41 11.10.2019
6461 Thunderstorm 19 1008 93 1300 5.7 170 09:20 11.10.2019
6462 Thunderstorm 20 1002 73 8000 12.9 180 08:56 11.10.2019
6463 Thunderstorm 20 1002 73 9000 2.1 330 08:38 11.10.2019
6464 Thunderstorm 22 1002 73 9000 2.1 330 08:19 11.10.2019
6465 Thunderstorm 23 1002 57 8000 4.6 360 07:51 11.10.2019
6466 Clouds 23 1002 83 10000 2.6 330 07:33 11.10.2019
6467 Clear 23 1003 83 10000 1.5 330 06:49 11.10.2019
6468 Rain 24 1003 73 10000 5.1 350 06:24 11.10.2019
6469 Clear 24 1003 69 10000 6.2 360 05:41 11.10.2019
6470 Clear 24 1003 69 10000 6.2 360 05:23 11.10.2019
6471 Clear 23 1004 83 10000 3.1 320 04:38 11.10.2019
6472 Clear 24 1006 78 10000 3.1 30 02:47 11.10.2019
6473 Clear 24 1007 73 10000 3.1 50 00:52 11.10.2019
6474 Clear 25 1007 73 10000 3.1 50 00:30 11.10.2019
6475 Clear 25 1007 69 10000 4.1 100 23:48 10.10.2019
6476 Clear 25 1007 69 10000 4.1 100 23:23 10.10.2019
6477 Clouds 26 1007 65 10000 2.6 70 22:58 10.10.2019
6478 Clouds 26 1007 65 10000 2.6 70 22:39 10.10.2019
6479 Clouds 26 1007 65 10000 2.6 70 22:21 10.10.2019
6480 Clear 26 1008 61 10000 2.1 50 21:58 10.10.2019
6481 Clear 26 1008 61 10000 2.1 50 21:39 10.10.2019
6482 Clear 26 1008 61 10000 2.1 50 21:21 10.10.2019
6483 Rain 25 1009 64 8000 2.1 250 20:43 10.10.2019
6484 Rain 25 1009 64 8000 2.1 250 20:22 10.10.2019
6485 Rain 24 1010 73 8000 4.1 320 19:59 10.10.2019
6486 Rain 24 1010 73 8000 4.1 320 19:41 10.10.2019
6487 Rain 24 1009 69 10000 3.1 20 19:21 10.10.2019
6488 Rain 25 1010 64 9000 4.6 340 18:59 10.10.2019
6489 Clouds 25 1010 73 10000 2.1 50 18:39 10.10.2019
6490 Clouds 25 1010 73 10000 2.1 50 18:20 10.10.2019
6491 Rain 25 1011 65 9000 5.1 360 17:55 10.10.2019
6492 Rain 25 1011 65 9000 5.1 360 17:55 10.10.2019
6493 Clear 25 1011 73 10000 3.6 360 17:37 10.10.2019
6494 Clear 25 1011 73 10000 3.6 360 17:18 10.10.2019
6495 Clear 25 1011 54 10000 7.2 360 16:44 10.10.2019
6496 Clear 25 1011 54 10000 7.2 360 16:44 10.10.2019
6497 Clear 25 1011 57 10000 7.7 10 16:26 10.10.2019
6498 Clear 25 1011 64 10000 6.2 360 15:54 10.10.2019
6499 Clear 24 1011 64 10000 6.2 360 15:36 10.10.2019
6500 Clear 25 1011 64 10000 6.2 360 15:36 10.10.2019
6501 Clear 24 1011 64 10000 6.2 360 15:18 10.10.2019
6502 Clear 23 1012 73 10000 2.6 20 14:54 10.10.2019
6503 Clear 22 1012 73 10000 2.6 20 14:36 10.10.2019
6504 Thunderstorm 20 1012 82 10000 1 200 14:18 10.10.2019
6505 Thunderstorm 20 1012 82 10000 1 200 13:41 10.10.2019
6506 Thunderstorm 20 1012 82 10000 1 200 13:41 10.10.2019
6507 Thunderstorm 19 1012 82 10000 1 200 13:23 10.10.2019
6508 Thunderstorm 18 1012 88 9000 1.5 250 12:57 10.10.2019
6509 Thunderstorm 17 1012 88 9000 1.5 250 12:39 10.10.2019
6510 Thunderstorm 16 1012 100 10000 1.72 322.338 12:19 10.10.2019
6511 Thunderstorm 17 1011 88 3000 2.6 200 11:55 10.10.2019
6512 Thunderstorm 17 1011 88 8000 1.5 200 11:37 10.10.2019
6513 Thunderstorm 17 1011 88 8000 1.5 200 11:18 10.10.2019
6514 Clear 17 1010 82 10000 1.5 310 10:44 10.10.2019
6515 Clear 17 1010 82 10000 1.5 310 10:25 10.10.2019
6516 Clouds 17 1011 82 10000 2.6 310 09:56 10.10.2019
6517 Clouds 17 1011 82 10000 2.6 310 09:37 10.10.2019
6518 Thunderstorm 17 1011 82 10000 2.6 310 09:19 10.10.2019
6519 Thunderstorm 17 1011 88 10000 2.1 310 08:41 10.10.2019
6520 Thunderstorm 18 1011 88 9000 1 320 08:23 10.10.2019
6521 Thunderstorm 18 1011 82 9000 2.1 20 07:58 10.10.2019
6522 Clear 18 1011 82 10000 3.1 330 07:38 10.10.2019
6523 Clear 18 1011 82 10000 3.1 330 07:19 10.10.2019
6524 Clear 18 1012 82 10000 4.6 320 06:44 10.10.2019
6525 Thunderstorm 19 1012 82 10000 3.6 320 05:57 10.10.2019
6526 Thunderstorm 18 1012 82 10000 3.6 320 05:22 10.10.2019
6527 Thunderstorm 18 1012 82 10000 3.6 320 05:22 10.10.2019
6528 Clear 19 1012 77 10000 4.6 320 04:36 10.10.2019
6529 Thunderstorm 20 1011 77 10000 4.6 340 02:49 10.10.2019
6530 Thunderstorm 20 1011 77 8000 4.6 310 01:39 10.10.2019
6531 Thunderstorm 20 1011 77 8000 4.6 310 01:39 10.10.2019
6532 Thunderstorm 20 1011 77 8000 4.6 310 01:21 10.10.2019
6533 Thunderstorm 20 1012 82 7000 1.5 260 00:41 10.10.2019
6534 Thunderstorm 20 1011 77 9000 2.6 20 23:57 09.10.2019
6535 Thunderstorm 20 1011 72 10000 3.6 90 23:36 09.10.2019
6536 Thunderstorm 20 1011 72 10000 3.6 90 23:18 09.10.2019
6537 Thunderstorm 21 1013 69 1000 5.1 310 22:41 09.10.2019
6538 Thunderstorm 23 1012 73 9000 3.1 350 22:22 09.10.2019
6539 Clear 24 1012 73 10000 4.1 20 21:58 09.10.2019
6540 Clouds 26 1012 50 10000 3.6 320 21:39 09.10.2019
6541 Clouds 26 1012 50 10000 3.6 320 21:39 09.10.2019
6542 Clouds 26 1012 50 10000 3.6 320 21:39 09.10.2019
6543 Clouds 26 1012 50 10000 3.6 320 21:19 09.10.2019
6544 Clear 27 1012 41 10000 5.1 330 20:55 09.10.2019
6545 Clouds 27 1013 47 10000 4.6 290 20:37 09.10.2019
6546 Clouds 27 1013 47 10000 4.6 290 20:18 09.10.2019
6547 Clouds 27 1014 44 10000 4.6 320 19:44 09.10.2019
6548 Clouds 27 1014 44 10000 4.6 320 19:23 09.10.2019
6549 Clear 27 1015 36 10000 5.7 340 18:40 09.10.2019
6550 Clear 26 1015 36 10000 5.7 340 18:21 09.10.2019
6551 Clear 25 1015 38 10000 5.1 340 17:59 09.10.2019
6552 Clear 25 1015 38 10000 5.1 340 17:40 09.10.2019
6553 Clear 25 1015 38 10000 5.1 340 17:40 09.10.2019
6554 Clear 25 1015 38 10000 5.1 340 17:22 09.10.2019
6555 Clear 25 1016 41 10000 5.7 340 16:57 09.10.2019
6556 Clear 24 1016 41 10000 5.7 340 16:39 09.10.2019
6557 Clear 24 1016 41 10000 5.7 340 16:21 09.10.2019
6558 Clear 24 1016 41 10000 5.7 340 16:21 09.10.2019
6559 Clear 23 1017 46 10000 4.1 340 15:57 09.10.2019
6560 Clear 23 1016 40 10000 4.6 340 15:38 09.10.2019
6561 Clear 22 1017 68 10000 3.1 10 15:19 09.10.2019
6562 Clear 20 1017 77 10000 3.6 350 14:46 09.10.2019
6563 Clear 19 1017 77 10000 3.6 350 14:20 09.10.2019
6564 Clear 18 1017 55 10000 1 320 14:00 09.10.2019
6565 Clear 18 1017 55 10000 1 320 13:38 09.10.2019
6566 Clear 18 1017 55 10000 1 320 13:38 09.10.2019
6567 Clear 17 1017 55 10000 1 320 13:18 09.10.2019
6568 Clear 14 1017 82 10000 3.6 330 12:44 09.10.2019
6569 Clear 12 1017 82 10000 3.6 330 12:23 09.10.2019
6570 Clear 13 1016 63 10000 2.1 80 11:58 09.10.2019
6571 Clear 12 1016 63 10000 2.1 80 11:40 09.10.2019
6572 Clear 12 1016 63 10000 2.1 80 11:20 09.10.2019
6573 Clear 11 1016 82 10000 1.75 348.529 10:58 09.10.2019
6574 Clear 12 1016 82 10000 1.75 348.529 10:40 09.10.2019
6575 Clear 12 1016 48 10000 1 140 10:40 09.10.2019
6576 Clear 12 1016 48 10000 1 140 10:18 09.10.2019
6577 Clear 13 1016 48 10000 1 230 09:43 09.10.2019
6578 Clear 13 1016 48 10000 1 230 09:20 09.10.2019
6579 Clear 13 1016 87 10000 0.49 340.096 08:57 09.10.2019
6580 Clear 14 1016 45 10000 2.6 230 08:37 09.10.2019
6581 Clear 14 1016 45 10000 2.6 230 08:18 09.10.2019
6582 Clear 15 1017 52 10000 2.1 250 07:46 09.10.2019
6583 Clear 15 1017 52 10000 2.1 250 07:24 09.10.2019
6584 Clear 15 1017 52 10000 2.1 250 07:24 09.10.2019
6585 Clear 15 1017 52 10000 2.1 250 07:24 09.10.2019
6586 Clear 16 1017 48 10000 2.6 260 06:54 09.10.2019
6587 Clear 16 1017 48 10000 2.6 260 06:25 09.10.2019
6588 Clear 16 1017 42 10000 2.6 260 05:47 09.10.2019
6589 Clear 16 1017 35 10000 2.1 290 04:41 09.10.2019
6590 Clear 18 1017 33 10000 2.1 280 03:24 09.10.2019
6591 Clear 20 1016 18 10000 1 240 01:48 09.10.2019
6592 Clear 20 1016 18 10000 1 240 01:22 09.10.2019
6593 Clear 20 1016 17 10000 2.1 250 00:58 09.10.2019
6594 Clear 21 1016 17 10000 2.1 250 00:40 09.10.2019
6595 Clear 22 1016 17 10000 2.1 250 00:21 09.10.2019
6596 Clear 24 1016 16 10000 3.1 260 23:57 08.10.2019
6597 Clear 25 1016 16 10000 3.1 260 23:36 08.10.2019
6598 Clear 25 1016 16 10000 3.1 260 23:18 08.10.2019
6599 Clear 25 1016 16 10000 3.1 250 22:39 08.10.2019
6600 Clear 25 1016 16 10000 3.1 250 22:20 08.10.2019
6601 Clear 25 1016 16 10000 3.1 250 22:20 08.10.2019
6602 Clear 26 1016 14 10000 3.6 260 21:57 08.10.2019
6603 Clear 26 1016 14 10000 3.6 260 21:39 08.10.2019
6604 Clear 26 1016 14 10000 3.6 260 21:19 08.10.2019
6605 Clear 26 1016 15 10000 3.6 260 20:56 08.10.2019
6606 Clear 26 1016 15 10000 3.6 260 20:37 08.10.2019
6607 Clear 26 1016 15 10000 3.6 260 20:19 08.10.2019
6608 Clear 26 1017 16 10000 4.1 250 19:57 08.10.2019
6609 Clear 25 1017 16 10000 4.1 250 19:38 08.10.2019
6610 Clear 25 1017 16 10000 4.1 250 19:20 08.10.2019
6611 Clear 25 1017 23 10000 6.2 280 18:46 08.10.2019
6612 Clear 25 1018 22 10000 4.6 270 18:28 08.10.2019
6613 Clear 24 1018 17 10000 2.1 290 17:59 08.10.2019
6614 Clear 24 1018 17 10000 2.1 290 17:40 08.10.2019
6615 Clear 24 1018 17 10000 2.1 290 17:40 08.10.2019
6616 Clear 24 1018 17 10000 2.1 290 17:20 08.10.2019
6617 Clear 23 1019 30 10000 4.6 290 16:57 08.10.2019
6618 Clear 23 1019 30 10000 4.6 290 16:38 08.10.2019
6619 Clear 23 1019 30 10000 4.6 290 16:20 08.10.2019
6620 Clear 21 1018 40 10000 3.1 350 15:40 08.10.2019
6621 Clear 20 1018 40 10000 3.1 350 15:21 08.10.2019
6622 Clear 19 1018 32 10000 1.5 290 14:57 08.10.2019
6623 Clear 19 1018 32 10000 1.5 290 14:38 08.10.2019
6624 Clear 18 1018 32 10000 1.5 290 14:20 08.10.2019
6625 Clear 16 1018 36 10000 1 0 13:56 08.10.2019
6626 Clear 16 1018 36 10000 1 0 13:37 08.10.2019
6627 Clear 15 1018 36 10000 1 0 13:18 08.10.2019
6628 Clear 14 1017 41 10000 1 0 12:41 08.10.2019
6629 Clear 13 1017 41 10000 1 0 12:21 08.10.2019
6630 Clear 13 1016 41 10000 1 300 11:59 08.10.2019
6631 Clear 12 1016 41 10000 1 300 11:40 08.10.2019
6632 Clear 12 1016 41 10000 1 300 11:21 08.10.2019
6633 Clear 12 1016 47 10000 1 0 10:54 08.10.2019
6634 Clear 12 1016 47 10000 1 0 10:54 08.10.2019
6635 Clear 12 1016 47 10000 1 0 10:36 08.10.2019
6636 Clear 12 1016 47 10000 1 0 10:18 08.10.2019
6637 Clear 13 1016 47 10000 1.5 230 09:40 08.10.2019
6638 Clear 13 1016 48 10000 1.5 230 09:22 08.10.2019
6639 Clear 13 1016 48 10000 2.1 220 08:45 08.10.2019
6640 Clear 13 1016 51 10000 2.1 220 08:25 08.10.2019
6641 Clouds 14 1016 67 6000 0.5 0 07:58 08.10.2019
6642 Clear 14 1016 29 10000 1.5 230 07:40 08.10.2019
6643 Clear 15 1016 36 10000 1 230 07:19 08.10.2019
6644 Clear 16 1016 36 10000 1 230 06:46 08.10.2019
6645 Clear 16 1016 36 10000 1 230 06:23 08.10.2019
6646 Clear 15 1015 34 10000 0.5 240 05:43 08.10.2019
6647 Clear 15 1015 34 10000 0.5 240 05:43 08.10.2019
6648 Clear 15 1015 34 10000 0.5 240 05:19 08.10.2019
6649 Clear 16 1015 49 10000 0.5 200 03:32 08.10.2019
6650 Clear 18 1014 41 10000 1.5 200 02:43 08.10.2019
6651 Clear 18 1014 41 10000 1.5 200 02:25 08.10.2019
6652 Clear 17 1014 26 10000 1.5 210 01:41 08.10.2019
6653 Clear 21 1013 25 10000 2.1 240 00:56 08.10.2019
6654 Clear 21 1013 25 10000 2.1 240 00:25 08.10.2019
6655 Clear 22 1013 22 10000 3.6 290 23:56 07.10.2019
6656 Clear 23 1013 22 10000 3.6 290 23:37 07.10.2019
6657 Clear 24 1013 27 10000 3.1 250 23:19 07.10.2019
6658 Clear 24 1013 27 10000 3.1 250 22:54 07.10.2019
6659 Clear 24 1013 27 10000 3.1 250 22:54 07.10.2019
6660 Clear 24 1013 27 10000 3.1 250 22:36 07.10.2019
6661 Clear 24 1013 27 10000 3.1 250 22:18 07.10.2019
6662 Clear 24 1012 31 10000 1.5 290 21:54 07.10.2019
6663 Clear 25 1012 31 10000 1.5 290 21:36 07.10.2019
6664 Clear 24 1013 31 10000 2.1 290 21:18 07.10.2019
6665 Clear 24 1012 31 10000 1.5 290 21:18 07.10.2019
6666 Clear 24 1013 31 10000 2.1 290 20:54 07.10.2019
6667 Clear 24 1013 31 10000 2.1 290 20:36 07.10.2019
6668 Clear 24 1013 31 10000 2.1 290 20:18 07.10.2019
6669 Clear 24 1014 35 10000 3.6 230 19:41 07.10.2019
6670 Clear 24 1014 35 10000 3.6 230 19:20 07.10.2019
6671 Cl